<?xml version="1.0" encoding="UTF-8" standalone="no" ?>
<gpx xmlns="http://www.topografix.com/GPX/1/1" xmlns:xsi="http://www.w3.org/2001/XMLSchema-instance" xsi:schemaLocation="http://www.topografix.com/GPX/1/1 http://www.topografix.com/GPX/1/1/gpx.xsd" version="1.1" creator="VisuGPX - https://www.visugpx.com">
  <metadata>
    <name>2017 CAUSSWATTS</name>
  </metadata>
  <trk>
    <name><![CDATA[causwatts 03-chabriA-res-buti...]]></name>
    <trkseg>
      <trkpt lat="44.36357" lon="3.6479">
        <ele>761</ele>
        <time>2017-02-27T14:41:38Z</time>
      </trkpt>
      <trkpt lat="44.36361" lon="3.64782">
        <ele>762</ele>
        <time>2017-02-27T14:43:38Z</time>
      </trkpt>
      <trkpt lat="44.36365" lon="3.64774">
        <ele>763</ele>
        <time>2017-02-27T14:45:38Z</time>
      </trkpt>
      <trkpt lat="44.36366" lon="3.64772">
        <ele>763</ele>
        <time>2017-02-27T14:47:38Z</time>
      </trkpt>
      <trkpt lat="44.36367" lon="3.64771">
        <ele>763</ele>
        <time>2017-02-27T14:49:38Z</time>
      </trkpt>
      <trkpt lat="44.36368" lon="3.64771">
        <ele>764</ele>
        <time>2017-02-27T14:51:38Z</time>
      </trkpt>
      <trkpt lat="44.3637" lon="3.6477">
        <ele>764</ele>
        <time>2017-02-27T14:53:38Z</time>
      </trkpt>
      <trkpt lat="44.36374" lon="3.64769">
        <ele>765</ele>
        <time>2017-02-27T14:55:38Z</time>
      </trkpt>
      <trkpt lat="44.3638" lon="3.64768">
        <ele>766</ele>
        <time>2017-02-27T14:57:38Z</time>
      </trkpt>
      <trkpt lat="44.36398" lon="3.64767">
        <ele>769</ele>
        <time>2017-02-27T14:59:38Z</time>
      </trkpt>
      <trkpt lat="44.36405" lon="3.64766">
        <ele>771</ele>
        <time>2017-02-27T15:01:38Z</time>
      </trkpt>
      <trkpt lat="44.36409" lon="3.64764">
        <ele>772</ele>
        <time>2017-02-27T15:03:38Z</time>
      </trkpt>
      <trkpt lat="44.36414" lon="3.64761">
        <ele>773</ele>
        <time>2017-02-27T15:05:38Z</time>
      </trkpt>
      <trkpt lat="44.36416" lon="3.64759">
        <ele>774</ele>
        <time>2017-02-27T15:07:38Z</time>
      </trkpt>
      <trkpt lat="44.36419" lon="3.64756">
        <ele>774</ele>
        <time>2017-02-27T15:09:38Z</time>
      </trkpt>
      <trkpt lat="44.36423" lon="3.64751">
        <ele>775</ele>
        <time>2017-02-27T15:11:38Z</time>
      </trkpt>
      <trkpt lat="44.36427" lon="3.64746">
        <ele>776</ele>
        <time>2017-02-27T15:13:38Z</time>
      </trkpt>
      <trkpt lat="44.3643" lon="3.64738">
        <ele>777</ele>
        <time>2017-02-27T15:15:38Z</time>
      </trkpt>
      <trkpt lat="44.36433" lon="3.64731">
        <ele>778</ele>
        <time>2017-02-27T15:17:38Z</time>
      </trkpt>
      <trkpt lat="44.36434" lon="3.64729">
        <ele>779</ele>
        <time>2017-02-27T15:19:38Z</time>
      </trkpt>
      <trkpt lat="44.36435" lon="3.64727">
        <ele>779</ele>
        <time>2017-02-27T15:21:38Z</time>
      </trkpt>
      <trkpt lat="44.36438" lon="3.64724">
        <ele>780</ele>
        <time>2017-02-27T15:23:38Z</time>
      </trkpt>
      <trkpt lat="44.36447" lon="3.64715">
        <ele>782</ele>
        <time>2017-02-27T15:25:38Z</time>
      </trkpt>
      <trkpt lat="44.36464" lon="3.64697">
        <ele>788</ele>
        <time>2017-02-27T15:27:38Z</time>
      </trkpt>
      <trkpt lat="44.36466" lon="3.64695">
        <ele>789</ele>
        <time>2017-02-27T15:29:38Z</time>
      </trkpt>
      <trkpt lat="44.36467" lon="3.64693">
        <ele>790</ele>
        <time>2017-02-27T15:31:38Z</time>
      </trkpt>
      <trkpt lat="44.36467" lon="3.64691">
        <ele>790</ele>
        <time>2017-02-27T15:33:38Z</time>
      </trkpt>
      <trkpt lat="44.36468" lon="3.64689">
        <ele>791</ele>
        <time>2017-02-27T15:35:38Z</time>
      </trkpt>
      <trkpt lat="44.36468" lon="3.64687">
        <ele>791</ele>
        <time>2017-02-27T15:37:38Z</time>
      </trkpt>
      <trkpt lat="44.36468" lon="3.64685">
        <ele>791</ele>
        <time>2017-02-27T15:39:38Z</time>
      </trkpt>
      <trkpt lat="44.36468" lon="3.64683">
        <ele>792</ele>
        <time>2017-02-27T15:41:38Z</time>
      </trkpt>
      <trkpt lat="44.36468" lon="3.64681">
        <ele>792</ele>
        <time>2017-02-27T15:43:38Z</time>
      </trkpt>
      <trkpt lat="44.36467" lon="3.64678">
        <ele>792</ele>
        <time>2017-02-27T15:45:38Z</time>
      </trkpt>
      <trkpt lat="44.36464" lon="3.64675">
        <ele>792</ele>
        <time>2017-02-27T15:47:38Z</time>
      </trkpt>
      <trkpt lat="44.36458" lon="3.64669">
        <ele>792</ele>
        <time>2017-02-27T15:49:38Z</time>
      </trkpt>
      <trkpt lat="44.36455" lon="3.64667">
        <ele>792</ele>
        <time>2017-02-27T15:51:38Z</time>
      </trkpt>
      <trkpt lat="44.36453" lon="3.64666">
        <ele>791</ele>
        <time>2017-02-27T15:53:38Z</time>
      </trkpt>
      <trkpt lat="44.36452" lon="3.64664">
        <ele>791</ele>
        <time>2017-02-27T15:55:38Z</time>
      </trkpt>
      <trkpt lat="44.36452" lon="3.64662">
        <ele>792</ele>
        <time>2017-02-27T15:57:38Z</time>
      </trkpt>
      <trkpt lat="44.36452" lon="3.6466">
        <ele>792</ele>
        <time>2017-02-27T15:59:38Z</time>
      </trkpt>
      <trkpt lat="44.36452" lon="3.64658">
        <ele>793</ele>
        <time>2017-02-27T16:01:38Z</time>
      </trkpt>
      <trkpt lat="44.36452" lon="3.64656">
        <ele>793</ele>
        <time>2017-02-27T16:03:38Z</time>
      </trkpt>
      <trkpt lat="44.36453" lon="3.64655">
        <ele>794</ele>
        <time>2017-02-27T16:05:38Z</time>
      </trkpt>
      <trkpt lat="44.36454" lon="3.64654">
        <ele>794</ele>
        <time>2017-02-27T16:07:38Z</time>
      </trkpt>
      <trkpt lat="44.36455" lon="3.64653">
        <ele>794</ele>
        <time>2017-02-27T16:09:38Z</time>
      </trkpt>
      <trkpt lat="44.36457" lon="3.64652">
        <ele>795</ele>
        <time>2017-02-27T16:11:38Z</time>
      </trkpt>
      <trkpt lat="44.3646" lon="3.64651">
        <ele>796</ele>
        <time>2017-02-27T16:13:38Z</time>
      </trkpt>
      <trkpt lat="44.36461" lon="3.64651">
        <ele>797</ele>
        <time>2017-02-27T16:15:38Z</time>
      </trkpt>
      <trkpt lat="44.36465" lon="3.64651">
        <ele>798</ele>
        <time>2017-02-27T16:17:38Z</time>
      </trkpt>
      <trkpt lat="44.36469" lon="3.64652">
        <ele>798</ele>
        <time>2017-02-27T16:19:38Z</time>
      </trkpt>
      <trkpt lat="44.36493" lon="3.6466">
        <ele>803</ele>
        <time>2017-02-27T16:21:38Z</time>
      </trkpt>
      <trkpt lat="44.36497" lon="3.64661">
        <ele>804</ele>
        <time>2017-02-27T16:23:38Z</time>
      </trkpt>
      <trkpt lat="44.36502" lon="3.64661">
        <ele>805</ele>
        <time>2017-02-27T16:25:38Z</time>
      </trkpt>
      <trkpt lat="44.36507" lon="3.64661">
        <ele>805</ele>
        <time>2017-02-27T16:27:38Z</time>
      </trkpt>
      <trkpt lat="44.36514" lon="3.6466">
        <ele>806</ele>
        <time>2017-02-27T16:29:38Z</time>
      </trkpt>
      <trkpt lat="44.36539" lon="3.64648">
        <ele>812</ele>
        <time>2017-02-27T16:31:38Z</time>
      </trkpt>
      <trkpt lat="44.36562" lon="3.64636">
        <ele>819</ele>
        <time>2017-02-27T16:33:38Z</time>
      </trkpt>
      <trkpt lat="44.36566" lon="3.64633">
        <ele>821</ele>
        <time>2017-02-27T16:35:38Z</time>
      </trkpt>
      <trkpt lat="44.36569" lon="3.6463">
        <ele>822</ele>
        <time>2017-02-27T16:37:38Z</time>
      </trkpt>
      <trkpt lat="44.36577" lon="3.64624">
        <ele>825</ele>
        <time>2017-02-27T16:39:38Z</time>
      </trkpt>
      <trkpt lat="44.3658" lon="3.64622">
        <ele>827</ele>
        <time>2017-02-27T16:41:38Z</time>
      </trkpt>
      <trkpt lat="44.36584" lon="3.64621">
        <ele>828</ele>
        <time>2017-02-27T16:43:38Z</time>
      </trkpt>
      <trkpt lat="44.36587" lon="3.64619">
        <ele>829</ele>
        <time>2017-02-27T16:45:38Z</time>
      </trkpt>
      <trkpt lat="44.36598" lon="3.64614">
        <ele>834</ele>
        <time>2017-02-27T16:47:38Z</time>
      </trkpt>
      <trkpt lat="44.36599" lon="3.64613">
        <ele>835</ele>
        <time>2017-02-27T16:49:38Z</time>
      </trkpt>
      <trkpt lat="44.366" lon="3.64611">
        <ele>836</ele>
        <time>2017-02-27T16:51:38Z</time>
      </trkpt>
      <trkpt lat="44.36599" lon="3.64608">
        <ele>836</ele>
        <time>2017-02-27T16:53:38Z</time>
      </trkpt>
      <trkpt lat="44.36599" lon="3.64606">
        <ele>837</ele>
        <time>2017-02-27T16:55:38Z</time>
      </trkpt>
      <trkpt lat="44.36598" lon="3.64605">
        <ele>837</ele>
        <time>2017-02-27T16:57:38Z</time>
      </trkpt>
      <trkpt lat="44.36595" lon="3.64604">
        <ele>837</ele>
        <time>2017-02-27T16:59:38Z</time>
      </trkpt>
      <trkpt lat="44.36587" lon="3.64604">
        <ele>835</ele>
        <time>2017-02-27T17:01:38Z</time>
      </trkpt>
      <trkpt lat="44.36582" lon="3.64603">
        <ele>834</ele>
        <time>2017-02-27T17:03:38Z</time>
      </trkpt>
      <trkpt lat="44.36578" lon="3.64602">
        <ele>833</ele>
        <time>2017-02-27T17:05:38Z</time>
      </trkpt>
      <trkpt lat="44.36573" lon="3.64601">
        <ele>833</ele>
        <time>2017-02-27T17:07:38Z</time>
      </trkpt>
      <trkpt lat="44.36566" lon="3.64598">
        <ele>833</ele>
        <time>2017-02-27T17:09:38Z</time>
      </trkpt>
      <trkpt lat="44.36532" lon="3.64584">
        <ele>830</ele>
        <time>2017-02-27T17:11:38Z</time>
      </trkpt>
      <trkpt lat="44.36527" lon="3.64582">
        <ele>830</ele>
        <time>2017-02-27T17:13:38Z</time>
      </trkpt>
      <trkpt lat="44.36524" lon="3.6458">
        <ele>830</ele>
        <time>2017-02-27T17:15:38Z</time>
      </trkpt>
      <trkpt lat="44.36522" lon="3.64578">
        <ele>830</ele>
        <time>2017-02-27T17:17:38Z</time>
      </trkpt>
      <trkpt lat="44.3652" lon="3.64575">
        <ele>830</ele>
        <time>2017-02-27T17:19:38Z</time>
      </trkpt>
      <trkpt lat="44.36519" lon="3.64571">
        <ele>831</ele>
        <time>2017-02-27T17:21:38Z</time>
      </trkpt>
      <trkpt lat="44.36519" lon="3.64566">
        <ele>833</ele>
        <time>2017-02-27T17:23:38Z</time>
      </trkpt>
      <trkpt lat="44.36519" lon="3.64555">
        <ele>836</ele>
        <time>2017-02-27T17:25:38Z</time>
      </trkpt>
      <trkpt lat="44.36518" lon="3.6455">
        <ele>837</ele>
        <time>2017-02-27T17:27:38Z</time>
      </trkpt>
      <trkpt lat="44.36518" lon="3.64546">
        <ele>838</ele>
        <time>2017-02-27T17:29:38Z</time>
      </trkpt>
      <trkpt lat="44.36517" lon="3.64541">
        <ele>839</ele>
        <time>2017-02-27T17:31:38Z</time>
      </trkpt>
      <trkpt lat="44.36513" lon="3.64523">
        <ele>843</ele>
        <time>2017-02-27T17:33:38Z</time>
      </trkpt>
      <trkpt lat="44.36512" lon="3.64516">
        <ele>845</ele>
        <time>2017-02-27T17:35:38Z</time>
      </trkpt>
      <trkpt lat="44.36511" lon="3.64511">
        <ele>846</ele>
        <time>2017-02-27T17:37:38Z</time>
      </trkpt>
      <trkpt lat="44.36511" lon="3.64497">
        <ele>850</ele>
        <time>2017-02-27T17:39:38Z</time>
      </trkpt>
      <trkpt lat="44.3651" lon="3.64492">
        <ele>852</ele>
        <time>2017-02-27T17:41:38Z</time>
      </trkpt>
      <trkpt lat="44.36501" lon="3.64461">
        <ele>858</ele>
        <time>2017-02-27T17:43:38Z</time>
      </trkpt>
      <trkpt lat="44.36496" lon="3.64447">
        <ele>861</ele>
        <time>2017-02-27T17:45:38Z</time>
      </trkpt>
      <trkpt lat="44.36495" lon="3.64443">
        <ele>862</ele>
        <time>2017-02-27T17:47:38Z</time>
      </trkpt>
      <trkpt lat="44.36488" lon="3.64434">
        <ele>863</ele>
        <time>2017-02-27T17:49:38Z</time>
      </trkpt>
      <trkpt lat="44.36487" lon="3.64432">
        <ele>863</ele>
        <time>2017-02-27T17:51:38Z</time>
      </trkpt>
      <trkpt lat="44.36486" lon="3.6443">
        <ele>863</ele>
        <time>2017-02-27T17:53:38Z</time>
      </trkpt>
      <trkpt lat="44.36486" lon="3.64428">
        <ele>864</ele>
        <time>2017-02-27T17:55:38Z</time>
      </trkpt>
      <trkpt lat="44.36487" lon="3.64427">
        <ele>865</ele>
        <time>2017-02-27T17:57:38Z</time>
      </trkpt>
      <trkpt lat="44.36488" lon="3.64426">
        <ele>865</ele>
        <time>2017-02-27T17:59:38Z</time>
      </trkpt>
      <trkpt lat="44.36489" lon="3.64426">
        <ele>865</ele>
        <time>2017-02-27T18:01:38Z</time>
      </trkpt>
      <trkpt lat="44.36492" lon="3.64426">
        <ele>866</ele>
        <time>2017-02-27T18:03:38Z</time>
      </trkpt>
      <trkpt lat="44.36494" lon="3.64427">
        <ele>867</ele>
        <time>2017-02-27T18:05:38Z</time>
      </trkpt>
      <trkpt lat="44.36496" lon="3.64428">
        <ele>867</ele>
        <time>2017-02-27T18:07:38Z</time>
      </trkpt>
      <trkpt lat="44.365" lon="3.64431">
        <ele>868</ele>
        <time>2017-02-27T18:09:38Z</time>
      </trkpt>
      <trkpt lat="44.36517" lon="3.64443">
        <ele>870</ele>
        <time>2017-02-27T18:11:38Z</time>
      </trkpt>
      <trkpt lat="44.36524" lon="3.64448">
        <ele>870</ele>
        <time>2017-02-27T18:13:38Z</time>
      </trkpt>
      <trkpt lat="44.36532" lon="3.64455">
        <ele>871</ele>
        <time>2017-02-27T18:15:38Z</time>
      </trkpt>
      <trkpt lat="44.36547" lon="3.64467">
        <ele>872</ele>
        <time>2017-02-27T18:17:38Z</time>
      </trkpt>
      <trkpt lat="44.36554" lon="3.64472">
        <ele>872</ele>
        <time>2017-02-27T18:19:38Z</time>
      </trkpt>
      <trkpt lat="44.3656" lon="3.64476">
        <ele>873</ele>
        <time>2017-02-27T18:21:38Z</time>
      </trkpt>
      <trkpt lat="44.36564" lon="3.64478">
        <ele>873</ele>
        <time>2017-02-27T18:23:38Z</time>
      </trkpt>
      <trkpt lat="44.36567" lon="3.6448">
        <ele>873</ele>
        <time>2017-02-27T18:25:38Z</time>
      </trkpt>
      <trkpt lat="44.36571" lon="3.64481">
        <ele>874</ele>
        <time>2017-02-27T18:27:38Z</time>
      </trkpt>
      <trkpt lat="44.36579" lon="3.64481">
        <ele>877</ele>
        <time>2017-02-27T18:29:38Z</time>
      </trkpt>
      <trkpt lat="44.36591" lon="3.64479">
        <ele>880</ele>
        <time>2017-02-27T18:31:38Z</time>
      </trkpt>
      <trkpt lat="44.36617" lon="3.6447">
        <ele>887</ele>
        <time>2017-02-27T18:33:38Z</time>
      </trkpt>
      <trkpt lat="44.36625" lon="3.64468">
        <ele>889</ele>
        <time>2017-02-27T18:35:38Z</time>
      </trkpt>
      <trkpt lat="44.36632" lon="3.64466">
        <ele>891</ele>
        <time>2017-02-27T18:37:38Z</time>
      </trkpt>
      <trkpt lat="44.36639" lon="3.64465">
        <ele>893</ele>
        <time>2017-02-27T18:39:38Z</time>
      </trkpt>
      <trkpt lat="44.36669" lon="3.64463">
        <ele>899</ele>
        <time>2017-02-27T18:41:38Z</time>
      </trkpt>
      <trkpt lat="44.36678" lon="3.64461">
        <ele>903</ele>
        <time>2017-02-27T18:43:38Z</time>
      </trkpt>
      <trkpt lat="44.36681" lon="3.6446">
        <ele>904</ele>
        <time>2017-02-27T18:45:38Z</time>
      </trkpt>
      <trkpt lat="44.36685" lon="3.64458">
        <ele>907</ele>
        <time>2017-02-27T18:47:38Z</time>
      </trkpt>
      <trkpt lat="44.36686" lon="3.64456">
        <ele>908</ele>
        <time>2017-02-27T18:49:38Z</time>
      </trkpt>
      <trkpt lat="44.36687" lon="3.64455">
        <ele>908</ele>
        <time>2017-02-27T18:51:38Z</time>
      </trkpt>
      <trkpt lat="44.36688" lon="3.64453">
        <ele>909</ele>
        <time>2017-02-27T18:53:38Z</time>
      </trkpt>
      <trkpt lat="44.36688" lon="3.64451">
        <ele>910</ele>
        <time>2017-02-27T18:55:38Z</time>
      </trkpt>
      <trkpt lat="44.36687" lon="3.6445">
        <ele>910</ele>
        <time>2017-02-27T18:57:38Z</time>
      </trkpt>
      <trkpt lat="44.36686" lon="3.64449">
        <ele>910</ele>
        <time>2017-02-27T18:59:38Z</time>
      </trkpt>
      <trkpt lat="44.36683" lon="3.64449">
        <ele>909</ele>
        <time>2017-02-27T19:01:38Z</time>
      </trkpt>
      <trkpt lat="44.36677" lon="3.64448">
        <ele>907</ele>
        <time>2017-02-27T19:03:38Z</time>
      </trkpt>
      <trkpt lat="44.36674" lon="3.64446">
        <ele>907</ele>
        <time>2017-02-27T19:05:38Z</time>
      </trkpt>
      <trkpt lat="44.36671" lon="3.64445">
        <ele>906</ele>
        <time>2017-02-27T19:07:38Z</time>
      </trkpt>
      <trkpt lat="44.36666" lon="3.64441">
        <ele>906</ele>
        <time>2017-02-27T19:09:38Z</time>
      </trkpt>
      <trkpt lat="44.36654" lon="3.64429">
        <ele>908</ele>
        <time>2017-02-27T19:11:38Z</time>
      </trkpt>
      <trkpt lat="44.36634" lon="3.64405">
        <ele>914</ele>
        <time>2017-02-27T19:13:38Z</time>
      </trkpt>
      <trkpt lat="44.36596" lon="3.64357">
        <ele>922</ele>
        <time>2017-02-27T19:15:38Z</time>
      </trkpt>
      <trkpt lat="44.36592" lon="3.64352">
        <ele>922</ele>
        <time>2017-02-27T19:17:38Z</time>
      </trkpt>
      <trkpt lat="44.36588" lon="3.64346">
        <ele>923</ele>
        <time>2017-02-27T19:19:38Z</time>
      </trkpt>
      <trkpt lat="44.36578" lon="3.64327">
        <ele>926</ele>
        <time>2017-02-27T19:21:38Z</time>
      </trkpt>
      <trkpt lat="44.3655" lon="3.64278">
        <ele>933</ele>
        <time>2017-02-27T19:23:38Z</time>
      </trkpt>
      <trkpt lat="44.36535" lon="3.64251">
        <ele>937</ele>
        <time>2017-02-27T19:25:38Z</time>
      </trkpt>
      <trkpt lat="44.36534" lon="3.64249">
        <ele>937</ele>
        <time>2017-02-27T19:27:38Z</time>
      </trkpt>
      <trkpt lat="44.36534" lon="3.64247">
        <ele>936</ele>
        <time>2017-02-27T19:29:38Z</time>
      </trkpt>
      <trkpt lat="44.36534" lon="3.64245">
        <ele>936</ele>
        <time>2017-02-27T19:31:38Z</time>
      </trkpt>
      <trkpt lat="44.36534" lon="3.64243">
        <ele>936</ele>
        <time>2017-02-27T19:33:38Z</time>
      </trkpt>
      <trkpt lat="44.36536" lon="3.6424">
        <ele>937</ele>
        <time>2017-02-27T19:35:38Z</time>
      </trkpt>
      <trkpt lat="44.36538" lon="3.64239">
        <ele>937</ele>
        <time>2017-02-27T19:37:38Z</time>
      </trkpt>
      <trkpt lat="44.36541" lon="3.64239">
        <ele>938</ele>
        <time>2017-02-27T19:39:38Z</time>
      </trkpt>
      <trkpt lat="44.36543" lon="3.6424">
        <ele>939</ele>
        <time>2017-02-27T19:41:38Z</time>
      </trkpt>
      <trkpt lat="44.36544" lon="3.64241">
        <ele>939</ele>
        <time>2017-02-27T19:43:38Z</time>
      </trkpt>
      <trkpt lat="44.36552" lon="3.64249">
        <ele>942</ele>
        <time>2017-02-27T19:45:38Z</time>
      </trkpt>
      <trkpt lat="44.36559" lon="3.64255">
        <ele>943</ele>
        <time>2017-02-27T19:47:38Z</time>
      </trkpt>
      <trkpt lat="44.36563" lon="3.64257">
        <ele>943</ele>
        <time>2017-02-27T19:49:38Z</time>
      </trkpt>
      <trkpt lat="44.36567" lon="3.64259">
        <ele>944</ele>
        <time>2017-02-27T19:51:38Z</time>
      </trkpt>
      <trkpt lat="44.36588" lon="3.64264">
        <ele>949</ele>
        <time>2017-02-27T19:53:38Z</time>
      </trkpt>
      <trkpt lat="44.36595" lon="3.64266">
        <ele>950</ele>
        <time>2017-02-27T19:55:38Z</time>
      </trkpt>
      <trkpt lat="44.366" lon="3.64268">
        <ele>950</ele>
        <time>2017-02-27T19:57:38Z</time>
      </trkpt>
      <trkpt lat="44.36613" lon="3.64274">
        <ele>952</ele>
        <time>2017-02-27T19:59:38Z</time>
      </trkpt>
      <trkpt lat="44.36616" lon="3.64276">
        <ele>952</ele>
        <time>2017-02-27T20:01:38Z</time>
      </trkpt>
      <trkpt lat="44.36624" lon="3.64283">
        <ele>952</ele>
        <time>2017-02-27T20:03:38Z</time>
      </trkpt>
      <trkpt lat="44.36628" lon="3.64286">
        <ele>952</ele>
        <time>2017-02-27T20:05:38Z</time>
      </trkpt>
      <trkpt lat="44.36639" lon="3.6429">
        <ele>954</ele>
        <time>2017-02-27T20:07:38Z</time>
      </trkpt>
      <trkpt lat="44.36669" lon="3.64297">
        <ele>960</ele>
        <time>2017-02-27T20:09:38Z</time>
      </trkpt>
      <trkpt lat="44.36687" lon="3.64301">
        <ele>963</ele>
        <time>2017-02-27T20:11:38Z</time>
      </trkpt>
      <trkpt lat="44.36699" lon="3.64302">
        <ele>966</ele>
        <time>2017-02-27T20:13:38Z</time>
      </trkpt>
      <trkpt lat="44.36731" lon="3.64301">
        <ele>974</ele>
        <time>2017-02-27T20:15:38Z</time>
      </trkpt>
      <trkpt lat="44.36754" lon="3.64299">
        <ele>980</ele>
        <time>2017-02-27T20:17:38Z</time>
      </trkpt>
      <trkpt lat="44.36794" lon="3.64296">
        <ele>990</ele>
        <time>2017-02-27T20:19:38Z</time>
      </trkpt>
      <trkpt lat="44.36796" lon="3.64296">
        <ele>990</ele>
        <time>2017-02-27T20:21:38Z</time>
      </trkpt>
      <trkpt lat="44.36797" lon="3.64295">
        <ele>991</ele>
        <time>2017-02-27T20:23:38Z</time>
      </trkpt>
      <trkpt lat="44.368" lon="3.64292">
        <ele>992</ele>
        <time>2017-02-27T20:25:38Z</time>
      </trkpt>
      <trkpt lat="44.368" lon="3.64292">
        <ele>992</ele>
        <time>2017-02-27T20:27:38Z</time>
      </trkpt>
      <trkpt lat="44.36802" lon="3.64287">
        <ele>993</ele>
        <time>2017-02-27T20:29:38Z</time>
      </trkpt>
      <trkpt lat="44.36802" lon="3.64282">
        <ele>994</ele>
        <time>2017-02-27T20:31:38Z</time>
      </trkpt>
      <trkpt lat="44.36804" lon="3.6427">
        <ele>997</ele>
        <time>2017-02-27T20:33:38Z</time>
      </trkpt>
      <trkpt lat="44.36812" lon="3.64206">
        <ele>1002</ele>
        <time>2017-02-27T20:35:38Z</time>
      </trkpt>
      <trkpt lat="44.36814" lon="3.64191">
        <ele>1003</ele>
        <time>2017-02-27T20:37:38Z</time>
      </trkpt>
      <trkpt lat="44.36814" lon="3.64189">
        <ele>1003</ele>
        <time>2017-02-27T20:39:38Z</time>
      </trkpt>
      <trkpt lat="44.36815" lon="3.64186">
        <ele>1003</ele>
        <time>2017-02-27T20:41:38Z</time>
      </trkpt>
      <trkpt lat="44.36817" lon="3.64184">
        <ele>1004</ele>
        <time>2017-02-27T20:43:38Z</time>
      </trkpt>
      <trkpt lat="44.36822" lon="3.64179">
        <ele>1005</ele>
        <time>2017-02-27T20:45:38Z</time>
      </trkpt>
      <trkpt lat="44.36823" lon="3.64177">
        <ele>1005</ele>
        <time>2017-02-27T20:47:38Z</time>
      </trkpt>
      <trkpt lat="44.36824" lon="3.64175">
        <ele>1005</ele>
        <time>2017-02-27T20:49:38Z</time>
      </trkpt>
      <trkpt lat="44.36834" lon="3.64154">
        <ele>1007</ele>
        <time>2017-02-27T20:51:38Z</time>
      </trkpt>
      <trkpt lat="44.36852" lon="3.64122">
        <ele>1008</ele>
        <time>2017-02-27T20:53:38Z</time>
      </trkpt>
      <trkpt lat="44.36856" lon="3.64116">
        <ele>1009</ele>
        <time>2017-02-27T20:55:38Z</time>
      </trkpt>
      <trkpt lat="44.3686" lon="3.6411">
        <ele>1009</ele>
        <time>2017-02-27T20:57:38Z</time>
      </trkpt>
      <trkpt lat="44.36867" lon="3.64104">
        <ele>1010</ele>
        <time>2017-02-27T20:59:38Z</time>
      </trkpt>
      <trkpt lat="44.36874" lon="3.64098">
        <ele>1010</ele>
        <time>2017-02-27T21:01:38Z</time>
      </trkpt>
      <trkpt lat="44.36887" lon="3.64085">
        <ele>1011</ele>
        <time>2017-02-27T21:03:38Z</time>
      </trkpt>
      <trkpt lat="44.36902" lon="3.64054">
        <ele>1008</ele>
        <time>2017-02-27T21:05:38Z</time>
      </trkpt>
      <trkpt lat="44.36903" lon="3.64047">
        <ele>1007</ele>
        <time>2017-02-27T21:07:38Z</time>
      </trkpt>
      <trkpt lat="44.36903" lon="3.6404">
        <ele>1006</ele>
        <time>2017-02-27T21:09:38Z</time>
      </trkpt>
      <trkpt lat="44.36902" lon="3.6403">
        <ele>1005</ele>
        <time>2017-02-27T21:11:38Z</time>
      </trkpt>
      <trkpt lat="44.36893" lon="3.63977">
        <ele>997</ele>
        <time>2017-02-27T21:13:38Z</time>
      </trkpt>
      <trkpt lat="44.3689" lon="3.63963">
        <ele>995</ele>
        <time>2017-02-27T21:15:38Z</time>
      </trkpt>
      <trkpt lat="44.36888" lon="3.63956">
        <ele>994</ele>
        <time>2017-02-27T21:17:38Z</time>
      </trkpt>
      <trkpt lat="44.36877" lon="3.63934">
        <ele>992</ele>
        <time>2017-02-27T21:19:38Z</time>
      </trkpt>
      <trkpt lat="44.36863" lon="3.63908">
        <ele>991</ele>
        <time>2017-02-27T21:21:38Z</time>
      </trkpt>
      <trkpt lat="44.36863" lon="3.63908">
        <ele>991</ele>
        <time>2017-02-27T21:23:38Z</time>
      </trkpt>
      <trkpt lat="44.36868" lon="3.63912">
        <ele>990</ele>
        <time>2017-02-27T21:25:38Z</time>
      </trkpt>
      <trkpt lat="44.36872" lon="3.63915">
        <ele>990</ele>
        <time>2017-02-27T21:27:38Z</time>
      </trkpt>
      <trkpt lat="44.36874" lon="3.63917">
        <ele>990</ele>
        <time>2017-02-27T21:29:38Z</time>
      </trkpt>
      <trkpt lat="44.36875" lon="3.63919">
        <ele>990</ele>
        <time>2017-02-27T21:31:38Z</time>
      </trkpt>
      <trkpt lat="44.3695" lon="3.64039">
        <ele>1001</ele>
        <time>2017-02-27T21:33:38Z</time>
      </trkpt>
      <trkpt lat="44.36954" lon="3.64044">
        <ele>1001</ele>
        <time>2017-02-27T21:35:38Z</time>
      </trkpt>
      <trkpt lat="44.36956" lon="3.64047">
        <ele>1002</ele>
        <time>2017-02-27T21:37:38Z</time>
      </trkpt>
      <trkpt lat="44.36958" lon="3.6405">
        <ele>1002</ele>
        <time>2017-02-27T21:39:38Z</time>
      </trkpt>
      <trkpt lat="44.3696" lon="3.64051">
        <ele>1002</ele>
        <time>2017-02-27T21:41:38Z</time>
      </trkpt>
      <trkpt lat="44.36963" lon="3.64053">
        <ele>1002</ele>
        <time>2017-02-27T21:43:38Z</time>
      </trkpt>
      <trkpt lat="44.36979" lon="3.64061">
        <ele>1003</ele>
        <time>2017-02-27T21:45:38Z</time>
      </trkpt>
      <trkpt lat="44.37012" lon="3.64079">
        <ele>1006</ele>
        <time>2017-02-27T21:47:38Z</time>
      </trkpt>
      <trkpt lat="44.37074" lon="3.64115">
        <ele>1011</ele>
        <time>2017-02-27T21:49:38Z</time>
      </trkpt>
      <trkpt lat="44.37077" lon="3.64118">
        <ele>1012</ele>
        <time>2017-02-27T21:51:38Z</time>
      </trkpt>
      <trkpt lat="44.3708" lon="3.6412">
        <ele>1012</ele>
        <time>2017-02-27T21:53:38Z</time>
      </trkpt>
      <trkpt lat="44.37082" lon="3.64122">
        <ele>1013</ele>
        <time>2017-02-27T21:55:38Z</time>
      </trkpt>
      <trkpt lat="44.37085" lon="3.64125">
        <ele>1013</ele>
        <time>2017-02-27T21:57:38Z</time>
      </trkpt>
      <trkpt lat="44.3709" lon="3.64131">
        <ele>1014</ele>
        <time>2017-02-27T21:59:38Z</time>
      </trkpt>
      <trkpt lat="44.37117" lon="3.64161">
        <ele>1018</ele>
        <time>2017-02-27T22:01:38Z</time>
      </trkpt>
      <trkpt lat="44.37129" lon="3.64175">
        <ele>1019</ele>
        <time>2017-02-27T22:03:38Z</time>
      </trkpt>
      <trkpt lat="44.37139" lon="3.64186">
        <ele>1020</ele>
        <time>2017-02-27T22:05:38Z</time>
      </trkpt>
      <trkpt lat="44.37153" lon="3.64203">
        <ele>1021</ele>
        <time>2017-02-27T22:07:38Z</time>
      </trkpt>
      <trkpt lat="44.37168" lon="3.64219">
        <ele>1023</ele>
        <time>2017-02-27T22:09:38Z</time>
      </trkpt>
      <trkpt lat="44.37175" lon="3.64225">
        <ele>1024</ele>
        <time>2017-02-27T22:11:38Z</time>
      </trkpt>
      <trkpt lat="44.37187" lon="3.64235">
        <ele>1026</ele>
        <time>2017-02-27T22:13:38Z</time>
      </trkpt>
      <trkpt lat="44.37194" lon="3.6424">
        <ele>1027</ele>
        <time>2017-02-27T22:15:38Z</time>
      </trkpt>
      <trkpt lat="44.372" lon="3.64243">
        <ele>1027</ele>
        <time>2017-02-27T22:17:38Z</time>
      </trkpt>
      <trkpt lat="44.37204" lon="3.64245">
        <ele>1028</ele>
        <time>2017-02-27T22:19:38Z</time>
      </trkpt>
      <trkpt lat="44.37214" lon="3.64249">
        <ele>1028</ele>
        <time>2017-02-27T22:21:38Z</time>
      </trkpt>
      <trkpt lat="44.37224" lon="3.64251">
        <ele>1028</ele>
        <time>2017-02-27T22:23:38Z</time>
      </trkpt>
      <trkpt lat="44.37234" lon="3.64252">
        <ele>1028</ele>
        <time>2017-02-27T22:25:38Z</time>
      </trkpt>
      <trkpt lat="44.37266" lon="3.64257">
        <ele>1028</ele>
        <time>2017-02-27T22:27:38Z</time>
      </trkpt>
      <trkpt lat="44.37275" lon="3.64258">
        <ele>1028</ele>
        <time>2017-02-27T22:29:38Z</time>
      </trkpt>
      <trkpt lat="44.37287" lon="3.64259">
        <ele>1028</ele>
        <time>2017-02-27T22:31:38Z</time>
      </trkpt>
      <trkpt lat="44.37307" lon="3.64261">
        <ele>1029</ele>
        <time>2017-02-27T22:33:38Z</time>
      </trkpt>
      <trkpt lat="44.37323" lon="3.64262">
        <ele>1029</ele>
        <time>2017-02-27T22:35:38Z</time>
      </trkpt>
      <trkpt lat="44.37338" lon="3.64263">
        <ele>1028</ele>
        <time>2017-02-27T22:37:38Z</time>
      </trkpt>
      <trkpt lat="44.37346" lon="3.64265">
        <ele>1027</ele>
        <time>2017-02-27T22:39:38Z</time>
      </trkpt>
      <trkpt lat="44.37352" lon="3.64268">
        <ele>1026</ele>
        <time>2017-02-27T22:41:38Z</time>
      </trkpt>
      <trkpt lat="44.37359" lon="3.6427">
        <ele>1025</ele>
        <time>2017-02-27T22:43:38Z</time>
      </trkpt>
      <trkpt lat="44.37365" lon="3.64274">
        <ele>1025</ele>
        <time>2017-02-27T22:45:38Z</time>
      </trkpt>
      <trkpt lat="44.3737" lon="3.64278">
        <ele>1025</ele>
        <time>2017-02-27T22:47:38Z</time>
      </trkpt>
      <trkpt lat="44.37392" lon="3.64299">
        <ele>1025</ele>
        <time>2017-02-27T22:49:38Z</time>
      </trkpt>
      <trkpt lat="44.37403" lon="3.6431">
        <ele>1026</ele>
        <time>2017-02-27T22:51:38Z</time>
      </trkpt>
      <trkpt lat="44.37415" lon="3.64321">
        <ele>1027</ele>
        <time>2017-02-27T22:53:38Z</time>
      </trkpt>
      <trkpt lat="44.37432" lon="3.64334">
        <ele>1026</ele>
        <time>2017-02-27T22:55:38Z</time>
      </trkpt>
      <trkpt lat="44.37439" lon="3.64339">
        <ele>1025</ele>
        <time>2017-02-27T22:57:38Z</time>
      </trkpt>
      <trkpt lat="44.37443" lon="3.64342">
        <ele>1025</ele>
        <time>2017-02-27T22:59:38Z</time>
      </trkpt>
      <trkpt lat="44.37446" lon="3.64344">
        <ele>1024</ele>
        <time>2017-02-27T23:01:38Z</time>
      </trkpt>
      <trkpt lat="44.37447" lon="3.64346">
        <ele>1024</ele>
        <time>2017-02-27T23:03:38Z</time>
      </trkpt>
      <trkpt lat="44.37448" lon="3.6435">
        <ele>1024</ele>
        <time>2017-02-27T23:05:38Z</time>
      </trkpt>
      <trkpt lat="44.37451" lon="3.64363">
        <ele>1025</ele>
        <time>2017-02-27T23:07:38Z</time>
      </trkpt>
      <trkpt lat="44.37455" lon="3.64377">
        <ele>1026</ele>
        <time>2017-02-27T23:09:38Z</time>
      </trkpt>
      <trkpt lat="44.3746" lon="3.6439">
        <ele>1027</ele>
        <time>2017-02-27T23:11:38Z</time>
      </trkpt>
      <trkpt lat="44.37463" lon="3.64399">
        <ele>1028</ele>
        <time>2017-02-27T23:13:38Z</time>
      </trkpt>
      <trkpt lat="44.37468" lon="3.64406">
        <ele>1028</ele>
        <time>2017-02-27T23:15:38Z</time>
      </trkpt>
      <trkpt lat="44.37473" lon="3.64413">
        <ele>1028</ele>
        <time>2017-02-27T23:17:38Z</time>
      </trkpt>
      <trkpt lat="44.37479" lon="3.64418">
        <ele>1028</ele>
        <time>2017-02-27T23:19:38Z</time>
      </trkpt>
      <trkpt lat="44.3749" lon="3.64425">
        <ele>1026</ele>
        <time>2017-02-27T23:21:38Z</time>
      </trkpt>
      <trkpt lat="44.37505" lon="3.64433">
        <ele>1025</ele>
        <time>2017-02-27T23:23:38Z</time>
      </trkpt>
      <trkpt lat="44.37521" lon="3.64437">
        <ele>1025</ele>
        <time>2017-02-27T23:25:38Z</time>
      </trkpt>
      <trkpt lat="44.37526" lon="3.64437">
        <ele>1024</ele>
        <time>2017-02-27T23:27:38Z</time>
      </trkpt>
      <trkpt lat="44.37531" lon="3.64437">
        <ele>1024</ele>
        <time>2017-02-27T23:29:38Z</time>
      </trkpt>
      <trkpt lat="44.3754" lon="3.64435">
        <ele>1024</ele>
        <time>2017-02-27T23:31:38Z</time>
      </trkpt>
      <trkpt lat="44.37554" lon="3.64432">
        <ele>1023</ele>
        <time>2017-02-27T23:33:38Z</time>
      </trkpt>
      <trkpt lat="44.3756" lon="3.6443">
        <ele>1023</ele>
        <time>2017-02-27T23:35:38Z</time>
      </trkpt>
      <trkpt lat="44.37566" lon="3.64429">
        <ele>1023</ele>
        <time>2017-02-27T23:37:38Z</time>
      </trkpt>
      <trkpt lat="44.37576" lon="3.6443">
        <ele>1022</ele>
        <time>2017-02-27T23:39:38Z</time>
      </trkpt>
      <trkpt lat="44.37606" lon="3.64431">
        <ele>1021</ele>
        <time>2017-02-27T23:41:38Z</time>
      </trkpt>
      <trkpt lat="44.37626" lon="3.64431">
        <ele>1021</ele>
        <time>2017-02-27T23:43:38Z</time>
      </trkpt>
      <trkpt lat="44.37639" lon="3.64432">
        <ele>1020</ele>
        <time>2017-02-27T23:45:38Z</time>
      </trkpt>
      <trkpt lat="44.37644" lon="3.64433">
        <ele>1020</ele>
        <time>2017-02-27T23:47:38Z</time>
      </trkpt>
      <trkpt lat="44.37648" lon="3.64434">
        <ele>1020</ele>
        <time>2017-02-27T23:49:38Z</time>
      </trkpt>
      <trkpt lat="44.37652" lon="3.64435">
        <ele>1020</ele>
        <time>2017-02-27T23:51:38Z</time>
      </trkpt>
      <trkpt lat="44.37656" lon="3.64437">
        <ele>1020</ele>
        <time>2017-02-27T23:53:38Z</time>
      </trkpt>
      <trkpt lat="44.3766" lon="3.64439">
        <ele>1020</ele>
        <time>2017-02-27T23:55:38Z</time>
      </trkpt>
      <trkpt lat="44.37663" lon="3.64442">
        <ele>1020</ele>
        <time>2017-02-27T23:57:38Z</time>
      </trkpt>
      <trkpt lat="44.37663" lon="3.64442">
        <ele>1020</ele>
        <time>2017-02-27T23:59:38Z</time>
      </trkpt>
      <trkpt lat="44.37669" lon="3.64447">
        <ele>1019</ele>
        <time>2017-02-28T00:01:38Z</time>
      </trkpt>
      <trkpt lat="44.37677" lon="3.64455">
        <ele>1019</ele>
        <time>2017-02-28T00:03:38Z</time>
      </trkpt>
      <trkpt lat="44.37688" lon="3.64466">
        <ele>1018</ele>
        <time>2017-02-28T00:05:38Z</time>
      </trkpt>
      <trkpt lat="44.377" lon="3.64475">
        <ele>1019</ele>
        <time>2017-02-28T00:07:38Z</time>
      </trkpt>
      <trkpt lat="44.37712" lon="3.64487">
        <ele>1020</ele>
        <time>2017-02-28T00:09:38Z</time>
      </trkpt>
      <trkpt lat="44.37726" lon="3.64495">
        <ele>1021</ele>
        <time>2017-02-28T00:11:38Z</time>
      </trkpt>
      <trkpt lat="44.37731" lon="3.64498">
        <ele>1022</ele>
        <time>2017-02-28T00:13:38Z</time>
      </trkpt>
      <trkpt lat="44.37737" lon="3.645">
        <ele>1022</ele>
        <time>2017-02-28T00:15:38Z</time>
      </trkpt>
      <trkpt lat="44.37743" lon="3.64501">
        <ele>1022</ele>
        <time>2017-02-28T00:17:38Z</time>
      </trkpt>
      <trkpt lat="44.37749" lon="3.64502">
        <ele>1023</ele>
        <time>2017-02-28T00:19:38Z</time>
      </trkpt>
      <trkpt lat="44.37755" lon="3.64504">
        <ele>1023</ele>
        <time>2017-02-28T00:21:38Z</time>
      </trkpt>
      <trkpt lat="44.37766" lon="3.64508">
        <ele>1024</ele>
        <time>2017-02-28T00:23:38Z</time>
      </trkpt>
      <trkpt lat="44.37778" lon="3.64513">
        <ele>1025</ele>
        <time>2017-02-28T00:25:38Z</time>
      </trkpt>
      <trkpt lat="44.37784" lon="3.64514">
        <ele>1025</ele>
        <time>2017-02-28T00:27:38Z</time>
      </trkpt>
      <trkpt lat="44.37789" lon="3.64515">
        <ele>1026</ele>
        <time>2017-02-28T00:29:38Z</time>
      </trkpt>
      <trkpt lat="44.37799" lon="3.64515">
        <ele>1027</ele>
        <time>2017-02-28T00:31:38Z</time>
      </trkpt>
      <trkpt lat="44.37813" lon="3.64512">
        <ele>1029</ele>
        <time>2017-02-28T00:33:38Z</time>
      </trkpt>
      <trkpt lat="44.37832" lon="3.64509">
        <ele>1032</ele>
        <time>2017-02-28T00:35:38Z</time>
      </trkpt>
      <trkpt lat="44.3785" lon="3.64506">
        <ele>1031</ele>
        <time>2017-02-28T00:37:38Z</time>
      </trkpt>
      <trkpt lat="44.37854" lon="3.64505">
        <ele>1030</ele>
        <time>2017-02-28T00:39:38Z</time>
      </trkpt>
      <trkpt lat="44.37858" lon="3.64506">
        <ele>1030</ele>
        <time>2017-02-28T00:41:38Z</time>
      </trkpt>
      <trkpt lat="44.37863" lon="3.64507">
        <ele>1030</ele>
        <time>2017-02-28T00:43:38Z</time>
      </trkpt>
      <trkpt lat="44.37867" lon="3.64508">
        <ele>1030</ele>
        <time>2017-02-28T00:45:38Z</time>
      </trkpt>
      <trkpt lat="44.37872" lon="3.6451">
        <ele>1030</ele>
        <time>2017-02-28T00:47:38Z</time>
      </trkpt>
      <trkpt lat="44.37875" lon="3.64513">
        <ele>1030</ele>
        <time>2017-02-28T00:49:38Z</time>
      </trkpt>
      <trkpt lat="44.37878" lon="3.64516">
        <ele>1030</ele>
        <time>2017-02-28T00:51:38Z</time>
      </trkpt>
      <trkpt lat="44.37881" lon="3.64519">
        <ele>1030</ele>
        <time>2017-02-28T00:53:38Z</time>
      </trkpt>
      <trkpt lat="44.37884" lon="3.64525">
        <ele>1031</ele>
        <time>2017-02-28T00:55:38Z</time>
      </trkpt>
      <trkpt lat="44.37893" lon="3.64545">
        <ele>1035</ele>
        <time>2017-02-28T00:57:38Z</time>
      </trkpt>
      <trkpt lat="44.37905" lon="3.64572">
        <ele>1041</ele>
        <time>2017-02-28T00:59:38Z</time>
      </trkpt>
      <trkpt lat="44.3791" lon="3.64586">
        <ele>1044</ele>
        <time>2017-02-28T01:01:38Z</time>
      </trkpt>
      <trkpt lat="44.37917" lon="3.64599">
        <ele>1044</ele>
        <time>2017-02-28T01:03:38Z</time>
      </trkpt>
      <trkpt lat="44.37928" lon="3.64616">
        <ele>1043</ele>
        <time>2017-02-28T01:05:38Z</time>
      </trkpt>
      <trkpt lat="44.37944" lon="3.64636">
        <ele>1043</ele>
        <time>2017-02-28T01:07:38Z</time>
      </trkpt>
      <trkpt lat="44.3795" lon="3.64644">
        <ele>1043</ele>
        <time>2017-02-28T01:09:38Z</time>
      </trkpt>
      <trkpt lat="44.37958" lon="3.64653">
        <ele>1044</ele>
        <time>2017-02-28T01:11:38Z</time>
      </trkpt>
      <trkpt lat="44.37972" lon="3.64671">
        <ele>1046</ele>
        <time>2017-02-28T01:13:38Z</time>
      </trkpt>
      <trkpt lat="44.37986" lon="3.6469">
        <ele>1048</ele>
        <time>2017-02-28T01:15:38Z</time>
      </trkpt>
      <trkpt lat="44.38" lon="3.64704">
        <ele>1050</ele>
        <time>2017-02-28T01:17:38Z</time>
      </trkpt>
      <trkpt lat="44.38029" lon="3.64727">
        <ele>1055</ele>
        <time>2017-02-28T01:19:38Z</time>
      </trkpt>
      <trkpt lat="44.38043" lon="3.64742">
        <ele>1058</ele>
        <time>2017-02-28T01:21:38Z</time>
      </trkpt>
      <trkpt lat="44.3805" lon="3.64746">
        <ele>1059</ele>
        <time>2017-02-28T01:23:38Z</time>
      </trkpt>
      <trkpt lat="44.38053" lon="3.64747">
        <ele>1060</ele>
        <time>2017-02-28T01:25:38Z</time>
      </trkpt>
      <trkpt lat="44.38069" lon="3.64751">
        <ele>1063</ele>
        <time>2017-02-28T01:27:38Z</time>
      </trkpt>
      <trkpt lat="44.38098" lon="3.64755">
        <ele>1065</ele>
        <time>2017-02-28T01:29:38Z</time>
      </trkpt>
      <trkpt lat="44.38117" lon="3.64759">
        <ele>1065</ele>
        <time>2017-02-28T01:31:38Z</time>
      </trkpt>
      <trkpt lat="44.3813" lon="3.64763">
        <ele>1065</ele>
        <time>2017-02-28T01:33:38Z</time>
      </trkpt>
      <trkpt lat="44.38146" lon="3.64768">
        <ele>1066</ele>
        <time>2017-02-28T01:35:38Z</time>
      </trkpt>
      <trkpt lat="44.3817" lon="3.64775">
        <ele>1067</ele>
        <time>2017-02-28T01:37:38Z</time>
      </trkpt>
      <trkpt lat="44.38182" lon="3.64781">
        <ele>1066</ele>
        <time>2017-02-28T01:39:38Z</time>
      </trkpt>
      <trkpt lat="44.38197" lon="3.6479">
        <ele>1066</ele>
        <time>2017-02-28T01:41:38Z</time>
      </trkpt>
      <trkpt lat="44.38211" lon="3.64801">
        <ele>1067</ele>
        <time>2017-02-28T01:43:38Z</time>
      </trkpt>
      <trkpt lat="44.38223" lon="3.64809">
        <ele>1068</ele>
        <time>2017-02-28T01:45:38Z</time>
      </trkpt>
      <trkpt lat="44.38226" lon="3.64812">
        <ele>1068</ele>
        <time>2017-02-28T01:47:38Z</time>
      </trkpt>
      <trkpt lat="44.38228" lon="3.64813">
        <ele>1068</ele>
        <time>2017-02-28T01:49:38Z</time>
      </trkpt>
      <trkpt lat="44.3823" lon="3.64816">
        <ele>1069</ele>
        <time>2017-02-28T01:51:38Z</time>
      </trkpt>
      <trkpt lat="44.38235" lon="3.64827">
        <ele>1071</ele>
        <time>2017-02-28T01:53:38Z</time>
      </trkpt>
      <trkpt lat="44.38247" lon="3.64848">
        <ele>1073</ele>
        <time>2017-02-28T01:55:38Z</time>
      </trkpt>
      <trkpt lat="44.38254" lon="3.64862">
        <ele>1074</ele>
        <time>2017-02-28T01:57:38Z</time>
      </trkpt>
      <trkpt lat="44.38263" lon="3.64882">
        <ele>1075</ele>
        <time>2017-02-28T01:59:38Z</time>
      </trkpt>
      <trkpt lat="44.3827" lon="3.64894">
        <ele>1076</ele>
        <time>2017-02-28T02:01:38Z</time>
      </trkpt>
      <trkpt lat="44.38273" lon="3.64897">
        <ele>1076</ele>
        <time>2017-02-28T02:03:38Z</time>
      </trkpt>
      <trkpt lat="44.38287" lon="3.64906">
        <ele>1078</ele>
        <time>2017-02-28T02:05:38Z</time>
      </trkpt>
      <trkpt lat="44.38313" lon="3.64922">
        <ele>1082</ele>
        <time>2017-02-28T02:07:38Z</time>
      </trkpt>
      <trkpt lat="44.38339" lon="3.6494">
        <ele>1087</ele>
        <time>2017-02-28T02:09:38Z</time>
      </trkpt>
      <trkpt lat="44.3837" lon="3.64964">
        <ele>1092</ele>
        <time>2017-02-28T02:11:38Z</time>
      </trkpt>
      <trkpt lat="44.38404" lon="3.64988">
        <ele>1102</ele>
        <time>2017-02-28T02:13:38Z</time>
      </trkpt>
      <trkpt lat="44.38434" lon="3.65005">
        <ele>1109</ele>
        <time>2017-02-28T02:15:38Z</time>
      </trkpt>
      <trkpt lat="44.38464" lon="3.65024">
        <ele>1114</ele>
        <time>2017-02-28T02:17:38Z</time>
      </trkpt>
      <trkpt lat="44.385" lon="3.6505">
        <ele>1123</ele>
        <time>2017-02-28T02:19:38Z</time>
      </trkpt>
      <trkpt lat="44.38532" lon="3.65072">
        <ele>1129</ele>
        <time>2017-02-28T02:21:38Z</time>
      </trkpt>
      <trkpt lat="44.38558" lon="3.65089">
        <ele>1134</ele>
        <time>2017-02-28T02:23:38Z</time>
      </trkpt>
      <trkpt lat="44.38593" lon="3.65106">
        <ele>1138</ele>
        <time>2017-02-28T02:25:38Z</time>
      </trkpt>
      <trkpt lat="44.38627" lon="3.6512">
        <ele>1144</ele>
        <time>2017-02-28T02:27:38Z</time>
      </trkpt>
      <trkpt lat="44.38665" lon="3.65137">
        <ele>1152</ele>
        <time>2017-02-28T02:29:38Z</time>
      </trkpt>
      <trkpt lat="44.38694" lon="3.65147">
        <ele>1157</ele>
        <time>2017-02-28T02:31:38Z</time>
      </trkpt>
      <trkpt lat="44.38728" lon="3.65156">
        <ele>1161</ele>
        <time>2017-02-28T02:33:38Z</time>
      </trkpt>
      <trkpt lat="44.38763" lon="3.65164">
        <ele>1166</ele>
        <time>2017-02-28T02:35:38Z</time>
      </trkpt>
      <trkpt lat="44.38787" lon="3.65168">
        <ele>1170</ele>
        <time>2017-02-28T02:37:38Z</time>
      </trkpt>
      <trkpt lat="44.38804" lon="3.65168">
        <ele>1172</ele>
        <time>2017-02-28T02:39:38Z</time>
      </trkpt>
      <trkpt lat="44.38819" lon="3.65167">
        <ele>1173</ele>
        <time>2017-02-28T02:41:38Z</time>
      </trkpt>
      <trkpt lat="44.38829" lon="3.65166">
        <ele>1174</ele>
        <time>2017-02-28T02:43:38Z</time>
      </trkpt>
      <trkpt lat="44.38852" lon="3.65164">
        <ele>1177</ele>
        <time>2017-02-28T02:45:38Z</time>
      </trkpt>
      <trkpt lat="44.38881" lon="3.65158">
        <ele>1180</ele>
        <time>2017-02-28T02:47:38Z</time>
      </trkpt>
      <trkpt lat="44.38906" lon="3.65151">
        <ele>1182</ele>
        <time>2017-02-28T02:49:38Z</time>
      </trkpt>
      <trkpt lat="44.38941" lon="3.65138">
        <ele>1185</ele>
        <time>2017-02-28T02:51:38Z</time>
      </trkpt>
      <trkpt lat="44.38974" lon="3.65127">
        <ele>1189</ele>
        <time>2017-02-28T02:53:38Z</time>
      </trkpt>
      <trkpt lat="44.38996" lon="3.65121">
        <ele>1192</ele>
        <time>2017-02-28T02:55:38Z</time>
      </trkpt>
      <trkpt lat="44.39002" lon="3.6512">
        <ele>1193</ele>
        <time>2017-02-28T02:57:38Z</time>
      </trkpt>
      <trkpt lat="44.39018" lon="3.65115">
        <ele>1194</ele>
        <time>2017-02-28T02:59:38Z</time>
      </trkpt>
      <trkpt lat="44.3903" lon="3.65112">
        <ele>1195</ele>
        <time>2017-02-28T03:01:38Z</time>
      </trkpt>
      <trkpt lat="44.39039" lon="3.65108">
        <ele>1195</ele>
        <time>2017-02-28T03:03:38Z</time>
      </trkpt>
      <trkpt lat="44.3905" lon="3.65101">
        <ele>1196</ele>
        <time>2017-02-28T03:05:38Z</time>
      </trkpt>
      <trkpt lat="44.39061" lon="3.65092">
        <ele>1197</ele>
        <time>2017-02-28T03:07:38Z</time>
      </trkpt>
      <trkpt lat="44.39071" lon="3.65086">
        <ele>1199</ele>
        <time>2017-02-28T03:09:38Z</time>
      </trkpt>
      <trkpt lat="44.39091" lon="3.65077">
        <ele>1200</ele>
        <time>2017-02-28T03:11:38Z</time>
      </trkpt>
      <trkpt lat="44.39119" lon="3.65068">
        <ele>1200</ele>
        <time>2017-02-28T03:13:38Z</time>
      </trkpt>
      <trkpt lat="44.39123" lon="3.65066">
        <ele>1200</ele>
        <time>2017-02-28T03:15:38Z</time>
      </trkpt>
      <trkpt lat="44.39126" lon="3.65064">
        <ele>1200</ele>
        <time>2017-02-28T03:17:38Z</time>
      </trkpt>
      <trkpt lat="44.3913" lon="3.6506">
        <ele>1200</ele>
        <time>2017-02-28T03:19:38Z</time>
      </trkpt>
      <trkpt lat="44.39146" lon="3.65043">
        <ele>1201</ele>
        <time>2017-02-28T03:21:38Z</time>
      </trkpt>
      <trkpt lat="44.39166" lon="3.65025">
        <ele>1202</ele>
        <time>2017-02-28T03:23:38Z</time>
      </trkpt>
      <trkpt lat="44.39193" lon="3.65003">
        <ele>1203</ele>
        <time>2017-02-28T03:25:38Z</time>
      </trkpt>
      <trkpt lat="44.39207" lon="3.64986">
        <ele>1203</ele>
        <time>2017-02-28T03:27:38Z</time>
      </trkpt>
      <trkpt lat="44.39219" lon="3.64973">
        <ele>1204</ele>
        <time>2017-02-28T03:29:38Z</time>
      </trkpt>
      <trkpt lat="44.39235" lon="3.64957">
        <ele>1204</ele>
        <time>2017-02-28T03:31:38Z</time>
      </trkpt>
      <trkpt lat="44.39243" lon="3.6495">
        <ele>1205</ele>
        <time>2017-02-28T03:33:38Z</time>
      </trkpt>
      <trkpt lat="44.39257" lon="3.64939">
        <ele>1204</ele>
        <time>2017-02-28T03:35:38Z</time>
      </trkpt>
      <trkpt lat="44.39274" lon="3.64926">
        <ele>1203</ele>
        <time>2017-02-28T03:37:38Z</time>
      </trkpt>
      <trkpt lat="44.393" lon="3.64907">
        <ele>1201</ele>
        <time>2017-02-28T03:39:38Z</time>
      </trkpt>
      <trkpt lat="44.39333" lon="3.64879">
        <ele>1199</ele>
        <time>2017-02-28T03:41:38Z</time>
      </trkpt>
      <trkpt lat="44.39353" lon="3.64865">
        <ele>1197</ele>
        <time>2017-02-28T03:43:38Z</time>
      </trkpt>
      <trkpt lat="44.3937" lon="3.64853">
        <ele>1196</ele>
        <time>2017-02-28T03:45:38Z</time>
      </trkpt>
      <trkpt lat="44.39378" lon="3.64849">
        <ele>1196</ele>
        <time>2017-02-28T03:47:38Z</time>
      </trkpt>
      <trkpt lat="44.39385" lon="3.64846">
        <ele>1195</ele>
        <time>2017-02-28T03:49:38Z</time>
      </trkpt>
      <trkpt lat="44.39389" lon="3.64845">
        <ele>1195</ele>
        <time>2017-02-28T03:51:38Z</time>
      </trkpt>
      <trkpt lat="44.39415" lon="3.64835">
        <ele>1195</ele>
        <time>2017-02-28T03:53:38Z</time>
      </trkpt>
      <trkpt lat="44.39436" lon="3.6483">
        <ele>1192</ele>
        <time>2017-02-28T03:55:38Z</time>
      </trkpt>
      <trkpt lat="44.39477" lon="3.64821">
        <ele>1187</ele>
        <time>2017-02-28T03:57:38Z</time>
      </trkpt>
      <trkpt lat="44.39523" lon="3.64811">
        <ele>1185</ele>
        <time>2017-02-28T03:59:38Z</time>
      </trkpt>
      <trkpt lat="44.39551" lon="3.64804">
        <ele>1185</ele>
        <time>2017-02-28T04:01:38Z</time>
      </trkpt>
      <trkpt lat="44.39561" lon="3.64801">
        <ele>1184</ele>
        <time>2017-02-28T04:03:38Z</time>
      </trkpt>
      <trkpt lat="44.39574" lon="3.64796">
        <ele>1184</ele>
        <time>2017-02-28T04:05:38Z</time>
      </trkpt>
      <trkpt lat="44.39585" lon="3.64793">
        <ele>1184</ele>
        <time>2017-02-28T04:07:38Z</time>
      </trkpt>
      <trkpt lat="44.39597" lon="3.64792">
        <ele>1184</ele>
        <time>2017-02-28T04:09:38Z</time>
      </trkpt>
      <trkpt lat="44.39608" lon="3.64792">
        <ele>1184</ele>
        <time>2017-02-28T04:11:38Z</time>
      </trkpt>
      <trkpt lat="44.39638" lon="3.64793">
        <ele>1183</ele>
        <time>2017-02-28T04:13:38Z</time>
      </trkpt>
      <trkpt lat="44.39645" lon="3.64794">
        <ele>1183</ele>
        <time>2017-02-28T04:15:38Z</time>
      </trkpt>
      <trkpt lat="44.39654" lon="3.64794">
        <ele>1183</ele>
        <time>2017-02-28T04:17:38Z</time>
      </trkpt>
      <trkpt lat="44.39662" lon="3.64795">
        <ele>1183</ele>
        <time>2017-02-28T04:19:38Z</time>
      </trkpt>
      <trkpt lat="44.39678" lon="3.64794">
        <ele>1183</ele>
        <time>2017-02-28T04:21:38Z</time>
      </trkpt>
      <trkpt lat="44.39705" lon="3.6479">
        <ele>1185</ele>
        <time>2017-02-28T04:23:38Z</time>
      </trkpt>
      <trkpt lat="44.39734" lon="3.64785">
        <ele>1187</ele>
        <time>2017-02-28T04:25:38Z</time>
      </trkpt>
      <trkpt lat="44.39756" lon="3.64779">
        <ele>1188</ele>
        <time>2017-02-28T04:27:38Z</time>
      </trkpt>
      <trkpt lat="44.39759" lon="3.64778">
        <ele>1188</ele>
        <time>2017-02-28T04:29:38Z</time>
      </trkpt>
      <trkpt lat="44.39762" lon="3.64777">
        <ele>1188</ele>
        <time>2017-02-28T04:31:38Z</time>
      </trkpt>
      <trkpt lat="44.39771" lon="3.64771">
        <ele>1189</ele>
        <time>2017-02-28T04:33:38Z</time>
      </trkpt>
      <trkpt lat="44.39784" lon="3.64762">
        <ele>1189</ele>
        <time>2017-02-28T04:35:38Z</time>
      </trkpt>
      <trkpt lat="44.39794" lon="3.64753">
        <ele>1190</ele>
        <time>2017-02-28T04:37:38Z</time>
      </trkpt>
      <trkpt lat="44.39797" lon="3.64752">
        <ele>1190</ele>
        <time>2017-02-28T04:39:38Z</time>
      </trkpt>
      <trkpt lat="44.39801" lon="3.6475">
        <ele>1190</ele>
        <time>2017-02-28T04:41:38Z</time>
      </trkpt>
      <trkpt lat="44.39811" lon="3.64745">
        <ele>1190</ele>
        <time>2017-02-28T04:43:38Z</time>
      </trkpt>
      <trkpt lat="44.39813" lon="3.64744">
        <ele>1190</ele>
        <time>2017-02-28T04:45:38Z</time>
      </trkpt>
      <trkpt lat="44.39818" lon="3.64739">
        <ele>1189</ele>
        <time>2017-02-28T04:47:38Z</time>
      </trkpt>
      <trkpt lat="44.39818" lon="3.64739">
        <ele>1189</ele>
        <time>2017-02-28T04:49:38Z</time>
      </trkpt>
      <trkpt lat="44.39821" lon="3.64735">
        <ele>1188</ele>
        <time>2017-02-28T04:51:38Z</time>
      </trkpt>
      <trkpt lat="44.39827" lon="3.6472">
        <ele>1186</ele>
        <time>2017-02-28T04:53:38Z</time>
      </trkpt>
      <trkpt lat="44.39831" lon="3.64712">
        <ele>1184</ele>
        <time>2017-02-28T04:55:38Z</time>
      </trkpt>
      <trkpt lat="44.39838" lon="3.64703">
        <ele>1182</ele>
        <time>2017-02-28T04:57:38Z</time>
      </trkpt>
      <trkpt lat="44.39839" lon="3.64702">
        <ele>1182</ele>
        <time>2017-02-28T04:59:38Z</time>
      </trkpt>
      <trkpt lat="44.39849" lon="3.6469">
        <ele>1180</ele>
        <time>2017-02-28T05:01:38Z</time>
      </trkpt>
      <trkpt lat="44.39849" lon="3.64689">
        <ele>1180</ele>
        <time>2017-02-28T05:03:38Z</time>
      </trkpt>
      <trkpt lat="44.3985" lon="3.64688">
        <ele>1180</ele>
        <time>2017-02-28T05:05:38Z</time>
      </trkpt>
      <trkpt lat="44.3985" lon="3.64687">
        <ele>1180</ele>
        <time>2017-02-28T05:07:38Z</time>
      </trkpt>
      <trkpt lat="44.39866" lon="3.64672">
        <ele>1178</ele>
        <time>2017-02-28T05:09:38Z</time>
      </trkpt>
      <trkpt lat="44.39882" lon="3.64656">
        <ele>1175</ele>
        <time>2017-02-28T05:11:38Z</time>
      </trkpt>
      <trkpt lat="44.39884" lon="3.64655">
        <ele>1175</ele>
        <time>2017-02-28T05:13:38Z</time>
      </trkpt>
      <trkpt lat="44.39885" lon="3.64654">
        <ele>1175</ele>
        <time>2017-02-28T05:15:38Z</time>
      </trkpt>
      <trkpt lat="44.39903" lon="3.64642">
        <ele>1173</ele>
        <time>2017-02-28T05:17:38Z</time>
      </trkpt>
      <trkpt lat="44.39928" lon="3.64628">
        <ele>1172</ele>
        <time>2017-02-28T05:19:38Z</time>
      </trkpt>
      <trkpt lat="44.39946" lon="3.64619">
        <ele>1171</ele>
        <time>2017-02-28T05:21:38Z</time>
      </trkpt>
      <trkpt lat="44.39949" lon="3.64618">
        <ele>1171</ele>
        <time>2017-02-28T05:23:38Z</time>
      </trkpt>
      <trkpt lat="44.39954" lon="3.64617">
        <ele>1172</ele>
        <time>2017-02-28T05:25:38Z</time>
      </trkpt>
      <trkpt lat="44.39957" lon="3.64617">
        <ele>1172</ele>
        <time>2017-02-28T05:27:38Z</time>
      </trkpt>
      <trkpt lat="44.3996" lon="3.64617">
        <ele>1172</ele>
        <time>2017-02-28T05:29:38Z</time>
      </trkpt>
      <trkpt lat="44.39963" lon="3.64617">
        <ele>1172</ele>
        <time>2017-02-28T05:31:38Z</time>
      </trkpt>
      <trkpt lat="44.39968" lon="3.64618">
        <ele>1173</ele>
        <time>2017-02-28T05:33:38Z</time>
      </trkpt>
      <trkpt lat="44.39976" lon="3.64619">
        <ele>1174</ele>
        <time>2017-02-28T05:35:38Z</time>
      </trkpt>
      <trkpt lat="44.40011" lon="3.64617">
        <ele>1176</ele>
        <time>2017-02-28T05:37:38Z</time>
      </trkpt>
      <trkpt lat="44.40068" lon="3.64616">
        <ele>1177</ele>
        <time>2017-02-28T05:39:38Z</time>
      </trkpt>
      <trkpt lat="44.40098" lon="3.64616">
        <ele>1177</ele>
        <time>2017-02-28T05:41:38Z</time>
      </trkpt>
      <trkpt lat="44.401" lon="3.64616">
        <ele>1176</ele>
        <time>2017-02-28T05:43:38Z</time>
      </trkpt>
      <trkpt lat="44.40104" lon="3.64616">
        <ele>1176</ele>
        <time>2017-02-28T05:45:38Z</time>
      </trkpt>
      <trkpt lat="44.40107" lon="3.64615">
        <ele>1176</ele>
        <time>2017-02-28T05:47:38Z</time>
      </trkpt>
      <trkpt lat="44.40129" lon="3.64605">
        <ele>1175</ele>
        <time>2017-02-28T05:49:38Z</time>
      </trkpt>
      <trkpt lat="44.40131" lon="3.64604">
        <ele>1175</ele>
        <time>2017-02-28T05:51:38Z</time>
      </trkpt>
      <trkpt lat="44.40148" lon="3.64598">
        <ele>1174</ele>
        <time>2017-02-28T05:53:38Z</time>
      </trkpt>
      <trkpt lat="44.4015" lon="3.64597">
        <ele>1174</ele>
        <time>2017-02-28T05:55:38Z</time>
      </trkpt>
      <trkpt lat="44.40152" lon="3.64597">
        <ele>1174</ele>
        <time>2017-02-28T05:57:38Z</time>
      </trkpt>
      <trkpt lat="44.40155" lon="3.64596">
        <ele>1174</ele>
        <time>2017-02-28T05:59:38Z</time>
      </trkpt>
      <trkpt lat="44.40161" lon="3.64596">
        <ele>1173</ele>
        <time>2017-02-28T06:01:38Z</time>
      </trkpt>
      <trkpt lat="44.40175" lon="3.64597">
        <ele>1173</ele>
        <time>2017-02-28T06:03:38Z</time>
      </trkpt>
      <trkpt lat="44.40187" lon="3.64599">
        <ele>1173</ele>
        <time>2017-02-28T06:05:38Z</time>
      </trkpt>
      <trkpt lat="44.40195" lon="3.64602">
        <ele>1173</ele>
        <time>2017-02-28T06:07:38Z</time>
      </trkpt>
      <trkpt lat="44.40198" lon="3.64604">
        <ele>1173</ele>
        <time>2017-02-28T06:09:38Z</time>
      </trkpt>
      <trkpt lat="44.40208" lon="3.6461">
        <ele>1173</ele>
        <time>2017-02-28T06:11:38Z</time>
      </trkpt>
      <trkpt lat="44.4021" lon="3.64611">
        <ele>1173</ele>
        <time>2017-02-28T06:13:38Z</time>
      </trkpt>
      <trkpt lat="44.40212" lon="3.64612">
        <ele>1173</ele>
        <time>2017-02-28T06:15:38Z</time>
      </trkpt>
      <trkpt lat="44.40224" lon="3.64616">
        <ele>1173</ele>
        <time>2017-02-28T06:17:38Z</time>
      </trkpt>
      <trkpt lat="44.40228" lon="3.64617">
        <ele>1173</ele>
        <time>2017-02-28T06:19:38Z</time>
      </trkpt>
      <trkpt lat="44.40231" lon="3.64617">
        <ele>1173</ele>
        <time>2017-02-28T06:21:38Z</time>
      </trkpt>
      <trkpt lat="44.40238" lon="3.64617">
        <ele>1173</ele>
        <time>2017-02-28T06:23:38Z</time>
      </trkpt>
      <trkpt lat="44.4024" lon="3.64616">
        <ele>1173</ele>
        <time>2017-02-28T06:25:38Z</time>
      </trkpt>
      <trkpt lat="44.40242" lon="3.64615">
        <ele>1173</ele>
        <time>2017-02-28T06:27:38Z</time>
      </trkpt>
      <trkpt lat="44.40248" lon="3.6461">
        <ele>1173</ele>
        <time>2017-02-28T06:29:38Z</time>
      </trkpt>
      <trkpt lat="44.40256" lon="3.64603">
        <ele>1173</ele>
        <time>2017-02-28T06:31:38Z</time>
      </trkpt>
      <trkpt lat="44.40266" lon="3.646">
        <ele>1174</ele>
        <time>2017-02-28T06:33:38Z</time>
      </trkpt>
      <trkpt lat="44.4027" lon="3.64598">
        <ele>1174</ele>
        <time>2017-02-28T06:35:38Z</time>
      </trkpt>
      <trkpt lat="44.4028" lon="3.64598">
        <ele>1175</ele>
        <time>2017-02-28T06:37:38Z</time>
      </trkpt>
      <trkpt lat="44.40288" lon="3.64598">
        <ele>1176</ele>
        <time>2017-02-28T06:39:38Z</time>
      </trkpt>
      <trkpt lat="44.40295" lon="3.64599">
        <ele>1177</ele>
        <time>2017-02-28T06:41:38Z</time>
      </trkpt>
      <trkpt lat="44.40298" lon="3.646">
        <ele>1177</ele>
        <time>2017-02-28T06:43:38Z</time>
      </trkpt>
      <trkpt lat="44.40302" lon="3.64601">
        <ele>1178</ele>
        <time>2017-02-28T06:45:38Z</time>
      </trkpt>
      <trkpt lat="44.40304" lon="3.64602">
        <ele>1178</ele>
        <time>2017-02-28T06:47:38Z</time>
      </trkpt>
      <trkpt lat="44.40316" lon="3.6461">
        <ele>1179</ele>
        <time>2017-02-28T06:49:38Z</time>
      </trkpt>
      <trkpt lat="44.40317" lon="3.6461">
        <ele>1179</ele>
        <time>2017-02-28T06:51:38Z</time>
      </trkpt>
      <trkpt lat="44.40332" lon="3.64618">
        <ele>1181</ele>
        <time>2017-02-28T06:53:38Z</time>
      </trkpt>
      <trkpt lat="44.40334" lon="3.64618">
        <ele>1181</ele>
        <time>2017-02-28T06:55:38Z</time>
      </trkpt>
      <trkpt lat="44.40348" lon="3.64623">
        <ele>1184</ele>
        <time>2017-02-28T06:57:38Z</time>
      </trkpt>
      <trkpt lat="44.40367" lon="3.64627">
        <ele>1188</ele>
        <time>2017-02-28T06:59:38Z</time>
      </trkpt>
      <trkpt lat="44.40385" lon="3.64631">
        <ele>1192</ele>
        <time>2017-02-28T07:01:38Z</time>
      </trkpt>
      <trkpt lat="44.40387" lon="3.64631">
        <ele>1192</ele>
        <time>2017-02-28T07:03:38Z</time>
      </trkpt>
      <trkpt lat="44.40407" lon="3.64639">
        <ele>1196</ele>
        <time>2017-02-28T07:05:38Z</time>
      </trkpt>
      <trkpt lat="44.40444" lon="3.64654">
        <ele>1201</ele>
        <time>2017-02-28T07:07:38Z</time>
      </trkpt>
      <trkpt lat="44.40469" lon="3.64663">
        <ele>1204</ele>
        <time>2017-02-28T07:09:38Z</time>
      </trkpt>
      <trkpt lat="44.40495" lon="3.64675">
        <ele>1207</ele>
        <time>2017-02-28T07:11:38Z</time>
      </trkpt>
      <trkpt lat="44.40501" lon="3.64677">
        <ele>1207</ele>
        <time>2017-02-28T07:13:38Z</time>
      </trkpt>
      <trkpt lat="44.40519" lon="3.64685">
        <ele>1207</ele>
        <time>2017-02-28T07:15:38Z</time>
      </trkpt>
      <trkpt lat="44.40564" lon="3.64697">
        <ele>1207</ele>
        <time>2017-02-28T07:17:38Z</time>
      </trkpt>
      <trkpt lat="44.406" lon="3.64707">
        <ele>1210</ele>
        <time>2017-02-28T07:19:38Z</time>
      </trkpt>
      <trkpt lat="44.40621" lon="3.64713">
        <ele>1211</ele>
        <time>2017-02-28T07:21:38Z</time>
      </trkpt>
      <trkpt lat="44.40639" lon="3.6472">
        <ele>1213</ele>
        <time>2017-02-28T07:23:38Z</time>
      </trkpt>
      <trkpt lat="44.40653" lon="3.64727">
        <ele>1215</ele>
        <time>2017-02-28T07:25:38Z</time>
      </trkpt>
      <trkpt lat="44.40693" lon="3.6475">
        <ele>1219</ele>
        <time>2017-02-28T07:27:38Z</time>
      </trkpt>
      <trkpt lat="44.40727" lon="3.64767">
        <ele>1220</ele>
        <time>2017-02-28T07:29:38Z</time>
      </trkpt>
      <trkpt lat="44.40729" lon="3.64768">
        <ele>1221</ele>
        <time>2017-02-28T07:31:38Z</time>
      </trkpt>
      <trkpt lat="44.40731" lon="3.6477">
        <ele>1221</ele>
        <time>2017-02-28T07:33:38Z</time>
      </trkpt>
      <trkpt lat="44.4074" lon="3.64778">
        <ele>1222</ele>
        <time>2017-02-28T07:35:38Z</time>
      </trkpt>
      <trkpt lat="44.40749" lon="3.64785">
        <ele>1222</ele>
        <time>2017-02-28T07:37:38Z</time>
      </trkpt>
      <trkpt lat="44.40753" lon="3.64785">
        <ele>1223</ele>
        <time>2017-02-28T07:39:38Z</time>
      </trkpt>
      <trkpt lat="44.40758" lon="3.64784">
        <ele>1223</ele>
        <time>2017-02-28T07:41:38Z</time>
      </trkpt>
      <trkpt lat="44.40777" lon="3.64781">
        <ele>1224</ele>
        <time>2017-02-28T07:43:38Z</time>
      </trkpt>
      <trkpt lat="44.40783" lon="3.6478">
        <ele>1225</ele>
        <time>2017-02-28T07:45:38Z</time>
      </trkpt>
      <trkpt lat="44.40793" lon="3.64781">
        <ele>1226</ele>
        <time>2017-02-28T07:47:38Z</time>
      </trkpt>
      <trkpt lat="44.40812" lon="3.64785">
        <ele>1228</ele>
        <time>2017-02-28T07:49:38Z</time>
      </trkpt>
      <trkpt lat="44.40823" lon="3.64787">
        <ele>1229</ele>
        <time>2017-02-28T07:51:38Z</time>
      </trkpt>
      <trkpt lat="44.4083" lon="3.64787">
        <ele>1230</ele>
        <time>2017-02-28T07:53:38Z</time>
      </trkpt>
      <trkpt lat="44.40843" lon="3.64787">
        <ele>1232</ele>
        <time>2017-02-28T07:55:38Z</time>
      </trkpt>
      <trkpt lat="44.40852" lon="3.64786">
        <ele>1233</ele>
        <time>2017-02-28T07:57:38Z</time>
      </trkpt>
      <trkpt lat="44.4086" lon="3.64785">
        <ele>1234</ele>
        <time>2017-02-28T07:59:38Z</time>
      </trkpt>
      <trkpt lat="44.40862" lon="3.64785">
        <ele>1234</ele>
        <time>2017-02-28T08:01:38Z</time>
      </trkpt>
      <trkpt lat="44.40873" lon="3.64781">
        <ele>1235</ele>
        <time>2017-02-28T08:03:38Z</time>
      </trkpt>
      <trkpt lat="44.40895" lon="3.64774">
        <ele>1236</ele>
        <time>2017-02-28T08:05:38Z</time>
      </trkpt>
      <trkpt lat="44.40904" lon="3.64771">
        <ele>1237</ele>
        <time>2017-02-28T08:07:38Z</time>
      </trkpt>
      <trkpt lat="44.40906" lon="3.6477">
        <ele>1237</ele>
        <time>2017-02-28T08:09:38Z</time>
      </trkpt>
      <trkpt lat="44.40913" lon="3.64768">
        <ele>1237</ele>
        <time>2017-02-28T08:11:38Z</time>
      </trkpt>
      <trkpt lat="44.40916" lon="3.64768">
        <ele>1238</ele>
        <time>2017-02-28T08:13:38Z</time>
      </trkpt>
      <trkpt lat="44.40918" lon="3.64769">
        <ele>1238</ele>
        <time>2017-02-28T08:15:38Z</time>
      </trkpt>
      <trkpt lat="44.40919" lon="3.64771">
        <ele>1239</ele>
        <time>2017-02-28T08:17:38Z</time>
      </trkpt>
      <trkpt lat="44.4092" lon="3.64773">
        <ele>1240</ele>
        <time>2017-02-28T08:19:38Z</time>
      </trkpt>
      <trkpt lat="44.40919" lon="3.64774">
        <ele>1240</ele>
        <time>2017-02-28T08:21:38Z</time>
      </trkpt>
      <trkpt lat="44.40918" lon="3.64776">
        <ele>1240</ele>
        <time>2017-02-28T08:23:38Z</time>
      </trkpt>
      <trkpt lat="44.40916" lon="3.64778">
        <ele>1240</ele>
        <time>2017-02-28T08:25:38Z</time>
      </trkpt>
      <trkpt lat="44.40909" lon="3.64784">
        <ele>1240</ele>
        <time>2017-02-28T08:27:38Z</time>
      </trkpt>
      <trkpt lat="44.40897" lon="3.64795">
        <ele>1241</ele>
        <time>2017-02-28T08:29:38Z</time>
      </trkpt>
      <trkpt lat="44.40883" lon="3.64809">
        <ele>1242</ele>
        <time>2017-02-28T08:31:38Z</time>
      </trkpt>
      <trkpt lat="44.40869" lon="3.64822">
        <ele>1242</ele>
        <time>2017-02-28T08:33:38Z</time>
      </trkpt>
      <trkpt lat="44.40866" lon="3.64826">
        <ele>1242</ele>
        <time>2017-02-28T08:35:38Z</time>
      </trkpt>
      <trkpt lat="44.40863" lon="3.64829">
        <ele>1242</ele>
        <time>2017-02-28T08:37:38Z</time>
      </trkpt>
      <trkpt lat="44.40859" lon="3.64836">
        <ele>1243</ele>
        <time>2017-02-28T08:39:38Z</time>
      </trkpt>
      <trkpt lat="44.40855" lon="3.64844">
        <ele>1243</ele>
        <time>2017-02-28T08:41:38Z</time>
      </trkpt>
      <trkpt lat="44.40846" lon="3.64869">
        <ele>1246</ele>
        <time>2017-02-28T08:43:38Z</time>
      </trkpt>
      <trkpt lat="44.40842" lon="3.64877">
        <ele>1246</ele>
        <time>2017-02-28T08:45:38Z</time>
      </trkpt>
      <trkpt lat="44.40842" lon="3.64879">
        <ele>1247</ele>
        <time>2017-02-28T08:47:38Z</time>
      </trkpt>
      <trkpt lat="44.40834" lon="3.64895">
        <ele>1248</ele>
        <time>2017-02-28T08:49:38Z</time>
      </trkpt>
      <trkpt lat="44.40826" lon="3.64915">
        <ele>1249</ele>
        <time>2017-02-28T08:51:38Z</time>
      </trkpt>
      <trkpt lat="44.40821" lon="3.64928">
        <ele>1250</ele>
        <time>2017-02-28T08:53:38Z</time>
      </trkpt>
      <trkpt lat="44.40819" lon="3.64932">
        <ele>1251</ele>
        <time>2017-02-28T08:55:38Z</time>
      </trkpt>
      <trkpt lat="44.4081" lon="3.64946">
        <ele>1251</ele>
        <time>2017-02-28T08:57:38Z</time>
      </trkpt>
      <trkpt lat="44.40805" lon="3.64955">
        <ele>1251</ele>
        <time>2017-02-28T08:59:38Z</time>
      </trkpt>
      <trkpt lat="44.40802" lon="3.64959">
        <ele>1251</ele>
        <time>2017-02-28T09:01:38Z</time>
      </trkpt>
      <trkpt lat="44.40799" lon="3.64969">
        <ele>1252</ele>
        <time>2017-02-28T09:03:38Z</time>
      </trkpt>
      <trkpt lat="44.40796" lon="3.64974">
        <ele>1252</ele>
        <time>2017-02-28T09:05:38Z</time>
      </trkpt>
      <trkpt lat="44.40789" lon="3.64983">
        <ele>1252</ele>
        <time>2017-02-28T09:07:38Z</time>
      </trkpt>
      <trkpt lat="44.40784" lon="3.64989">
        <ele>1252</ele>
        <time>2017-02-28T09:09:38Z</time>
      </trkpt>
      <trkpt lat="44.4078" lon="3.64995">
        <ele>1252</ele>
        <time>2017-02-28T09:11:38Z</time>
      </trkpt>
      <trkpt lat="44.40775" lon="3.65006">
        <ele>1253</ele>
        <time>2017-02-28T09:13:38Z</time>
      </trkpt>
      <trkpt lat="44.40769" lon="3.65019">
        <ele>1254</ele>
        <time>2017-02-28T09:15:38Z</time>
      </trkpt>
      <trkpt lat="44.40764" lon="3.65034">
        <ele>1255</ele>
        <time>2017-02-28T09:17:38Z</time>
      </trkpt>
      <trkpt lat="44.40762" lon="3.6504">
        <ele>1256</ele>
        <time>2017-02-28T09:19:38Z</time>
      </trkpt>
      <trkpt lat="44.40756" lon="3.65058">
        <ele>1257</ele>
        <time>2017-02-28T09:21:38Z</time>
      </trkpt>
      <trkpt lat="44.40748" lon="3.65074">
        <ele>1258</ele>
        <time>2017-02-28T09:23:38Z</time>
      </trkpt>
      <trkpt lat="44.40741" lon="3.65087">
        <ele>1258</ele>
        <time>2017-02-28T09:25:38Z</time>
      </trkpt>
      <trkpt lat="44.40735" lon="3.65099">
        <ele>1258</ele>
        <time>2017-02-28T09:27:38Z</time>
      </trkpt>
      <trkpt lat="44.40729" lon="3.65106">
        <ele>1258</ele>
        <time>2017-02-28T09:29:38Z</time>
      </trkpt>
      <trkpt lat="44.40722" lon="3.65114">
        <ele>1257</ele>
        <time>2017-02-28T09:31:38Z</time>
      </trkpt>
      <trkpt lat="44.4072" lon="3.65116">
        <ele>1257</ele>
        <time>2017-02-28T09:33:38Z</time>
      </trkpt>
      <trkpt lat="44.4072" lon="3.65118">
        <ele>1257</ele>
        <time>2017-02-28T09:35:38Z</time>
      </trkpt>
      <trkpt lat="44.4072" lon="3.6512">
        <ele>1257</ele>
        <time>2017-02-28T09:37:38Z</time>
      </trkpt>
      <trkpt lat="44.4072" lon="3.65122">
        <ele>1257</ele>
        <time>2017-02-28T09:39:38Z</time>
      </trkpt>
      <trkpt lat="44.40721" lon="3.65124">
        <ele>1258</ele>
        <time>2017-02-28T09:41:38Z</time>
      </trkpt>
      <trkpt lat="44.40722" lon="3.65127">
        <ele>1259</ele>
        <time>2017-02-28T09:43:38Z</time>
      </trkpt>
      <trkpt lat="44.40724" lon="3.65128">
        <ele>1259</ele>
        <time>2017-02-28T09:45:38Z</time>
      </trkpt>
      <trkpt lat="44.40725" lon="3.65129">
        <ele>1260</ele>
        <time>2017-02-28T09:47:38Z</time>
      </trkpt>
      <trkpt lat="44.40727" lon="3.65129">
        <ele>1260</ele>
        <time>2017-02-28T09:49:38Z</time>
      </trkpt>
      <trkpt lat="44.40728" lon="3.65128">
        <ele>1260</ele>
        <time>2017-02-28T09:51:38Z</time>
      </trkpt>
      <trkpt lat="44.40731" lon="3.65125">
        <ele>1261</ele>
        <time>2017-02-28T09:53:38Z</time>
      </trkpt>
      <trkpt lat="44.40737" lon="3.65119">
        <ele>1261</ele>
        <time>2017-02-28T09:55:38Z</time>
      </trkpt>
      <trkpt lat="44.40748" lon="3.651">
        <ele>1262</ele>
        <time>2017-02-28T09:57:38Z</time>
      </trkpt>
      <trkpt lat="44.40758" lon="3.65088">
        <ele>1262</ele>
        <time>2017-02-28T09:59:38Z</time>
      </trkpt>
      <trkpt lat="44.40769" lon="3.65075">
        <ele>1262</ele>
        <time>2017-02-28T10:01:38Z</time>
      </trkpt>
      <trkpt lat="44.40784" lon="3.65059">
        <ele>1263</ele>
        <time>2017-02-28T10:03:38Z</time>
      </trkpt>
      <trkpt lat="44.40797" lon="3.65045">
        <ele>1263</ele>
        <time>2017-02-28T10:05:38Z</time>
      </trkpt>
      <trkpt lat="44.40804" lon="3.65038">
        <ele>1264</ele>
        <time>2017-02-28T10:07:38Z</time>
      </trkpt>
      <trkpt lat="44.40806" lon="3.65036">
        <ele>1264</ele>
        <time>2017-02-28T10:09:38Z</time>
      </trkpt>
      <trkpt lat="44.4081" lon="3.65033">
        <ele>1264</ele>
        <time>2017-02-28T10:11:38Z</time>
      </trkpt>
      <trkpt lat="44.40817" lon="3.65029">
        <ele>1265</ele>
        <time>2017-02-28T10:13:38Z</time>
      </trkpt>
      <trkpt lat="44.4082" lon="3.65028">
        <ele>1265</ele>
        <time>2017-02-28T10:15:38Z</time>
      </trkpt>
      <trkpt lat="44.40825" lon="3.65025">
        <ele>1266</ele>
        <time>2017-02-28T10:17:38Z</time>
      </trkpt>
      <trkpt lat="44.40829" lon="3.65023">
        <ele>1266</ele>
        <time>2017-02-28T10:19:38Z</time>
      </trkpt>
      <trkpt lat="44.40831" lon="3.6502">
        <ele>1266</ele>
        <time>2017-02-28T10:21:38Z</time>
      </trkpt>
      <trkpt lat="44.40838" lon="3.65014">
        <ele>1267</ele>
        <time>2017-02-28T10:23:38Z</time>
      </trkpt>
      <trkpt lat="44.40843" lon="3.65011">
        <ele>1267</ele>
        <time>2017-02-28T10:25:38Z</time>
      </trkpt>
      <trkpt lat="44.40848" lon="3.65005">
        <ele>1267</ele>
        <time>2017-02-28T10:27:38Z</time>
      </trkpt>
      <trkpt lat="44.40853" lon="3.65">
        <ele>1267</ele>
        <time>2017-02-28T10:29:38Z</time>
      </trkpt>
      <trkpt lat="44.40854" lon="3.64999">
        <ele>1267</ele>
        <time>2017-02-28T10:31:38Z</time>
      </trkpt>
      <trkpt lat="44.40868" lon="3.6499">
        <ele>1267</ele>
        <time>2017-02-28T10:33:38Z</time>
      </trkpt>
      <trkpt lat="44.40885" lon="3.6498">
        <ele>1268</ele>
        <time>2017-02-28T10:35:38Z</time>
      </trkpt>
      <trkpt lat="44.40907" lon="3.64967">
        <ele>1270</ele>
        <time>2017-02-28T10:37:38Z</time>
      </trkpt>
      <trkpt lat="44.4092" lon="3.64959">
        <ele>1272</ele>
        <time>2017-02-28T10:39:38Z</time>
      </trkpt>
      <trkpt lat="44.40921" lon="3.64958">
        <ele>1272</ele>
        <time>2017-02-28T10:41:38Z</time>
      </trkpt>
      <trkpt lat="44.40922" lon="3.64958">
        <ele>1272</ele>
        <time>2017-02-28T10:43:38Z</time>
      </trkpt>
      <trkpt lat="44.40932" lon="3.64949">
        <ele>1273</ele>
        <time>2017-02-28T10:45:38Z</time>
      </trkpt>
      <trkpt lat="44.40943" lon="3.64938">
        <ele>1274</ele>
        <time>2017-02-28T10:47:38Z</time>
      </trkpt>
      <trkpt lat="44.40961" lon="3.64916">
        <ele>1274</ele>
        <time>2017-02-28T10:49:38Z</time>
      </trkpt>
      <trkpt lat="44.40973" lon="3.64903">
        <ele>1274</ele>
        <time>2017-02-28T10:51:38Z</time>
      </trkpt>
      <trkpt lat="44.40974" lon="3.64902">
        <ele>1274</ele>
        <time>2017-02-28T10:53:38Z</time>
      </trkpt>
      <trkpt lat="44.40993" lon="3.64887">
        <ele>1276</ele>
        <time>2017-02-28T10:55:38Z</time>
      </trkpt>
      <trkpt lat="44.40999" lon="3.64881">
        <ele>1276</ele>
        <time>2017-02-28T10:57:38Z</time>
      </trkpt>
      <trkpt lat="44.41014" lon="3.64871">
        <ele>1278</ele>
        <time>2017-02-28T10:59:38Z</time>
      </trkpt>
      <trkpt lat="44.41036" lon="3.64853">
        <ele>1279</ele>
        <time>2017-02-28T11:01:38Z</time>
      </trkpt>
      <trkpt lat="44.41052" lon="3.6484">
        <ele>1281</ele>
        <time>2017-02-28T11:03:38Z</time>
      </trkpt>
      <trkpt lat="44.41058" lon="3.64836">
        <ele>1281</ele>
        <time>2017-02-28T11:05:38Z</time>
      </trkpt>
      <trkpt lat="44.41058" lon="3.64835">
        <ele>1281</ele>
        <time>2017-02-28T11:07:38Z</time>
      </trkpt>
      <trkpt lat="44.41064" lon="3.64832">
        <ele>1282</ele>
        <time>2017-02-28T11:09:38Z</time>
      </trkpt>
      <trkpt lat="44.41064" lon="3.64831">
        <ele>1282</ele>
        <time>2017-02-28T11:11:38Z</time>
      </trkpt>
      <trkpt lat="44.41072" lon="3.64827">
        <ele>1283</ele>
        <time>2017-02-28T11:13:38Z</time>
      </trkpt>
      <trkpt lat="44.41074" lon="3.64827">
        <ele>1283</ele>
        <time>2017-02-28T11:15:38Z</time>
      </trkpt>
      <trkpt lat="44.41085" lon="3.64823">
        <ele>1285</ele>
        <time>2017-02-28T11:17:38Z</time>
      </trkpt>
      <trkpt lat="44.41094" lon="3.6482">
        <ele>1286</ele>
        <time>2017-02-28T11:19:38Z</time>
      </trkpt>
      <trkpt lat="44.41106" lon="3.64814">
        <ele>1287</ele>
        <time>2017-02-28T11:21:38Z</time>
      </trkpt>
      <trkpt lat="44.41116" lon="3.64809">
        <ele>1287</ele>
        <time>2017-02-28T11:23:38Z</time>
      </trkpt>
      <trkpt lat="44.41132" lon="3.64799">
        <ele>1288</ele>
        <time>2017-02-28T11:25:38Z</time>
      </trkpt>
      <trkpt lat="44.41147" lon="3.64791">
        <ele>1289</ele>
        <time>2017-02-28T11:27:38Z</time>
      </trkpt>
      <trkpt lat="44.41162" lon="3.64783">
        <ele>1290</ele>
        <time>2017-02-28T11:29:38Z</time>
      </trkpt>
      <trkpt lat="44.41178" lon="3.64774">
        <ele>1292</ele>
        <time>2017-02-28T11:31:38Z</time>
      </trkpt>
      <trkpt lat="44.41188" lon="3.64768">
        <ele>1292</ele>
        <time>2017-02-28T11:33:38Z</time>
      </trkpt>
      <trkpt lat="44.41195" lon="3.64762">
        <ele>1293</ele>
        <time>2017-02-28T11:35:38Z</time>
      </trkpt>
      <trkpt lat="44.41214" lon="3.64742">
        <ele>1293</ele>
        <time>2017-02-28T11:37:38Z</time>
      </trkpt>
      <trkpt lat="44.4122" lon="3.64738">
        <ele>1293</ele>
        <time>2017-02-28T11:39:38Z</time>
      </trkpt>
      <trkpt lat="44.41223" lon="3.64736">
        <ele>1293</ele>
        <time>2017-02-28T11:41:38Z</time>
      </trkpt>
      <trkpt lat="44.41225" lon="3.64735">
        <ele>1294</ele>
        <time>2017-02-28T11:43:38Z</time>
      </trkpt>
      <trkpt lat="44.41226" lon="3.64734">
        <ele>1294</ele>
        <time>2017-02-28T11:45:38Z</time>
      </trkpt>
      <trkpt lat="44.41227" lon="3.64733">
        <ele>1294</ele>
        <time>2017-02-28T11:47:38Z</time>
      </trkpt>
      <trkpt lat="44.41229" lon="3.64732">
        <ele>1294</ele>
        <time>2017-02-28T11:49:38Z</time>
      </trkpt>
      <trkpt lat="44.41231" lon="3.64731">
        <ele>1294</ele>
        <time>2017-02-28T11:51:38Z</time>
      </trkpt>
      <trkpt lat="44.41232" lon="3.6473">
        <ele>1294</ele>
        <time>2017-02-28T11:53:38Z</time>
      </trkpt>
      <trkpt lat="44.41235" lon="3.64729">
        <ele>1294</ele>
        <time>2017-02-28T11:55:38Z</time>
      </trkpt>
      <trkpt lat="44.41268" lon="3.64715">
        <ele>1298</ele>
        <time>2017-02-28T11:57:38Z</time>
      </trkpt>
      <trkpt lat="44.41283" lon="3.64708">
        <ele>1299</ele>
        <time>2017-02-28T11:59:38Z</time>
      </trkpt>
      <trkpt lat="44.41294" lon="3.64703">
        <ele>1300</ele>
        <time>2017-02-28T12:01:38Z</time>
      </trkpt>
      <trkpt lat="44.41296" lon="3.64701">
        <ele>1300</ele>
        <time>2017-02-28T12:03:38Z</time>
      </trkpt>
      <trkpt lat="44.41298" lon="3.647">
        <ele>1301</ele>
        <time>2017-02-28T12:05:38Z</time>
      </trkpt>
      <trkpt lat="44.41299" lon="3.64699">
        <ele>1301</ele>
        <time>2017-02-28T12:07:38Z</time>
      </trkpt>
      <trkpt lat="44.41301" lon="3.64698">
        <ele>1301</ele>
        <time>2017-02-28T12:09:38Z</time>
      </trkpt>
      <trkpt lat="44.41302" lon="3.64697">
        <ele>1301</ele>
        <time>2017-02-28T12:11:38Z</time>
      </trkpt>
      <trkpt lat="44.41308" lon="3.64691">
        <ele>1301</ele>
        <time>2017-02-28T12:13:38Z</time>
      </trkpt>
      <trkpt lat="44.41309" lon="3.64689">
        <ele>1301</ele>
        <time>2017-02-28T12:15:38Z</time>
      </trkpt>
      <trkpt lat="44.41318" lon="3.64677">
        <ele>1302</ele>
        <time>2017-02-28T12:17:38Z</time>
      </trkpt>
      <trkpt lat="44.41319" lon="3.64675">
        <ele>1302</ele>
        <time>2017-02-28T12:19:38Z</time>
      </trkpt>
      <trkpt lat="44.4132" lon="3.64674">
        <ele>1302</ele>
        <time>2017-02-28T12:21:38Z</time>
      </trkpt>
      <trkpt lat="44.41332" lon="3.64663">
        <ele>1304</ele>
        <time>2017-02-28T12:23:38Z</time>
      </trkpt>
      <trkpt lat="44.4134" lon="3.64654">
        <ele>1304</ele>
        <time>2017-02-28T12:25:38Z</time>
      </trkpt>
      <trkpt lat="44.41342" lon="3.64652">
        <ele>1304</ele>
        <time>2017-02-28T12:27:38Z</time>
      </trkpt>
      <trkpt lat="44.41351" lon="3.64637">
        <ele>1305</ele>
        <time>2017-02-28T12:29:38Z</time>
      </trkpt>
      <trkpt lat="44.41358" lon="3.64626">
        <ele>1306</ele>
        <time>2017-02-28T12:31:38Z</time>
      </trkpt>
      <trkpt lat="44.41359" lon="3.64624">
        <ele>1306</ele>
        <time>2017-02-28T12:33:38Z</time>
      </trkpt>
      <trkpt lat="44.41359" lon="3.64622">
        <ele>1306</ele>
        <time>2017-02-28T12:35:38Z</time>
      </trkpt>
      <trkpt lat="44.41361" lon="3.64616">
        <ele>1306</ele>
        <time>2017-02-28T12:37:38Z</time>
      </trkpt>
      <trkpt lat="44.41362" lon="3.64614">
        <ele>1306</ele>
        <time>2017-02-28T12:39:38Z</time>
      </trkpt>
      <trkpt lat="44.41362" lon="3.64606">
        <ele>1306</ele>
        <time>2017-02-28T12:41:38Z</time>
      </trkpt>
      <trkpt lat="44.41363" lon="3.64599">
        <ele>1306</ele>
        <time>2017-02-28T12:43:38Z</time>
      </trkpt>
      <trkpt lat="44.41363" lon="3.64549">
        <ele>1306</ele>
        <time>2017-02-28T12:45:38Z</time>
      </trkpt>
      <trkpt lat="44.41363" lon="3.64524">
        <ele>1307</ele>
        <time>2017-02-28T12:47:38Z</time>
      </trkpt>
      <trkpt lat="44.41364" lon="3.64485">
        <ele>1308</ele>
        <time>2017-02-28T12:49:38Z</time>
      </trkpt>
      <trkpt lat="44.41365" lon="3.64463">
        <ele>1308</ele>
        <time>2017-02-28T12:51:38Z</time>
      </trkpt>
      <trkpt lat="44.41365" lon="3.64459">
        <ele>1308</ele>
        <time>2017-02-28T12:53:38Z</time>
      </trkpt>
      <trkpt lat="44.41365" lon="3.64456">
        <ele>1308</ele>
        <time>2017-02-28T12:55:38Z</time>
      </trkpt>
      <trkpt lat="44.41366" lon="3.6445">
        <ele>1308</ele>
        <time>2017-02-28T12:57:38Z</time>
      </trkpt>
      <trkpt lat="44.41367" lon="3.64447">
        <ele>1308</ele>
        <time>2017-02-28T12:59:38Z</time>
      </trkpt>
      <trkpt lat="44.41368" lon="3.64443">
        <ele>1308</ele>
        <time>2017-02-28T13:01:38Z</time>
      </trkpt>
      <trkpt lat="44.41373" lon="3.64429">
        <ele>1309</ele>
        <time>2017-02-28T13:03:38Z</time>
      </trkpt>
      <trkpt lat="44.41374" lon="3.64426">
        <ele>1309</ele>
        <time>2017-02-28T13:05:38Z</time>
      </trkpt>
      <trkpt lat="44.41375" lon="3.64423">
        <ele>1309</ele>
        <time>2017-02-28T13:07:38Z</time>
      </trkpt>
      <trkpt lat="44.41383" lon="3.64406">
        <ele>1309</ele>
        <time>2017-02-28T13:09:38Z</time>
      </trkpt>
      <trkpt lat="44.41396" lon="3.64382">
        <ele>1310</ele>
        <time>2017-02-28T13:11:38Z</time>
      </trkpt>
      <trkpt lat="44.41415" lon="3.64353">
        <ele>1311</ele>
        <time>2017-02-28T13:13:38Z</time>
      </trkpt>
      <trkpt lat="44.41439" lon="3.64325">
        <ele>1313</ele>
        <time>2017-02-28T13:15:38Z</time>
      </trkpt>
      <trkpt lat="44.41455" lon="3.6431">
        <ele>1313</ele>
        <time>2017-02-28T13:17:38Z</time>
      </trkpt>
      <trkpt lat="44.41475" lon="3.64297">
        <ele>1315</ele>
        <time>2017-02-28T13:19:38Z</time>
      </trkpt>
      <trkpt lat="44.41498" lon="3.64284">
        <ele>1318</ele>
        <time>2017-02-28T13:21:38Z</time>
      </trkpt>
      <trkpt lat="44.41516" lon="3.64273">
        <ele>1319</ele>
        <time>2017-02-28T13:23:38Z</time>
      </trkpt>
      <trkpt lat="44.41537" lon="3.64259">
        <ele>1320</ele>
        <time>2017-02-28T13:25:38Z</time>
      </trkpt>
      <trkpt lat="44.41555" lon="3.6425">
        <ele>1321</ele>
        <time>2017-02-28T13:27:38Z</time>
      </trkpt>
      <trkpt lat="44.41572" lon="3.64243">
        <ele>1322</ele>
        <time>2017-02-28T13:29:38Z</time>
      </trkpt>
      <trkpt lat="44.41585" lon="3.64237">
        <ele>1323</ele>
        <time>2017-02-28T13:31:38Z</time>
      </trkpt>
      <trkpt lat="44.41634" lon="3.64218">
        <ele>1326</ele>
        <time>2017-02-28T13:33:38Z</time>
      </trkpt>
      <trkpt lat="44.41646" lon="3.64213">
        <ele>1326</ele>
        <time>2017-02-28T13:35:38Z</time>
      </trkpt>
      <trkpt lat="44.41686" lon="3.64194">
        <ele>1329</ele>
        <time>2017-02-28T13:37:38Z</time>
      </trkpt>
      <trkpt lat="44.41695" lon="3.6419">
        <ele>1329</ele>
        <time>2017-02-28T13:39:38Z</time>
      </trkpt>
      <trkpt lat="44.41733" lon="3.64172">
        <ele>1332</ele>
        <time>2017-02-28T13:41:38Z</time>
      </trkpt>
      <trkpt lat="44.41754" lon="3.64162">
        <ele>1333</ele>
        <time>2017-02-28T13:43:38Z</time>
      </trkpt>
      <trkpt lat="44.41768" lon="3.64157">
        <ele>1335</ele>
        <time>2017-02-28T13:45:38Z</time>
      </trkpt>
      <trkpt lat="44.4178" lon="3.64152">
        <ele>1336</ele>
        <time>2017-02-28T13:47:38Z</time>
      </trkpt>
      <trkpt lat="44.41798" lon="3.64142">
        <ele>1337</ele>
        <time>2017-02-28T13:49:38Z</time>
      </trkpt>
      <trkpt lat="44.41808" lon="3.64134">
        <ele>1338</ele>
        <time>2017-02-28T13:51:38Z</time>
      </trkpt>
      <trkpt lat="44.41814" lon="3.64128">
        <ele>1338</ele>
        <time>2017-02-28T13:53:38Z</time>
      </trkpt>
      <trkpt lat="44.4182" lon="3.64125">
        <ele>1339</ele>
        <time>2017-02-28T13:55:38Z</time>
      </trkpt>
      <trkpt lat="44.41827" lon="3.64123">
        <ele>1339</ele>
        <time>2017-02-28T13:57:38Z</time>
      </trkpt>
      <trkpt lat="44.41839" lon="3.64119">
        <ele>1341</ele>
        <time>2017-02-28T13:59:38Z</time>
      </trkpt>
      <trkpt lat="44.41854" lon="3.64112">
        <ele>1342</ele>
        <time>2017-02-28T14:01:38Z</time>
      </trkpt>
      <trkpt lat="44.41857" lon="3.6411">
        <ele>1342</ele>
        <time>2017-02-28T14:03:38Z</time>
      </trkpt>
      <trkpt lat="44.41871" lon="3.64103">
        <ele>1343</ele>
        <time>2017-02-28T14:05:38Z</time>
      </trkpt>
      <trkpt lat="44.41919" lon="3.64074">
        <ele>1345</ele>
        <time>2017-02-28T14:07:38Z</time>
      </trkpt>
      <trkpt lat="44.41949" lon="3.64058">
        <ele>1346</ele>
        <time>2017-02-28T14:09:38Z</time>
      </trkpt>
      <trkpt lat="44.41967" lon="3.64048">
        <ele>1347</ele>
        <time>2017-02-28T14:11:38Z</time>
      </trkpt>
      <trkpt lat="44.41994" lon="3.64035">
        <ele>1348</ele>
        <time>2017-02-28T14:13:38Z</time>
      </trkpt>
      <trkpt lat="44.42017" lon="3.64029">
        <ele>1350</ele>
        <time>2017-02-28T14:15:38Z</time>
      </trkpt>
      <trkpt lat="44.42032" lon="3.64023">
        <ele>1351</ele>
        <time>2017-02-28T14:17:38Z</time>
      </trkpt>
      <trkpt lat="44.42048" lon="3.64013">
        <ele>1351</ele>
        <time>2017-02-28T14:19:38Z</time>
      </trkpt>
      <trkpt lat="44.42067" lon="3.64001">
        <ele>1352</ele>
        <time>2017-02-28T14:21:38Z</time>
      </trkpt>
      <trkpt lat="44.42081" lon="3.63994">
        <ele>1352</ele>
        <time>2017-02-28T14:23:38Z</time>
      </trkpt>
      <trkpt lat="44.42101" lon="3.6399">
        <ele>1353</ele>
        <time>2017-02-28T14:25:38Z</time>
      </trkpt>
      <trkpt lat="44.42134" lon="3.63984">
        <ele>1355</ele>
        <time>2017-02-28T14:27:38Z</time>
      </trkpt>
      <trkpt lat="44.4217" lon="3.63981">
        <ele>1357</ele>
        <time>2017-02-28T14:29:38Z</time>
      </trkpt>
      <trkpt lat="44.42202" lon="3.6398">
        <ele>1358</ele>
        <time>2017-02-28T14:31:38Z</time>
      </trkpt>
      <trkpt lat="44.42221" lon="3.63981">
        <ele>1359</ele>
        <time>2017-02-28T14:33:38Z</time>
      </trkpt>
      <trkpt lat="44.42249" lon="3.63987">
        <ele>1361</ele>
        <time>2017-02-28T14:35:38Z</time>
      </trkpt>
      <trkpt lat="44.42268" lon="3.63993">
        <ele>1361</ele>
        <time>2017-02-28T14:37:38Z</time>
      </trkpt>
      <trkpt lat="44.42282" lon="3.63999">
        <ele>1362</ele>
        <time>2017-02-28T14:39:38Z</time>
      </trkpt>
      <trkpt lat="44.42298" lon="3.64012">
        <ele>1363</ele>
        <time>2017-02-28T14:41:38Z</time>
      </trkpt>
      <trkpt lat="44.42321" lon="3.64031">
        <ele>1364</ele>
        <time>2017-02-28T14:43:38Z</time>
      </trkpt>
      <trkpt lat="44.42356" lon="3.6407">
        <ele>1368</ele>
        <time>2017-02-28T14:45:38Z</time>
      </trkpt>
      <trkpt lat="44.42383" lon="3.641">
        <ele>1369</ele>
        <time>2017-02-28T14:47:38Z</time>
      </trkpt>
      <trkpt lat="44.42401" lon="3.64124">
        <ele>1369</ele>
        <time>2017-02-28T14:49:38Z</time>
      </trkpt>
      <trkpt lat="44.42415" lon="3.6415">
        <ele>1370</ele>
        <time>2017-02-28T14:51:38Z</time>
      </trkpt>
      <trkpt lat="44.42428" lon="3.64179">
        <ele>1371</ele>
        <time>2017-02-28T14:53:38Z</time>
      </trkpt>
      <trkpt lat="44.42441" lon="3.64213">
        <ele>1372</ele>
        <time>2017-02-28T14:55:38Z</time>
      </trkpt>
      <trkpt lat="44.42452" lon="3.64251">
        <ele>1373</ele>
        <time>2017-02-28T14:57:38Z</time>
      </trkpt>
      <trkpt lat="44.42462" lon="3.64293">
        <ele>1374</ele>
        <time>2017-02-28T14:59:38Z</time>
      </trkpt>
      <trkpt lat="44.42466" lon="3.64324">
        <ele>1375</ele>
        <time>2017-02-28T15:01:38Z</time>
      </trkpt>
      <trkpt lat="44.42467" lon="3.6436">
        <ele>1376</ele>
        <time>2017-02-28T15:03:38Z</time>
      </trkpt>
      <trkpt lat="44.42467" lon="3.6441">
        <ele>1378</ele>
        <time>2017-02-28T15:05:38Z</time>
      </trkpt>
      <trkpt lat="44.42461" lon="3.64464">
        <ele>1380</ele>
        <time>2017-02-28T15:07:38Z</time>
      </trkpt>
      <trkpt lat="44.42459" lon="3.64507">
        <ele>1381</ele>
        <time>2017-02-28T15:09:38Z</time>
      </trkpt>
      <trkpt lat="44.42455" lon="3.64544">
        <ele>1382</ele>
        <time>2017-02-28T15:11:38Z</time>
      </trkpt>
      <trkpt lat="44.42446" lon="3.64598">
        <ele>1385</ele>
        <time>2017-02-28T15:13:38Z</time>
      </trkpt>
      <trkpt lat="44.42434" lon="3.6465">
        <ele>1388</ele>
        <time>2017-02-28T15:15:38Z</time>
      </trkpt>
      <trkpt lat="44.42414" lon="3.6472">
        <ele>1393</ele>
        <time>2017-02-28T15:17:38Z</time>
      </trkpt>
      <trkpt lat="44.42386" lon="3.64801">
        <ele>1396</ele>
        <time>2017-02-28T15:19:38Z</time>
      </trkpt>
      <trkpt lat="44.42364" lon="3.64867">
        <ele>1397</ele>
        <time>2017-02-28T15:21:38Z</time>
      </trkpt>
      <trkpt lat="44.42351" lon="3.64915">
        <ele>1398</ele>
        <time>2017-02-28T15:23:38Z</time>
      </trkpt>
      <trkpt lat="44.42329" lon="3.64998">
        <ele>1397</ele>
        <time>2017-02-28T15:25:38Z</time>
      </trkpt>
      <trkpt lat="44.42311" lon="3.65053">
        <ele>1397</ele>
        <time>2017-02-28T15:27:38Z</time>
      </trkpt>
      <trkpt lat="44.42295" lon="3.65103">
        <ele>1397</ele>
        <time>2017-02-28T15:29:38Z</time>
      </trkpt>
      <trkpt lat="44.42287" lon="3.65136">
        <ele>1396</ele>
        <time>2017-02-28T15:31:38Z</time>
      </trkpt>
      <trkpt lat="44.42281" lon="3.65178">
        <ele>1396</ele>
        <time>2017-02-28T15:33:38Z</time>
      </trkpt>
      <trkpt lat="44.42277" lon="3.65212">
        <ele>1396</ele>
        <time>2017-02-28T15:35:38Z</time>
      </trkpt>
      <trkpt lat="44.42275" lon="3.65232">
        <ele>1397</ele>
        <time>2017-02-28T15:37:38Z</time>
      </trkpt>
      <trkpt lat="44.42275" lon="3.65239">
        <ele>1397</ele>
        <time>2017-02-28T15:39:38Z</time>
      </trkpt>
      <trkpt lat="44.42272" lon="3.65259">
        <ele>1397</ele>
        <time>2017-02-28T15:41:38Z</time>
      </trkpt>
      <trkpt lat="44.42272" lon="3.65259">
        <ele>1397</ele>
        <time>2017-02-28T15:43:38Z</time>
      </trkpt>
      <trkpt lat="44.42275" lon="3.65272">
        <ele>1397</ele>
        <time>2017-02-28T15:45:38Z</time>
      </trkpt>
      <trkpt lat="44.42276" lon="3.65284">
        <ele>1396</ele>
        <time>2017-02-28T15:47:38Z</time>
      </trkpt>
      <trkpt lat="44.42278" lon="3.65353">
        <ele>1395</ele>
        <time>2017-02-28T15:49:38Z</time>
      </trkpt>
      <trkpt lat="44.4228" lon="3.65365">
        <ele>1395</ele>
        <time>2017-02-28T15:51:38Z</time>
      </trkpt>
      <trkpt lat="44.42282" lon="3.65375">
        <ele>1394</ele>
        <time>2017-02-28T15:53:38Z</time>
      </trkpt>
      <trkpt lat="44.42293" lon="3.65413">
        <ele>1393</ele>
        <time>2017-02-28T15:55:38Z</time>
      </trkpt>
      <trkpt lat="44.42295" lon="3.65419">
        <ele>1393</ele>
        <time>2017-02-28T15:57:38Z</time>
      </trkpt>
      <trkpt lat="44.42305" lon="3.65453">
        <ele>1392</ele>
        <time>2017-02-28T15:59:38Z</time>
      </trkpt>
      <trkpt lat="44.42306" lon="3.65454">
        <ele>1392</ele>
        <time>2017-02-28T16:01:38Z</time>
      </trkpt>
      <trkpt lat="44.42309" lon="3.65462">
        <ele>1392</ele>
        <time>2017-02-28T16:03:38Z</time>
      </trkpt>
      <trkpt lat="44.42317" lon="3.65469">
        <ele>1391</ele>
        <time>2017-02-28T16:05:38Z</time>
      </trkpt>
      <trkpt lat="44.4235" lon="3.65493">
        <ele>1392</ele>
        <time>2017-02-28T16:07:38Z</time>
      </trkpt>
      <trkpt lat="44.42356" lon="3.65494">
        <ele>1392</ele>
        <time>2017-02-28T16:09:38Z</time>
      </trkpt>
      <trkpt lat="44.42361" lon="3.65494">
        <ele>1393</ele>
        <time>2017-02-28T16:11:38Z</time>
      </trkpt>
      <trkpt lat="44.42385" lon="3.65493">
        <ele>1395</ele>
        <time>2017-02-28T16:13:38Z</time>
      </trkpt>
      <trkpt lat="44.42386" lon="3.65492">
        <ele>1395</ele>
        <time>2017-02-28T16:15:38Z</time>
      </trkpt>
      <trkpt lat="44.42399" lon="3.6546">
        <ele>1395</ele>
        <time>2017-02-28T16:17:38Z</time>
      </trkpt>
      <trkpt lat="44.42406" lon="3.65442">
        <ele>1395</ele>
        <time>2017-02-28T16:19:38Z</time>
      </trkpt>
      <trkpt lat="44.4241" lon="3.65432">
        <ele>1394</ele>
        <time>2017-02-28T16:21:38Z</time>
      </trkpt>
      <trkpt lat="44.42411" lon="3.6543">
        <ele>1394</ele>
        <time>2017-02-28T16:23:38Z</time>
      </trkpt>
      <trkpt lat="44.42413" lon="3.65423">
        <ele>1394</ele>
        <time>2017-02-28T16:25:38Z</time>
      </trkpt>
      <trkpt lat="44.42425" lon="3.65398">
        <ele>1394</ele>
        <time>2017-02-28T16:27:38Z</time>
      </trkpt>
      <trkpt lat="44.42436" lon="3.65379">
        <ele>1395</ele>
        <time>2017-02-28T16:29:38Z</time>
      </trkpt>
      <trkpt lat="44.4245" lon="3.65357">
        <ele>1396</ele>
        <time>2017-02-28T16:31:38Z</time>
      </trkpt>
      <trkpt lat="44.42459" lon="3.65342">
        <ele>1396</ele>
        <time>2017-02-28T16:33:38Z</time>
      </trkpt>
      <trkpt lat="44.42471" lon="3.65328">
        <ele>1397</ele>
        <time>2017-02-28T16:35:38Z</time>
      </trkpt>
      <trkpt lat="44.42483" lon="3.65316">
        <ele>1397</ele>
        <time>2017-02-28T16:37:38Z</time>
      </trkpt>
      <trkpt lat="44.42503" lon="3.653">
        <ele>1398</ele>
        <time>2017-02-28T16:39:38Z</time>
      </trkpt>
      <trkpt lat="44.42532" lon="3.6528">
        <ele>1400</ele>
        <time>2017-02-28T16:41:38Z</time>
      </trkpt>
      <trkpt lat="44.42553" lon="3.65267">
        <ele>1402</ele>
        <time>2017-02-28T16:43:38Z</time>
      </trkpt>
      <trkpt lat="44.42573" lon="3.6525">
        <ele>1402</ele>
        <time>2017-02-28T16:45:38Z</time>
      </trkpt>
      <trkpt lat="44.42599" lon="3.65233">
        <ele>1404</ele>
        <time>2017-02-28T16:47:38Z</time>
      </trkpt>
      <trkpt lat="44.42629" lon="3.65217">
        <ele>1405</ele>
        <time>2017-02-28T16:49:38Z</time>
      </trkpt>
      <trkpt lat="44.42648" lon="3.65208">
        <ele>1406</ele>
        <time>2017-02-28T16:51:38Z</time>
      </trkpt>
      <trkpt lat="44.42664" lon="3.65199">
        <ele>1407</ele>
        <time>2017-02-28T16:53:38Z</time>
      </trkpt>
      <trkpt lat="44.42709" lon="3.65169">
        <ele>1408</ele>
        <time>2017-02-28T16:55:38Z</time>
      </trkpt>
      <trkpt lat="44.42775" lon="3.65131">
        <ele>1410</ele>
        <time>2017-02-28T16:57:38Z</time>
      </trkpt>
      <trkpt lat="44.4279" lon="3.65122">
        <ele>1410</ele>
        <time>2017-02-28T16:59:38Z</time>
      </trkpt>
      <trkpt lat="44.42804" lon="3.65115">
        <ele>1411</ele>
        <time>2017-02-28T17:01:38Z</time>
      </trkpt>
      <trkpt lat="44.42831" lon="3.65106">
        <ele>1412</ele>
        <time>2017-02-28T17:03:38Z</time>
      </trkpt>
      <trkpt lat="44.42861" lon="3.65097">
        <ele>1414</ele>
        <time>2017-02-28T17:05:38Z</time>
      </trkpt>
      <trkpt lat="44.42881" lon="3.65088">
        <ele>1415</ele>
        <time>2017-02-28T17:07:38Z</time>
      </trkpt>
      <trkpt lat="44.4289" lon="3.65085">
        <ele>1416</ele>
        <time>2017-02-28T17:09:38Z</time>
      </trkpt>
      <trkpt lat="44.42896" lon="3.65078">
        <ele>1416</ele>
        <time>2017-02-28T17:11:38Z</time>
      </trkpt>
      <trkpt lat="44.42914" lon="3.65046">
        <ele>1414</ele>
        <time>2017-02-28T17:13:38Z</time>
      </trkpt>
      <trkpt lat="44.42923" lon="3.65032">
        <ele>1413</ele>
        <time>2017-02-28T17:15:38Z</time>
      </trkpt>
      <trkpt lat="44.42947" lon="3.64989">
        <ele>1411</ele>
        <time>2017-02-28T17:17:38Z</time>
      </trkpt>
      <trkpt lat="44.42971" lon="3.64945">
        <ele>1410</ele>
        <time>2017-02-28T17:19:38Z</time>
      </trkpt>
      <trkpt lat="44.42977" lon="3.64932">
        <ele>1410</ele>
        <time>2017-02-28T17:21:38Z</time>
      </trkpt>
      <trkpt lat="44.42983" lon="3.64914">
        <ele>1410</ele>
        <time>2017-02-28T17:23:38Z</time>
      </trkpt>
      <trkpt lat="44.42995" lon="3.64877">
        <ele>1409</ele>
        <time>2017-02-28T17:25:38Z</time>
      </trkpt>
      <trkpt lat="44.43012" lon="3.64825">
        <ele>1408</ele>
        <time>2017-02-28T17:27:38Z</time>
      </trkpt>
      <trkpt lat="44.43027" lon="3.64791">
        <ele>1406</ele>
        <time>2017-02-28T17:29:38Z</time>
      </trkpt>
      <trkpt lat="44.43034" lon="3.64773">
        <ele>1405</ele>
        <time>2017-02-28T17:31:38Z</time>
      </trkpt>
      <trkpt lat="44.43038" lon="3.6476">
        <ele>1405</ele>
        <time>2017-02-28T17:33:38Z</time>
      </trkpt>
      <trkpt lat="44.43046" lon="3.64742">
        <ele>1404</ele>
        <time>2017-02-28T17:35:38Z</time>
      </trkpt>
      <trkpt lat="44.43064" lon="3.64709">
        <ele>1403</ele>
        <time>2017-02-28T17:37:38Z</time>
      </trkpt>
      <trkpt lat="44.43085" lon="3.64676">
        <ele>1403</ele>
        <time>2017-02-28T17:39:38Z</time>
      </trkpt>
      <trkpt lat="44.43132" lon="3.6459">
        <ele>1399</ele>
        <time>2017-02-28T17:41:38Z</time>
      </trkpt>
      <trkpt lat="44.43177" lon="3.64509">
        <ele>1396</ele>
        <time>2017-02-28T17:43:38Z</time>
      </trkpt>
      <trkpt lat="44.43234" lon="3.64411">
        <ele>1392</ele>
        <time>2017-02-28T17:45:38Z</time>
      </trkpt>
      <trkpt lat="44.43257" lon="3.64369">
        <ele>1390</ele>
        <time>2017-02-28T17:47:38Z</time>
      </trkpt>
      <trkpt lat="44.43279" lon="3.6432">
        <ele>1387</ele>
        <time>2017-02-28T17:49:38Z</time>
      </trkpt>
      <trkpt lat="44.43292" lon="3.64294">
        <ele>1387</ele>
        <time>2017-02-28T17:51:38Z</time>
      </trkpt>
      <trkpt lat="44.4333" lon="3.64197">
        <ele>1383</ele>
        <time>2017-02-28T17:53:38Z</time>
      </trkpt>
      <trkpt lat="44.43337" lon="3.64181">
        <ele>1382</ele>
        <time>2017-02-28T17:55:38Z</time>
      </trkpt>
      <trkpt lat="44.43356" lon="3.64148">
        <ele>1381</ele>
        <time>2017-02-28T17:57:38Z</time>
      </trkpt>
      <trkpt lat="44.43405" lon="3.64079">
        <ele>1384</ele>
        <time>2017-02-28T17:59:38Z</time>
      </trkpt>
      <trkpt lat="44.43405" lon="3.64079">
        <ele>1384</ele>
        <time>2017-02-28T18:01:38Z</time>
      </trkpt>
      <trkpt lat="44.43448" lon="3.64154">
        <ele>1394</ele>
        <time>2017-02-28T18:03:38Z</time>
      </trkpt>
      <trkpt lat="44.4349" lon="3.64225">
        <ele>1407</ele>
        <time>2017-02-28T18:05:38Z</time>
      </trkpt>
      <trkpt lat="44.43527" lon="3.6429">
        <ele>1417</ele>
        <time>2017-02-28T18:07:38Z</time>
      </trkpt>
      <trkpt lat="44.43561" lon="3.64358">
        <ele>1427</ele>
        <time>2017-02-28T18:09:38Z</time>
      </trkpt>
      <trkpt lat="44.43577" lon="3.64388">
        <ele>1432</ele>
        <time>2017-02-28T18:11:38Z</time>
      </trkpt>
      <trkpt lat="44.43577" lon="3.64388">
        <ele>1432</ele>
        <time>2017-02-28T18:13:38Z</time>
      </trkpt>
      <trkpt lat="44.43573" lon="3.64408">
        <ele>1433</ele>
        <time>2017-02-28T18:15:38Z</time>
      </trkpt>
      <trkpt lat="44.43564" lon="3.64441">
        <ele>1435</ele>
        <time>2017-02-28T18:17:38Z</time>
      </trkpt>
      <trkpt lat="44.43558" lon="3.64463">
        <ele>1435</ele>
        <time>2017-02-28T18:19:38Z</time>
      </trkpt>
      <trkpt lat="44.43546" lon="3.6453">
        <ele>1439</ele>
        <time>2017-02-28T18:21:38Z</time>
      </trkpt>
      <trkpt lat="44.43534" lon="3.64561">
        <ele>1440</ele>
        <time>2017-02-28T18:23:38Z</time>
      </trkpt>
      <trkpt lat="44.43526" lon="3.64592">
        <ele>1442</ele>
        <time>2017-02-28T18:25:38Z</time>
      </trkpt>
      <trkpt lat="44.43504" lon="3.64685">
        <ele>1446</ele>
        <time>2017-02-28T18:27:38Z</time>
      </trkpt>
      <trkpt lat="44.43494" lon="3.64736">
        <ele>1448</ele>
        <time>2017-02-28T18:29:38Z</time>
      </trkpt>
      <trkpt lat="44.43478" lon="3.64839">
        <ele>1452</ele>
        <time>2017-02-28T18:31:38Z</time>
      </trkpt>
      <trkpt lat="44.43459" lon="3.64951">
        <ele>1461</ele>
        <time>2017-02-28T18:33:38Z</time>
      </trkpt>
      <trkpt lat="44.43447" lon="3.65028">
        <ele>1467</ele>
        <time>2017-02-28T18:35:38Z</time>
      </trkpt>
      <trkpt lat="44.43445" lon="3.65039">
        <ele>1468</ele>
        <time>2017-02-28T18:37:38Z</time>
      </trkpt>
      <trkpt lat="44.43444" lon="3.65058">
        <ele>1469</ele>
        <time>2017-02-28T18:39:38Z</time>
      </trkpt>
      <trkpt lat="44.43443" lon="3.65141">
        <ele>1475</ele>
        <time>2017-02-28T18:41:38Z</time>
      </trkpt>
      <trkpt lat="44.43441" lon="3.65225">
        <ele>1482</ele>
        <time>2017-02-28T18:43:38Z</time>
      </trkpt>
      <trkpt lat="44.4344" lon="3.65306">
        <ele>1488</ele>
        <time>2017-02-28T18:45:38Z</time>
      </trkpt>
      <trkpt lat="44.43441" lon="3.65397">
        <ele>1496</ele>
        <time>2017-02-28T18:47:38Z</time>
      </trkpt>
      <trkpt lat="44.43442" lon="3.65446">
        <ele>1500</ele>
        <time>2017-02-28T18:49:38Z</time>
      </trkpt>
      <trkpt lat="44.43442" lon="3.6545">
        <ele>1500</ele>
        <time>2017-02-28T18:51:38Z</time>
      </trkpt>
      <trkpt lat="44.43444" lon="3.65473">
        <ele>1502</ele>
        <time>2017-02-28T18:53:38Z</time>
      </trkpt>
      <trkpt lat="44.43448" lon="3.65498">
        <ele>1504</ele>
        <time>2017-02-28T18:55:38Z</time>
      </trkpt>
      <trkpt lat="44.43453" lon="3.65528">
        <ele>1505</ele>
        <time>2017-02-28T18:57:38Z</time>
      </trkpt>
      <trkpt lat="44.4346" lon="3.65565">
        <ele>1506</ele>
        <time>2017-02-28T18:59:38Z</time>
      </trkpt>
      <trkpt lat="44.43472" lon="3.65619">
        <ele>1508</ele>
        <time>2017-02-28T19:01:38Z</time>
      </trkpt>
      <trkpt lat="44.43488" lon="3.65689">
        <ele>1510</ele>
        <time>2017-02-28T19:03:38Z</time>
      </trkpt>
      <trkpt lat="44.43506" lon="3.6576">
        <ele>1514</ele>
        <time>2017-02-28T19:05:38Z</time>
      </trkpt>
      <trkpt lat="44.43515" lon="3.65801">
        <ele>1516</ele>
        <time>2017-02-28T19:07:38Z</time>
      </trkpt>
      <trkpt lat="44.43524" lon="3.65833">
        <ele>1518</ele>
        <time>2017-02-28T19:09:38Z</time>
      </trkpt>
      <trkpt lat="44.43533" lon="3.65865">
        <ele>1521</ele>
        <time>2017-02-28T19:11:38Z</time>
      </trkpt>
      <trkpt lat="44.43541" lon="3.65886">
        <ele>1523</ele>
        <time>2017-02-28T19:13:38Z</time>
      </trkpt>
      <trkpt lat="44.43554" lon="3.65913">
        <ele>1526</ele>
        <time>2017-02-28T19:15:38Z</time>
      </trkpt>
      <trkpt lat="44.4357" lon="3.65939">
        <ele>1528</ele>
        <time>2017-02-28T19:17:38Z</time>
      </trkpt>
      <trkpt lat="44.43583" lon="3.65961">
        <ele>1529</ele>
        <time>2017-02-28T19:19:38Z</time>
      </trkpt>
      <trkpt lat="44.43605" lon="3.65987">
        <ele>1530</ele>
        <time>2017-02-28T19:21:38Z</time>
      </trkpt>
      <trkpt lat="44.43625" lon="3.66009">
        <ele>1530</ele>
        <time>2017-02-28T19:23:38Z</time>
      </trkpt>
      <trkpt lat="44.43643" lon="3.6603">
        <ele>1530</ele>
        <time>2017-02-28T19:25:38Z</time>
      </trkpt>
      <trkpt lat="44.43651" lon="3.66042">
        <ele>1530</ele>
        <time>2017-02-28T19:27:38Z</time>
      </trkpt>
      <trkpt lat="44.43658" lon="3.66051">
        <ele>1531</ele>
        <time>2017-02-28T19:29:38Z</time>
      </trkpt>
      <trkpt lat="44.43665" lon="3.66057">
        <ele>1531</ele>
        <time>2017-02-28T19:31:38Z</time>
      </trkpt>
      <trkpt lat="44.43679" lon="3.66069">
        <ele>1532</ele>
        <time>2017-02-28T19:33:38Z</time>
      </trkpt>
      <trkpt lat="44.43711" lon="3.661">
        <ele>1532</ele>
        <time>2017-02-28T19:35:38Z</time>
      </trkpt>
      <trkpt lat="44.43733" lon="3.6612">
        <ele>1533</ele>
        <time>2017-02-28T19:37:38Z</time>
      </trkpt>
      <trkpt lat="44.43746" lon="3.66162">
        <ele>1533</ele>
        <time>2017-02-28T19:39:38Z</time>
      </trkpt>
      <trkpt lat="44.4376" lon="3.66211">
        <ele>1533</ele>
        <time>2017-02-28T19:41:38Z</time>
      </trkpt>
      <trkpt lat="44.43765" lon="3.66235">
        <ele>1533</ele>
        <time>2017-02-28T19:43:38Z</time>
      </trkpt>
      <trkpt lat="44.43767" lon="3.66253">
        <ele>1532</ele>
        <time>2017-02-28T19:45:38Z</time>
      </trkpt>
      <trkpt lat="44.43767" lon="3.66274">
        <ele>1533</ele>
        <time>2017-02-28T19:47:38Z</time>
      </trkpt>
      <trkpt lat="44.43767" lon="3.663">
        <ele>1533</ele>
        <time>2017-02-28T19:49:38Z</time>
      </trkpt>
      <trkpt lat="44.43764" lon="3.66343">
        <ele>1534</ele>
        <time>2017-02-28T19:51:38Z</time>
      </trkpt>
      <trkpt lat="44.4376" lon="3.66396">
        <ele>1535</ele>
        <time>2017-02-28T19:53:38Z</time>
      </trkpt>
      <trkpt lat="44.43757" lon="3.66422">
        <ele>1536</ele>
        <time>2017-02-28T19:55:38Z</time>
      </trkpt>
      <trkpt lat="44.43751" lon="3.6646">
        <ele>1537</ele>
        <time>2017-02-28T19:57:38Z</time>
      </trkpt>
      <trkpt lat="44.43743" lon="3.66499">
        <ele>1537</ele>
        <time>2017-02-28T19:59:38Z</time>
      </trkpt>
      <trkpt lat="44.43735" lon="3.66537">
        <ele>1539</ele>
        <time>2017-02-28T20:01:38Z</time>
      </trkpt>
      <trkpt lat="44.43731" lon="3.66549">
        <ele>1540</ele>
        <time>2017-02-28T20:03:38Z</time>
      </trkpt>
      <trkpt lat="44.43719" lon="3.6658">
        <ele>1540</ele>
        <time>2017-02-28T20:05:38Z</time>
      </trkpt>
      <trkpt lat="44.43707" lon="3.66606">
        <ele>1541</ele>
        <time>2017-02-28T20:07:38Z</time>
      </trkpt>
      <trkpt lat="44.43701" lon="3.66616">
        <ele>1541</ele>
        <time>2017-02-28T20:09:38Z</time>
      </trkpt>
      <trkpt lat="44.43698" lon="3.66622">
        <ele>1541</ele>
        <time>2017-02-28T20:11:38Z</time>
      </trkpt>
      <trkpt lat="44.4368" lon="3.66646">
        <ele>1540</ele>
        <time>2017-02-28T20:13:38Z</time>
      </trkpt>
      <trkpt lat="44.43664" lon="3.66666">
        <ele>1540</ele>
        <time>2017-02-28T20:15:38Z</time>
      </trkpt>
      <trkpt lat="44.4364" lon="3.66691">
        <ele>1542</ele>
        <time>2017-02-28T20:17:38Z</time>
      </trkpt>
      <trkpt lat="44.43618" lon="3.66711">
        <ele>1544</ele>
        <time>2017-02-28T20:19:38Z</time>
      </trkpt>
      <trkpt lat="44.43589" lon="3.66732">
        <ele>1545</ele>
        <time>2017-02-28T20:21:38Z</time>
      </trkpt>
      <trkpt lat="44.43561" lon="3.66751">
        <ele>1545</ele>
        <time>2017-02-28T20:23:38Z</time>
      </trkpt>
      <trkpt lat="44.43529" lon="3.66769">
        <ele>1546</ele>
        <time>2017-02-28T20:25:38Z</time>
      </trkpt>
      <trkpt lat="44.43493" lon="3.66785">
        <ele>1547</ele>
        <time>2017-02-28T20:27:38Z</time>
      </trkpt>
      <trkpt lat="44.43457" lon="3.66802">
        <ele>1548</ele>
        <time>2017-02-28T20:29:38Z</time>
      </trkpt>
      <trkpt lat="44.4344" lon="3.66813">
        <ele>1549</ele>
        <time>2017-02-28T20:31:38Z</time>
      </trkpt>
      <trkpt lat="44.43431" lon="3.6682">
        <ele>1549</ele>
        <time>2017-02-28T20:33:38Z</time>
      </trkpt>
      <trkpt lat="44.43423" lon="3.66829">
        <ele>1550</ele>
        <time>2017-02-28T20:35:38Z</time>
      </trkpt>
      <trkpt lat="44.43418" lon="3.66836">
        <ele>1550</ele>
        <time>2017-02-28T20:37:38Z</time>
      </trkpt>
      <trkpt lat="44.43414" lon="3.66845">
        <ele>1550</ele>
        <time>2017-02-28T20:39:38Z</time>
      </trkpt>
      <trkpt lat="44.43411" lon="3.66859">
        <ele>1551</ele>
        <time>2017-02-28T20:41:38Z</time>
      </trkpt>
      <trkpt lat="44.43408" lon="3.66873">
        <ele>1551</ele>
        <time>2017-02-28T20:43:38Z</time>
      </trkpt>
      <trkpt lat="44.43407" lon="3.66892">
        <ele>1552</ele>
        <time>2017-02-28T20:45:38Z</time>
      </trkpt>
      <trkpt lat="44.43406" lon="3.66912">
        <ele>1553</ele>
        <time>2017-02-28T20:47:38Z</time>
      </trkpt>
      <trkpt lat="44.43406" lon="3.66931">
        <ele>1553</ele>
        <time>2017-02-28T20:49:38Z</time>
      </trkpt>
      <trkpt lat="44.43407" lon="3.66954">
        <ele>1554</ele>
        <time>2017-02-28T20:51:38Z</time>
      </trkpt>
      <trkpt lat="44.43409" lon="3.66976">
        <ele>1554</ele>
        <time>2017-02-28T20:53:38Z</time>
      </trkpt>
      <trkpt lat="44.43424" lon="3.67086">
        <ele>1557</ele>
        <time>2017-02-28T20:55:38Z</time>
      </trkpt>
      <trkpt lat="44.4343" lon="3.67143">
        <ele>1557</ele>
        <time>2017-02-28T20:57:38Z</time>
      </trkpt>
      <trkpt lat="44.43435" lon="3.67168">
        <ele>1557</ele>
        <time>2017-02-28T20:59:38Z</time>
      </trkpt>
      <trkpt lat="44.43438" lon="3.6718">
        <ele>1557</ele>
        <time>2017-02-28T21:01:38Z</time>
      </trkpt>
      <trkpt lat="44.43442" lon="3.67192">
        <ele>1557</ele>
        <time>2017-02-28T21:03:38Z</time>
      </trkpt>
      <trkpt lat="44.43447" lon="3.67204">
        <ele>1557</ele>
        <time>2017-02-28T21:05:38Z</time>
      </trkpt>
      <trkpt lat="44.43453" lon="3.67214">
        <ele>1557</ele>
        <time>2017-02-28T21:07:38Z</time>
      </trkpt>
      <trkpt lat="44.43461" lon="3.67224">
        <ele>1557</ele>
        <time>2017-02-28T21:09:38Z</time>
      </trkpt>
      <trkpt lat="44.43486" lon="3.67253">
        <ele>1558</ele>
        <time>2017-02-28T21:11:38Z</time>
      </trkpt>
      <trkpt lat="44.43531" lon="3.67302">
        <ele>1558</ele>
        <time>2017-02-28T21:13:38Z</time>
      </trkpt>
      <trkpt lat="44.4356" lon="3.67331">
        <ele>1559</ele>
        <time>2017-02-28T21:15:38Z</time>
      </trkpt>
      <trkpt lat="44.43572" lon="3.67342">
        <ele>1559</ele>
        <time>2017-02-28T21:17:38Z</time>
      </trkpt>
      <trkpt lat="44.43581" lon="3.67352">
        <ele>1559</ele>
        <time>2017-02-28T21:19:38Z</time>
      </trkpt>
      <trkpt lat="44.43589" lon="3.67363">
        <ele>1560</ele>
        <time>2017-02-28T21:21:38Z</time>
      </trkpt>
      <trkpt lat="44.43595" lon="3.67376">
        <ele>1559</ele>
        <time>2017-02-28T21:23:38Z</time>
      </trkpt>
      <trkpt lat="44.43601" lon="3.67388">
        <ele>1559</ele>
        <time>2017-02-28T21:25:38Z</time>
      </trkpt>
      <trkpt lat="44.43606" lon="3.67403">
        <ele>1559</ele>
        <time>2017-02-28T21:27:38Z</time>
      </trkpt>
      <trkpt lat="44.4361" lon="3.67419">
        <ele>1558</ele>
        <time>2017-02-28T21:29:38Z</time>
      </trkpt>
      <trkpt lat="44.43614" lon="3.67436">
        <ele>1559</ele>
        <time>2017-02-28T21:31:38Z</time>
      </trkpt>
      <trkpt lat="44.43616" lon="3.67454">
        <ele>1558</ele>
        <time>2017-02-28T21:33:38Z</time>
      </trkpt>
      <trkpt lat="44.43617" lon="3.67471">
        <ele>1558</ele>
        <time>2017-02-28T21:35:38Z</time>
      </trkpt>
      <trkpt lat="44.43618" lon="3.67507">
        <ele>1558</ele>
        <time>2017-02-28T21:37:38Z</time>
      </trkpt>
      <trkpt lat="44.43618" lon="3.6751">
        <ele>1558</ele>
        <time>2017-02-28T21:39:38Z</time>
      </trkpt>
      <trkpt lat="44.43618" lon="3.67553">
        <ele>1558</ele>
        <time>2017-02-28T21:41:38Z</time>
      </trkpt>
      <trkpt lat="44.43618" lon="3.67562">
        <ele>1558</ele>
        <time>2017-02-28T21:43:38Z</time>
      </trkpt>
      <trkpt lat="44.43619" lon="3.6766">
        <ele>1559</ele>
        <time>2017-02-28T21:45:38Z</time>
      </trkpt>
      <trkpt lat="44.43619" lon="3.67722">
        <ele>1559</ele>
        <time>2017-02-28T21:47:38Z</time>
      </trkpt>
      <trkpt lat="44.43619" lon="3.67734">
        <ele>1559</ele>
        <time>2017-02-28T21:49:38Z</time>
      </trkpt>
      <trkpt lat="44.43619" lon="3.67757">
        <ele>1559</ele>
        <time>2017-02-28T21:51:38Z</time>
      </trkpt>
      <trkpt lat="44.43619" lon="3.67778">
        <ele>1559</ele>
        <time>2017-02-28T21:53:38Z</time>
      </trkpt>
      <trkpt lat="44.43617" lon="3.67799">
        <ele>1558</ele>
        <time>2017-02-28T21:55:38Z</time>
      </trkpt>
      <trkpt lat="44.43614" lon="3.67822">
        <ele>1558</ele>
        <time>2017-02-28T21:57:38Z</time>
      </trkpt>
      <trkpt lat="44.43609" lon="3.67844">
        <ele>1557</ele>
        <time>2017-02-28T21:59:38Z</time>
      </trkpt>
      <trkpt lat="44.43604" lon="3.6786">
        <ele>1557</ele>
        <time>2017-02-28T22:01:38Z</time>
      </trkpt>
      <trkpt lat="44.43598" lon="3.67877">
        <ele>1556</ele>
        <time>2017-02-28T22:03:38Z</time>
      </trkpt>
      <trkpt lat="44.43586" lon="3.67908">
        <ele>1556</ele>
        <time>2017-02-28T22:05:38Z</time>
      </trkpt>
      <trkpt lat="44.43571" lon="3.67947">
        <ele>1555</ele>
        <time>2017-02-28T22:07:38Z</time>
      </trkpt>
      <trkpt lat="44.43559" lon="3.67979">
        <ele>1554</ele>
        <time>2017-02-28T22:09:38Z</time>
      </trkpt>
      <trkpt lat="44.4355" lon="3.67998">
        <ele>1553</ele>
        <time>2017-02-28T22:11:38Z</time>
      </trkpt>
      <trkpt lat="44.43539" lon="3.68014">
        <ele>1553</ele>
        <time>2017-02-28T22:13:38Z</time>
      </trkpt>
      <trkpt lat="44.43528" lon="3.68032">
        <ele>1552</ele>
        <time>2017-02-28T22:15:38Z</time>
      </trkpt>
      <trkpt lat="44.43519" lon="3.68046">
        <ele>1552</ele>
        <time>2017-02-28T22:17:38Z</time>
      </trkpt>
      <trkpt lat="44.43513" lon="3.68057">
        <ele>1552</ele>
        <time>2017-02-28T22:19:38Z</time>
      </trkpt>
      <trkpt lat="44.4351" lon="3.68068">
        <ele>1552</ele>
        <time>2017-02-28T22:21:38Z</time>
      </trkpt>
      <trkpt lat="44.43508" lon="3.68082">
        <ele>1552</ele>
        <time>2017-02-28T22:23:38Z</time>
      </trkpt>
      <trkpt lat="44.43507" lon="3.68096">
        <ele>1552</ele>
        <time>2017-02-28T22:25:38Z</time>
      </trkpt>
      <trkpt lat="44.43509" lon="3.68109">
        <ele>1553</ele>
        <time>2017-02-28T22:27:38Z</time>
      </trkpt>
      <trkpt lat="44.43512" lon="3.68121">
        <ele>1553</ele>
        <time>2017-02-28T22:29:38Z</time>
      </trkpt>
      <trkpt lat="44.43517" lon="3.68134">
        <ele>1553</ele>
        <time>2017-02-28T22:31:38Z</time>
      </trkpt>
      <trkpt lat="44.43532" lon="3.68156">
        <ele>1553</ele>
        <time>2017-02-28T22:33:38Z</time>
      </trkpt>
      <trkpt lat="44.4356" lon="3.68198">
        <ele>1553</ele>
        <time>2017-02-28T22:35:38Z</time>
      </trkpt>
      <trkpt lat="44.43581" lon="3.68224">
        <ele>1553</ele>
        <time>2017-02-28T22:37:38Z</time>
      </trkpt>
      <trkpt lat="44.43593" lon="3.68239">
        <ele>1552</ele>
        <time>2017-02-28T22:39:38Z</time>
      </trkpt>
      <trkpt lat="44.43599" lon="3.6825">
        <ele>1552</ele>
        <time>2017-02-28T22:41:38Z</time>
      </trkpt>
      <trkpt lat="44.43604" lon="3.68262">
        <ele>1551</ele>
        <time>2017-02-28T22:43:38Z</time>
      </trkpt>
      <trkpt lat="44.43609" lon="3.68278">
        <ele>1550</ele>
        <time>2017-02-28T22:45:38Z</time>
      </trkpt>
      <trkpt lat="44.43613" lon="3.68297">
        <ele>1550</ele>
        <time>2017-02-28T22:47:38Z</time>
      </trkpt>
      <trkpt lat="44.43618" lon="3.68322">
        <ele>1549</ele>
        <time>2017-02-28T22:49:38Z</time>
      </trkpt>
      <trkpt lat="44.43623" lon="3.68338">
        <ele>1548</ele>
        <time>2017-02-28T22:51:38Z</time>
      </trkpt>
      <trkpt lat="44.43632" lon="3.68373">
        <ele>1547</ele>
        <time>2017-02-28T22:53:38Z</time>
      </trkpt>
      <trkpt lat="44.43638" lon="3.68404">
        <ele>1546</ele>
        <time>2017-02-28T22:55:38Z</time>
      </trkpt>
      <trkpt lat="44.4364" lon="3.68423">
        <ele>1546</ele>
        <time>2017-02-28T22:57:38Z</time>
      </trkpt>
      <trkpt lat="44.43641" lon="3.68437">
        <ele>1545</ele>
        <time>2017-02-28T22:59:38Z</time>
      </trkpt>
      <trkpt lat="44.43639" lon="3.68453">
        <ele>1545</ele>
        <time>2017-02-28T23:01:38Z</time>
      </trkpt>
      <trkpt lat="44.43636" lon="3.68476">
        <ele>1545</ele>
        <time>2017-02-28T23:03:38Z</time>
      </trkpt>
      <trkpt lat="44.43632" lon="3.68507">
        <ele>1544</ele>
        <time>2017-02-28T23:05:38Z</time>
      </trkpt>
      <trkpt lat="44.4363" lon="3.68525">
        <ele>1544</ele>
        <time>2017-02-28T23:07:38Z</time>
      </trkpt>
      <trkpt lat="44.43628" lon="3.68552">
        <ele>1543</ele>
        <time>2017-02-28T23:09:38Z</time>
      </trkpt>
      <trkpt lat="44.43624" lon="3.6864">
        <ele>1542</ele>
        <time>2017-02-28T23:11:38Z</time>
      </trkpt>
      <trkpt lat="44.43622" lon="3.68665">
        <ele>1542</ele>
        <time>2017-02-28T23:13:38Z</time>
      </trkpt>
      <trkpt lat="44.4362" lon="3.68684">
        <ele>1542</ele>
        <time>2017-02-28T23:15:38Z</time>
      </trkpt>
      <trkpt lat="44.43617" lon="3.68705">
        <ele>1541</ele>
        <time>2017-02-28T23:17:38Z</time>
      </trkpt>
      <trkpt lat="44.43615" lon="3.68717">
        <ele>1541</ele>
        <time>2017-02-28T23:19:38Z</time>
      </trkpt>
      <trkpt lat="44.43615" lon="3.68729">
        <ele>1541</ele>
        <time>2017-02-28T23:21:38Z</time>
      </trkpt>
      <trkpt lat="44.43616" lon="3.68739">
        <ele>1541</ele>
        <time>2017-02-28T23:23:38Z</time>
      </trkpt>
      <trkpt lat="44.4362" lon="3.68763">
        <ele>1540</ele>
        <time>2017-02-28T23:25:38Z</time>
      </trkpt>
      <trkpt lat="44.43625" lon="3.68789">
        <ele>1539</ele>
        <time>2017-02-28T23:27:38Z</time>
      </trkpt>
      <trkpt lat="44.43628" lon="3.68808">
        <ele>1539</ele>
        <time>2017-02-28T23:29:38Z</time>
      </trkpt>
      <trkpt lat="44.43628" lon="3.68808">
        <ele>1539</ele>
        <time>2017-02-28T23:31:38Z</time>
      </trkpt>
      <trkpt lat="44.43613" lon="3.68824">
        <ele>1540</ele>
        <time>2017-02-28T23:33:38Z</time>
      </trkpt>
      <trkpt lat="44.43611" lon="3.68827">
        <ele>1540</ele>
        <time>2017-02-28T23:35:38Z</time>
      </trkpt>
      <trkpt lat="44.43608" lon="3.68833">
        <ele>1541</ele>
        <time>2017-02-28T23:37:38Z</time>
      </trkpt>
      <trkpt lat="44.436" lon="3.68853">
        <ele>1542</ele>
        <time>2017-02-28T23:39:38Z</time>
      </trkpt>
      <trkpt lat="44.43584" lon="3.68891">
        <ele>1544</ele>
        <time>2017-02-28T23:41:38Z</time>
      </trkpt>
      <trkpt lat="44.43572" lon="3.68919">
        <ele>1545</ele>
        <time>2017-02-28T23:43:38Z</time>
      </trkpt>
      <trkpt lat="44.43561" lon="3.6895">
        <ele>1546</ele>
        <time>2017-02-28T23:45:38Z</time>
      </trkpt>
      <trkpt lat="44.43545" lon="3.68986">
        <ele>1548</ele>
        <time>2017-02-28T23:47:38Z</time>
      </trkpt>
      <trkpt lat="44.43531" lon="3.69017">
        <ele>1549</ele>
        <time>2017-02-28T23:49:38Z</time>
      </trkpt>
      <trkpt lat="44.43519" lon="3.69044">
        <ele>1550</ele>
        <time>2017-02-28T23:51:38Z</time>
      </trkpt>
      <trkpt lat="44.43507" lon="3.69074">
        <ele>1552</ele>
        <time>2017-02-28T23:53:38Z</time>
      </trkpt>
      <trkpt lat="44.43501" lon="3.69088">
        <ele>1552</ele>
        <time>2017-02-28T23:55:38Z</time>
      </trkpt>
      <trkpt lat="44.43498" lon="3.69095">
        <ele>1553</ele>
        <time>2017-02-28T23:57:38Z</time>
      </trkpt>
      <trkpt lat="44.43494" lon="3.69102">
        <ele>1553</ele>
        <time>2017-02-28T23:59:38Z</time>
      </trkpt>
      <trkpt lat="44.43486" lon="3.69118">
        <ele>1554</ele>
        <time>2017-03-01T00:01:38Z</time>
      </trkpt>
      <trkpt lat="44.43484" lon="3.69123">
        <ele>1554</ele>
        <time>2017-03-01T00:03:38Z</time>
      </trkpt>
      <trkpt lat="44.43472" lon="3.69149">
        <ele>1555</ele>
        <time>2017-03-01T00:05:38Z</time>
      </trkpt>
      <trkpt lat="44.43459" lon="3.69169">
        <ele>1556</ele>
        <time>2017-03-01T00:07:38Z</time>
      </trkpt>
      <trkpt lat="44.43455" lon="3.69174">
        <ele>1557</ele>
        <time>2017-03-01T00:09:38Z</time>
      </trkpt>
      <trkpt lat="44.43438" lon="3.69198">
        <ele>1559</ele>
        <time>2017-03-01T00:11:38Z</time>
      </trkpt>
      <trkpt lat="44.43419" lon="3.69224">
        <ele>1561</ele>
        <time>2017-03-01T00:13:38Z</time>
      </trkpt>
      <trkpt lat="44.43407" lon="3.69237">
        <ele>1562</ele>
        <time>2017-03-01T00:15:38Z</time>
      </trkpt>
      <trkpt lat="44.43395" lon="3.69249">
        <ele>1563</ele>
        <time>2017-03-01T00:17:38Z</time>
      </trkpt>
      <trkpt lat="44.43381" lon="3.69265">
        <ele>1564</ele>
        <time>2017-03-01T00:19:38Z</time>
      </trkpt>
      <trkpt lat="44.43362" lon="3.69287">
        <ele>1565</ele>
        <time>2017-03-01T00:21:38Z</time>
      </trkpt>
      <trkpt lat="44.43342" lon="3.69304">
        <ele>1566</ele>
        <time>2017-03-01T00:23:38Z</time>
      </trkpt>
      <trkpt lat="44.43338" lon="3.69307">
        <ele>1566</ele>
        <time>2017-03-01T00:25:38Z</time>
      </trkpt>
      <trkpt lat="44.43325" lon="3.69319">
        <ele>1567</ele>
        <time>2017-03-01T00:27:38Z</time>
      </trkpt>
      <trkpt lat="44.43306" lon="3.69328">
        <ele>1567</ele>
        <time>2017-03-01T00:29:38Z</time>
      </trkpt>
      <trkpt lat="44.43288" lon="3.6934">
        <ele>1567</ele>
        <time>2017-03-01T00:31:38Z</time>
      </trkpt>
      <trkpt lat="44.43262" lon="3.69359">
        <ele>1569</ele>
        <time>2017-03-01T00:33:38Z</time>
      </trkpt>
      <trkpt lat="44.43247" lon="3.69368">
        <ele>1569</ele>
        <time>2017-03-01T00:35:38Z</time>
      </trkpt>
      <trkpt lat="44.43237" lon="3.69372">
        <ele>1570</ele>
        <time>2017-03-01T00:37:38Z</time>
      </trkpt>
      <trkpt lat="44.43219" lon="3.69378">
        <ele>1570</ele>
        <time>2017-03-01T00:39:38Z</time>
      </trkpt>
      <trkpt lat="44.43199" lon="3.69385">
        <ele>1570</ele>
        <time>2017-03-01T00:41:38Z</time>
      </trkpt>
      <trkpt lat="44.43176" lon="3.69394">
        <ele>1571</ele>
        <time>2017-03-01T00:43:38Z</time>
      </trkpt>
      <trkpt lat="44.43156" lon="3.694">
        <ele>1571</ele>
        <time>2017-03-01T00:45:38Z</time>
      </trkpt>
      <trkpt lat="44.4313" lon="3.69405">
        <ele>1571</ele>
        <time>2017-03-01T00:47:38Z</time>
      </trkpt>
      <trkpt lat="44.43099" lon="3.69411">
        <ele>1571</ele>
        <time>2017-03-01T00:49:38Z</time>
      </trkpt>
      <trkpt lat="44.43084" lon="3.69414">
        <ele>1571</ele>
        <time>2017-03-01T00:51:38Z</time>
      </trkpt>
      <trkpt lat="44.4307" lon="3.69416">
        <ele>1571</ele>
        <time>2017-03-01T00:53:38Z</time>
      </trkpt>
      <trkpt lat="44.43062" lon="3.69416">
        <ele>1571</ele>
        <time>2017-03-01T00:55:38Z</time>
      </trkpt>
      <trkpt lat="44.43038" lon="3.69425">
        <ele>1572</ele>
        <time>2017-03-01T00:57:38Z</time>
      </trkpt>
      <trkpt lat="44.43023" lon="3.69429">
        <ele>1572</ele>
        <time>2017-03-01T00:59:38Z</time>
      </trkpt>
      <trkpt lat="44.4301" lon="3.69434">
        <ele>1572</ele>
        <time>2017-03-01T01:01:38Z</time>
      </trkpt>
      <trkpt lat="44.42999" lon="3.69439">
        <ele>1573</ele>
        <time>2017-03-01T01:03:38Z</time>
      </trkpt>
      <trkpt lat="44.42989" lon="3.69447">
        <ele>1573</ele>
        <time>2017-03-01T01:05:38Z</time>
      </trkpt>
      <trkpt lat="44.42976" lon="3.6946">
        <ele>1574</ele>
        <time>2017-03-01T01:07:38Z</time>
      </trkpt>
      <trkpt lat="44.42955" lon="3.69485">
        <ele>1576</ele>
        <time>2017-03-01T01:09:38Z</time>
      </trkpt>
      <trkpt lat="44.42937" lon="3.69511">
        <ele>1577</ele>
        <time>2017-03-01T01:11:38Z</time>
      </trkpt>
      <trkpt lat="44.42919" lon="3.69537">
        <ele>1578</ele>
        <time>2017-03-01T01:13:38Z</time>
      </trkpt>
      <trkpt lat="44.42903" lon="3.69564">
        <ele>1580</ele>
        <time>2017-03-01T01:15:38Z</time>
      </trkpt>
      <trkpt lat="44.42887" lon="3.69596">
        <ele>1581</ele>
        <time>2017-03-01T01:17:38Z</time>
      </trkpt>
      <trkpt lat="44.42862" lon="3.69651">
        <ele>1584</ele>
        <time>2017-03-01T01:19:38Z</time>
      </trkpt>
      <trkpt lat="44.4284" lon="3.697">
        <ele>1586</ele>
        <time>2017-03-01T01:21:38Z</time>
      </trkpt>
      <trkpt lat="44.42818" lon="3.69745">
        <ele>1587</ele>
        <time>2017-03-01T01:23:38Z</time>
      </trkpt>
      <trkpt lat="44.42798" lon="3.69786">
        <ele>1588</ele>
        <time>2017-03-01T01:25:38Z</time>
      </trkpt>
      <trkpt lat="44.42786" lon="3.69811">
        <ele>1589</ele>
        <time>2017-03-01T01:27:38Z</time>
      </trkpt>
      <trkpt lat="44.42775" lon="3.69838">
        <ele>1590</ele>
        <time>2017-03-01T01:29:38Z</time>
      </trkpt>
      <trkpt lat="44.42769" lon="3.69858">
        <ele>1591</ele>
        <time>2017-03-01T01:31:38Z</time>
      </trkpt>
      <trkpt lat="44.4276" lon="3.69888">
        <ele>1592</ele>
        <time>2017-03-01T01:33:38Z</time>
      </trkpt>
      <trkpt lat="44.42753" lon="3.69918">
        <ele>1593</ele>
        <time>2017-03-01T01:35:38Z</time>
      </trkpt>
      <trkpt lat="44.42748" lon="3.69943">
        <ele>1593</ele>
        <time>2017-03-01T01:37:38Z</time>
      </trkpt>
      <trkpt lat="44.42748" lon="3.69945">
        <ele>1594</ele>
        <time>2017-03-01T01:39:38Z</time>
      </trkpt>
      <trkpt lat="44.42748" lon="3.69963">
        <ele>1594</ele>
        <time>2017-03-01T01:41:38Z</time>
      </trkpt>
      <trkpt lat="44.42749" lon="3.69971">
        <ele>1594</ele>
        <time>2017-03-01T01:43:38Z</time>
      </trkpt>
      <trkpt lat="44.42751" lon="3.69983">
        <ele>1595</ele>
        <time>2017-03-01T01:45:38Z</time>
      </trkpt>
      <trkpt lat="44.42762" lon="3.70015">
        <ele>1597</ele>
        <time>2017-03-01T01:47:38Z</time>
      </trkpt>
      <trkpt lat="44.42774" lon="3.70049">
        <ele>1598</ele>
        <time>2017-03-01T01:49:38Z</time>
      </trkpt>
      <trkpt lat="44.42784" lon="3.70076">
        <ele>1599</ele>
        <time>2017-03-01T01:51:38Z</time>
      </trkpt>
      <trkpt lat="44.4279" lon="3.70097">
        <ele>1600</ele>
        <time>2017-03-01T01:53:38Z</time>
      </trkpt>
      <trkpt lat="44.42797" lon="3.70127">
        <ele>1600</ele>
        <time>2017-03-01T01:55:38Z</time>
      </trkpt>
      <trkpt lat="44.42802" lon="3.70157">
        <ele>1600</ele>
        <time>2017-03-01T01:57:38Z</time>
      </trkpt>
      <trkpt lat="44.4281" lon="3.70205">
        <ele>1600</ele>
        <time>2017-03-01T01:59:38Z</time>
      </trkpt>
      <trkpt lat="44.42816" lon="3.70246">
        <ele>1601</ele>
        <time>2017-03-01T02:01:38Z</time>
      </trkpt>
      <trkpt lat="44.42821" lon="3.70291">
        <ele>1603</ele>
        <time>2017-03-01T02:03:38Z</time>
      </trkpt>
      <trkpt lat="44.42825" lon="3.70335">
        <ele>1605</ele>
        <time>2017-03-01T02:05:38Z</time>
      </trkpt>
      <trkpt lat="44.42827" lon="3.70363">
        <ele>1605</ele>
        <time>2017-03-01T02:07:38Z</time>
      </trkpt>
      <trkpt lat="44.42828" lon="3.70393">
        <ele>1606</ele>
        <time>2017-03-01T02:09:38Z</time>
      </trkpt>
      <trkpt lat="44.42829" lon="3.70436">
        <ele>1607</ele>
        <time>2017-03-01T02:11:38Z</time>
      </trkpt>
      <trkpt lat="44.42828" lon="3.70464">
        <ele>1608</ele>
        <time>2017-03-01T02:13:38Z</time>
      </trkpt>
      <trkpt lat="44.42827" lon="3.70487">
        <ele>1609</ele>
        <time>2017-03-01T02:15:38Z</time>
      </trkpt>
      <trkpt lat="44.42822" lon="3.7051">
        <ele>1609</ele>
        <time>2017-03-01T02:17:38Z</time>
      </trkpt>
      <trkpt lat="44.42817" lon="3.70528">
        <ele>1609</ele>
        <time>2017-03-01T02:19:38Z</time>
      </trkpt>
      <trkpt lat="44.42802" lon="3.7057">
        <ele>1609</ele>
        <time>2017-03-01T02:21:38Z</time>
      </trkpt>
      <trkpt lat="44.42783" lon="3.70621">
        <ele>1609</ele>
        <time>2017-03-01T02:23:38Z</time>
      </trkpt>
      <trkpt lat="44.42754" lon="3.70691">
        <ele>1607</ele>
        <time>2017-03-01T02:25:38Z</time>
      </trkpt>
      <trkpt lat="44.42742" lon="3.70724">
        <ele>1607</ele>
        <time>2017-03-01T02:27:38Z</time>
      </trkpt>
      <trkpt lat="44.42738" lon="3.70742">
        <ele>1607</ele>
        <time>2017-03-01T02:29:38Z</time>
      </trkpt>
      <trkpt lat="44.42736" lon="3.70754">
        <ele>1606</ele>
        <time>2017-03-01T02:31:38Z</time>
      </trkpt>
      <trkpt lat="44.42735" lon="3.70767">
        <ele>1606</ele>
        <time>2017-03-01T02:33:38Z</time>
      </trkpt>
      <trkpt lat="44.42736" lon="3.70781">
        <ele>1606</ele>
        <time>2017-03-01T02:35:38Z</time>
      </trkpt>
      <trkpt lat="44.42738" lon="3.70796">
        <ele>1606</ele>
        <time>2017-03-01T02:37:38Z</time>
      </trkpt>
      <trkpt lat="44.42743" lon="3.7081">
        <ele>1606</ele>
        <time>2017-03-01T02:39:38Z</time>
      </trkpt>
      <trkpt lat="44.42756" lon="3.70838">
        <ele>1607</ele>
        <time>2017-03-01T02:41:38Z</time>
      </trkpt>
      <trkpt lat="44.42772" lon="3.70867">
        <ele>1606</ele>
        <time>2017-03-01T02:43:38Z</time>
      </trkpt>
      <trkpt lat="44.42785" lon="3.7089">
        <ele>1606</ele>
        <time>2017-03-01T02:45:38Z</time>
      </trkpt>
      <trkpt lat="44.42804" lon="3.70917">
        <ele>1606</ele>
        <time>2017-03-01T02:47:38Z</time>
      </trkpt>
      <trkpt lat="44.42821" lon="3.70937">
        <ele>1605</ele>
        <time>2017-03-01T02:49:38Z</time>
      </trkpt>
      <trkpt lat="44.42836" lon="3.70952">
        <ele>1604</ele>
        <time>2017-03-01T02:51:38Z</time>
      </trkpt>
      <trkpt lat="44.42859" lon="3.70972">
        <ele>1604</ele>
        <time>2017-03-01T02:53:38Z</time>
      </trkpt>
      <trkpt lat="44.42884" lon="3.70993">
        <ele>1605</ele>
        <time>2017-03-01T02:55:38Z</time>
      </trkpt>
      <trkpt lat="44.42904" lon="3.71014">
        <ele>1606</ele>
        <time>2017-03-01T02:57:38Z</time>
      </trkpt>
      <trkpt lat="44.42916" lon="3.71028">
        <ele>1606</ele>
        <time>2017-03-01T02:59:38Z</time>
      </trkpt>
      <trkpt lat="44.42926" lon="3.71042">
        <ele>1606</ele>
        <time>2017-03-01T03:01:38Z</time>
      </trkpt>
      <trkpt lat="44.42934" lon="3.7106">
        <ele>1605</ele>
        <time>2017-03-01T03:03:38Z</time>
      </trkpt>
      <trkpt lat="44.4294" lon="3.71076">
        <ele>1604</ele>
        <time>2017-03-01T03:05:38Z</time>
      </trkpt>
      <trkpt lat="44.42945" lon="3.71092">
        <ele>1604</ele>
        <time>2017-03-01T03:07:38Z</time>
      </trkpt>
      <trkpt lat="44.42954" lon="3.71129">
        <ele>1603</ele>
        <time>2017-03-01T03:09:38Z</time>
      </trkpt>
      <trkpt lat="44.42965" lon="3.71191">
        <ele>1603</ele>
        <time>2017-03-01T03:11:38Z</time>
      </trkpt>
      <trkpt lat="44.42971" lon="3.71231">
        <ele>1604</ele>
        <time>2017-03-01T03:13:38Z</time>
      </trkpt>
      <trkpt lat="44.42972" lon="3.71249">
        <ele>1605</ele>
        <time>2017-03-01T03:15:38Z</time>
      </trkpt>
      <trkpt lat="44.42971" lon="3.71261">
        <ele>1605</ele>
        <time>2017-03-01T03:17:38Z</time>
      </trkpt>
      <trkpt lat="44.42969" lon="3.7128">
        <ele>1605</ele>
        <time>2017-03-01T03:19:38Z</time>
      </trkpt>
      <trkpt lat="44.42963" lon="3.71306">
        <ele>1605</ele>
        <time>2017-03-01T03:21:38Z</time>
      </trkpt>
      <trkpt lat="44.42953" lon="3.71335">
        <ele>1604</ele>
        <time>2017-03-01T03:23:38Z</time>
      </trkpt>
      <trkpt lat="44.42941" lon="3.71364">
        <ele>1605</ele>
        <time>2017-03-01T03:25:38Z</time>
      </trkpt>
      <trkpt lat="44.4293" lon="3.71385">
        <ele>1605</ele>
        <time>2017-03-01T03:27:38Z</time>
      </trkpt>
      <trkpt lat="44.42914" lon="3.71413">
        <ele>1604</ele>
        <time>2017-03-01T03:29:38Z</time>
      </trkpt>
      <trkpt lat="44.42887" lon="3.7146">
        <ele>1607</ele>
        <time>2017-03-01T03:31:38Z</time>
      </trkpt>
      <trkpt lat="44.42843" lon="3.71537">
        <ele>1613</ele>
        <time>2017-03-01T03:33:38Z</time>
      </trkpt>
      <trkpt lat="44.4281" lon="3.7159">
        <ele>1615</ele>
        <time>2017-03-01T03:35:38Z</time>
      </trkpt>
      <trkpt lat="44.4278" lon="3.71641">
        <ele>1616</ele>
        <time>2017-03-01T03:37:38Z</time>
      </trkpt>
      <trkpt lat="44.42759" lon="3.71675">
        <ele>1617</ele>
        <time>2017-03-01T03:39:38Z</time>
      </trkpt>
      <trkpt lat="44.42742" lon="3.71709">
        <ele>1617</ele>
        <time>2017-03-01T03:41:38Z</time>
      </trkpt>
      <trkpt lat="44.42707" lon="3.7178">
        <ele>1617</ele>
        <time>2017-03-01T03:43:38Z</time>
      </trkpt>
      <trkpt lat="44.42671" lon="3.71855">
        <ele>1620</ele>
        <time>2017-03-01T03:45:38Z</time>
      </trkpt>
      <trkpt lat="44.42636" lon="3.71928">
        <ele>1623</ele>
        <time>2017-03-01T03:47:38Z</time>
      </trkpt>
      <trkpt lat="44.42607" lon="3.71989">
        <ele>1625</ele>
        <time>2017-03-01T03:49:38Z</time>
      </trkpt>
      <trkpt lat="44.42592" lon="3.72027">
        <ele>1627</ele>
        <time>2017-03-01T03:51:38Z</time>
      </trkpt>
      <trkpt lat="44.42579" lon="3.72051">
        <ele>1627</ele>
        <time>2017-03-01T03:53:38Z</time>
      </trkpt>
      <trkpt lat="44.42565" lon="3.72091">
        <ele>1629</ele>
        <time>2017-03-01T03:55:38Z</time>
      </trkpt>
      <trkpt lat="44.42548" lon="3.72143">
        <ele>1631</ele>
        <time>2017-03-01T03:57:38Z</time>
      </trkpt>
      <trkpt lat="44.42536" lon="3.72193">
        <ele>1633</ele>
        <time>2017-03-01T03:59:38Z</time>
      </trkpt>
      <trkpt lat="44.42527" lon="3.72237">
        <ele>1635</ele>
        <time>2017-03-01T04:01:38Z</time>
      </trkpt>
      <trkpt lat="44.42522" lon="3.72261">
        <ele>1636</ele>
        <time>2017-03-01T04:03:38Z</time>
      </trkpt>
      <trkpt lat="44.42519" lon="3.72281">
        <ele>1636</ele>
        <time>2017-03-01T04:05:38Z</time>
      </trkpt>
      <trkpt lat="44.42517" lon="3.72298">
        <ele>1637</ele>
        <time>2017-03-01T04:07:38Z</time>
      </trkpt>
      <trkpt lat="44.42517" lon="3.72311">
        <ele>1637</ele>
        <time>2017-03-01T04:09:38Z</time>
      </trkpt>
      <trkpt lat="44.42518" lon="3.72322">
        <ele>1638</ele>
        <time>2017-03-01T04:11:38Z</time>
      </trkpt>
      <trkpt lat="44.42519" lon="3.72334">
        <ele>1638</ele>
        <time>2017-03-01T04:13:38Z</time>
      </trkpt>
      <trkpt lat="44.42523" lon="3.72345">
        <ele>1638</ele>
        <time>2017-03-01T04:15:38Z</time>
      </trkpt>
      <trkpt lat="44.42529" lon="3.72363">
        <ele>1639</ele>
        <time>2017-03-01T04:17:38Z</time>
      </trkpt>
      <trkpt lat="44.42546" lon="3.72405">
        <ele>1641</ele>
        <time>2017-03-01T04:19:38Z</time>
      </trkpt>
      <trkpt lat="44.42584" lon="3.72492">
        <ele>1644</ele>
        <time>2017-03-01T04:21:38Z</time>
      </trkpt>
      <trkpt lat="44.42617" lon="3.7257">
        <ele>1644</ele>
        <time>2017-03-01T04:23:38Z</time>
      </trkpt>
      <trkpt lat="44.42641" lon="3.72632">
        <ele>1645</ele>
        <time>2017-03-01T04:25:38Z</time>
      </trkpt>
      <trkpt lat="44.42655" lon="3.72673">
        <ele>1646</ele>
        <time>2017-03-01T04:27:38Z</time>
      </trkpt>
      <trkpt lat="44.42662" lon="3.72693">
        <ele>1648</ele>
        <time>2017-03-01T04:29:38Z</time>
      </trkpt>
      <trkpt lat="44.42667" lon="3.72712">
        <ele>1649</ele>
        <time>2017-03-01T04:31:38Z</time>
      </trkpt>
      <trkpt lat="44.42671" lon="3.72731">
        <ele>1649</ele>
        <time>2017-03-01T04:33:38Z</time>
      </trkpt>
      <trkpt lat="44.42673" lon="3.72752">
        <ele>1649</ele>
        <time>2017-03-01T04:35:38Z</time>
      </trkpt>
      <trkpt lat="44.42675" lon="3.7277">
        <ele>1650</ele>
        <time>2017-03-01T04:37:38Z</time>
      </trkpt>
      <trkpt lat="44.42675" lon="3.72795">
        <ele>1650</ele>
        <time>2017-03-01T04:39:38Z</time>
      </trkpt>
      <trkpt lat="44.42673" lon="3.72825">
        <ele>1650</ele>
        <time>2017-03-01T04:41:38Z</time>
      </trkpt>
      <trkpt lat="44.42671" lon="3.72853">
        <ele>1651</ele>
        <time>2017-03-01T04:43:38Z</time>
      </trkpt>
      <trkpt lat="44.42667" lon="3.72877">
        <ele>1652</ele>
        <time>2017-03-01T04:45:38Z</time>
      </trkpt>
      <trkpt lat="44.42663" lon="3.72897">
        <ele>1652</ele>
        <time>2017-03-01T04:47:38Z</time>
      </trkpt>
      <trkpt lat="44.42657" lon="3.72918">
        <ele>1652</ele>
        <time>2017-03-01T04:49:38Z</time>
      </trkpt>
      <trkpt lat="44.4265" lon="3.72938">
        <ele>1653</ele>
        <time>2017-03-01T04:51:38Z</time>
      </trkpt>
      <trkpt lat="44.42642" lon="3.7296">
        <ele>1653</ele>
        <time>2017-03-01T04:53:38Z</time>
      </trkpt>
      <trkpt lat="44.42632" lon="3.72982">
        <ele>1654</ele>
        <time>2017-03-01T04:55:38Z</time>
      </trkpt>
      <trkpt lat="44.42621" lon="3.73006">
        <ele>1655</ele>
        <time>2017-03-01T04:57:38Z</time>
      </trkpt>
      <trkpt lat="44.42604" lon="3.73036">
        <ele>1655</ele>
        <time>2017-03-01T04:59:38Z</time>
      </trkpt>
      <trkpt lat="44.42583" lon="3.73069">
        <ele>1655</ele>
        <time>2017-03-01T05:01:38Z</time>
      </trkpt>
      <trkpt lat="44.42567" lon="3.73092">
        <ele>1656</ele>
        <time>2017-03-01T05:03:38Z</time>
      </trkpt>
      <trkpt lat="44.42547" lon="3.73119">
        <ele>1656</ele>
        <time>2017-03-01T05:05:38Z</time>
      </trkpt>
      <trkpt lat="44.42533" lon="3.73138">
        <ele>1657</ele>
        <time>2017-03-01T05:07:38Z</time>
      </trkpt>
      <trkpt lat="44.42521" lon="3.73153">
        <ele>1657</ele>
        <time>2017-03-01T05:09:38Z</time>
      </trkpt>
      <trkpt lat="44.42506" lon="3.73169">
        <ele>1657</ele>
        <time>2017-03-01T05:11:38Z</time>
      </trkpt>
      <trkpt lat="44.42491" lon="3.73184">
        <ele>1656</ele>
        <time>2017-03-01T05:13:38Z</time>
      </trkpt>
      <trkpt lat="44.42483" lon="3.73193">
        <ele>1656</ele>
        <time>2017-03-01T05:15:38Z</time>
      </trkpt>
      <trkpt lat="44.42474" lon="3.73207">
        <ele>1655</ele>
        <time>2017-03-01T05:17:38Z</time>
      </trkpt>
      <trkpt lat="44.42456" lon="3.73237">
        <ele>1656</ele>
        <time>2017-03-01T05:19:38Z</time>
      </trkpt>
      <trkpt lat="44.42435" lon="3.73277">
        <ele>1657</ele>
        <time>2017-03-01T05:21:38Z</time>
      </trkpt>
      <trkpt lat="44.42417" lon="3.73309">
        <ele>1658</ele>
        <time>2017-03-01T05:23:38Z</time>
      </trkpt>
      <trkpt lat="44.42408" lon="3.73325">
        <ele>1659</ele>
        <time>2017-03-01T05:25:38Z</time>
      </trkpt>
      <trkpt lat="44.42393" lon="3.73349">
        <ele>1660</ele>
        <time>2017-03-01T05:27:38Z</time>
      </trkpt>
      <trkpt lat="44.42363" lon="3.7339">
        <ele>1662</ele>
        <time>2017-03-01T05:29:38Z</time>
      </trkpt>
      <trkpt lat="44.42332" lon="3.73433">
        <ele>1664</ele>
        <time>2017-03-01T05:31:38Z</time>
      </trkpt>
      <trkpt lat="44.42304" lon="3.73474">
        <ele>1668</ele>
        <time>2017-03-01T05:33:38Z</time>
      </trkpt>
      <trkpt lat="44.4228" lon="3.73506">
        <ele>1670</ele>
        <time>2017-03-01T05:35:38Z</time>
      </trkpt>
      <trkpt lat="44.42258" lon="3.73532">
        <ele>1671</ele>
        <time>2017-03-01T05:37:38Z</time>
      </trkpt>
      <trkpt lat="44.42238" lon="3.73556">
        <ele>1670</ele>
        <time>2017-03-01T05:39:38Z</time>
      </trkpt>
      <trkpt lat="44.42233" lon="3.73563">
        <ele>1669</ele>
        <time>2017-03-01T05:41:38Z</time>
      </trkpt>
      <trkpt lat="44.4223" lon="3.73569">
        <ele>1669</ele>
        <time>2017-03-01T05:43:38Z</time>
      </trkpt>
      <trkpt lat="44.4223" lon="3.73577">
        <ele>1670</ele>
        <time>2017-03-01T05:45:38Z</time>
      </trkpt>
      <trkpt lat="44.4223" lon="3.73592">
        <ele>1669</ele>
        <time>2017-03-01T05:47:38Z</time>
      </trkpt>
      <trkpt lat="44.42231" lon="3.7361">
        <ele>1669</ele>
        <time>2017-03-01T05:49:38Z</time>
      </trkpt>
      <trkpt lat="44.42233" lon="3.73628">
        <ele>1668</ele>
        <time>2017-03-01T05:51:38Z</time>
      </trkpt>
      <trkpt lat="44.42239" lon="3.73667">
        <ele>1668</ele>
        <time>2017-03-01T05:53:38Z</time>
      </trkpt>
      <trkpt lat="44.42246" lon="3.73713">
        <ele>1666</ele>
        <time>2017-03-01T05:55:38Z</time>
      </trkpt>
      <trkpt lat="44.42253" lon="3.7375">
        <ele>1665</ele>
        <time>2017-03-01T05:57:38Z</time>
      </trkpt>
      <trkpt lat="44.4226" lon="3.73785">
        <ele>1665</ele>
        <time>2017-03-01T05:59:38Z</time>
      </trkpt>
      <trkpt lat="44.42265" lon="3.73819">
        <ele>1665</ele>
        <time>2017-03-01T06:01:38Z</time>
      </trkpt>
      <trkpt lat="44.42268" lon="3.73841">
        <ele>1664</ele>
        <time>2017-03-01T06:03:38Z</time>
      </trkpt>
      <trkpt lat="44.4227" lon="3.73863">
        <ele>1664</ele>
        <time>2017-03-01T06:05:38Z</time>
      </trkpt>
      <trkpt lat="44.4227" lon="3.73884">
        <ele>1664</ele>
        <time>2017-03-01T06:07:38Z</time>
      </trkpt>
      <trkpt lat="44.4227" lon="3.73892">
        <ele>1664</ele>
        <time>2017-03-01T06:09:38Z</time>
      </trkpt>
      <trkpt lat="44.4227" lon="3.73892">
        <ele>1664</ele>
        <time>2017-03-01T06:11:38Z</time>
      </trkpt>
      <trkpt lat="44.42278" lon="3.73888">
        <ele>1665</ele>
        <time>2017-03-01T06:13:38Z</time>
      </trkpt>
      <trkpt lat="44.42297" lon="3.73884">
        <ele>1668</ele>
        <time>2017-03-01T06:15:38Z</time>
      </trkpt>
      <trkpt lat="44.42335" lon="3.73881">
        <ele>1674</ele>
        <time>2017-03-01T06:17:38Z</time>
      </trkpt>
      <trkpt lat="44.42376" lon="3.73875">
        <ele>1680</ele>
        <time>2017-03-01T06:19:38Z</time>
      </trkpt>
      <trkpt lat="44.42409" lon="3.73872">
        <ele>1684</ele>
        <time>2017-03-01T06:21:38Z</time>
      </trkpt>
      <trkpt lat="44.42437" lon="3.73873">
        <ele>1688</ele>
        <time>2017-03-01T06:23:38Z</time>
      </trkpt>
      <trkpt lat="44.42454" lon="3.73874">
        <ele>1689</ele>
        <time>2017-03-01T06:25:38Z</time>
      </trkpt>
      <trkpt lat="44.42496" lon="3.73885">
        <ele>1694</ele>
        <time>2017-03-01T06:27:38Z</time>
      </trkpt>
      <trkpt lat="44.4253" lon="3.73894">
        <ele>1695</ele>
        <time>2017-03-01T06:29:38Z</time>
      </trkpt>
      <trkpt lat="44.42549" lon="3.739">
        <ele>1696</ele>
        <time>2017-03-01T06:31:38Z</time>
      </trkpt>
      <trkpt lat="44.4259" lon="3.73912">
        <ele>1698</ele>
        <time>2017-03-01T06:33:38Z</time>
      </trkpt>
      <trkpt lat="44.42608" lon="3.73917">
        <ele>1697</ele>
        <time>2017-03-01T06:35:38Z</time>
      </trkpt>
      <trkpt lat="44.42608" lon="3.73917">
        <ele>1697</ele>
        <time>2017-03-01T06:37:38Z</time>
      </trkpt>
      <trkpt lat="44.4261" lon="3.73943">
        <ele>1697</ele>
        <time>2017-03-01T06:39:38Z</time>
      </trkpt>
      <trkpt lat="44.42612" lon="3.73973">
        <ele>1696</ele>
        <time>2017-03-01T06:41:38Z</time>
      </trkpt>
      <trkpt lat="44.42615" lon="3.73999">
        <ele>1696</ele>
        <time>2017-03-01T06:43:38Z</time>
      </trkpt>
      <trkpt lat="44.42619" lon="3.74028">
        <ele>1694</ele>
        <time>2017-03-01T06:45:38Z</time>
      </trkpt>
      <trkpt lat="44.42625" lon="3.74062">
        <ele>1691</ele>
        <time>2017-03-01T06:47:38Z</time>
      </trkpt>
      <trkpt lat="44.42631" lon="3.74116">
        <ele>1687</ele>
        <time>2017-03-01T06:49:38Z</time>
      </trkpt>
      <trkpt lat="44.42638" lon="3.74157">
        <ele>1684</ele>
        <time>2017-03-01T06:51:38Z</time>
      </trkpt>
      <trkpt lat="44.42648" lon="3.74195">
        <ele>1681</ele>
        <time>2017-03-01T06:53:38Z</time>
      </trkpt>
      <trkpt lat="44.42656" lon="3.74238">
        <ele>1679</ele>
        <time>2017-03-01T06:55:38Z</time>
      </trkpt>
      <trkpt lat="44.42662" lon="3.74267">
        <ele>1678</ele>
        <time>2017-03-01T06:57:38Z</time>
      </trkpt>
      <trkpt lat="44.42665" lon="3.7428">
        <ele>1677</ele>
        <time>2017-03-01T06:59:38Z</time>
      </trkpt>
      <trkpt lat="44.42671" lon="3.74295">
        <ele>1677</ele>
        <time>2017-03-01T07:01:38Z</time>
      </trkpt>
      <trkpt lat="44.42677" lon="3.74314">
        <ele>1676</ele>
        <time>2017-03-01T07:03:38Z</time>
      </trkpt>
      <trkpt lat="44.42683" lon="3.74338">
        <ele>1676</ele>
        <time>2017-03-01T07:05:38Z</time>
      </trkpt>
      <trkpt lat="44.42694" lon="3.74381">
        <ele>1678</ele>
        <time>2017-03-01T07:07:38Z</time>
      </trkpt>
      <trkpt lat="44.42706" lon="3.74421">
        <ele>1680</ele>
        <time>2017-03-01T07:09:38Z</time>
      </trkpt>
      <trkpt lat="44.42716" lon="3.7445">
        <ele>1681</ele>
        <time>2017-03-01T07:11:38Z</time>
      </trkpt>
      <trkpt lat="44.42724" lon="3.74475">
        <ele>1681</ele>
        <time>2017-03-01T07:13:38Z</time>
      </trkpt>
      <trkpt lat="44.4273" lon="3.7449">
        <ele>1681</ele>
        <time>2017-03-01T07:15:38Z</time>
      </trkpt>
      <trkpt lat="44.42738" lon="3.74505">
        <ele>1682</ele>
        <time>2017-03-01T07:17:38Z</time>
      </trkpt>
      <trkpt lat="44.42742" lon="3.74511">
        <ele>1682</ele>
        <time>2017-03-01T07:19:38Z</time>
      </trkpt>
      <trkpt lat="44.42741" lon="3.74514">
        <ele>1681</ele>
        <time>2017-03-01T07:21:38Z</time>
      </trkpt>
      <trkpt lat="44.42739" lon="3.74518">
        <ele>1681</ele>
        <time>2017-03-01T07:23:38Z</time>
      </trkpt>
      <trkpt lat="44.42721" lon="3.74544">
        <ele>1681</ele>
        <time>2017-03-01T07:25:38Z</time>
      </trkpt>
      <trkpt lat="44.42704" lon="3.74564">
        <ele>1680</ele>
        <time>2017-03-01T07:27:38Z</time>
      </trkpt>
      <trkpt lat="44.42693" lon="3.74578">
        <ele>1680</ele>
        <time>2017-03-01T07:29:38Z</time>
      </trkpt>
      <trkpt lat="44.42687" lon="3.74591">
        <ele>1679</ele>
        <time>2017-03-01T07:31:38Z</time>
      </trkpt>
      <trkpt lat="44.42681" lon="3.7461">
        <ele>1678</ele>
        <time>2017-03-01T07:33:38Z</time>
      </trkpt>
      <trkpt lat="44.42675" lon="3.74635">
        <ele>1677</ele>
        <time>2017-03-01T07:35:38Z</time>
      </trkpt>
      <trkpt lat="44.42671" lon="3.74654">
        <ele>1676</ele>
        <time>2017-03-01T07:37:38Z</time>
      </trkpt>
      <trkpt lat="44.42667" lon="3.74688">
        <ele>1674</ele>
        <time>2017-03-01T07:39:38Z</time>
      </trkpt>
      <trkpt lat="44.42662" lon="3.7473">
        <ele>1671</ele>
        <time>2017-03-01T07:41:38Z</time>
      </trkpt>
      <trkpt lat="44.42662" lon="3.74736">
        <ele>1671</ele>
        <time>2017-03-01T07:43:38Z</time>
      </trkpt>
      <trkpt lat="44.42657" lon="3.74793">
        <ele>1667</ele>
        <time>2017-03-01T07:45:38Z</time>
      </trkpt>
      <trkpt lat="44.42654" lon="3.74828">
        <ele>1665</ele>
        <time>2017-03-01T07:47:38Z</time>
      </trkpt>
      <trkpt lat="44.42651" lon="3.74866">
        <ele>1661</ele>
        <time>2017-03-01T07:49:38Z</time>
      </trkpt>
      <trkpt lat="44.42648" lon="3.74917">
        <ele>1656</ele>
        <time>2017-03-01T07:51:38Z</time>
      </trkpt>
      <trkpt lat="44.42645" lon="3.74964">
        <ele>1652</ele>
        <time>2017-03-01T07:53:38Z</time>
      </trkpt>
      <trkpt lat="44.42642" lon="3.74987">
        <ele>1650</ele>
        <time>2017-03-01T07:55:38Z</time>
      </trkpt>
      <trkpt lat="44.42643" lon="3.75003">
        <ele>1649</ele>
        <time>2017-03-01T07:57:38Z</time>
      </trkpt>
      <trkpt lat="44.42644" lon="3.7502">
        <ele>1646</ele>
        <time>2017-03-01T07:59:38Z</time>
      </trkpt>
      <trkpt lat="44.42646" lon="3.75035">
        <ele>1644</ele>
        <time>2017-03-01T08:01:38Z</time>
      </trkpt>
      <trkpt lat="44.42648" lon="3.75056">
        <ele>1641</ele>
        <time>2017-03-01T08:03:38Z</time>
      </trkpt>
      <trkpt lat="44.42648" lon="3.75061">
        <ele>1640</ele>
        <time>2017-03-01T08:05:38Z</time>
      </trkpt>
      <trkpt lat="44.42645" lon="3.75069">
        <ele>1639</ele>
        <time>2017-03-01T08:07:38Z</time>
      </trkpt>
      <trkpt lat="44.4264" lon="3.75084">
        <ele>1638</ele>
        <time>2017-03-01T08:09:38Z</time>
      </trkpt>
      <trkpt lat="44.42639" lon="3.75094">
        <ele>1637</ele>
        <time>2017-03-01T08:11:38Z</time>
      </trkpt>
      <trkpt lat="44.42637" lon="3.75118">
        <ele>1635</ele>
        <time>2017-03-01T08:13:38Z</time>
      </trkpt>
      <trkpt lat="44.42636" lon="3.75142">
        <ele>1634</ele>
        <time>2017-03-01T08:15:38Z</time>
      </trkpt>
      <trkpt lat="44.42636" lon="3.75142">
        <ele>1634</ele>
        <time>2017-03-01T08:17:38Z</time>
      </trkpt>
      <trkpt lat="44.42627" lon="3.75148">
        <ele>1634</ele>
        <time>2017-03-01T08:19:38Z</time>
      </trkpt>
      <trkpt lat="44.42615" lon="3.75156">
        <ele>1634</ele>
        <time>2017-03-01T08:21:38Z</time>
      </trkpt>
      <trkpt lat="44.42605" lon="3.75157">
        <ele>1634</ele>
        <time>2017-03-01T08:23:38Z</time>
      </trkpt>
      <trkpt lat="44.42587" lon="3.75162">
        <ele>1635</ele>
        <time>2017-03-01T08:25:38Z</time>
      </trkpt>
      <trkpt lat="44.42576" lon="3.75165">
        <ele>1635</ele>
        <time>2017-03-01T08:27:38Z</time>
      </trkpt>
      <trkpt lat="44.42567" lon="3.75166">
        <ele>1634</ele>
        <time>2017-03-01T08:29:38Z</time>
      </trkpt>
      <trkpt lat="44.42564" lon="3.75166">
        <ele>1634</ele>
        <time>2017-03-01T08:31:38Z</time>
      </trkpt>
      <trkpt lat="44.42561" lon="3.75166">
        <ele>1634</ele>
        <time>2017-03-01T08:33:38Z</time>
      </trkpt>
      <trkpt lat="44.42553" lon="3.75164">
        <ele>1634</ele>
        <time>2017-03-01T08:35:38Z</time>
      </trkpt>
      <trkpt lat="44.42546" lon="3.75162">
        <ele>1634</ele>
        <time>2017-03-01T08:37:38Z</time>
      </trkpt>
      <trkpt lat="44.42539" lon="3.7516">
        <ele>1634</ele>
        <time>2017-03-01T08:39:38Z</time>
      </trkpt>
      <trkpt lat="44.42517" lon="3.75153">
        <ele>1633</ele>
        <time>2017-03-01T08:41:38Z</time>
      </trkpt>
      <trkpt lat="44.425" lon="3.75148">
        <ele>1633</ele>
        <time>2017-03-01T08:43:38Z</time>
      </trkpt>
      <trkpt lat="44.4249" lon="3.75152">
        <ele>1632</ele>
        <time>2017-03-01T08:45:38Z</time>
      </trkpt>
      <trkpt lat="44.42474" lon="3.75157">
        <ele>1631</ele>
        <time>2017-03-01T08:47:38Z</time>
      </trkpt>
      <trkpt lat="44.42462" lon="3.75157">
        <ele>1630</ele>
        <time>2017-03-01T08:49:38Z</time>
      </trkpt>
      <trkpt lat="44.42445" lon="3.75156">
        <ele>1628</ele>
        <time>2017-03-01T08:51:38Z</time>
      </trkpt>
      <trkpt lat="44.42423" lon="3.7515">
        <ele>1627</ele>
        <time>2017-03-01T08:53:38Z</time>
      </trkpt>
      <trkpt lat="44.42402" lon="3.75145">
        <ele>1624</ele>
        <time>2017-03-01T08:55:38Z</time>
      </trkpt>
      <trkpt lat="44.4239" lon="3.75142">
        <ele>1622</ele>
        <time>2017-03-01T08:57:38Z</time>
      </trkpt>
      <trkpt lat="44.42383" lon="3.75143">
        <ele>1621</ele>
        <time>2017-03-01T08:59:38Z</time>
      </trkpt>
      <trkpt lat="44.42377" lon="3.75143">
        <ele>1620</ele>
        <time>2017-03-01T09:01:38Z</time>
      </trkpt>
      <trkpt lat="44.42371" lon="3.7514">
        <ele>1619</ele>
        <time>2017-03-01T09:03:38Z</time>
      </trkpt>
      <trkpt lat="44.42366" lon="3.7514">
        <ele>1619</ele>
        <time>2017-03-01T09:05:38Z</time>
      </trkpt>
      <trkpt lat="44.4236" lon="3.75139">
        <ele>1618</ele>
        <time>2017-03-01T09:07:38Z</time>
      </trkpt>
      <trkpt lat="44.42354" lon="3.75139">
        <ele>1617</ele>
        <time>2017-03-01T09:09:38Z</time>
      </trkpt>
      <trkpt lat="44.42348" lon="3.7514">
        <ele>1616</ele>
        <time>2017-03-01T09:11:38Z</time>
      </trkpt>
      <trkpt lat="44.42337" lon="3.75141">
        <ele>1614</ele>
        <time>2017-03-01T09:13:38Z</time>
      </trkpt>
      <trkpt lat="44.4232" lon="3.75139">
        <ele>1611</ele>
        <time>2017-03-01T09:15:38Z</time>
      </trkpt>
      <trkpt lat="44.42302" lon="3.75134">
        <ele>1608</ele>
        <time>2017-03-01T09:17:38Z</time>
      </trkpt>
      <trkpt lat="44.42292" lon="3.7513">
        <ele>1606</ele>
        <time>2017-03-01T09:19:38Z</time>
      </trkpt>
      <trkpt lat="44.42284" lon="3.75127">
        <ele>1605</ele>
        <time>2017-03-01T09:21:38Z</time>
      </trkpt>
      <trkpt lat="44.42282" lon="3.75124">
        <ele>1604</ele>
        <time>2017-03-01T09:23:38Z</time>
      </trkpt>
      <trkpt lat="44.42278" lon="3.75117">
        <ele>1603</ele>
        <time>2017-03-01T09:25:38Z</time>
      </trkpt>
      <trkpt lat="44.42272" lon="3.75112">
        <ele>1601</ele>
        <time>2017-03-01T09:27:38Z</time>
      </trkpt>
      <trkpt lat="44.42264" lon="3.75107">
        <ele>1599</ele>
        <time>2017-03-01T09:29:38Z</time>
      </trkpt>
      <trkpt lat="44.4226" lon="3.75106">
        <ele>1599</ele>
        <time>2017-03-01T09:31:38Z</time>
      </trkpt>
      <trkpt lat="44.42251" lon="3.75108">
        <ele>1597</ele>
        <time>2017-03-01T09:33:38Z</time>
      </trkpt>
      <trkpt lat="44.42246" lon="3.75106">
        <ele>1596</ele>
        <time>2017-03-01T09:35:38Z</time>
      </trkpt>
      <trkpt lat="44.42241" lon="3.75103">
        <ele>1595</ele>
        <time>2017-03-01T09:37:38Z</time>
      </trkpt>
      <trkpt lat="44.42235" lon="3.75102">
        <ele>1593</ele>
        <time>2017-03-01T09:39:38Z</time>
      </trkpt>
      <trkpt lat="44.4223" lon="3.75101">
        <ele>1592</ele>
        <time>2017-03-01T09:41:38Z</time>
      </trkpt>
      <trkpt lat="44.42228" lon="3.75101">
        <ele>1592</ele>
        <time>2017-03-01T09:43:38Z</time>
      </trkpt>
      <trkpt lat="44.42222" lon="3.751">
        <ele>1590</ele>
        <time>2017-03-01T09:45:38Z</time>
      </trkpt>
      <trkpt lat="44.42214" lon="3.75098">
        <ele>1588</ele>
        <time>2017-03-01T09:47:38Z</time>
      </trkpt>
      <trkpt lat="44.42199" lon="3.75096">
        <ele>1585</ele>
        <time>2017-03-01T09:49:38Z</time>
      </trkpt>
      <trkpt lat="44.42176" lon="3.75091">
        <ele>1579</ele>
        <time>2017-03-01T09:51:38Z</time>
      </trkpt>
      <trkpt lat="44.42166" lon="3.75089">
        <ele>1576</ele>
        <time>2017-03-01T09:53:38Z</time>
      </trkpt>
      <trkpt lat="44.42162" lon="3.75091">
        <ele>1576</ele>
        <time>2017-03-01T09:55:38Z</time>
      </trkpt>
      <trkpt lat="44.42159" lon="3.75091">
        <ele>1575</ele>
        <time>2017-03-01T09:57:38Z</time>
      </trkpt>
      <trkpt lat="44.42157" lon="3.7509">
        <ele>1574</ele>
        <time>2017-03-01T09:59:38Z</time>
      </trkpt>
      <trkpt lat="44.42153" lon="3.75088">
        <ele>1573</ele>
        <time>2017-03-01T10:01:38Z</time>
      </trkpt>
      <trkpt lat="44.4215" lon="3.7509">
        <ele>1573</ele>
        <time>2017-03-01T10:03:38Z</time>
      </trkpt>
      <trkpt lat="44.42145" lon="3.75091">
        <ele>1572</ele>
        <time>2017-03-01T10:05:38Z</time>
      </trkpt>
      <trkpt lat="44.4214" lon="3.7509">
        <ele>1571</ele>
        <time>2017-03-01T10:07:38Z</time>
      </trkpt>
      <trkpt lat="44.42136" lon="3.75088">
        <ele>1570</ele>
        <time>2017-03-01T10:09:38Z</time>
      </trkpt>
      <trkpt lat="44.42135" lon="3.75085">
        <ele>1569</ele>
        <time>2017-03-01T10:11:38Z</time>
      </trkpt>
      <trkpt lat="44.42133" lon="3.75084">
        <ele>1569</ele>
        <time>2017-03-01T10:13:38Z</time>
      </trkpt>
      <trkpt lat="44.42128" lon="3.7508">
        <ele>1567</ele>
        <time>2017-03-01T10:15:38Z</time>
      </trkpt>
      <trkpt lat="44.42124" lon="3.75079">
        <ele>1566</ele>
        <time>2017-03-01T10:17:38Z</time>
      </trkpt>
      <trkpt lat="44.4212" lon="3.75078">
        <ele>1565</ele>
        <time>2017-03-01T10:19:38Z</time>
      </trkpt>
      <trkpt lat="44.4212" lon="3.75078">
        <ele>1565</ele>
        <time>2017-03-01T10:21:38Z</time>
      </trkpt>
      <trkpt lat="44.42119" lon="3.75068">
        <ele>1564</ele>
        <time>2017-03-01T10:23:38Z</time>
      </trkpt>
      <trkpt lat="44.4212" lon="3.75062">
        <ele>1564</ele>
        <time>2017-03-01T10:25:38Z</time>
      </trkpt>
      <trkpt lat="44.42121" lon="3.75057">
        <ele>1563</ele>
        <time>2017-03-01T10:27:38Z</time>
      </trkpt>
      <trkpt lat="44.42121" lon="3.75055">
        <ele>1563</ele>
        <time>2017-03-01T10:29:38Z</time>
      </trkpt>
      <trkpt lat="44.42121" lon="3.75054">
        <ele>1563</ele>
        <time>2017-03-01T10:31:38Z</time>
      </trkpt>
      <trkpt lat="44.42119" lon="3.75053">
        <ele>1563</ele>
        <time>2017-03-01T10:33:38Z</time>
      </trkpt>
      <trkpt lat="44.42113" lon="3.75054">
        <ele>1561</ele>
        <time>2017-03-01T10:35:38Z</time>
      </trkpt>
      <trkpt lat="44.42096" lon="3.75056">
        <ele>1558</ele>
        <time>2017-03-01T10:37:38Z</time>
      </trkpt>
      <trkpt lat="44.42065" lon="3.75063">
        <ele>1551</ele>
        <time>2017-03-01T10:39:38Z</time>
      </trkpt>
      <trkpt lat="44.42043" lon="3.75066">
        <ele>1546</ele>
        <time>2017-03-01T10:41:38Z</time>
      </trkpt>
      <trkpt lat="44.42038" lon="3.75067">
        <ele>1545</ele>
        <time>2017-03-01T10:43:38Z</time>
      </trkpt>
      <trkpt lat="44.42035" lon="3.75069">
        <ele>1545</ele>
        <time>2017-03-01T10:45:38Z</time>
      </trkpt>
      <trkpt lat="44.4203" lon="3.75073">
        <ele>1544</ele>
        <time>2017-03-01T10:47:38Z</time>
      </trkpt>
      <trkpt lat="44.42027" lon="3.75075">
        <ele>1544</ele>
        <time>2017-03-01T10:49:38Z</time>
      </trkpt>
      <trkpt lat="44.42025" lon="3.75074">
        <ele>1543</ele>
        <time>2017-03-01T10:51:38Z</time>
      </trkpt>
      <trkpt lat="44.42024" lon="3.75072">
        <ele>1543</ele>
        <time>2017-03-01T10:53:38Z</time>
      </trkpt>
      <trkpt lat="44.42024" lon="3.75068">
        <ele>1542</ele>
        <time>2017-03-01T10:55:38Z</time>
      </trkpt>
      <trkpt lat="44.42028" lon="3.75054">
        <ele>1541</ele>
        <time>2017-03-01T10:57:38Z</time>
      </trkpt>
      <trkpt lat="44.42036" lon="3.75035">
        <ele>1539</ele>
        <time>2017-03-01T10:59:38Z</time>
      </trkpt>
      <trkpt lat="44.4204" lon="3.75025">
        <ele>1539</ele>
        <time>2017-03-01T11:01:38Z</time>
      </trkpt>
      <trkpt lat="44.42041" lon="3.75024">
        <ele>1539</ele>
        <time>2017-03-01T11:03:38Z</time>
      </trkpt>
      <trkpt lat="44.4204" lon="3.75021">
        <ele>1538</ele>
        <time>2017-03-01T11:05:38Z</time>
      </trkpt>
      <trkpt lat="44.42039" lon="3.7502">
        <ele>1538</ele>
        <time>2017-03-01T11:07:38Z</time>
      </trkpt>
      <trkpt lat="44.42038" lon="3.7502">
        <ele>1537</ele>
        <time>2017-03-01T11:09:38Z</time>
      </trkpt>
      <trkpt lat="44.4203" lon="3.75022">
        <ele>1535</ele>
        <time>2017-03-01T11:11:38Z</time>
      </trkpt>
      <trkpt lat="44.4201" lon="3.75031">
        <ele>1532</ele>
        <time>2017-03-01T11:13:38Z</time>
      </trkpt>
      <trkpt lat="44.42" lon="3.75038">
        <ele>1530</ele>
        <time>2017-03-01T11:15:38Z</time>
      </trkpt>
      <trkpt lat="44.41997" lon="3.7504">
        <ele>1530</ele>
        <time>2017-03-01T11:17:38Z</time>
      </trkpt>
      <trkpt lat="44.41995" lon="3.75039">
        <ele>1529</ele>
        <time>2017-03-01T11:19:38Z</time>
      </trkpt>
      <trkpt lat="44.41994" lon="3.75035">
        <ele>1528</ele>
        <time>2017-03-01T11:21:38Z</time>
      </trkpt>
      <trkpt lat="44.41995" lon="3.75032">
        <ele>1528</ele>
        <time>2017-03-01T11:23:38Z</time>
      </trkpt>
      <trkpt lat="44.41998" lon="3.75023">
        <ele>1527</ele>
        <time>2017-03-01T11:25:38Z</time>
      </trkpt>
      <trkpt lat="44.42" lon="3.75015">
        <ele>1526</ele>
        <time>2017-03-01T11:27:38Z</time>
      </trkpt>
      <trkpt lat="44.42" lon="3.75011">
        <ele>1525</ele>
        <time>2017-03-01T11:29:38Z</time>
      </trkpt>
      <trkpt lat="44.41998" lon="3.75008">
        <ele>1524</ele>
        <time>2017-03-01T11:31:38Z</time>
      </trkpt>
      <trkpt lat="44.41995" lon="3.75007">
        <ele>1523</ele>
        <time>2017-03-01T11:33:38Z</time>
      </trkpt>
      <trkpt lat="44.41993" lon="3.75009">
        <ele>1523</ele>
        <time>2017-03-01T11:35:38Z</time>
      </trkpt>
      <trkpt lat="44.4198" lon="3.75016">
        <ele>1520</ele>
        <time>2017-03-01T11:37:38Z</time>
      </trkpt>
      <trkpt lat="44.41962" lon="3.75026">
        <ele>1516</ele>
        <time>2017-03-01T11:39:38Z</time>
      </trkpt>
      <trkpt lat="44.41955" lon="3.75029">
        <ele>1515</ele>
        <time>2017-03-01T11:41:38Z</time>
      </trkpt>
      <trkpt lat="44.4195" lon="3.75031">
        <ele>1514</ele>
        <time>2017-03-01T11:43:38Z</time>
      </trkpt>
      <trkpt lat="44.41944" lon="3.75035">
        <ele>1513</ele>
        <time>2017-03-01T11:45:38Z</time>
      </trkpt>
      <trkpt lat="44.41935" lon="3.75041">
        <ele>1511</ele>
        <time>2017-03-01T11:47:38Z</time>
      </trkpt>
      <trkpt lat="44.41926" lon="3.75048">
        <ele>1510</ele>
        <time>2017-03-01T11:49:38Z</time>
      </trkpt>
      <trkpt lat="44.41924" lon="3.75048">
        <ele>1509</ele>
        <time>2017-03-01T11:51:38Z</time>
      </trkpt>
      <trkpt lat="44.41923" lon="3.75046">
        <ele>1508</ele>
        <time>2017-03-01T11:53:38Z</time>
      </trkpt>
      <trkpt lat="44.41923" lon="3.75042">
        <ele>1507</ele>
        <time>2017-03-01T11:55:38Z</time>
      </trkpt>
      <trkpt lat="44.41924" lon="3.75033">
        <ele>1506</ele>
        <time>2017-03-01T11:57:38Z</time>
      </trkpt>
      <trkpt lat="44.41925" lon="3.7503">
        <ele>1506</ele>
        <time>2017-03-01T11:59:38Z</time>
      </trkpt>
      <trkpt lat="44.41924" lon="3.75028">
        <ele>1505</ele>
        <time>2017-03-01T12:01:38Z</time>
      </trkpt>
      <trkpt lat="44.41922" lon="3.75028">
        <ele>1505</ele>
        <time>2017-03-01T12:03:38Z</time>
      </trkpt>
      <trkpt lat="44.41919" lon="3.7503">
        <ele>1504</ele>
        <time>2017-03-01T12:05:38Z</time>
      </trkpt>
      <trkpt lat="44.41916" lon="3.75033">
        <ele>1504</ele>
        <time>2017-03-01T12:07:38Z</time>
      </trkpt>
      <trkpt lat="44.41914" lon="3.75033">
        <ele>1503</ele>
        <time>2017-03-01T12:09:38Z</time>
      </trkpt>
      <trkpt lat="44.41913" lon="3.7503">
        <ele>1502</ele>
        <time>2017-03-01T12:11:38Z</time>
      </trkpt>
      <trkpt lat="44.41916" lon="3.75018">
        <ele>1501</ele>
        <time>2017-03-01T12:13:38Z</time>
      </trkpt>
      <trkpt lat="44.41916" lon="3.75012">
        <ele>1500</ele>
        <time>2017-03-01T12:15:38Z</time>
      </trkpt>
      <trkpt lat="44.41914" lon="3.75011">
        <ele>1499</ele>
        <time>2017-03-01T12:17:38Z</time>
      </trkpt>
      <trkpt lat="44.41912" lon="3.75011">
        <ele>1499</ele>
        <time>2017-03-01T12:19:38Z</time>
      </trkpt>
      <trkpt lat="44.41906" lon="3.75015">
        <ele>1498</ele>
        <time>2017-03-01T12:21:38Z</time>
      </trkpt>
      <trkpt lat="44.41903" lon="3.75016">
        <ele>1497</ele>
        <time>2017-03-01T12:23:38Z</time>
      </trkpt>
      <trkpt lat="44.419" lon="3.75015">
        <ele>1496</ele>
        <time>2017-03-01T12:25:38Z</time>
      </trkpt>
      <trkpt lat="44.41898" lon="3.75012">
        <ele>1495</ele>
        <time>2017-03-01T12:27:38Z</time>
      </trkpt>
      <trkpt lat="44.41899" lon="3.75007">
        <ele>1495</ele>
        <time>2017-03-01T12:29:38Z</time>
      </trkpt>
      <trkpt lat="44.41904" lon="3.74996">
        <ele>1494</ele>
        <time>2017-03-01T12:31:38Z</time>
      </trkpt>
      <trkpt lat="44.41912" lon="3.74979">
        <ele>1495</ele>
        <time>2017-03-01T12:33:38Z</time>
      </trkpt>
      <trkpt lat="44.41925" lon="3.74952">
        <ele>1495</ele>
        <time>2017-03-01T12:35:38Z</time>
      </trkpt>
      <trkpt lat="44.41925" lon="3.74951">
        <ele>1495</ele>
        <time>2017-03-01T12:37:38Z</time>
      </trkpt>
      <trkpt lat="44.41925" lon="3.74949">
        <ele>1495</ele>
        <time>2017-03-01T12:39:38Z</time>
      </trkpt>
      <trkpt lat="44.41924" lon="3.74949">
        <ele>1495</ele>
        <time>2017-03-01T12:41:38Z</time>
      </trkpt>
      <trkpt lat="44.41922" lon="3.7495">
        <ele>1494</ele>
        <time>2017-03-01T12:43:38Z</time>
      </trkpt>
      <trkpt lat="44.41907" lon="3.7497">
        <ele>1493</ele>
        <time>2017-03-01T12:45:38Z</time>
      </trkpt>
      <trkpt lat="44.41898" lon="3.74978">
        <ele>1491</ele>
        <time>2017-03-01T12:47:38Z</time>
      </trkpt>
      <trkpt lat="44.41896" lon="3.74978">
        <ele>1491</ele>
        <time>2017-03-01T12:49:38Z</time>
      </trkpt>
      <trkpt lat="44.41895" lon="3.74976">
        <ele>1490</ele>
        <time>2017-03-01T12:51:38Z</time>
      </trkpt>
      <trkpt lat="44.41895" lon="3.74973">
        <ele>1490</ele>
        <time>2017-03-01T12:53:38Z</time>
      </trkpt>
      <trkpt lat="44.41898" lon="3.74958">
        <ele>1489</ele>
        <time>2017-03-01T12:55:38Z</time>
      </trkpt>
      <trkpt lat="44.41898" lon="3.7495">
        <ele>1489</ele>
        <time>2017-03-01T12:57:38Z</time>
      </trkpt>
      <trkpt lat="44.41898" lon="3.74943">
        <ele>1488</ele>
        <time>2017-03-01T12:59:38Z</time>
      </trkpt>
      <trkpt lat="44.41897" lon="3.74941">
        <ele>1488</ele>
        <time>2017-03-01T13:01:38Z</time>
      </trkpt>
      <trkpt lat="44.41896" lon="3.74941">
        <ele>1487</ele>
        <time>2017-03-01T13:03:38Z</time>
      </trkpt>
      <trkpt lat="44.41854" lon="3.74957">
        <ele>1480</ele>
        <time>2017-03-01T13:05:38Z</time>
      </trkpt>
      <trkpt lat="44.41804" lon="3.74975">
        <ele>1470</ele>
        <time>2017-03-01T13:07:38Z</time>
      </trkpt>
      <trkpt lat="44.41771" lon="3.75">
        <ele>1463</ele>
        <time>2017-03-01T13:09:38Z</time>
      </trkpt>
      <trkpt lat="44.41739" lon="3.75026">
        <ele>1458</ele>
        <time>2017-03-01T13:11:38Z</time>
      </trkpt>
      <trkpt lat="44.41738" lon="3.75026">
        <ele>1458</ele>
        <time>2017-03-01T13:13:38Z</time>
      </trkpt>
      <trkpt lat="44.41737" lon="3.75026">
        <ele>1458</ele>
        <time>2017-03-01T13:15:38Z</time>
      </trkpt>
      <trkpt lat="44.41725" lon="3.75014">
        <ele>1455</ele>
        <time>2017-03-01T13:17:38Z</time>
      </trkpt>
      <trkpt lat="44.41725" lon="3.75012">
        <ele>1454</ele>
        <time>2017-03-01T13:19:38Z</time>
      </trkpt>
      <trkpt lat="44.41725" lon="3.7501">
        <ele>1454</ele>
        <time>2017-03-01T13:21:38Z</time>
      </trkpt>
      <trkpt lat="44.41732" lon="3.74965">
        <ele>1458</ele>
        <time>2017-03-01T13:23:38Z</time>
      </trkpt>
      <trkpt lat="44.41731" lon="3.74962">
        <ele>1458</ele>
        <time>2017-03-01T13:25:38Z</time>
      </trkpt>
      <trkpt lat="44.4173" lon="3.74963">
        <ele>1458</ele>
        <time>2017-03-01T13:27:38Z</time>
      </trkpt>
      <trkpt lat="44.4172" lon="3.74973">
        <ele>1455</ele>
        <time>2017-03-01T13:29:38Z</time>
      </trkpt>
      <trkpt lat="44.41718" lon="3.74975">
        <ele>1455</ele>
        <time>2017-03-01T13:31:38Z</time>
      </trkpt>
      <trkpt lat="44.41703" lon="3.74984">
        <ele>1451</ele>
        <time>2017-03-01T13:33:38Z</time>
      </trkpt>
      <trkpt lat="44.41691" lon="3.7499">
        <ele>1449</ele>
        <time>2017-03-01T13:35:38Z</time>
      </trkpt>
      <trkpt lat="44.41684" lon="3.74992">
        <ele>1447</ele>
        <time>2017-03-01T13:37:38Z</time>
      </trkpt>
      <trkpt lat="44.4167" lon="3.74994">
        <ele>1445</ele>
        <time>2017-03-01T13:39:38Z</time>
      </trkpt>
      <trkpt lat="44.41656" lon="3.74997">
        <ele>1442</ele>
        <time>2017-03-01T13:41:38Z</time>
      </trkpt>
      <trkpt lat="44.41644" lon="3.74998">
        <ele>1440</ele>
        <time>2017-03-01T13:43:38Z</time>
      </trkpt>
      <trkpt lat="44.41637" lon="3.74998">
        <ele>1438</ele>
        <time>2017-03-01T13:45:38Z</time>
      </trkpt>
      <trkpt lat="44.41606" lon="3.75">
        <ele>1433</ele>
        <time>2017-03-01T13:47:38Z</time>
      </trkpt>
      <trkpt lat="44.41599" lon="3.75">
        <ele>1432</ele>
        <time>2017-03-01T13:49:38Z</time>
      </trkpt>
      <trkpt lat="44.4159" lon="3.74999">
        <ele>1430</ele>
        <time>2017-03-01T13:51:38Z</time>
      </trkpt>
      <trkpt lat="44.41577" lon="3.74996">
        <ele>1428</ele>
        <time>2017-03-01T13:53:38Z</time>
      </trkpt>
      <trkpt lat="44.41562" lon="3.74993">
        <ele>1426</ele>
        <time>2017-03-01T13:55:38Z</time>
      </trkpt>
      <trkpt lat="44.41551" lon="3.7499">
        <ele>1425</ele>
        <time>2017-03-01T13:57:38Z</time>
      </trkpt>
      <trkpt lat="44.41526" lon="3.7499">
        <ele>1420</ele>
        <time>2017-03-01T13:59:38Z</time>
      </trkpt>
      <trkpt lat="44.41504" lon="3.74991">
        <ele>1416</ele>
        <time>2017-03-01T14:01:38Z</time>
      </trkpt>
      <trkpt lat="44.41475" lon="3.74996">
        <ele>1411</ele>
        <time>2017-03-01T14:03:38Z</time>
      </trkpt>
      <trkpt lat="44.41454" lon="3.75">
        <ele>1407</ele>
        <time>2017-03-01T14:05:38Z</time>
      </trkpt>
      <trkpt lat="44.41438" lon="3.75008">
        <ele>1404</ele>
        <time>2017-03-01T14:07:38Z</time>
      </trkpt>
      <trkpt lat="44.41428" lon="3.75011">
        <ele>1402</ele>
        <time>2017-03-01T14:09:38Z</time>
      </trkpt>
      <trkpt lat="44.41415" lon="3.75015">
        <ele>1399</ele>
        <time>2017-03-01T14:11:38Z</time>
      </trkpt>
      <trkpt lat="44.41401" lon="3.75022">
        <ele>1397</ele>
        <time>2017-03-01T14:13:38Z</time>
      </trkpt>
      <trkpt lat="44.4139" lon="3.75031">
        <ele>1394</ele>
        <time>2017-03-01T14:15:38Z</time>
      </trkpt>
      <trkpt lat="44.4138" lon="3.75035">
        <ele>1392</ele>
        <time>2017-03-01T14:17:38Z</time>
      </trkpt>
      <trkpt lat="44.4137" lon="3.75039">
        <ele>1390</ele>
        <time>2017-03-01T14:19:38Z</time>
      </trkpt>
      <trkpt lat="44.41359" lon="3.75039">
        <ele>1388</ele>
        <time>2017-03-01T14:21:38Z</time>
      </trkpt>
      <trkpt lat="44.41343" lon="3.75035">
        <ele>1386</ele>
        <time>2017-03-01T14:23:38Z</time>
      </trkpt>
      <trkpt lat="44.4134" lon="3.75034">
        <ele>1385</ele>
        <time>2017-03-01T14:25:38Z</time>
      </trkpt>
      <trkpt lat="44.41338" lon="3.75032">
        <ele>1385</ele>
        <time>2017-03-01T14:27:38Z</time>
      </trkpt>
      <trkpt lat="44.41335" lon="3.75029">
        <ele>1385</ele>
        <time>2017-03-01T14:29:38Z</time>
      </trkpt>
      <trkpt lat="44.41325" lon="3.75024">
        <ele>1384</ele>
        <time>2017-03-01T14:31:38Z</time>
      </trkpt>
      <trkpt lat="44.41321" lon="3.75023">
        <ele>1384</ele>
        <time>2017-03-01T14:33:38Z</time>
      </trkpt>
      <trkpt lat="44.41317" lon="3.75022">
        <ele>1383</ele>
        <time>2017-03-01T14:35:38Z</time>
      </trkpt>
      <trkpt lat="44.41313" lon="3.75022">
        <ele>1383</ele>
        <time>2017-03-01T14:37:38Z</time>
      </trkpt>
      <trkpt lat="44.41309" lon="3.75023">
        <ele>1382</ele>
        <time>2017-03-01T14:39:38Z</time>
      </trkpt>
      <trkpt lat="44.41302" lon="3.75025">
        <ele>1381</ele>
        <time>2017-03-01T14:41:38Z</time>
      </trkpt>
      <trkpt lat="44.41296" lon="3.75026">
        <ele>1380</ele>
        <time>2017-03-01T14:43:38Z</time>
      </trkpt>
      <trkpt lat="44.41284" lon="3.75026">
        <ele>1378</ele>
        <time>2017-03-01T14:45:38Z</time>
      </trkpt>
      <trkpt lat="44.41275" lon="3.75026">
        <ele>1377</ele>
        <time>2017-03-01T14:47:38Z</time>
      </trkpt>
      <trkpt lat="44.41265" lon="3.75026">
        <ele>1375</ele>
        <time>2017-03-01T14:49:38Z</time>
      </trkpt>
      <trkpt lat="44.41248" lon="3.75025">
        <ele>1373</ele>
        <time>2017-03-01T14:51:38Z</time>
      </trkpt>
      <trkpt lat="44.41235" lon="3.75025">
        <ele>1371</ele>
        <time>2017-03-01T14:53:38Z</time>
      </trkpt>
      <trkpt lat="44.41229" lon="3.75025">
        <ele>1371</ele>
        <time>2017-03-01T14:55:38Z</time>
      </trkpt>
      <trkpt lat="44.41225" lon="3.75028">
        <ele>1370</ele>
        <time>2017-03-01T14:57:38Z</time>
      </trkpt>
      <trkpt lat="44.41218" lon="3.75034">
        <ele>1368</ele>
        <time>2017-03-01T14:59:38Z</time>
      </trkpt>
      <trkpt lat="44.41213" lon="3.75038">
        <ele>1367</ele>
        <time>2017-03-01T15:01:38Z</time>
      </trkpt>
      <trkpt lat="44.41212" lon="3.75039">
        <ele>1367</ele>
        <time>2017-03-01T15:03:38Z</time>
      </trkpt>
      <trkpt lat="44.4121" lon="3.7504">
        <ele>1367</ele>
        <time>2017-03-01T15:05:38Z</time>
      </trkpt>
      <trkpt lat="44.41207" lon="3.75041">
        <ele>1366</ele>
        <time>2017-03-01T15:07:38Z</time>
      </trkpt>
      <trkpt lat="44.41204" lon="3.75043">
        <ele>1366</ele>
        <time>2017-03-01T15:09:38Z</time>
      </trkpt>
      <trkpt lat="44.41199" lon="3.75044">
        <ele>1365</ele>
        <time>2017-03-01T15:11:38Z</time>
      </trkpt>
      <trkpt lat="44.41196" lon="3.75045">
        <ele>1364</ele>
        <time>2017-03-01T15:13:38Z</time>
      </trkpt>
      <trkpt lat="44.41192" lon="3.75046">
        <ele>1364</ele>
        <time>2017-03-01T15:15:38Z</time>
      </trkpt>
      <trkpt lat="44.41188" lon="3.75046">
        <ele>1363</ele>
        <time>2017-03-01T15:17:38Z</time>
      </trkpt>
      <trkpt lat="44.41183" lon="3.75046">
        <ele>1362</ele>
        <time>2017-03-01T15:19:38Z</time>
      </trkpt>
      <trkpt lat="44.41159" lon="3.75041">
        <ele>1360</ele>
        <time>2017-03-01T15:21:38Z</time>
      </trkpt>
      <trkpt lat="44.41151" lon="3.75041">
        <ele>1359</ele>
        <time>2017-03-01T15:23:38Z</time>
      </trkpt>
      <trkpt lat="44.41145" lon="3.7504">
        <ele>1358</ele>
        <time>2017-03-01T15:25:38Z</time>
      </trkpt>
      <trkpt lat="44.41139" lon="3.75039">
        <ele>1358</ele>
        <time>2017-03-01T15:27:38Z</time>
      </trkpt>
      <trkpt lat="44.41135" lon="3.75039">
        <ele>1357</ele>
        <time>2017-03-01T15:29:38Z</time>
      </trkpt>
      <trkpt lat="44.41131" lon="3.75039">
        <ele>1357</ele>
        <time>2017-03-01T15:31:38Z</time>
      </trkpt>
      <trkpt lat="44.41128" lon="3.75042">
        <ele>1356</ele>
        <time>2017-03-01T15:33:38Z</time>
      </trkpt>
      <trkpt lat="44.41117" lon="3.75051">
        <ele>1354</ele>
        <time>2017-03-01T15:35:38Z</time>
      </trkpt>
      <trkpt lat="44.41111" lon="3.75053">
        <ele>1353</ele>
        <time>2017-03-01T15:37:38Z</time>
      </trkpt>
      <trkpt lat="44.41105" lon="3.75054">
        <ele>1352</ele>
        <time>2017-03-01T15:39:38Z</time>
      </trkpt>
      <trkpt lat="44.41101" lon="3.75054">
        <ele>1352</ele>
        <time>2017-03-01T15:41:38Z</time>
      </trkpt>
      <trkpt lat="44.41091" lon="3.75053">
        <ele>1351</ele>
        <time>2017-03-01T15:43:38Z</time>
      </trkpt>
      <trkpt lat="44.41084" lon="3.75052">
        <ele>1350</ele>
        <time>2017-03-01T15:45:38Z</time>
      </trkpt>
      <trkpt lat="44.41078" lon="3.7505">
        <ele>1350</ele>
        <time>2017-03-01T15:47:38Z</time>
      </trkpt>
      <trkpt lat="44.41064" lon="3.75049">
        <ele>1347</ele>
        <time>2017-03-01T15:49:38Z</time>
      </trkpt>
      <trkpt lat="44.41052" lon="3.75049">
        <ele>1345</ele>
        <time>2017-03-01T15:51:38Z</time>
      </trkpt>
      <trkpt lat="44.4104" lon="3.7505">
        <ele>1343</ele>
        <time>2017-03-01T15:53:38Z</time>
      </trkpt>
      <trkpt lat="44.41031" lon="3.7505">
        <ele>1342</ele>
        <time>2017-03-01T15:55:38Z</time>
      </trkpt>
      <trkpt lat="44.41022" lon="3.7505">
        <ele>1341</ele>
        <time>2017-03-01T15:57:38Z</time>
      </trkpt>
      <trkpt lat="44.41015" lon="3.7505">
        <ele>1339</ele>
        <time>2017-03-01T15:59:38Z</time>
      </trkpt>
      <trkpt lat="44.41011" lon="3.75049">
        <ele>1339</ele>
        <time>2017-03-01T16:01:38Z</time>
      </trkpt>
      <trkpt lat="44.41006" lon="3.75048">
        <ele>1338</ele>
        <time>2017-03-01T16:03:38Z</time>
      </trkpt>
      <trkpt lat="44.41002" lon="3.75048">
        <ele>1338</ele>
        <time>2017-03-01T16:05:38Z</time>
      </trkpt>
      <trkpt lat="44.40995" lon="3.75051">
        <ele>1336</ele>
        <time>2017-03-01T16:07:38Z</time>
      </trkpt>
      <trkpt lat="44.40981" lon="3.75058">
        <ele>1334</ele>
        <time>2017-03-01T16:09:38Z</time>
      </trkpt>
      <trkpt lat="44.40981" lon="3.75058">
        <ele>1334</ele>
        <time>2017-03-01T16:11:38Z</time>
      </trkpt>
      <trkpt lat="44.40975" lon="3.75055">
        <ele>1334</ele>
        <time>2017-03-01T16:13:38Z</time>
      </trkpt>
      <trkpt lat="44.40974" lon="3.75054">
        <ele>1334</ele>
        <time>2017-03-01T16:15:38Z</time>
      </trkpt>
      <trkpt lat="44.40972" lon="3.75053">
        <ele>1333</ele>
        <time>2017-03-01T16:17:38Z</time>
      </trkpt>
      <trkpt lat="44.4097" lon="3.7505">
        <ele>1334</ele>
        <time>2017-03-01T16:19:38Z</time>
      </trkpt>
      <trkpt lat="44.40967" lon="3.75047">
        <ele>1334</ele>
        <time>2017-03-01T16:21:38Z</time>
      </trkpt>
      <trkpt lat="44.40965" lon="3.75046">
        <ele>1334</ele>
        <time>2017-03-01T16:23:38Z</time>
      </trkpt>
      <trkpt lat="44.40963" lon="3.75045">
        <ele>1334</ele>
        <time>2017-03-01T16:25:38Z</time>
      </trkpt>
      <trkpt lat="44.40961" lon="3.75045">
        <ele>1333</ele>
        <time>2017-03-01T16:27:38Z</time>
      </trkpt>
      <trkpt lat="44.40959" lon="3.75047">
        <ele>1333</ele>
        <time>2017-03-01T16:29:38Z</time>
      </trkpt>
      <trkpt lat="44.40951" lon="3.75054">
        <ele>1331</ele>
        <time>2017-03-01T16:31:38Z</time>
      </trkpt>
      <trkpt lat="44.40941" lon="3.75058">
        <ele>1329</ele>
        <time>2017-03-01T16:33:38Z</time>
      </trkpt>
      <trkpt lat="44.4093" lon="3.75063">
        <ele>1327</ele>
        <time>2017-03-01T16:35:38Z</time>
      </trkpt>
      <trkpt lat="44.40921" lon="3.75064">
        <ele>1326</ele>
        <time>2017-03-01T16:37:38Z</time>
      </trkpt>
      <trkpt lat="44.40921" lon="3.75064">
        <ele>1326</ele>
        <time>2017-03-01T16:39:38Z</time>
      </trkpt>
      <trkpt lat="44.40921" lon="3.75069">
        <ele>1325</ele>
        <time>2017-03-01T16:41:38Z</time>
      </trkpt>
      <trkpt lat="44.40921" lon="3.75077">
        <ele>1324</ele>
        <time>2017-03-01T16:43:38Z</time>
      </trkpt>
      <trkpt lat="44.4092" lon="3.75081">
        <ele>1323</ele>
        <time>2017-03-01T16:45:38Z</time>
      </trkpt>
      <trkpt lat="44.40919" lon="3.75086">
        <ele>1322</ele>
        <time>2017-03-01T16:47:38Z</time>
      </trkpt>
      <trkpt lat="44.40918" lon="3.75088">
        <ele>1322</ele>
        <time>2017-03-01T16:49:38Z</time>
      </trkpt>
      <trkpt lat="44.40916" lon="3.75091">
        <ele>1322</ele>
        <time>2017-03-01T16:51:38Z</time>
      </trkpt>
      <trkpt lat="44.40914" lon="3.75093">
        <ele>1322</ele>
        <time>2017-03-01T16:53:38Z</time>
      </trkpt>
      <trkpt lat="44.40912" lon="3.75095">
        <ele>1321</ele>
        <time>2017-03-01T16:55:38Z</time>
      </trkpt>
      <trkpt lat="44.40907" lon="3.75096">
        <ele>1321</ele>
        <time>2017-03-01T16:57:38Z</time>
      </trkpt>
      <trkpt lat="44.40903" lon="3.75096">
        <ele>1320</ele>
        <time>2017-03-01T16:59:38Z</time>
      </trkpt>
      <trkpt lat="44.409" lon="3.75094">
        <ele>1319</ele>
        <time>2017-03-01T17:01:38Z</time>
      </trkpt>
      <trkpt lat="44.40895" lon="3.7509">
        <ele>1318</ele>
        <time>2017-03-01T17:03:38Z</time>
      </trkpt>
      <trkpt lat="44.40886" lon="3.75082">
        <ele>1317</ele>
        <time>2017-03-01T17:05:38Z</time>
      </trkpt>
      <trkpt lat="44.40881" lon="3.75079">
        <ele>1317</ele>
        <time>2017-03-01T17:07:38Z</time>
      </trkpt>
      <trkpt lat="44.40877" lon="3.75077">
        <ele>1316</ele>
        <time>2017-03-01T17:09:38Z</time>
      </trkpt>
      <trkpt lat="44.40874" lon="3.75077">
        <ele>1316</ele>
        <time>2017-03-01T17:11:38Z</time>
      </trkpt>
      <trkpt lat="44.40869" lon="3.75079">
        <ele>1315</ele>
        <time>2017-03-01T17:13:38Z</time>
      </trkpt>
      <trkpt lat="44.40869" lon="3.75079">
        <ele>1315</ele>
        <time>2017-03-01T17:15:38Z</time>
      </trkpt>
      <trkpt lat="44.4085" lon="3.75069">
        <ele>1313</ele>
        <time>2017-03-01T17:17:38Z</time>
      </trkpt>
      <trkpt lat="44.4084" lon="3.75063">
        <ele>1313</ele>
        <time>2017-03-01T17:19:38Z</time>
      </trkpt>
      <trkpt lat="44.40828" lon="3.75056">
        <ele>1313</ele>
        <time>2017-03-01T17:21:38Z</time>
      </trkpt>
      <trkpt lat="44.40821" lon="3.75053">
        <ele>1312</ele>
        <time>2017-03-01T17:23:38Z</time>
      </trkpt>
      <trkpt lat="44.40814" lon="3.75052">
        <ele>1311</ele>
        <time>2017-03-01T17:25:38Z</time>
      </trkpt>
      <trkpt lat="44.40811" lon="3.75052">
        <ele>1311</ele>
        <time>2017-03-01T17:27:38Z</time>
      </trkpt>
      <trkpt lat="44.40806" lon="3.75052">
        <ele>1310</ele>
        <time>2017-03-01T17:29:38Z</time>
      </trkpt>
      <trkpt lat="44.40795" lon="3.75053">
        <ele>1309</ele>
        <time>2017-03-01T17:31:38Z</time>
      </trkpt>
      <trkpt lat="44.40795" lon="3.75053">
        <ele>1309</ele>
        <time>2017-03-01T17:33:38Z</time>
      </trkpt>
      <trkpt lat="44.40791" lon="3.75067">
        <ele>1306</ele>
        <time>2017-03-01T17:35:38Z</time>
      </trkpt>
      <trkpt lat="44.40786" lon="3.75072">
        <ele>1304</ele>
        <time>2017-03-01T17:37:38Z</time>
      </trkpt>
      <trkpt lat="44.4078" lon="3.75075">
        <ele>1303</ele>
        <time>2017-03-01T17:39:38Z</time>
      </trkpt>
      <trkpt lat="44.40775" lon="3.75077">
        <ele>1302</ele>
        <time>2017-03-01T17:41:38Z</time>
      </trkpt>
      <trkpt lat="44.40767" lon="3.75078">
        <ele>1301</ele>
        <time>2017-03-01T17:43:38Z</time>
      </trkpt>
      <trkpt lat="44.40734" lon="3.75078">
        <ele>1297</ele>
        <time>2017-03-01T17:45:38Z</time>
      </trkpt>
      <trkpt lat="44.40726" lon="3.75077">
        <ele>1296</ele>
        <time>2017-03-01T17:47:38Z</time>
      </trkpt>
      <trkpt lat="44.40686" lon="3.75063">
        <ele>1291</ele>
        <time>2017-03-01T17:49:38Z</time>
      </trkpt>
      <trkpt lat="44.40686" lon="3.75063">
        <ele>1291</ele>
        <time>2017-03-01T17:51:38Z</time>
      </trkpt>
      <trkpt lat="44.40682" lon="3.75073">
        <ele>1290</ele>
        <time>2017-03-01T17:53:38Z</time>
      </trkpt>
      <trkpt lat="44.4068" lon="3.7508">
        <ele>1289</ele>
        <time>2017-03-01T17:55:38Z</time>
      </trkpt>
      <trkpt lat="44.4068" lon="3.751">
        <ele>1288</ele>
        <time>2017-03-01T17:57:38Z</time>
      </trkpt>
      <trkpt lat="44.40678" lon="3.75113">
        <ele>1287</ele>
        <time>2017-03-01T17:59:38Z</time>
      </trkpt>
      <trkpt lat="44.40676" lon="3.75118">
        <ele>1286</ele>
        <time>2017-03-01T18:01:38Z</time>
      </trkpt>
      <trkpt lat="44.40674" lon="3.7512">
        <ele>1286</ele>
        <time>2017-03-01T18:03:38Z</time>
      </trkpt>
      <trkpt lat="44.40653" lon="3.75122">
        <ele>1283</ele>
        <time>2017-03-01T18:05:38Z</time>
      </trkpt>
      <trkpt lat="44.40646" lon="3.75122">
        <ele>1282</ele>
        <time>2017-03-01T18:07:38Z</time>
      </trkpt>
      <trkpt lat="44.40639" lon="3.7512">
        <ele>1281</ele>
        <time>2017-03-01T18:09:38Z</time>
      </trkpt>
      <trkpt lat="44.40633" lon="3.75119">
        <ele>1280</ele>
        <time>2017-03-01T18:11:38Z</time>
      </trkpt>
      <trkpt lat="44.40631" lon="3.75119">
        <ele>1280</ele>
        <time>2017-03-01T18:13:38Z</time>
      </trkpt>
      <trkpt lat="44.40628" lon="3.7512">
        <ele>1279</ele>
        <time>2017-03-01T18:15:38Z</time>
      </trkpt>
      <trkpt lat="44.40625" lon="3.75121">
        <ele>1279</ele>
        <time>2017-03-01T18:17:38Z</time>
      </trkpt>
      <trkpt lat="44.40623" lon="3.75123">
        <ele>1278</ele>
        <time>2017-03-01T18:19:38Z</time>
      </trkpt>
      <trkpt lat="44.40615" lon="3.7513">
        <ele>1277</ele>
        <time>2017-03-01T18:21:38Z</time>
      </trkpt>
      <trkpt lat="44.40603" lon="3.75137">
        <ele>1275</ele>
        <time>2017-03-01T18:23:38Z</time>
      </trkpt>
      <trkpt lat="44.40592" lon="3.75147">
        <ele>1273</ele>
        <time>2017-03-01T18:25:38Z</time>
      </trkpt>
      <trkpt lat="44.40584" lon="3.7515">
        <ele>1272</ele>
        <time>2017-03-01T18:27:38Z</time>
      </trkpt>
      <trkpt lat="44.40581" lon="3.75151">
        <ele>1271</ele>
        <time>2017-03-01T18:29:38Z</time>
      </trkpt>
      <trkpt lat="44.40576" lon="3.7515">
        <ele>1271</ele>
        <time>2017-03-01T18:31:38Z</time>
      </trkpt>
      <trkpt lat="44.40571" lon="3.75148">
        <ele>1270</ele>
        <time>2017-03-01T18:33:38Z</time>
      </trkpt>
      <trkpt lat="44.40567" lon="3.75147">
        <ele>1270</ele>
        <time>2017-03-01T18:35:38Z</time>
      </trkpt>
      <trkpt lat="44.40559" lon="3.75147">
        <ele>1269</ele>
        <time>2017-03-01T18:37:38Z</time>
      </trkpt>
      <trkpt lat="44.40541" lon="3.75147">
        <ele>1267</ele>
        <time>2017-03-01T18:39:38Z</time>
      </trkpt>
      <trkpt lat="44.40536" lon="3.75148">
        <ele>1266</ele>
        <time>2017-03-01T18:41:38Z</time>
      </trkpt>
      <trkpt lat="44.40528" lon="3.7515">
        <ele>1265</ele>
        <time>2017-03-01T18:43:38Z</time>
      </trkpt>
      <trkpt lat="44.40521" lon="3.75152">
        <ele>1264</ele>
        <time>2017-03-01T18:45:38Z</time>
      </trkpt>
      <trkpt lat="44.40514" lon="3.75151">
        <ele>1263</ele>
        <time>2017-03-01T18:47:38Z</time>
      </trkpt>
      <trkpt lat="44.40507" lon="3.75149">
        <ele>1262</ele>
        <time>2017-03-01T18:49:38Z</time>
      </trkpt>
      <trkpt lat="44.40501" lon="3.75148">
        <ele>1262</ele>
        <time>2017-03-01T18:51:38Z</time>
      </trkpt>
      <trkpt lat="44.40496" lon="3.75144">
        <ele>1261</ele>
        <time>2017-03-01T18:53:38Z</time>
      </trkpt>
      <trkpt lat="44.40489" lon="3.7514">
        <ele>1260</ele>
        <time>2017-03-01T18:55:38Z</time>
      </trkpt>
      <trkpt lat="44.40476" lon="3.75133">
        <ele>1259</ele>
        <time>2017-03-01T18:57:38Z</time>
      </trkpt>
      <trkpt lat="44.40462" lon="3.75123">
        <ele>1257</ele>
        <time>2017-03-01T18:59:38Z</time>
      </trkpt>
      <trkpt lat="44.40443" lon="3.75114">
        <ele>1254</ele>
        <time>2017-03-01T19:01:38Z</time>
      </trkpt>
      <trkpt lat="44.40432" lon="3.7511">
        <ele>1253</ele>
        <time>2017-03-01T19:03:38Z</time>
      </trkpt>
      <trkpt lat="44.40423" lon="3.75106">
        <ele>1251</ele>
        <time>2017-03-01T19:05:38Z</time>
      </trkpt>
      <trkpt lat="44.40418" lon="3.75102">
        <ele>1250</ele>
        <time>2017-03-01T19:07:38Z</time>
      </trkpt>
      <trkpt lat="44.40414" lon="3.75097">
        <ele>1249</ele>
        <time>2017-03-01T19:09:38Z</time>
      </trkpt>
      <trkpt lat="44.4041" lon="3.75086">
        <ele>1248</ele>
        <time>2017-03-01T19:11:38Z</time>
      </trkpt>
      <trkpt lat="44.40406" lon="3.75075">
        <ele>1248</ele>
        <time>2017-03-01T19:13:38Z</time>
      </trkpt>
      <trkpt lat="44.40402" lon="3.7507">
        <ele>1248</ele>
        <time>2017-03-01T19:15:38Z</time>
      </trkpt>
      <trkpt lat="44.40397" lon="3.75065">
        <ele>1247</ele>
        <time>2017-03-01T19:17:38Z</time>
      </trkpt>
      <trkpt lat="44.4039" lon="3.75063">
        <ele>1246</ele>
        <time>2017-03-01T19:19:38Z</time>
      </trkpt>
      <trkpt lat="44.40384" lon="3.75061">
        <ele>1245</ele>
        <time>2017-03-01T19:21:38Z</time>
      </trkpt>
      <trkpt lat="44.40375" lon="3.75061">
        <ele>1244</ele>
        <time>2017-03-01T19:23:38Z</time>
      </trkpt>
      <trkpt lat="44.40366" lon="3.75062">
        <ele>1243</ele>
        <time>2017-03-01T19:25:38Z</time>
      </trkpt>
      <trkpt lat="44.40353" lon="3.75064">
        <ele>1240</ele>
        <time>2017-03-01T19:27:38Z</time>
      </trkpt>
      <trkpt lat="44.4035" lon="3.75063">
        <ele>1240</ele>
        <time>2017-03-01T19:29:38Z</time>
      </trkpt>
      <trkpt lat="44.40348" lon="3.75062">
        <ele>1240</ele>
        <time>2017-03-01T19:31:38Z</time>
      </trkpt>
      <trkpt lat="44.40335" lon="3.75055">
        <ele>1238</ele>
        <time>2017-03-01T19:33:38Z</time>
      </trkpt>
      <trkpt lat="44.40316" lon="3.75044">
        <ele>1236</ele>
        <time>2017-03-01T19:35:38Z</time>
      </trkpt>
      <trkpt lat="44.40303" lon="3.75037">
        <ele>1234</ele>
        <time>2017-03-01T19:37:38Z</time>
      </trkpt>
      <trkpt lat="44.40295" lon="3.7503">
        <ele>1233</ele>
        <time>2017-03-01T19:39:38Z</time>
      </trkpt>
      <trkpt lat="44.40286" lon="3.75026">
        <ele>1232</ele>
        <time>2017-03-01T19:41:38Z</time>
      </trkpt>
      <trkpt lat="44.40276" lon="3.75023">
        <ele>1230</ele>
        <time>2017-03-01T19:43:38Z</time>
      </trkpt>
      <trkpt lat="44.40266" lon="3.75021">
        <ele>1229</ele>
        <time>2017-03-01T19:45:38Z</time>
      </trkpt>
      <trkpt lat="44.40258" lon="3.7502">
        <ele>1227</ele>
        <time>2017-03-01T19:47:38Z</time>
      </trkpt>
      <trkpt lat="44.40251" lon="3.75019">
        <ele>1226</ele>
        <time>2017-03-01T19:49:38Z</time>
      </trkpt>
      <trkpt lat="44.4024" lon="3.75019">
        <ele>1225</ele>
        <time>2017-03-01T19:51:38Z</time>
      </trkpt>
      <trkpt lat="44.40234" lon="3.75017">
        <ele>1225</ele>
        <time>2017-03-01T19:53:38Z</time>
      </trkpt>
      <trkpt lat="44.40226" lon="3.75015">
        <ele>1224</ele>
        <time>2017-03-01T19:55:38Z</time>
      </trkpt>
      <trkpt lat="44.40214" lon="3.75012">
        <ele>1223</ele>
        <time>2017-03-01T19:57:38Z</time>
      </trkpt>
      <trkpt lat="44.40214" lon="3.75012">
        <ele>1223</ele>
        <time>2017-03-01T19:59:38Z</time>
      </trkpt>
      <trkpt lat="44.40208" lon="3.75006">
        <ele>1221</ele>
        <time>2017-03-01T20:01:38Z</time>
      </trkpt>
      <trkpt lat="44.40202" lon="3.74996">
        <ele>1220</ele>
        <time>2017-03-01T20:03:38Z</time>
      </trkpt>
      <trkpt lat="44.40195" lon="3.74982">
        <ele>1219</ele>
        <time>2017-03-01T20:05:38Z</time>
      </trkpt>
      <trkpt lat="44.4019" lon="3.74967">
        <ele>1218</ele>
        <time>2017-03-01T20:07:38Z</time>
      </trkpt>
      <trkpt lat="44.40186" lon="3.74954">
        <ele>1217</ele>
        <time>2017-03-01T20:09:38Z</time>
      </trkpt>
      <trkpt lat="44.40181" lon="3.74945">
        <ele>1216</ele>
        <time>2017-03-01T20:11:38Z</time>
      </trkpt>
      <trkpt lat="44.40178" lon="3.7494">
        <ele>1215</ele>
        <time>2017-03-01T20:13:38Z</time>
      </trkpt>
      <trkpt lat="44.40173" lon="3.74935">
        <ele>1215</ele>
        <time>2017-03-01T20:15:38Z</time>
      </trkpt>
      <trkpt lat="44.40168" lon="3.74931">
        <ele>1214</ele>
        <time>2017-03-01T20:17:38Z</time>
      </trkpt>
      <trkpt lat="44.40163" lon="3.74929">
        <ele>1213</ele>
        <time>2017-03-01T20:19:38Z</time>
      </trkpt>
      <trkpt lat="44.40156" lon="3.74927">
        <ele>1213</ele>
        <time>2017-03-01T20:21:38Z</time>
      </trkpt>
      <trkpt lat="44.4015" lon="3.74924">
        <ele>1212</ele>
        <time>2017-03-01T20:23:38Z</time>
      </trkpt>
      <trkpt lat="44.40141" lon="3.74929">
        <ele>1212</ele>
        <time>2017-03-01T20:25:38Z</time>
      </trkpt>
      <trkpt lat="44.40138" lon="3.74931">
        <ele>1212</ele>
        <time>2017-03-01T20:27:38Z</time>
      </trkpt>
      <trkpt lat="44.40134" lon="3.74933">
        <ele>1212</ele>
        <time>2017-03-01T20:29:38Z</time>
      </trkpt>
      <trkpt lat="44.4013" lon="3.74936">
        <ele>1212</ele>
        <time>2017-03-01T20:31:38Z</time>
      </trkpt>
      <trkpt lat="44.40126" lon="3.74939">
        <ele>1212</ele>
        <time>2017-03-01T20:33:38Z</time>
      </trkpt>
      <trkpt lat="44.40122" lon="3.7494">
        <ele>1212</ele>
        <time>2017-03-01T20:35:38Z</time>
      </trkpt>
      <trkpt lat="44.40116" lon="3.7494">
        <ele>1211</ele>
        <time>2017-03-01T20:37:38Z</time>
      </trkpt>
      <trkpt lat="44.40111" lon="3.7494">
        <ele>1211</ele>
        <time>2017-03-01T20:39:38Z</time>
      </trkpt>
      <trkpt lat="44.40102" lon="3.74937">
        <ele>1210</ele>
        <time>2017-03-01T20:41:38Z</time>
      </trkpt>
      <trkpt lat="44.40086" lon="3.74931">
        <ele>1209</ele>
        <time>2017-03-01T20:43:38Z</time>
      </trkpt>
      <trkpt lat="44.40078" lon="3.74929">
        <ele>1209</ele>
        <time>2017-03-01T20:45:38Z</time>
      </trkpt>
      <trkpt lat="44.4007" lon="3.74928">
        <ele>1208</ele>
        <time>2017-03-01T20:47:38Z</time>
      </trkpt>
      <trkpt lat="44.4006" lon="3.74929">
        <ele>1208</ele>
        <time>2017-03-01T20:49:38Z</time>
      </trkpt>
      <trkpt lat="44.4005" lon="3.74931">
        <ele>1208</ele>
        <time>2017-03-01T20:51:38Z</time>
      </trkpt>
      <trkpt lat="44.40036" lon="3.74935">
        <ele>1207</ele>
        <time>2017-03-01T20:53:38Z</time>
      </trkpt>
      <trkpt lat="44.40024" lon="3.74938">
        <ele>1207</ele>
        <time>2017-03-01T20:55:38Z</time>
      </trkpt>
      <trkpt lat="44.40015" lon="3.7494">
        <ele>1207</ele>
        <time>2017-03-01T20:57:38Z</time>
      </trkpt>
      <trkpt lat="44.40007" lon="3.74944">
        <ele>1207</ele>
        <time>2017-03-01T20:59:38Z</time>
      </trkpt>
      <trkpt lat="44.4" lon="3.74948">
        <ele>1207</ele>
        <time>2017-03-01T21:01:38Z</time>
      </trkpt>
      <trkpt lat="44.39992" lon="3.74954">
        <ele>1206</ele>
        <time>2017-03-01T21:03:38Z</time>
      </trkpt>
      <trkpt lat="44.39973" lon="3.74968">
        <ele>1206</ele>
        <time>2017-03-01T21:05:38Z</time>
      </trkpt>
      <trkpt lat="44.39973" lon="3.74968">
        <ele>1206</ele>
        <time>2017-03-01T21:07:38Z</time>
      </trkpt>
      <trkpt lat="44.39981" lon="3.74981">
        <ele>1207</ele>
        <time>2017-03-01T21:09:38Z</time>
      </trkpt>
      <trkpt lat="44.39986" lon="3.7499">
        <ele>1208</ele>
        <time>2017-03-01T21:11:38Z</time>
      </trkpt>
      <trkpt lat="44.39995" lon="3.75008">
        <ele>1210</ele>
        <time>2017-03-01T21:13:38Z</time>
      </trkpt>
      <trkpt lat="44.39997" lon="3.75013">
        <ele>1210</ele>
        <time>2017-03-01T21:15:38Z</time>
      </trkpt>
      <trkpt lat="44.39998" lon="3.75016">
        <ele>1210</ele>
        <time>2017-03-01T21:17:38Z</time>
      </trkpt>
      <trkpt lat="44.39999" lon="3.75025">
        <ele>1211</ele>
        <time>2017-03-01T21:19:38Z</time>
      </trkpt>
      <trkpt lat="44.40002" lon="3.75042">
        <ele>1213</ele>
        <time>2017-03-01T21:21:38Z</time>
      </trkpt>
      <trkpt lat="44.40004" lon="3.75048">
        <ele>1214</ele>
        <time>2017-03-01T21:23:38Z</time>
      </trkpt>
      <trkpt lat="44.40008" lon="3.75057">
        <ele>1215</ele>
        <time>2017-03-01T21:25:38Z</time>
      </trkpt>
      <trkpt lat="44.40011" lon="3.75064">
        <ele>1216</ele>
        <time>2017-03-01T21:27:38Z</time>
      </trkpt>
      <trkpt lat="44.40012" lon="3.75068">
        <ele>1216</ele>
        <time>2017-03-01T21:29:38Z</time>
      </trkpt>
      <trkpt lat="44.40011" lon="3.75072">
        <ele>1217</ele>
        <time>2017-03-01T21:31:38Z</time>
      </trkpt>
      <trkpt lat="44.4001" lon="3.75076">
        <ele>1217</ele>
        <time>2017-03-01T21:33:38Z</time>
      </trkpt>
      <trkpt lat="44.40009" lon="3.75081">
        <ele>1217</ele>
        <time>2017-03-01T21:35:38Z</time>
      </trkpt>
      <trkpt lat="44.40004" lon="3.7509">
        <ele>1218</ele>
        <time>2017-03-01T21:37:38Z</time>
      </trkpt>
      <trkpt lat="44.39996" lon="3.75104">
        <ele>1218</ele>
        <time>2017-03-01T21:39:38Z</time>
      </trkpt>
      <trkpt lat="44.39988" lon="3.75125">
        <ele>1219</ele>
        <time>2017-03-01T21:41:38Z</time>
      </trkpt>
      <trkpt lat="44.39973" lon="3.75156">
        <ele>1219</ele>
        <time>2017-03-01T21:43:38Z</time>
      </trkpt>
      <trkpt lat="44.39962" lon="3.75176">
        <ele>1219</ele>
        <time>2017-03-01T21:45:38Z</time>
      </trkpt>
      <trkpt lat="44.39957" lon="3.75191">
        <ele>1220</ele>
        <time>2017-03-01T21:47:38Z</time>
      </trkpt>
      <trkpt lat="44.39954" lon="3.752">
        <ele>1220</ele>
        <time>2017-03-01T21:49:38Z</time>
      </trkpt>
      <trkpt lat="44.39947" lon="3.75225">
        <ele>1221</ele>
        <time>2017-03-01T21:51:38Z</time>
      </trkpt>
      <trkpt lat="44.39944" lon="3.75235">
        <ele>1222</ele>
        <time>2017-03-01T21:53:38Z</time>
      </trkpt>
      <trkpt lat="44.39941" lon="3.75246">
        <ele>1222</ele>
        <time>2017-03-01T21:55:38Z</time>
      </trkpt>
      <trkpt lat="44.39941" lon="3.75249">
        <ele>1222</ele>
        <time>2017-03-01T21:57:38Z</time>
      </trkpt>
      <trkpt lat="44.39941" lon="3.75249">
        <ele>1222</ele>
        <time>2017-03-01T21:59:38Z</time>
      </trkpt>
      <trkpt lat="44.3994" lon="3.75253">
        <ele>1223</ele>
        <time>2017-03-01T22:01:38Z</time>
      </trkpt>
      <trkpt lat="44.39939" lon="3.75275">
        <ele>1224</ele>
        <time>2017-03-01T22:03:38Z</time>
      </trkpt>
      <trkpt lat="44.39939" lon="3.7528">
        <ele>1224</ele>
        <time>2017-03-01T22:05:38Z</time>
      </trkpt>
      <trkpt lat="44.39938" lon="3.75283">
        <ele>1224</ele>
        <time>2017-03-01T22:07:38Z</time>
      </trkpt>
      <trkpt lat="44.39938" lon="3.75286">
        <ele>1224</ele>
        <time>2017-03-01T22:09:38Z</time>
      </trkpt>
      <trkpt lat="44.39935" lon="3.75291">
        <ele>1224</ele>
        <time>2017-03-01T22:11:38Z</time>
      </trkpt>
      <trkpt lat="44.39932" lon="3.75301">
        <ele>1224</ele>
        <time>2017-03-01T22:13:38Z</time>
      </trkpt>
      <trkpt lat="44.39926" lon="3.7532">
        <ele>1225</ele>
        <time>2017-03-01T22:15:38Z</time>
      </trkpt>
      <trkpt lat="44.39922" lon="3.75333">
        <ele>1225</ele>
        <time>2017-03-01T22:17:38Z</time>
      </trkpt>
      <trkpt lat="44.39918" lon="3.75341">
        <ele>1226</ele>
        <time>2017-03-01T22:19:38Z</time>
      </trkpt>
      <trkpt lat="44.39911" lon="3.75347">
        <ele>1227</ele>
        <time>2017-03-01T22:21:38Z</time>
      </trkpt>
      <trkpt lat="44.39904" lon="3.75352">
        <ele>1228</ele>
        <time>2017-03-01T22:23:38Z</time>
      </trkpt>
      <trkpt lat="44.39888" lon="3.75359">
        <ele>1229</ele>
        <time>2017-03-01T22:25:38Z</time>
      </trkpt>
      <trkpt lat="44.3987" lon="3.75366">
        <ele>1230</ele>
        <time>2017-03-01T22:27:38Z</time>
      </trkpt>
      <trkpt lat="44.39846" lon="3.75376">
        <ele>1233</ele>
        <time>2017-03-01T22:29:38Z</time>
      </trkpt>
      <trkpt lat="44.39828" lon="3.75385">
        <ele>1235</ele>
        <time>2017-03-01T22:31:38Z</time>
      </trkpt>
      <trkpt lat="44.39798" lon="3.754">
        <ele>1239</ele>
        <time>2017-03-01T22:33:38Z</time>
      </trkpt>
      <trkpt lat="44.39791" lon="3.75403">
        <ele>1240</ele>
        <time>2017-03-01T22:35:38Z</time>
      </trkpt>
      <trkpt lat="44.39788" lon="3.75406">
        <ele>1241</ele>
        <time>2017-03-01T22:37:38Z</time>
      </trkpt>
      <trkpt lat="44.39784" lon="3.75409">
        <ele>1241</ele>
        <time>2017-03-01T22:39:38Z</time>
      </trkpt>
      <trkpt lat="44.39783" lon="3.75411">
        <ele>1242</ele>
        <time>2017-03-01T22:41:38Z</time>
      </trkpt>
      <trkpt lat="44.3978" lon="3.75414">
        <ele>1243</ele>
        <time>2017-03-01T22:43:38Z</time>
      </trkpt>
      <trkpt lat="44.39766" lon="3.75417">
        <ele>1244</ele>
        <time>2017-03-01T22:45:38Z</time>
      </trkpt>
      <trkpt lat="44.39749" lon="3.75423">
        <ele>1246</ele>
        <time>2017-03-01T22:47:38Z</time>
      </trkpt>
      <trkpt lat="44.3974" lon="3.75427">
        <ele>1247</ele>
        <time>2017-03-01T22:49:38Z</time>
      </trkpt>
      <trkpt lat="44.39737" lon="3.75428">
        <ele>1248</ele>
        <time>2017-03-01T22:51:38Z</time>
      </trkpt>
      <trkpt lat="44.39736" lon="3.75429">
        <ele>1248</ele>
        <time>2017-03-01T22:53:38Z</time>
      </trkpt>
      <trkpt lat="44.39735" lon="3.75432">
        <ele>1249</ele>
        <time>2017-03-01T22:55:38Z</time>
      </trkpt>
      <trkpt lat="44.39734" lon="3.75436">
        <ele>1250</ele>
        <time>2017-03-01T22:57:38Z</time>
      </trkpt>
      <trkpt lat="44.39734" lon="3.75439">
        <ele>1251</ele>
        <time>2017-03-01T22:59:38Z</time>
      </trkpt>
      <trkpt lat="44.39733" lon="3.75441">
        <ele>1251</ele>
        <time>2017-03-01T23:01:38Z</time>
      </trkpt>
      <trkpt lat="44.39723" lon="3.75443">
        <ele>1252</ele>
        <time>2017-03-01T23:03:38Z</time>
      </trkpt>
      <trkpt lat="44.39721" lon="3.75443">
        <ele>1253</ele>
        <time>2017-03-01T23:05:38Z</time>
      </trkpt>
      <trkpt lat="44.3972" lon="3.75445">
        <ele>1253</ele>
        <time>2017-03-01T23:07:38Z</time>
      </trkpt>
      <trkpt lat="44.39719" lon="3.75448">
        <ele>1254</ele>
        <time>2017-03-01T23:09:38Z</time>
      </trkpt>
      <trkpt lat="44.39718" lon="3.7545">
        <ele>1255</ele>
        <time>2017-03-01T23:11:38Z</time>
      </trkpt>
      <trkpt lat="44.39717" lon="3.75452">
        <ele>1255</ele>
        <time>2017-03-01T23:13:38Z</time>
      </trkpt>
      <trkpt lat="44.39715" lon="3.75452">
        <ele>1255</ele>
        <time>2017-03-01T23:15:38Z</time>
      </trkpt>
      <trkpt lat="44.3971" lon="3.75453">
        <ele>1256</ele>
        <time>2017-03-01T23:17:38Z</time>
      </trkpt>
      <trkpt lat="44.39696" lon="3.75451">
        <ele>1256</ele>
        <time>2017-03-01T23:19:38Z</time>
      </trkpt>
      <trkpt lat="44.39683" lon="3.75451">
        <ele>1257</ele>
        <time>2017-03-01T23:21:38Z</time>
      </trkpt>
      <trkpt lat="44.39679" lon="3.75452">
        <ele>1257</ele>
        <time>2017-03-01T23:23:38Z</time>
      </trkpt>
      <trkpt lat="44.39676" lon="3.75453">
        <ele>1257</ele>
        <time>2017-03-01T23:25:38Z</time>
      </trkpt>
      <trkpt lat="44.39672" lon="3.75455">
        <ele>1258</ele>
        <time>2017-03-01T23:27:38Z</time>
      </trkpt>
      <trkpt lat="44.39651" lon="3.7547">
        <ele>1263</ele>
        <time>2017-03-01T23:29:38Z</time>
      </trkpt>
      <trkpt lat="44.39628" lon="3.75483">
        <ele>1266</ele>
        <time>2017-03-01T23:31:38Z</time>
      </trkpt>
      <trkpt lat="44.39591" lon="3.75511">
        <ele>1271</ele>
        <time>2017-03-01T23:33:38Z</time>
      </trkpt>
      <trkpt lat="44.39587" lon="3.75516">
        <ele>1272</ele>
        <time>2017-03-01T23:35:38Z</time>
      </trkpt>
      <trkpt lat="44.39585" lon="3.75519">
        <ele>1273</ele>
        <time>2017-03-01T23:37:38Z</time>
      </trkpt>
      <trkpt lat="44.39582" lon="3.75522">
        <ele>1274</ele>
        <time>2017-03-01T23:39:38Z</time>
      </trkpt>
      <trkpt lat="44.39578" lon="3.75526">
        <ele>1274</ele>
        <time>2017-03-01T23:41:38Z</time>
      </trkpt>
      <trkpt lat="44.39573" lon="3.75535">
        <ele>1276</ele>
        <time>2017-03-01T23:43:38Z</time>
      </trkpt>
      <trkpt lat="44.39571" lon="3.75539">
        <ele>1277</ele>
        <time>2017-03-01T23:45:38Z</time>
      </trkpt>
      <trkpt lat="44.39562" lon="3.75547">
        <ele>1278</ele>
        <time>2017-03-01T23:47:38Z</time>
      </trkpt>
      <trkpt lat="44.39552" lon="3.75561">
        <ele>1281</ele>
        <time>2017-03-01T23:49:38Z</time>
      </trkpt>
      <trkpt lat="44.39549" lon="3.75563">
        <ele>1281</ele>
        <time>2017-03-01T23:51:38Z</time>
      </trkpt>
      <trkpt lat="44.39546" lon="3.75564">
        <ele>1281</ele>
        <time>2017-03-01T23:53:38Z</time>
      </trkpt>
      <trkpt lat="44.39545" lon="3.75564">
        <ele>1281</ele>
        <time>2017-03-01T23:55:38Z</time>
      </trkpt>
      <trkpt lat="44.39542" lon="3.75565">
        <ele>1281</ele>
        <time>2017-03-01T23:57:38Z</time>
      </trkpt>
      <trkpt lat="44.3954" lon="3.75566">
        <ele>1281</ele>
        <time>2017-03-01T23:59:38Z</time>
      </trkpt>
      <trkpt lat="44.39539" lon="3.75567">
        <ele>1281</ele>
        <time>2017-03-02T00:01:38Z</time>
      </trkpt>
      <trkpt lat="44.39538" lon="3.75569">
        <ele>1282</ele>
        <time>2017-03-02T00:03:38Z</time>
      </trkpt>
      <trkpt lat="44.39536" lon="3.75573">
        <ele>1282</ele>
        <time>2017-03-02T00:05:38Z</time>
      </trkpt>
      <trkpt lat="44.39535" lon="3.75577">
        <ele>1283</ele>
        <time>2017-03-02T00:07:38Z</time>
      </trkpt>
      <trkpt lat="44.39534" lon="3.7558">
        <ele>1284</ele>
        <time>2017-03-02T00:09:38Z</time>
      </trkpt>
      <trkpt lat="44.39533" lon="3.75582">
        <ele>1284</ele>
        <time>2017-03-02T00:11:38Z</time>
      </trkpt>
      <trkpt lat="44.39533" lon="3.75583">
        <ele>1284</ele>
        <time>2017-03-02T00:13:38Z</time>
      </trkpt>
      <trkpt lat="44.39532" lon="3.75584">
        <ele>1285</ele>
        <time>2017-03-02T00:15:38Z</time>
      </trkpt>
      <trkpt lat="44.39513" lon="3.75602">
        <ele>1287</ele>
        <time>2017-03-02T00:17:38Z</time>
      </trkpt>
      <trkpt lat="44.39506" lon="3.75609">
        <ele>1288</ele>
        <time>2017-03-02T00:19:38Z</time>
      </trkpt>
      <trkpt lat="44.39503" lon="3.75612">
        <ele>1288</ele>
        <time>2017-03-02T00:21:38Z</time>
      </trkpt>
      <trkpt lat="44.39502" lon="3.75616">
        <ele>1289</ele>
        <time>2017-03-02T00:23:38Z</time>
      </trkpt>
      <trkpt lat="44.39495" lon="3.75629">
        <ele>1291</ele>
        <time>2017-03-02T00:25:38Z</time>
      </trkpt>
      <trkpt lat="44.39494" lon="3.75631">
        <ele>1292</ele>
        <time>2017-03-02T00:27:38Z</time>
      </trkpt>
      <trkpt lat="44.39493" lon="3.75632">
        <ele>1292</ele>
        <time>2017-03-02T00:29:38Z</time>
      </trkpt>
      <trkpt lat="44.39481" lon="3.75647">
        <ele>1293</ele>
        <time>2017-03-02T00:31:38Z</time>
      </trkpt>
      <trkpt lat="44.39479" lon="3.75648">
        <ele>1293</ele>
        <time>2017-03-02T00:33:38Z</time>
      </trkpt>
      <trkpt lat="44.39477" lon="3.7565">
        <ele>1293</ele>
        <time>2017-03-02T00:35:38Z</time>
      </trkpt>
      <trkpt lat="44.39475" lon="3.75651">
        <ele>1293</ele>
        <time>2017-03-02T00:37:38Z</time>
      </trkpt>
      <trkpt lat="44.3947" lon="3.75653">
        <ele>1292</ele>
        <time>2017-03-02T00:39:38Z</time>
      </trkpt>
      <trkpt lat="44.39466" lon="3.75655">
        <ele>1292</ele>
        <time>2017-03-02T00:41:38Z</time>
      </trkpt>
      <trkpt lat="44.39465" lon="3.75656">
        <ele>1292</ele>
        <time>2017-03-02T00:43:38Z</time>
      </trkpt>
      <trkpt lat="44.39464" lon="3.75657">
        <ele>1292</ele>
        <time>2017-03-02T00:45:38Z</time>
      </trkpt>
      <trkpt lat="44.39447" lon="3.75684">
        <ele>1294</ele>
        <time>2017-03-02T00:47:38Z</time>
      </trkpt>
      <trkpt lat="44.39435" lon="3.75701">
        <ele>1295</ele>
        <time>2017-03-02T00:49:38Z</time>
      </trkpt>
      <trkpt lat="44.39431" lon="3.75708">
        <ele>1296</ele>
        <time>2017-03-02T00:51:38Z</time>
      </trkpt>
      <trkpt lat="44.39427" lon="3.75715">
        <ele>1296</ele>
        <time>2017-03-02T00:53:38Z</time>
      </trkpt>
      <trkpt lat="44.39421" lon="3.7573">
        <ele>1298</ele>
        <time>2017-03-02T00:55:38Z</time>
      </trkpt>
      <trkpt lat="44.39417" lon="3.75737">
        <ele>1299</ele>
        <time>2017-03-02T00:57:38Z</time>
      </trkpt>
      <trkpt lat="44.39416" lon="3.75739">
        <ele>1299</ele>
        <time>2017-03-02T00:59:38Z</time>
      </trkpt>
      <trkpt lat="44.39415" lon="3.75743">
        <ele>1299</ele>
        <time>2017-03-02T01:01:38Z</time>
      </trkpt>
      <trkpt lat="44.39414" lon="3.75746">
        <ele>1300</ele>
        <time>2017-03-02T01:03:38Z</time>
      </trkpt>
      <trkpt lat="44.39412" lon="3.75752">
        <ele>1300</ele>
        <time>2017-03-02T01:05:38Z</time>
      </trkpt>
      <trkpt lat="44.39382" lon="3.75806">
        <ele>1305</ele>
        <time>2017-03-02T01:07:38Z</time>
      </trkpt>
      <trkpt lat="44.39377" lon="3.75819">
        <ele>1307</ele>
        <time>2017-03-02T01:09:38Z</time>
      </trkpt>
      <trkpt lat="44.39375" lon="3.75823">
        <ele>1307</ele>
        <time>2017-03-02T01:11:38Z</time>
      </trkpt>
      <trkpt lat="44.39374" lon="3.75826">
        <ele>1308</ele>
        <time>2017-03-02T01:13:38Z</time>
      </trkpt>
      <trkpt lat="44.39372" lon="3.75828">
        <ele>1307</ele>
        <time>2017-03-02T01:15:38Z</time>
      </trkpt>
      <trkpt lat="44.39367" lon="3.75834">
        <ele>1307</ele>
        <time>2017-03-02T01:17:38Z</time>
      </trkpt>
      <trkpt lat="44.39364" lon="3.75838">
        <ele>1307</ele>
        <time>2017-03-02T01:19:38Z</time>
      </trkpt>
      <trkpt lat="44.39363" lon="3.75841">
        <ele>1308</ele>
        <time>2017-03-02T01:21:38Z</time>
      </trkpt>
      <trkpt lat="44.3936" lon="3.75842">
        <ele>1307</ele>
        <time>2017-03-02T01:23:38Z</time>
      </trkpt>
      <trkpt lat="44.39357" lon="3.75846">
        <ele>1307</ele>
        <time>2017-03-02T01:25:38Z</time>
      </trkpt>
      <trkpt lat="44.39354" lon="3.75849">
        <ele>1307</ele>
        <time>2017-03-02T01:27:38Z</time>
      </trkpt>
      <trkpt lat="44.39353" lon="3.75855">
        <ele>1308</ele>
        <time>2017-03-02T01:29:38Z</time>
      </trkpt>
      <trkpt lat="44.39353" lon="3.7586">
        <ele>1309</ele>
        <time>2017-03-02T01:31:38Z</time>
      </trkpt>
      <trkpt lat="44.39353" lon="3.75865">
        <ele>1310</ele>
        <time>2017-03-02T01:33:38Z</time>
      </trkpt>
      <trkpt lat="44.39352" lon="3.75869">
        <ele>1311</ele>
        <time>2017-03-02T01:35:38Z</time>
      </trkpt>
      <trkpt lat="44.39351" lon="3.75872">
        <ele>1311</ele>
        <time>2017-03-02T01:37:38Z</time>
      </trkpt>
      <trkpt lat="44.3935" lon="3.75873">
        <ele>1311</ele>
        <time>2017-03-02T01:39:38Z</time>
      </trkpt>
      <trkpt lat="44.39341" lon="3.7589">
        <ele>1312</ele>
        <time>2017-03-02T01:41:38Z</time>
      </trkpt>
      <trkpt lat="44.39338" lon="3.75894">
        <ele>1312</ele>
        <time>2017-03-02T01:43:38Z</time>
      </trkpt>
      <trkpt lat="44.39337" lon="3.759">
        <ele>1313</ele>
        <time>2017-03-02T01:45:38Z</time>
      </trkpt>
      <trkpt lat="44.39336" lon="3.75908">
        <ele>1314</ele>
        <time>2017-03-02T01:47:38Z</time>
      </trkpt>
      <trkpt lat="44.39336" lon="3.75912">
        <ele>1315</ele>
        <time>2017-03-02T01:49:38Z</time>
      </trkpt>
      <trkpt lat="44.39335" lon="3.75918">
        <ele>1316</ele>
        <time>2017-03-02T01:51:38Z</time>
      </trkpt>
      <trkpt lat="44.39316" lon="3.7597">
        <ele>1317</ele>
        <time>2017-03-02T01:53:38Z</time>
      </trkpt>
      <trkpt lat="44.3931" lon="3.75986">
        <ele>1318</ele>
        <time>2017-03-02T01:55:38Z</time>
      </trkpt>
      <trkpt lat="44.39308" lon="3.76002">
        <ele>1319</ele>
        <time>2017-03-02T01:57:38Z</time>
      </trkpt>
      <trkpt lat="44.39308" lon="3.76014">
        <ele>1319</ele>
        <time>2017-03-02T01:59:38Z</time>
      </trkpt>
      <trkpt lat="44.39307" lon="3.76026">
        <ele>1319</ele>
        <time>2017-03-02T02:01:38Z</time>
      </trkpt>
      <trkpt lat="44.39306" lon="3.76034">
        <ele>1319</ele>
        <time>2017-03-02T02:03:38Z</time>
      </trkpt>
      <trkpt lat="44.39303" lon="3.76045">
        <ele>1319</ele>
        <time>2017-03-02T02:05:38Z</time>
      </trkpt>
      <trkpt lat="44.39301" lon="3.76055">
        <ele>1318</ele>
        <time>2017-03-02T02:07:38Z</time>
      </trkpt>
      <trkpt lat="44.39301" lon="3.76064">
        <ele>1318</ele>
        <time>2017-03-02T02:09:38Z</time>
      </trkpt>
      <trkpt lat="44.39303" lon="3.76077">
        <ele>1319</ele>
        <time>2017-03-02T02:11:38Z</time>
      </trkpt>
      <trkpt lat="44.39307" lon="3.76083">
        <ele>1320</ele>
        <time>2017-03-02T02:13:38Z</time>
      </trkpt>
      <trkpt lat="44.39311" lon="3.76086">
        <ele>1320</ele>
        <time>2017-03-02T02:15:38Z</time>
      </trkpt>
      <trkpt lat="44.39315" lon="3.76094">
        <ele>1319</ele>
        <time>2017-03-02T02:17:38Z</time>
      </trkpt>
      <trkpt lat="44.39322" lon="3.76101">
        <ele>1319</ele>
        <time>2017-03-02T02:19:38Z</time>
      </trkpt>
      <trkpt lat="44.3933" lon="3.76106">
        <ele>1319</ele>
        <time>2017-03-02T02:21:38Z</time>
      </trkpt>
      <trkpt lat="44.39341" lon="3.76111">
        <ele>1320</ele>
        <time>2017-03-02T02:23:38Z</time>
      </trkpt>
      <trkpt lat="44.39355" lon="3.76115">
        <ele>1321</ele>
        <time>2017-03-02T02:25:38Z</time>
      </trkpt>
      <trkpt lat="44.39367" lon="3.76121">
        <ele>1322</ele>
        <time>2017-03-02T02:27:38Z</time>
      </trkpt>
      <trkpt lat="44.39377" lon="3.76128">
        <ele>1322</ele>
        <time>2017-03-02T02:29:38Z</time>
      </trkpt>
      <trkpt lat="44.39385" lon="3.76135">
        <ele>1322</ele>
        <time>2017-03-02T02:31:38Z</time>
      </trkpt>
      <trkpt lat="44.39394" lon="3.76139">
        <ele>1322</ele>
        <time>2017-03-02T02:33:38Z</time>
      </trkpt>
      <trkpt lat="44.394" lon="3.76147">
        <ele>1322</ele>
        <time>2017-03-02T02:35:38Z</time>
      </trkpt>
      <trkpt lat="44.3941" lon="3.76159">
        <ele>1321</ele>
        <time>2017-03-02T02:37:38Z</time>
      </trkpt>
      <trkpt lat="44.39419" lon="3.76166">
        <ele>1321</ele>
        <time>2017-03-02T02:39:38Z</time>
      </trkpt>
      <trkpt lat="44.39425" lon="3.76173">
        <ele>1321</ele>
        <time>2017-03-02T02:41:38Z</time>
      </trkpt>
      <trkpt lat="44.39431" lon="3.76182">
        <ele>1320</ele>
        <time>2017-03-02T02:43:38Z</time>
      </trkpt>
      <trkpt lat="44.39439" lon="3.76192">
        <ele>1320</ele>
        <time>2017-03-02T02:45:38Z</time>
      </trkpt>
      <trkpt lat="44.39449" lon="3.7621">
        <ele>1320</ele>
        <time>2017-03-02T02:47:38Z</time>
      </trkpt>
      <trkpt lat="44.39455" lon="3.76224">
        <ele>1319</ele>
        <time>2017-03-02T02:49:38Z</time>
      </trkpt>
      <trkpt lat="44.39463" lon="3.76245">
        <ele>1317</ele>
        <time>2017-03-02T02:51:38Z</time>
      </trkpt>
      <trkpt lat="44.3947" lon="3.76267">
        <ele>1316</ele>
        <time>2017-03-02T02:53:38Z</time>
      </trkpt>
      <trkpt lat="44.39478" lon="3.76286">
        <ele>1315</ele>
        <time>2017-03-02T02:55:38Z</time>
      </trkpt>
      <trkpt lat="44.39481" lon="3.763">
        <ele>1315</ele>
        <time>2017-03-02T02:57:38Z</time>
      </trkpt>
      <trkpt lat="44.39486" lon="3.76314">
        <ele>1314</ele>
        <time>2017-03-02T02:59:38Z</time>
      </trkpt>
      <trkpt lat="44.39495" lon="3.76336">
        <ele>1314</ele>
        <time>2017-03-02T03:01:38Z</time>
      </trkpt>
      <trkpt lat="44.39498" lon="3.76347">
        <ele>1314</ele>
        <time>2017-03-02T03:03:38Z</time>
      </trkpt>
      <trkpt lat="44.39498" lon="3.76355">
        <ele>1313</ele>
        <time>2017-03-02T03:05:38Z</time>
      </trkpt>
      <trkpt lat="44.39497" lon="3.76371">
        <ele>1312</ele>
        <time>2017-03-02T03:07:38Z</time>
      </trkpt>
      <trkpt lat="44.39495" lon="3.76389">
        <ele>1310</ele>
        <time>2017-03-02T03:09:38Z</time>
      </trkpt>
      <trkpt lat="44.39495" lon="3.7641">
        <ele>1309</ele>
        <time>2017-03-02T03:11:38Z</time>
      </trkpt>
      <trkpt lat="44.39497" lon="3.76426">
        <ele>1308</ele>
        <time>2017-03-02T03:13:38Z</time>
      </trkpt>
      <trkpt lat="44.39502" lon="3.76445">
        <ele>1306</ele>
        <time>2017-03-02T03:15:38Z</time>
      </trkpt>
      <trkpt lat="44.39509" lon="3.76469">
        <ele>1304</ele>
        <time>2017-03-02T03:17:38Z</time>
      </trkpt>
      <trkpt lat="44.39515" lon="3.76486">
        <ele>1304</ele>
        <time>2017-03-02T03:19:38Z</time>
      </trkpt>
      <trkpt lat="44.39518" lon="3.76504">
        <ele>1303</ele>
        <time>2017-03-02T03:21:38Z</time>
      </trkpt>
      <trkpt lat="44.39518" lon="3.76504">
        <ele>1303</ele>
        <time>2017-03-02T03:23:38Z</time>
      </trkpt>
      <trkpt lat="44.39521" lon="3.76506">
        <ele>1303</ele>
        <time>2017-03-02T03:25:38Z</time>
      </trkpt>
      <trkpt lat="44.39521" lon="3.76507">
        <ele>1303</ele>
        <time>2017-03-02T03:27:38Z</time>
      </trkpt>
      <trkpt lat="44.39525" lon="3.76512">
        <ele>1304</ele>
        <time>2017-03-02T03:29:38Z</time>
      </trkpt>
      <trkpt lat="44.39527" lon="3.76518">
        <ele>1304</ele>
        <time>2017-03-02T03:31:38Z</time>
      </trkpt>
      <trkpt lat="44.39528" lon="3.76528">
        <ele>1304</ele>
        <time>2017-03-02T03:33:38Z</time>
      </trkpt>
      <trkpt lat="44.39527" lon="3.76539">
        <ele>1304</ele>
        <time>2017-03-02T03:35:38Z</time>
      </trkpt>
      <trkpt lat="44.39526" lon="3.76552">
        <ele>1303</ele>
        <time>2017-03-02T03:37:38Z</time>
      </trkpt>
      <trkpt lat="44.39522" lon="3.76573">
        <ele>1302</ele>
        <time>2017-03-02T03:39:38Z</time>
      </trkpt>
      <trkpt lat="44.3952" lon="3.76587">
        <ele>1302</ele>
        <time>2017-03-02T03:41:38Z</time>
      </trkpt>
      <trkpt lat="44.3952" lon="3.76606">
        <ele>1302</ele>
        <time>2017-03-02T03:43:38Z</time>
      </trkpt>
      <trkpt lat="44.3952" lon="3.76617">
        <ele>1302</ele>
        <time>2017-03-02T03:45:38Z</time>
      </trkpt>
      <trkpt lat="44.39518" lon="3.76622">
        <ele>1302</ele>
        <time>2017-03-02T03:47:38Z</time>
      </trkpt>
      <trkpt lat="44.39514" lon="3.7663">
        <ele>1301</ele>
        <time>2017-03-02T03:49:38Z</time>
      </trkpt>
      <trkpt lat="44.3951" lon="3.76639">
        <ele>1300</ele>
        <time>2017-03-02T03:51:38Z</time>
      </trkpt>
      <trkpt lat="44.39508" lon="3.76648">
        <ele>1299</ele>
        <time>2017-03-02T03:53:38Z</time>
      </trkpt>
      <trkpt lat="44.39507" lon="3.7666">
        <ele>1299</ele>
        <time>2017-03-02T03:55:38Z</time>
      </trkpt>
      <trkpt lat="44.39507" lon="3.76668">
        <ele>1299</ele>
        <time>2017-03-02T03:57:38Z</time>
      </trkpt>
      <trkpt lat="44.39509" lon="3.76678">
        <ele>1300</ele>
        <time>2017-03-02T03:59:38Z</time>
      </trkpt>
      <trkpt lat="44.39512" lon="3.76686">
        <ele>1301</ele>
        <time>2017-03-02T04:01:38Z</time>
      </trkpt>
      <trkpt lat="44.39517" lon="3.76694">
        <ele>1303</ele>
        <time>2017-03-02T04:03:38Z</time>
      </trkpt>
      <trkpt lat="44.39524" lon="3.76704">
        <ele>1305</ele>
        <time>2017-03-02T04:05:38Z</time>
      </trkpt>
      <trkpt lat="44.39526" lon="3.76708">
        <ele>1306</ele>
        <time>2017-03-02T04:07:38Z</time>
      </trkpt>
      <trkpt lat="44.39526" lon="3.76708">
        <ele>1306</ele>
        <time>2017-03-02T04:09:38Z</time>
      </trkpt>
      <trkpt lat="44.39526" lon="3.76711">
        <ele>1306</ele>
        <time>2017-03-02T04:11:38Z</time>
      </trkpt>
      <trkpt lat="44.39526" lon="3.76714">
        <ele>1306</ele>
        <time>2017-03-02T04:13:38Z</time>
      </trkpt>
      <trkpt lat="44.39519" lon="3.76726">
        <ele>1305</ele>
        <time>2017-03-02T04:15:38Z</time>
      </trkpt>
      <trkpt lat="44.39511" lon="3.76751">
        <ele>1304</ele>
        <time>2017-03-02T04:17:38Z</time>
      </trkpt>
      <trkpt lat="44.39505" lon="3.76772">
        <ele>1303</ele>
        <time>2017-03-02T04:19:38Z</time>
      </trkpt>
      <trkpt lat="44.39502" lon="3.76787">
        <ele>1303</ele>
        <time>2017-03-02T04:21:38Z</time>
      </trkpt>
      <trkpt lat="44.39501" lon="3.76803">
        <ele>1303</ele>
        <time>2017-03-02T04:23:38Z</time>
      </trkpt>
      <trkpt lat="44.39501" lon="3.76814">
        <ele>1304</ele>
        <time>2017-03-02T04:25:38Z</time>
      </trkpt>
      <trkpt lat="44.39501" lon="3.76819">
        <ele>1304</ele>
        <time>2017-03-02T04:27:38Z</time>
      </trkpt>
      <trkpt lat="44.39502" lon="3.76834">
        <ele>1304</ele>
        <time>2017-03-02T04:29:38Z</time>
      </trkpt>
      <trkpt lat="44.39503" lon="3.76845">
        <ele>1303</ele>
        <time>2017-03-02T04:31:38Z</time>
      </trkpt>
      <trkpt lat="44.39506" lon="3.76863">
        <ele>1301</ele>
        <time>2017-03-02T04:33:38Z</time>
      </trkpt>
      <trkpt lat="44.39507" lon="3.76868">
        <ele>1301</ele>
        <time>2017-03-02T04:35:38Z</time>
      </trkpt>
      <trkpt lat="44.3951" lon="3.76874">
        <ele>1300</ele>
        <time>2017-03-02T04:37:38Z</time>
      </trkpt>
      <trkpt lat="44.39512" lon="3.76878">
        <ele>1300</ele>
        <time>2017-03-02T04:39:38Z</time>
      </trkpt>
      <trkpt lat="44.39516" lon="3.76881">
        <ele>1300</ele>
        <time>2017-03-02T04:41:38Z</time>
      </trkpt>
      <trkpt lat="44.39521" lon="3.76883">
        <ele>1300</ele>
        <time>2017-03-02T04:43:38Z</time>
      </trkpt>
      <trkpt lat="44.39546" lon="3.76885">
        <ele>1301</ele>
        <time>2017-03-02T04:45:38Z</time>
      </trkpt>
      <trkpt lat="44.39562" lon="3.76887">
        <ele>1301</ele>
        <time>2017-03-02T04:47:38Z</time>
      </trkpt>
      <trkpt lat="44.39573" lon="3.76889">
        <ele>1301</ele>
        <time>2017-03-02T04:49:38Z</time>
      </trkpt>
      <trkpt lat="44.39584" lon="3.76892">
        <ele>1301</ele>
        <time>2017-03-02T04:51:38Z</time>
      </trkpt>
      <trkpt lat="44.39596" lon="3.76894">
        <ele>1300</ele>
        <time>2017-03-02T04:53:38Z</time>
      </trkpt>
      <trkpt lat="44.39606" lon="3.76894">
        <ele>1299</ele>
        <time>2017-03-02T04:55:38Z</time>
      </trkpt>
      <trkpt lat="44.39631" lon="3.7689">
        <ele>1298</ele>
        <time>2017-03-02T04:57:38Z</time>
      </trkpt>
      <trkpt lat="44.39674" lon="3.76881">
        <ele>1297</ele>
        <time>2017-03-02T04:59:38Z</time>
      </trkpt>
      <trkpt lat="44.39686" lon="3.76878">
        <ele>1297</ele>
        <time>2017-03-02T05:01:38Z</time>
      </trkpt>
      <trkpt lat="44.39708" lon="3.76875">
        <ele>1296</ele>
        <time>2017-03-02T05:03:38Z</time>
      </trkpt>
      <trkpt lat="44.39716" lon="3.76873">
        <ele>1295</ele>
        <time>2017-03-02T05:05:38Z</time>
      </trkpt>
      <trkpt lat="44.39721" lon="3.76871">
        <ele>1295</ele>
        <time>2017-03-02T05:07:38Z</time>
      </trkpt>
      <trkpt lat="44.39731" lon="3.76869">
        <ele>1295</ele>
        <time>2017-03-02T05:09:38Z</time>
      </trkpt>
      <trkpt lat="44.39738" lon="3.76868">
        <ele>1294</ele>
        <time>2017-03-02T05:11:38Z</time>
      </trkpt>
      <trkpt lat="44.39748" lon="3.76868">
        <ele>1294</ele>
        <time>2017-03-02T05:13:38Z</time>
      </trkpt>
      <trkpt lat="44.39764" lon="3.76871">
        <ele>1293</ele>
        <time>2017-03-02T05:15:38Z</time>
      </trkpt>
      <trkpt lat="44.39785" lon="3.76877">
        <ele>1291</ele>
        <time>2017-03-02T05:17:38Z</time>
      </trkpt>
      <trkpt lat="44.39793" lon="3.76879">
        <ele>1291</ele>
        <time>2017-03-02T05:19:38Z</time>
      </trkpt>
      <trkpt lat="44.39803" lon="3.76883">
        <ele>1291</ele>
        <time>2017-03-02T05:21:38Z</time>
      </trkpt>
      <trkpt lat="44.39811" lon="3.76888">
        <ele>1290</ele>
        <time>2017-03-02T05:23:38Z</time>
      </trkpt>
      <trkpt lat="44.39836" lon="3.76896">
        <ele>1290</ele>
        <time>2017-03-02T05:25:38Z</time>
      </trkpt>
      <trkpt lat="44.39842" lon="3.769">
        <ele>1290</ele>
        <time>2017-03-02T05:27:38Z</time>
      </trkpt>
      <trkpt lat="44.39847" lon="3.76905">
        <ele>1290</ele>
        <time>2017-03-02T05:29:38Z</time>
      </trkpt>
      <trkpt lat="44.39853" lon="3.76912">
        <ele>1290</ele>
        <time>2017-03-02T05:31:38Z</time>
      </trkpt>
      <trkpt lat="44.39855" lon="3.76917">
        <ele>1289</ele>
        <time>2017-03-02T05:33:38Z</time>
      </trkpt>
      <trkpt lat="44.39858" lon="3.76924">
        <ele>1290</ele>
        <time>2017-03-02T05:35:38Z</time>
      </trkpt>
      <trkpt lat="44.3986" lon="3.76932">
        <ele>1290</ele>
        <time>2017-03-02T05:37:38Z</time>
      </trkpt>
      <trkpt lat="44.39861" lon="3.7694">
        <ele>1290</ele>
        <time>2017-03-02T05:39:38Z</time>
      </trkpt>
      <trkpt lat="44.39862" lon="3.76951">
        <ele>1291</ele>
        <time>2017-03-02T05:41:38Z</time>
      </trkpt>
      <trkpt lat="44.39862" lon="3.76962">
        <ele>1291</ele>
        <time>2017-03-02T05:43:38Z</time>
      </trkpt>
      <trkpt lat="44.39859" lon="3.76973">
        <ele>1291</ele>
        <time>2017-03-02T05:45:38Z</time>
      </trkpt>
      <trkpt lat="44.39855" lon="3.76982">
        <ele>1291</ele>
        <time>2017-03-02T05:47:38Z</time>
      </trkpt>
      <trkpt lat="44.39849" lon="3.76991">
        <ele>1291</ele>
        <time>2017-03-02T05:49:38Z</time>
      </trkpt>
      <trkpt lat="44.39841" lon="3.77001">
        <ele>1290</ele>
        <time>2017-03-02T05:51:38Z</time>
      </trkpt>
      <trkpt lat="44.3984" lon="3.77005">
        <ele>1290</ele>
        <time>2017-03-02T05:53:38Z</time>
      </trkpt>
      <trkpt lat="44.39838" lon="3.77012">
        <ele>1290</ele>
        <time>2017-03-02T05:55:38Z</time>
      </trkpt>
      <trkpt lat="44.39838" lon="3.77025">
        <ele>1290</ele>
        <time>2017-03-02T05:57:38Z</time>
      </trkpt>
      <trkpt lat="44.39838" lon="3.77042">
        <ele>1291</ele>
        <time>2017-03-02T05:59:38Z</time>
      </trkpt>
      <trkpt lat="44.3984" lon="3.77052">
        <ele>1291</ele>
        <time>2017-03-02T06:01:38Z</time>
      </trkpt>
      <trkpt lat="44.39842" lon="3.7706">
        <ele>1291</ele>
        <time>2017-03-02T06:03:38Z</time>
      </trkpt>
      <trkpt lat="44.39846" lon="3.77065">
        <ele>1292</ele>
        <time>2017-03-02T06:05:38Z</time>
      </trkpt>
      <trkpt lat="44.39851" lon="3.77071">
        <ele>1293</ele>
        <time>2017-03-02T06:07:38Z</time>
      </trkpt>
      <trkpt lat="44.39857" lon="3.77075">
        <ele>1293</ele>
        <time>2017-03-02T06:09:38Z</time>
      </trkpt>
      <trkpt lat="44.39862" lon="3.77078">
        <ele>1294</ele>
        <time>2017-03-02T06:11:38Z</time>
      </trkpt>
      <trkpt lat="44.39867" lon="3.7708">
        <ele>1295</ele>
        <time>2017-03-02T06:13:38Z</time>
      </trkpt>
      <trkpt lat="44.39875" lon="3.77082">
        <ele>1295</ele>
        <time>2017-03-02T06:15:38Z</time>
      </trkpt>
      <trkpt lat="44.3989" lon="3.77084">
        <ele>1297</ele>
        <time>2017-03-02T06:17:38Z</time>
      </trkpt>
      <trkpt lat="44.39895" lon="3.77085">
        <ele>1298</ele>
        <time>2017-03-02T06:19:38Z</time>
      </trkpt>
      <trkpt lat="44.39916" lon="3.77086">
        <ele>1300</ele>
        <time>2017-03-02T06:21:38Z</time>
      </trkpt>
      <trkpt lat="44.3992" lon="3.77087">
        <ele>1300</ele>
        <time>2017-03-02T06:23:38Z</time>
      </trkpt>
      <trkpt lat="44.39921" lon="3.77088">
        <ele>1301</ele>
        <time>2017-03-02T06:25:38Z</time>
      </trkpt>
      <trkpt lat="44.39922" lon="3.7709">
        <ele>1301</ele>
        <time>2017-03-02T06:27:38Z</time>
      </trkpt>
      <trkpt lat="44.39922" lon="3.77093">
        <ele>1301</ele>
        <time>2017-03-02T06:29:38Z</time>
      </trkpt>
      <trkpt lat="44.39922" lon="3.77103">
        <ele>1301</ele>
        <time>2017-03-02T06:31:38Z</time>
      </trkpt>
      <trkpt lat="44.39921" lon="3.7711">
        <ele>1301</ele>
        <time>2017-03-02T06:33:38Z</time>
      </trkpt>
      <trkpt lat="44.39921" lon="3.77116">
        <ele>1302</ele>
        <time>2017-03-02T06:35:38Z</time>
      </trkpt>
      <trkpt lat="44.3992" lon="3.77128">
        <ele>1302</ele>
        <time>2017-03-02T06:37:38Z</time>
      </trkpt>
      <trkpt lat="44.39917" lon="3.77141">
        <ele>1302</ele>
        <time>2017-03-02T06:39:38Z</time>
      </trkpt>
      <trkpt lat="44.39917" lon="3.77143">
        <ele>1302</ele>
        <time>2017-03-02T06:41:38Z</time>
      </trkpt>
      <trkpt lat="44.39916" lon="3.77145">
        <ele>1302</ele>
        <time>2017-03-02T06:43:38Z</time>
      </trkpt>
      <trkpt lat="44.39915" lon="3.77147">
        <ele>1302</ele>
        <time>2017-03-02T06:45:38Z</time>
      </trkpt>
      <trkpt lat="44.39914" lon="3.7715">
        <ele>1302</ele>
        <time>2017-03-02T06:47:38Z</time>
      </trkpt>
      <trkpt lat="44.39912" lon="3.77152">
        <ele>1302</ele>
        <time>2017-03-02T06:49:38Z</time>
      </trkpt>
      <trkpt lat="44.3991" lon="3.77156">
        <ele>1302</ele>
        <time>2017-03-02T06:51:38Z</time>
      </trkpt>
      <trkpt lat="44.39907" lon="3.77159">
        <ele>1302</ele>
        <time>2017-03-02T06:53:38Z</time>
      </trkpt>
      <trkpt lat="44.39901" lon="3.77164">
        <ele>1301</ele>
        <time>2017-03-02T06:55:38Z</time>
      </trkpt>
      <trkpt lat="44.39888" lon="3.77172">
        <ele>1301</ele>
        <time>2017-03-02T06:57:38Z</time>
      </trkpt>
      <trkpt lat="44.3988" lon="3.77178">
        <ele>1301</ele>
        <time>2017-03-02T06:59:38Z</time>
      </trkpt>
      <trkpt lat="44.39876" lon="3.77183">
        <ele>1301</ele>
        <time>2017-03-02T07:01:38Z</time>
      </trkpt>
      <trkpt lat="44.39871" lon="3.77192">
        <ele>1302</ele>
        <time>2017-03-02T07:03:38Z</time>
      </trkpt>
      <trkpt lat="44.39865" lon="3.77208">
        <ele>1304</ele>
        <time>2017-03-02T07:05:38Z</time>
      </trkpt>
      <trkpt lat="44.39857" lon="3.77233">
        <ele>1306</ele>
        <time>2017-03-02T07:07:38Z</time>
      </trkpt>
      <trkpt lat="44.39854" lon="3.7724">
        <ele>1307</ele>
        <time>2017-03-02T07:09:38Z</time>
      </trkpt>
      <trkpt lat="44.3985" lon="3.77245">
        <ele>1307</ele>
        <time>2017-03-02T07:11:38Z</time>
      </trkpt>
      <trkpt lat="44.39843" lon="3.77249">
        <ele>1306</ele>
        <time>2017-03-02T07:13:38Z</time>
      </trkpt>
      <trkpt lat="44.39823" lon="3.77257">
        <ele>1307</ele>
        <time>2017-03-02T07:15:38Z</time>
      </trkpt>
      <trkpt lat="44.39807" lon="3.77264">
        <ele>1310</ele>
        <time>2017-03-02T07:17:38Z</time>
      </trkpt>
      <trkpt lat="44.39802" lon="3.77264">
        <ele>1310</ele>
        <time>2017-03-02T07:19:38Z</time>
      </trkpt>
      <trkpt lat="44.39796" lon="3.77262">
        <ele>1311</ele>
        <time>2017-03-02T07:21:38Z</time>
      </trkpt>
      <trkpt lat="44.39789" lon="3.7726">
        <ele>1311</ele>
        <time>2017-03-02T07:23:38Z</time>
      </trkpt>
      <trkpt lat="44.39782" lon="3.77255">
        <ele>1310</ele>
        <time>2017-03-02T07:25:38Z</time>
      </trkpt>
      <trkpt lat="44.39773" lon="3.77246">
        <ele>1309</ele>
        <time>2017-03-02T07:27:38Z</time>
      </trkpt>
      <trkpt lat="44.39762" lon="3.77234">
        <ele>1308</ele>
        <time>2017-03-02T07:29:38Z</time>
      </trkpt>
      <trkpt lat="44.39755" lon="3.7723">
        <ele>1307</ele>
        <time>2017-03-02T07:31:38Z</time>
      </trkpt>
      <trkpt lat="44.39744" lon="3.77225">
        <ele>1307</ele>
        <time>2017-03-02T07:33:38Z</time>
      </trkpt>
      <trkpt lat="44.39727" lon="3.77218">
        <ele>1307</ele>
        <time>2017-03-02T07:35:38Z</time>
      </trkpt>
      <trkpt lat="44.39715" lon="3.77217">
        <ele>1308</ele>
        <time>2017-03-02T07:37:38Z</time>
      </trkpt>
      <trkpt lat="44.39693" lon="3.77215">
        <ele>1309</ele>
        <time>2017-03-02T07:39:38Z</time>
      </trkpt>
      <trkpt lat="44.39673" lon="3.77214">
        <ele>1310</ele>
        <time>2017-03-02T07:41:38Z</time>
      </trkpt>
      <trkpt lat="44.39665" lon="3.77215">
        <ele>1311</ele>
        <time>2017-03-02T07:43:38Z</time>
      </trkpt>
      <trkpt lat="44.39657" lon="3.77217">
        <ele>1311</ele>
        <time>2017-03-02T07:45:38Z</time>
      </trkpt>
      <trkpt lat="44.39651" lon="3.7722">
        <ele>1311</ele>
        <time>2017-03-02T07:47:38Z</time>
      </trkpt>
      <trkpt lat="44.39642" lon="3.77227">
        <ele>1313</ele>
        <time>2017-03-02T07:49:38Z</time>
      </trkpt>
      <trkpt lat="44.39631" lon="3.77232">
        <ele>1314</ele>
        <time>2017-03-02T07:51:38Z</time>
      </trkpt>
      <trkpt lat="44.39622" lon="3.77235">
        <ele>1314</ele>
        <time>2017-03-02T07:53:38Z</time>
      </trkpt>
      <trkpt lat="44.39613" lon="3.77239">
        <ele>1315</ele>
        <time>2017-03-02T07:55:38Z</time>
      </trkpt>
      <trkpt lat="44.39606" lon="3.77244">
        <ele>1316</ele>
        <time>2017-03-02T07:57:38Z</time>
      </trkpt>
      <trkpt lat="44.39594" lon="3.77254">
        <ele>1318</ele>
        <time>2017-03-02T07:59:38Z</time>
      </trkpt>
      <trkpt lat="44.39586" lon="3.77261">
        <ele>1319</ele>
        <time>2017-03-02T08:01:38Z</time>
      </trkpt>
      <trkpt lat="44.39578" lon="3.77268">
        <ele>1321</ele>
        <time>2017-03-02T08:03:38Z</time>
      </trkpt>
      <trkpt lat="44.39573" lon="3.77276">
        <ele>1323</ele>
        <time>2017-03-02T08:05:38Z</time>
      </trkpt>
      <trkpt lat="44.39568" lon="3.77284">
        <ele>1325</ele>
        <time>2017-03-02T08:07:38Z</time>
      </trkpt>
      <trkpt lat="44.39563" lon="3.77289">
        <ele>1326</ele>
        <time>2017-03-02T08:09:38Z</time>
      </trkpt>
      <trkpt lat="44.39557" lon="3.77293">
        <ele>1327</ele>
        <time>2017-03-02T08:11:38Z</time>
      </trkpt>
      <trkpt lat="44.3955" lon="3.77294">
        <ele>1327</ele>
        <time>2017-03-02T08:13:38Z</time>
      </trkpt>
      <trkpt lat="44.39541" lon="3.77294">
        <ele>1327</ele>
        <time>2017-03-02T08:15:38Z</time>
      </trkpt>
      <trkpt lat="44.39529" lon="3.77295">
        <ele>1326</ele>
        <time>2017-03-02T08:17:38Z</time>
      </trkpt>
      <trkpt lat="44.39523" lon="3.77297">
        <ele>1327</ele>
        <time>2017-03-02T08:19:38Z</time>
      </trkpt>
      <trkpt lat="44.39511" lon="3.77302">
        <ele>1328</ele>
        <time>2017-03-02T08:21:38Z</time>
      </trkpt>
      <trkpt lat="44.39503" lon="3.77304">
        <ele>1328</ele>
        <time>2017-03-02T08:23:38Z</time>
      </trkpt>
      <trkpt lat="44.39495" lon="3.77303">
        <ele>1328</ele>
        <time>2017-03-02T08:25:38Z</time>
      </trkpt>
      <trkpt lat="44.3948" lon="3.773">
        <ele>1328</ele>
        <time>2017-03-02T08:27:38Z</time>
      </trkpt>
      <trkpt lat="44.39472" lon="3.773">
        <ele>1329</ele>
        <time>2017-03-02T08:29:38Z</time>
      </trkpt>
      <trkpt lat="44.39456" lon="3.77301">
        <ele>1330</ele>
        <time>2017-03-02T08:31:38Z</time>
      </trkpt>
      <trkpt lat="44.39436" lon="3.77302">
        <ele>1332</ele>
        <time>2017-03-02T08:33:38Z</time>
      </trkpt>
      <trkpt lat="44.39424" lon="3.77303">
        <ele>1333</ele>
        <time>2017-03-02T08:35:38Z</time>
      </trkpt>
      <trkpt lat="44.3941" lon="3.77303">
        <ele>1334</ele>
        <time>2017-03-02T08:37:38Z</time>
      </trkpt>
      <trkpt lat="44.39399" lon="3.77301">
        <ele>1334</ele>
        <time>2017-03-02T08:39:38Z</time>
      </trkpt>
      <trkpt lat="44.39386" lon="3.77296">
        <ele>1334</ele>
        <time>2017-03-02T08:41:38Z</time>
      </trkpt>
      <trkpt lat="44.39372" lon="3.77292">
        <ele>1335</ele>
        <time>2017-03-02T08:43:38Z</time>
      </trkpt>
      <trkpt lat="44.39362" lon="3.77291">
        <ele>1335</ele>
        <time>2017-03-02T08:45:38Z</time>
      </trkpt>
      <trkpt lat="44.39357" lon="3.77289">
        <ele>1335</ele>
        <time>2017-03-02T08:47:38Z</time>
      </trkpt>
      <trkpt lat="44.39354" lon="3.77287">
        <ele>1335</ele>
        <time>2017-03-02T08:49:38Z</time>
      </trkpt>
      <trkpt lat="44.3935" lon="3.77285">
        <ele>1335</ele>
        <time>2017-03-02T08:51:38Z</time>
      </trkpt>
      <trkpt lat="44.39343" lon="3.7728">
        <ele>1335</ele>
        <time>2017-03-02T08:53:38Z</time>
      </trkpt>
      <trkpt lat="44.39328" lon="3.7727">
        <ele>1335</ele>
        <time>2017-03-02T08:55:38Z</time>
      </trkpt>
      <trkpt lat="44.39319" lon="3.77264">
        <ele>1335</ele>
        <time>2017-03-02T08:57:38Z</time>
      </trkpt>
      <trkpt lat="44.39316" lon="3.77262">
        <ele>1335</ele>
        <time>2017-03-02T08:59:38Z</time>
      </trkpt>
      <trkpt lat="44.39313" lon="3.77261">
        <ele>1335</ele>
        <time>2017-03-02T09:01:38Z</time>
      </trkpt>
      <trkpt lat="44.3931" lon="3.7726">
        <ele>1335</ele>
        <time>2017-03-02T09:03:38Z</time>
      </trkpt>
      <trkpt lat="44.39306" lon="3.77259">
        <ele>1335</ele>
        <time>2017-03-02T09:05:38Z</time>
      </trkpt>
      <trkpt lat="44.39301" lon="3.77259">
        <ele>1335</ele>
        <time>2017-03-02T09:07:38Z</time>
      </trkpt>
      <trkpt lat="44.39295" lon="3.77258">
        <ele>1336</ele>
        <time>2017-03-02T09:09:38Z</time>
      </trkpt>
      <trkpt lat="44.3929" lon="3.77258">
        <ele>1336</ele>
        <time>2017-03-02T09:11:38Z</time>
      </trkpt>
      <trkpt lat="44.39284" lon="3.77255">
        <ele>1336</ele>
        <time>2017-03-02T09:13:38Z</time>
      </trkpt>
      <trkpt lat="44.39275" lon="3.7725">
        <ele>1336</ele>
        <time>2017-03-02T09:15:38Z</time>
      </trkpt>
      <trkpt lat="44.39269" lon="3.77246">
        <ele>1336</ele>
        <time>2017-03-02T09:17:38Z</time>
      </trkpt>
      <trkpt lat="44.39264" lon="3.77245">
        <ele>1336</ele>
        <time>2017-03-02T09:19:38Z</time>
      </trkpt>
      <trkpt lat="44.39259" lon="3.77245">
        <ele>1336</ele>
        <time>2017-03-02T09:21:38Z</time>
      </trkpt>
      <trkpt lat="44.39256" lon="3.77246">
        <ele>1337</ele>
        <time>2017-03-02T09:23:38Z</time>
      </trkpt>
      <trkpt lat="44.39254" lon="3.77248">
        <ele>1337</ele>
        <time>2017-03-02T09:25:38Z</time>
      </trkpt>
      <trkpt lat="44.3925" lon="3.77252">
        <ele>1338</ele>
        <time>2017-03-02T09:27:38Z</time>
      </trkpt>
      <trkpt lat="44.39248" lon="3.77258">
        <ele>1339</ele>
        <time>2017-03-02T09:29:38Z</time>
      </trkpt>
      <trkpt lat="44.39247" lon="3.77262">
        <ele>1339</ele>
        <time>2017-03-02T09:31:38Z</time>
      </trkpt>
      <trkpt lat="44.39245" lon="3.77275">
        <ele>1340</ele>
        <time>2017-03-02T09:33:38Z</time>
      </trkpt>
      <trkpt lat="44.39244" lon="3.77286">
        <ele>1341</ele>
        <time>2017-03-02T09:35:38Z</time>
      </trkpt>
      <trkpt lat="44.39243" lon="3.77295">
        <ele>1342</ele>
        <time>2017-03-02T09:37:38Z</time>
      </trkpt>
      <trkpt lat="44.39242" lon="3.77303">
        <ele>1342</ele>
        <time>2017-03-02T09:39:38Z</time>
      </trkpt>
      <trkpt lat="44.3924" lon="3.77312">
        <ele>1343</ele>
        <time>2017-03-02T09:41:38Z</time>
      </trkpt>
      <trkpt lat="44.39236" lon="3.77323">
        <ele>1344</ele>
        <time>2017-03-02T09:43:38Z</time>
      </trkpt>
      <trkpt lat="44.39232" lon="3.77334">
        <ele>1345</ele>
        <time>2017-03-02T09:45:38Z</time>
      </trkpt>
      <trkpt lat="44.39229" lon="3.77341">
        <ele>1345</ele>
        <time>2017-03-02T09:47:38Z</time>
      </trkpt>
      <trkpt lat="44.39226" lon="3.77346">
        <ele>1346</ele>
        <time>2017-03-02T09:49:38Z</time>
      </trkpt>
      <trkpt lat="44.39219" lon="3.77356">
        <ele>1346</ele>
        <time>2017-03-02T09:51:38Z</time>
      </trkpt>
      <trkpt lat="44.39214" lon="3.77364">
        <ele>1347</ele>
        <time>2017-03-02T09:53:38Z</time>
      </trkpt>
      <trkpt lat="44.39206" lon="3.77375">
        <ele>1348</ele>
        <time>2017-03-02T09:55:38Z</time>
      </trkpt>
      <trkpt lat="44.39199" lon="3.77389">
        <ele>1349</ele>
        <time>2017-03-02T09:57:38Z</time>
      </trkpt>
      <trkpt lat="44.3919" lon="3.77408">
        <ele>1350</ele>
        <time>2017-03-02T09:59:38Z</time>
      </trkpt>
      <trkpt lat="44.39182" lon="3.77421">
        <ele>1351</ele>
        <time>2017-03-02T10:01:38Z</time>
      </trkpt>
      <trkpt lat="44.39177" lon="3.77429">
        <ele>1352</ele>
        <time>2017-03-02T10:03:38Z</time>
      </trkpt>
      <trkpt lat="44.39166" lon="3.77444">
        <ele>1353</ele>
        <time>2017-03-02T10:05:38Z</time>
      </trkpt>
      <trkpt lat="44.39161" lon="3.7745">
        <ele>1353</ele>
        <time>2017-03-02T10:07:38Z</time>
      </trkpt>
      <trkpt lat="44.39158" lon="3.77456">
        <ele>1354</ele>
        <time>2017-03-02T10:09:38Z</time>
      </trkpt>
      <trkpt lat="44.39156" lon="3.77462">
        <ele>1354</ele>
        <time>2017-03-02T10:11:38Z</time>
      </trkpt>
      <trkpt lat="44.39153" lon="3.77469">
        <ele>1355</ele>
        <time>2017-03-02T10:13:38Z</time>
      </trkpt>
      <trkpt lat="44.39149" lon="3.77482">
        <ele>1356</ele>
        <time>2017-03-02T10:15:38Z</time>
      </trkpt>
      <trkpt lat="44.39135" lon="3.77529">
        <ele>1361</ele>
        <time>2017-03-02T10:17:38Z</time>
      </trkpt>
      <trkpt lat="44.39131" lon="3.77538">
        <ele>1362</ele>
        <time>2017-03-02T10:19:38Z</time>
      </trkpt>
      <trkpt lat="44.39127" lon="3.77545">
        <ele>1363</ele>
        <time>2017-03-02T10:21:38Z</time>
      </trkpt>
      <trkpt lat="44.39124" lon="3.77548">
        <ele>1363</ele>
        <time>2017-03-02T10:23:38Z</time>
      </trkpt>
      <trkpt lat="44.39121" lon="3.7755">
        <ele>1362</ele>
        <time>2017-03-02T10:25:38Z</time>
      </trkpt>
      <trkpt lat="44.39109" lon="3.77555">
        <ele>1361</ele>
        <time>2017-03-02T10:27:38Z</time>
      </trkpt>
      <trkpt lat="44.39094" lon="3.77563">
        <ele>1360</ele>
        <time>2017-03-02T10:29:38Z</time>
      </trkpt>
      <trkpt lat="44.3909" lon="3.77566">
        <ele>1360</ele>
        <time>2017-03-02T10:31:38Z</time>
      </trkpt>
      <trkpt lat="44.39083" lon="3.7757">
        <ele>1359</ele>
        <time>2017-03-02T10:33:38Z</time>
      </trkpt>
      <trkpt lat="44.39075" lon="3.77577">
        <ele>1360</ele>
        <time>2017-03-02T10:35:38Z</time>
      </trkpt>
      <trkpt lat="44.39069" lon="3.77583">
        <ele>1360</ele>
        <time>2017-03-02T10:37:38Z</time>
      </trkpt>
      <trkpt lat="44.39062" lon="3.7759">
        <ele>1361</ele>
        <time>2017-03-02T10:39:38Z</time>
      </trkpt>
      <trkpt lat="44.39047" lon="3.77608">
        <ele>1362</ele>
        <time>2017-03-02T10:41:38Z</time>
      </trkpt>
      <trkpt lat="44.3903" lon="3.77631">
        <ele>1364</ele>
        <time>2017-03-02T10:43:38Z</time>
      </trkpt>
      <trkpt lat="44.39027" lon="3.77637">
        <ele>1365</ele>
        <time>2017-03-02T10:45:38Z</time>
      </trkpt>
      <trkpt lat="44.39024" lon="3.77642">
        <ele>1365</ele>
        <time>2017-03-02T10:47:38Z</time>
      </trkpt>
      <trkpt lat="44.3902" lon="3.77649">
        <ele>1366</ele>
        <time>2017-03-02T10:49:38Z</time>
      </trkpt>
      <trkpt lat="44.39018" lon="3.77654">
        <ele>1366</ele>
        <time>2017-03-02T10:51:38Z</time>
      </trkpt>
      <trkpt lat="44.39005" lon="3.77682">
        <ele>1367</ele>
        <time>2017-03-02T10:53:38Z</time>
      </trkpt>
      <trkpt lat="44.39001" lon="3.77693">
        <ele>1367</ele>
        <time>2017-03-02T10:55:38Z</time>
      </trkpt>
      <trkpt lat="44.38998" lon="3.77702">
        <ele>1367</ele>
        <time>2017-03-02T10:57:38Z</time>
      </trkpt>
      <trkpt lat="44.38996" lon="3.77708">
        <ele>1367</ele>
        <time>2017-03-02T10:59:38Z</time>
      </trkpt>
      <trkpt lat="44.38993" lon="3.77716">
        <ele>1368</ele>
        <time>2017-03-02T11:01:38Z</time>
      </trkpt>
      <trkpt lat="44.38991" lon="3.77727">
        <ele>1368</ele>
        <time>2017-03-02T11:03:38Z</time>
      </trkpt>
      <trkpt lat="44.3899" lon="3.77736">
        <ele>1368</ele>
        <time>2017-03-02T11:05:38Z</time>
      </trkpt>
      <trkpt lat="44.3899" lon="3.77743">
        <ele>1369</ele>
        <time>2017-03-02T11:07:38Z</time>
      </trkpt>
      <trkpt lat="44.3899" lon="3.7775">
        <ele>1369</ele>
        <time>2017-03-02T11:09:38Z</time>
      </trkpt>
      <trkpt lat="44.38991" lon="3.77757">
        <ele>1368</ele>
        <time>2017-03-02T11:11:38Z</time>
      </trkpt>
      <trkpt lat="44.38991" lon="3.77762">
        <ele>1368</ele>
        <time>2017-03-02T11:13:38Z</time>
      </trkpt>
      <trkpt lat="44.38992" lon="3.77767">
        <ele>1367</ele>
        <time>2017-03-02T11:15:38Z</time>
      </trkpt>
      <trkpt lat="44.38994" lon="3.77774">
        <ele>1367</ele>
        <time>2017-03-02T11:17:38Z</time>
      </trkpt>
      <trkpt lat="44.38997" lon="3.7778">
        <ele>1366</ele>
        <time>2017-03-02T11:19:38Z</time>
      </trkpt>
      <trkpt lat="44.38999" lon="3.77786">
        <ele>1366</ele>
        <time>2017-03-02T11:21:38Z</time>
      </trkpt>
      <trkpt lat="44.39003" lon="3.77794">
        <ele>1366</ele>
        <time>2017-03-02T11:23:38Z</time>
      </trkpt>
      <trkpt lat="44.39006" lon="3.77801">
        <ele>1365</ele>
        <time>2017-03-02T11:25:38Z</time>
      </trkpt>
      <trkpt lat="44.39009" lon="3.77807">
        <ele>1365</ele>
        <time>2017-03-02T11:27:38Z</time>
      </trkpt>
      <trkpt lat="44.39012" lon="3.77812">
        <ele>1365</ele>
        <time>2017-03-02T11:29:38Z</time>
      </trkpt>
      <trkpt lat="44.39015" lon="3.77817">
        <ele>1365</ele>
        <time>2017-03-02T11:31:38Z</time>
      </trkpt>
      <trkpt lat="44.39021" lon="3.77824">
        <ele>1365</ele>
        <time>2017-03-02T11:33:38Z</time>
      </trkpt>
      <trkpt lat="44.39025" lon="3.77828">
        <ele>1365</ele>
        <time>2017-03-02T11:35:38Z</time>
      </trkpt>
      <trkpt lat="44.39029" lon="3.77832">
        <ele>1365</ele>
        <time>2017-03-02T11:37:38Z</time>
      </trkpt>
      <trkpt lat="44.39037" lon="3.7784">
        <ele>1365</ele>
        <time>2017-03-02T11:39:38Z</time>
      </trkpt>
      <trkpt lat="44.39042" lon="3.77845">
        <ele>1365</ele>
        <time>2017-03-02T11:41:38Z</time>
      </trkpt>
      <trkpt lat="44.39048" lon="3.77851">
        <ele>1364</ele>
        <time>2017-03-02T11:43:38Z</time>
      </trkpt>
      <trkpt lat="44.39066" lon="3.77865">
        <ele>1363</ele>
        <time>2017-03-02T11:45:38Z</time>
      </trkpt>
      <trkpt lat="44.39083" lon="3.77877">
        <ele>1363</ele>
        <time>2017-03-02T11:47:38Z</time>
      </trkpt>
      <trkpt lat="44.39091" lon="3.77882">
        <ele>1363</ele>
        <time>2017-03-02T11:49:38Z</time>
      </trkpt>
      <trkpt lat="44.39095" lon="3.77884">
        <ele>1363</ele>
        <time>2017-03-02T11:51:38Z</time>
      </trkpt>
      <trkpt lat="44.39099" lon="3.77886">
        <ele>1363</ele>
        <time>2017-03-02T11:53:38Z</time>
      </trkpt>
      <trkpt lat="44.39103" lon="3.77888">
        <ele>1363</ele>
        <time>2017-03-02T11:55:38Z</time>
      </trkpt>
      <trkpt lat="44.39108" lon="3.77888">
        <ele>1364</ele>
        <time>2017-03-02T11:57:38Z</time>
      </trkpt>
      <trkpt lat="44.39112" lon="3.7789">
        <ele>1364</ele>
        <time>2017-03-02T11:59:38Z</time>
      </trkpt>
      <trkpt lat="44.39124" lon="3.77893">
        <ele>1366</ele>
        <time>2017-03-02T12:01:38Z</time>
      </trkpt>
      <trkpt lat="44.39128" lon="3.77894">
        <ele>1366</ele>
        <time>2017-03-02T12:03:38Z</time>
      </trkpt>
      <trkpt lat="44.3913" lon="3.77895">
        <ele>1366</ele>
        <time>2017-03-02T12:05:38Z</time>
      </trkpt>
      <trkpt lat="44.39133" lon="3.77896">
        <ele>1367</ele>
        <time>2017-03-02T12:07:38Z</time>
      </trkpt>
      <trkpt lat="44.39136" lon="3.77898">
        <ele>1367</ele>
        <time>2017-03-02T12:09:38Z</time>
      </trkpt>
      <trkpt lat="44.39138" lon="3.77901">
        <ele>1366</ele>
        <time>2017-03-02T12:11:38Z</time>
      </trkpt>
      <trkpt lat="44.3914" lon="3.77902">
        <ele>1367</ele>
        <time>2017-03-02T12:13:38Z</time>
      </trkpt>
      <trkpt lat="44.39143" lon="3.77905">
        <ele>1366</ele>
        <time>2017-03-02T12:15:38Z</time>
      </trkpt>
      <trkpt lat="44.39145" lon="3.77908">
        <ele>1366</ele>
        <time>2017-03-02T12:17:38Z</time>
      </trkpt>
      <trkpt lat="44.39148" lon="3.77911">
        <ele>1366</ele>
        <time>2017-03-02T12:19:38Z</time>
      </trkpt>
      <trkpt lat="44.3915" lon="3.77914">
        <ele>1366</ele>
        <time>2017-03-02T12:21:38Z</time>
      </trkpt>
      <trkpt lat="44.39152" lon="3.77921">
        <ele>1365</ele>
        <time>2017-03-02T12:23:38Z</time>
      </trkpt>
      <trkpt lat="44.39153" lon="3.77927">
        <ele>1365</ele>
        <time>2017-03-02T12:25:38Z</time>
      </trkpt>
      <trkpt lat="44.39153" lon="3.77937">
        <ele>1364</ele>
        <time>2017-03-02T12:27:38Z</time>
      </trkpt>
      <trkpt lat="44.39154" lon="3.77957">
        <ele>1362</ele>
        <time>2017-03-02T12:29:38Z</time>
      </trkpt>
      <trkpt lat="44.39155" lon="3.77971">
        <ele>1360</ele>
        <time>2017-03-02T12:31:38Z</time>
      </trkpt>
      <trkpt lat="44.39157" lon="3.77982">
        <ele>1359</ele>
        <time>2017-03-02T12:33:38Z</time>
      </trkpt>
      <trkpt lat="44.39158" lon="3.77988">
        <ele>1359</ele>
        <time>2017-03-02T12:35:38Z</time>
      </trkpt>
      <trkpt lat="44.39159" lon="3.77994">
        <ele>1358</ele>
        <time>2017-03-02T12:37:38Z</time>
      </trkpt>
      <trkpt lat="44.3916" lon="3.78003">
        <ele>1358</ele>
        <time>2017-03-02T12:39:38Z</time>
      </trkpt>
      <trkpt lat="44.39161" lon="3.78011">
        <ele>1357</ele>
        <time>2017-03-02T12:41:38Z</time>
      </trkpt>
      <trkpt lat="44.39161" lon="3.78028">
        <ele>1356</ele>
        <time>2017-03-02T12:43:38Z</time>
      </trkpt>
      <trkpt lat="44.39162" lon="3.78044">
        <ele>1355</ele>
        <time>2017-03-02T12:45:38Z</time>
      </trkpt>
      <trkpt lat="44.39162" lon="3.78049">
        <ele>1354</ele>
        <time>2017-03-02T12:47:38Z</time>
      </trkpt>
      <trkpt lat="44.39163" lon="3.78055">
        <ele>1354</ele>
        <time>2017-03-02T12:49:38Z</time>
      </trkpt>
      <trkpt lat="44.39165" lon="3.7806">
        <ele>1354</ele>
        <time>2017-03-02T12:51:38Z</time>
      </trkpt>
      <trkpt lat="44.39167" lon="3.7807">
        <ele>1353</ele>
        <time>2017-03-02T12:53:38Z</time>
      </trkpt>
      <trkpt lat="44.39172" lon="3.78087">
        <ele>1352</ele>
        <time>2017-03-02T12:55:38Z</time>
      </trkpt>
      <trkpt lat="44.39174" lon="3.78094">
        <ele>1352</ele>
        <time>2017-03-02T12:57:38Z</time>
      </trkpt>
      <trkpt lat="44.39176" lon="3.78098">
        <ele>1352</ele>
        <time>2017-03-02T12:59:38Z</time>
      </trkpt>
      <trkpt lat="44.39178" lon="3.78102">
        <ele>1351</ele>
        <time>2017-03-02T13:01:38Z</time>
      </trkpt>
      <trkpt lat="44.39179" lon="3.78105">
        <ele>1351</ele>
        <time>2017-03-02T13:03:38Z</time>
      </trkpt>
      <trkpt lat="44.39181" lon="3.78106">
        <ele>1351</ele>
        <time>2017-03-02T13:05:38Z</time>
      </trkpt>
      <trkpt lat="44.39183" lon="3.78108">
        <ele>1351</ele>
        <time>2017-03-02T13:07:38Z</time>
      </trkpt>
      <trkpt lat="44.39186" lon="3.78111">
        <ele>1352</ele>
        <time>2017-03-02T13:09:38Z</time>
      </trkpt>
      <trkpt lat="44.3919" lon="3.78112">
        <ele>1352</ele>
        <time>2017-03-02T13:11:38Z</time>
      </trkpt>
      <trkpt lat="44.39194" lon="3.78114">
        <ele>1352</ele>
        <time>2017-03-02T13:13:38Z</time>
      </trkpt>
      <trkpt lat="44.39197" lon="3.78115">
        <ele>1352</ele>
        <time>2017-03-02T13:15:38Z</time>
      </trkpt>
      <trkpt lat="44.39205" lon="3.78117">
        <ele>1353</ele>
        <time>2017-03-02T13:17:38Z</time>
      </trkpt>
      <trkpt lat="44.39208" lon="3.78118">
        <ele>1354</ele>
        <time>2017-03-02T13:19:38Z</time>
      </trkpt>
      <trkpt lat="44.3921" lon="3.78118">
        <ele>1354</ele>
        <time>2017-03-02T13:21:38Z</time>
      </trkpt>
      <trkpt lat="44.39212" lon="3.7812">
        <ele>1354</ele>
        <time>2017-03-02T13:23:38Z</time>
      </trkpt>
      <trkpt lat="44.39214" lon="3.78121">
        <ele>1354</ele>
        <time>2017-03-02T13:25:38Z</time>
      </trkpt>
      <trkpt lat="44.39215" lon="3.78123">
        <ele>1354</ele>
        <time>2017-03-02T13:27:38Z</time>
      </trkpt>
      <trkpt lat="44.39217" lon="3.78125">
        <ele>1354</ele>
        <time>2017-03-02T13:29:38Z</time>
      </trkpt>
      <trkpt lat="44.39218" lon="3.78129">
        <ele>1354</ele>
        <time>2017-03-02T13:31:38Z</time>
      </trkpt>
      <trkpt lat="44.3922" lon="3.78132">
        <ele>1354</ele>
        <time>2017-03-02T13:33:38Z</time>
      </trkpt>
      <trkpt lat="44.39221" lon="3.78136">
        <ele>1354</ele>
        <time>2017-03-02T13:35:38Z</time>
      </trkpt>
      <trkpt lat="44.39223" lon="3.78145">
        <ele>1354</ele>
        <time>2017-03-02T13:37:38Z</time>
      </trkpt>
      <trkpt lat="44.39223" lon="3.78149">
        <ele>1354</ele>
        <time>2017-03-02T13:39:38Z</time>
      </trkpt>
      <trkpt lat="44.39224" lon="3.78154">
        <ele>1354</ele>
        <time>2017-03-02T13:41:38Z</time>
      </trkpt>
      <trkpt lat="44.39224" lon="3.78154">
        <ele>1354</ele>
        <time>2017-03-02T13:43:38Z</time>
      </trkpt>
      <trkpt lat="44.39223" lon="3.78168">
        <ele>1354</ele>
        <time>2017-03-02T13:45:38Z</time>
      </trkpt>
      <trkpt lat="44.39222" lon="3.78173">
        <ele>1354</ele>
        <time>2017-03-02T13:47:38Z</time>
      </trkpt>
      <trkpt lat="44.39219" lon="3.78193">
        <ele>1354</ele>
        <time>2017-03-02T13:49:38Z</time>
      </trkpt>
      <trkpt lat="44.39218" lon="3.78205">
        <ele>1354</ele>
        <time>2017-03-02T13:51:38Z</time>
      </trkpt>
      <trkpt lat="44.39217" lon="3.78212">
        <ele>1354</ele>
        <time>2017-03-02T13:53:38Z</time>
      </trkpt>
      <trkpt lat="44.39215" lon="3.78217">
        <ele>1354</ele>
        <time>2017-03-02T13:55:38Z</time>
      </trkpt>
      <trkpt lat="44.39214" lon="3.78221">
        <ele>1354</ele>
        <time>2017-03-02T13:57:38Z</time>
      </trkpt>
      <trkpt lat="44.39208" lon="3.78232">
        <ele>1353</ele>
        <time>2017-03-02T13:59:38Z</time>
      </trkpt>
      <trkpt lat="44.39203" lon="3.78239">
        <ele>1352</ele>
        <time>2017-03-02T14:01:38Z</time>
      </trkpt>
      <trkpt lat="44.392" lon="3.78246">
        <ele>1351</ele>
        <time>2017-03-02T14:03:38Z</time>
      </trkpt>
      <trkpt lat="44.39197" lon="3.78252">
        <ele>1351</ele>
        <time>2017-03-02T14:05:38Z</time>
      </trkpt>
      <trkpt lat="44.39195" lon="3.78256">
        <ele>1351</ele>
        <time>2017-03-02T14:07:38Z</time>
      </trkpt>
      <trkpt lat="44.39191" lon="3.78264">
        <ele>1350</ele>
        <time>2017-03-02T14:09:38Z</time>
      </trkpt>
      <trkpt lat="44.39186" lon="3.78272">
        <ele>1349</ele>
        <time>2017-03-02T14:11:38Z</time>
      </trkpt>
      <trkpt lat="44.39179" lon="3.78281">
        <ele>1348</ele>
        <time>2017-03-02T14:13:38Z</time>
      </trkpt>
      <trkpt lat="44.39169" lon="3.78293">
        <ele>1346</ele>
        <time>2017-03-02T14:15:38Z</time>
      </trkpt>
      <trkpt lat="44.39159" lon="3.78309">
        <ele>1345</ele>
        <time>2017-03-02T14:17:38Z</time>
      </trkpt>
      <trkpt lat="44.39157" lon="3.78311">
        <ele>1345</ele>
        <time>2017-03-02T14:19:38Z</time>
      </trkpt>
      <trkpt lat="44.39154" lon="3.78313">
        <ele>1345</ele>
        <time>2017-03-02T14:21:38Z</time>
      </trkpt>
      <trkpt lat="44.39153" lon="3.78315">
        <ele>1344</ele>
        <time>2017-03-02T14:23:38Z</time>
      </trkpt>
      <trkpt lat="44.39147" lon="3.78319">
        <ele>1344</ele>
        <time>2017-03-02T14:25:38Z</time>
      </trkpt>
      <trkpt lat="44.39144" lon="3.7832">
        <ele>1343</ele>
        <time>2017-03-02T14:27:38Z</time>
      </trkpt>
      <trkpt lat="44.39138" lon="3.78321">
        <ele>1342</ele>
        <time>2017-03-02T14:29:38Z</time>
      </trkpt>
      <trkpt lat="44.39136" lon="3.78322">
        <ele>1342</ele>
        <time>2017-03-02T14:31:38Z</time>
      </trkpt>
      <trkpt lat="44.39135" lon="3.78323">
        <ele>1342</ele>
        <time>2017-03-02T14:33:38Z</time>
      </trkpt>
      <trkpt lat="44.39133" lon="3.78326">
        <ele>1341</ele>
        <time>2017-03-02T14:35:38Z</time>
      </trkpt>
      <trkpt lat="44.39131" lon="3.78333">
        <ele>1341</ele>
        <time>2017-03-02T14:37:38Z</time>
      </trkpt>
      <trkpt lat="44.39127" lon="3.7835">
        <ele>1342</ele>
        <time>2017-03-02T14:39:38Z</time>
      </trkpt>
      <trkpt lat="44.39123" lon="3.78368">
        <ele>1342</ele>
        <time>2017-03-02T14:41:38Z</time>
      </trkpt>
      <trkpt lat="44.39121" lon="3.78375">
        <ele>1342</ele>
        <time>2017-03-02T14:43:38Z</time>
      </trkpt>
      <trkpt lat="44.39118" lon="3.78381">
        <ele>1342</ele>
        <time>2017-03-02T14:45:38Z</time>
      </trkpt>
      <trkpt lat="44.39114" lon="3.78389">
        <ele>1342</ele>
        <time>2017-03-02T14:47:38Z</time>
      </trkpt>
      <trkpt lat="44.39112" lon="3.78395">
        <ele>1342</ele>
        <time>2017-03-02T14:49:38Z</time>
      </trkpt>
      <trkpt lat="44.39112" lon="3.78398">
        <ele>1342</ele>
        <time>2017-03-02T14:51:38Z</time>
      </trkpt>
      <trkpt lat="44.39111" lon="3.78401">
        <ele>1342</ele>
        <time>2017-03-02T14:53:38Z</time>
      </trkpt>
      <trkpt lat="44.3911" lon="3.78407">
        <ele>1343</ele>
        <time>2017-03-02T14:55:38Z</time>
      </trkpt>
      <trkpt lat="44.39108" lon="3.78419">
        <ele>1343</ele>
        <time>2017-03-02T14:57:38Z</time>
      </trkpt>
      <trkpt lat="44.39106" lon="3.78431">
        <ele>1343</ele>
        <time>2017-03-02T14:59:38Z</time>
      </trkpt>
      <trkpt lat="44.39105" lon="3.78436">
        <ele>1342</ele>
        <time>2017-03-02T15:01:38Z</time>
      </trkpt>
      <trkpt lat="44.39104" lon="3.78441">
        <ele>1342</ele>
        <time>2017-03-02T15:03:38Z</time>
      </trkpt>
      <trkpt lat="44.39104" lon="3.78446">
        <ele>1342</ele>
        <time>2017-03-02T15:05:38Z</time>
      </trkpt>
      <trkpt lat="44.39103" lon="3.78452">
        <ele>1342</ele>
        <time>2017-03-02T15:07:38Z</time>
      </trkpt>
      <trkpt lat="44.39103" lon="3.78466">
        <ele>1342</ele>
        <time>2017-03-02T15:09:38Z</time>
      </trkpt>
      <trkpt lat="44.39103" lon="3.78475">
        <ele>1342</ele>
        <time>2017-03-02T15:11:38Z</time>
      </trkpt>
      <trkpt lat="44.39103" lon="3.78482">
        <ele>1342</ele>
        <time>2017-03-02T15:13:38Z</time>
      </trkpt>
      <trkpt lat="44.39103" lon="3.78487">
        <ele>1342</ele>
        <time>2017-03-02T15:15:38Z</time>
      </trkpt>
      <trkpt lat="44.39103" lon="3.78491">
        <ele>1342</ele>
        <time>2017-03-02T15:17:38Z</time>
      </trkpt>
      <trkpt lat="44.39104" lon="3.78493">
        <ele>1342</ele>
        <time>2017-03-02T15:19:38Z</time>
      </trkpt>
      <trkpt lat="44.39104" lon="3.78495">
        <ele>1342</ele>
        <time>2017-03-02T15:21:38Z</time>
      </trkpt>
      <trkpt lat="44.39106" lon="3.78499">
        <ele>1343</ele>
        <time>2017-03-02T15:23:38Z</time>
      </trkpt>
      <trkpt lat="44.39119" lon="3.78521">
        <ele>1345</ele>
        <time>2017-03-02T15:25:38Z</time>
      </trkpt>
      <trkpt lat="44.39127" lon="3.78537">
        <ele>1347</ele>
        <time>2017-03-02T15:27:38Z</time>
      </trkpt>
      <trkpt lat="44.39132" lon="3.78547">
        <ele>1347</ele>
        <time>2017-03-02T15:29:38Z</time>
      </trkpt>
      <trkpt lat="44.39134" lon="3.78553">
        <ele>1348</ele>
        <time>2017-03-02T15:31:38Z</time>
      </trkpt>
      <trkpt lat="44.39134" lon="3.78553">
        <ele>1348</ele>
        <time>2017-03-02T15:33:38Z</time>
      </trkpt>
      <trkpt lat="44.39134" lon="3.78558">
        <ele>1348</ele>
        <time>2017-03-02T15:35:38Z</time>
      </trkpt>
      <trkpt lat="44.39132" lon="3.78566">
        <ele>1347</ele>
        <time>2017-03-02T15:37:38Z</time>
      </trkpt>
      <trkpt lat="44.39122" lon="3.78592">
        <ele>1346</ele>
        <time>2017-03-02T15:39:38Z</time>
      </trkpt>
      <trkpt lat="44.39111" lon="3.78614">
        <ele>1346</ele>
        <time>2017-03-02T15:41:38Z</time>
      </trkpt>
      <trkpt lat="44.39109" lon="3.78617">
        <ele>1346</ele>
        <time>2017-03-02T15:43:38Z</time>
      </trkpt>
      <trkpt lat="44.39106" lon="3.78621">
        <ele>1346</ele>
        <time>2017-03-02T15:45:38Z</time>
      </trkpt>
      <trkpt lat="44.39104" lon="3.78624">
        <ele>1346</ele>
        <time>2017-03-02T15:47:38Z</time>
      </trkpt>
      <trkpt lat="44.39102" lon="3.78627">
        <ele>1346</ele>
        <time>2017-03-02T15:49:38Z</time>
      </trkpt>
      <trkpt lat="44.39098" lon="3.78632">
        <ele>1346</ele>
        <time>2017-03-02T15:51:38Z</time>
      </trkpt>
      <trkpt lat="44.39095" lon="3.78635">
        <ele>1346</ele>
        <time>2017-03-02T15:53:38Z</time>
      </trkpt>
      <trkpt lat="44.39091" lon="3.78638">
        <ele>1346</ele>
        <time>2017-03-02T15:55:38Z</time>
      </trkpt>
      <trkpt lat="44.39089" lon="3.78641">
        <ele>1345</ele>
        <time>2017-03-02T15:57:38Z</time>
      </trkpt>
      <trkpt lat="44.39084" lon="3.78647">
        <ele>1345</ele>
        <time>2017-03-02T15:59:38Z</time>
      </trkpt>
      <trkpt lat="44.39077" lon="3.78656">
        <ele>1345</ele>
        <time>2017-03-02T16:01:38Z</time>
      </trkpt>
      <trkpt lat="44.39066" lon="3.78668">
        <ele>1345</ele>
        <time>2017-03-02T16:03:38Z</time>
      </trkpt>
      <trkpt lat="44.39062" lon="3.78675">
        <ele>1345</ele>
        <time>2017-03-02T16:05:38Z</time>
      </trkpt>
      <trkpt lat="44.3906" lon="3.78678">
        <ele>1345</ele>
        <time>2017-03-02T16:07:38Z</time>
      </trkpt>
      <trkpt lat="44.39058" lon="3.7868">
        <ele>1345</ele>
        <time>2017-03-02T16:09:38Z</time>
      </trkpt>
      <trkpt lat="44.39055" lon="3.78683">
        <ele>1345</ele>
        <time>2017-03-02T16:11:38Z</time>
      </trkpt>
      <trkpt lat="44.39052" lon="3.78686">
        <ele>1345</ele>
        <time>2017-03-02T16:13:38Z</time>
      </trkpt>
      <trkpt lat="44.39031" lon="3.78698">
        <ele>1344</ele>
        <time>2017-03-02T16:15:38Z</time>
      </trkpt>
      <trkpt lat="44.39024" lon="3.78703">
        <ele>1344</ele>
        <time>2017-03-02T16:17:38Z</time>
      </trkpt>
      <trkpt lat="44.39019" lon="3.78707">
        <ele>1344</ele>
        <time>2017-03-02T16:19:38Z</time>
      </trkpt>
      <trkpt lat="44.39016" lon="3.78711">
        <ele>1344</ele>
        <time>2017-03-02T16:21:38Z</time>
      </trkpt>
      <trkpt lat="44.39012" lon="3.78716">
        <ele>1344</ele>
        <time>2017-03-02T16:23:38Z</time>
      </trkpt>
      <trkpt lat="44.39006" lon="3.78724">
        <ele>1344</ele>
        <time>2017-03-02T16:25:38Z</time>
      </trkpt>
      <trkpt lat="44.39" lon="3.78733">
        <ele>1345</ele>
        <time>2017-03-02T16:27:38Z</time>
      </trkpt>
      <trkpt lat="44.38994" lon="3.78746">
        <ele>1345</ele>
        <time>2017-03-02T16:29:38Z</time>
      </trkpt>
      <trkpt lat="44.38988" lon="3.78762">
        <ele>1345</ele>
        <time>2017-03-02T16:31:38Z</time>
      </trkpt>
      <trkpt lat="44.38985" lon="3.78775">
        <ele>1344</ele>
        <time>2017-03-02T16:33:38Z</time>
      </trkpt>
      <trkpt lat="44.38982" lon="3.78792">
        <ele>1344</ele>
        <time>2017-03-02T16:35:38Z</time>
      </trkpt>
      <trkpt lat="44.3898" lon="3.78807">
        <ele>1344</ele>
        <time>2017-03-02T16:37:38Z</time>
      </trkpt>
      <trkpt lat="44.3898" lon="3.78817">
        <ele>1344</ele>
        <time>2017-03-02T16:39:38Z</time>
      </trkpt>
      <trkpt lat="44.3898" lon="3.78827">
        <ele>1345</ele>
        <time>2017-03-02T16:41:38Z</time>
      </trkpt>
      <trkpt lat="44.38982" lon="3.78835">
        <ele>1345</ele>
        <time>2017-03-02T16:43:38Z</time>
      </trkpt>
      <trkpt lat="44.38984" lon="3.78841">
        <ele>1345</ele>
        <time>2017-03-02T16:45:38Z</time>
      </trkpt>
      <trkpt lat="44.38987" lon="3.78848">
        <ele>1345</ele>
        <time>2017-03-02T16:47:38Z</time>
      </trkpt>
      <trkpt lat="44.38991" lon="3.78854">
        <ele>1345</ele>
        <time>2017-03-02T16:49:38Z</time>
      </trkpt>
      <trkpt lat="44.38995" lon="3.7886">
        <ele>1345</ele>
        <time>2017-03-02T16:51:38Z</time>
      </trkpt>
      <trkpt lat="44.38998" lon="3.78864">
        <ele>1345</ele>
        <time>2017-03-02T16:53:38Z</time>
      </trkpt>
      <trkpt lat="44.39001" lon="3.78867">
        <ele>1345</ele>
        <time>2017-03-02T16:55:38Z</time>
      </trkpt>
      <trkpt lat="44.39009" lon="3.78872">
        <ele>1345</ele>
        <time>2017-03-02T16:57:38Z</time>
      </trkpt>
      <trkpt lat="44.39016" lon="3.78875">
        <ele>1345</ele>
        <time>2017-03-02T16:59:38Z</time>
      </trkpt>
      <trkpt lat="44.39032" lon="3.78881">
        <ele>1345</ele>
        <time>2017-03-02T17:01:38Z</time>
      </trkpt>
      <trkpt lat="44.39075" lon="3.78892">
        <ele>1346</ele>
        <time>2017-03-02T17:03:38Z</time>
      </trkpt>
      <trkpt lat="44.39089" lon="3.78895">
        <ele>1346</ele>
        <time>2017-03-02T17:05:38Z</time>
      </trkpt>
      <trkpt lat="44.39097" lon="3.78895">
        <ele>1346</ele>
        <time>2017-03-02T17:07:38Z</time>
      </trkpt>
      <trkpt lat="44.39106" lon="3.78894">
        <ele>1346</ele>
        <time>2017-03-02T17:09:38Z</time>
      </trkpt>
      <trkpt lat="44.39163" lon="3.78892">
        <ele>1349</ele>
        <time>2017-03-02T17:11:38Z</time>
      </trkpt>
      <trkpt lat="44.39167" lon="3.78892">
        <ele>1349</ele>
        <time>2017-03-02T17:13:38Z</time>
      </trkpt>
      <trkpt lat="44.39171" lon="3.78893">
        <ele>1349</ele>
        <time>2017-03-02T17:15:38Z</time>
      </trkpt>
      <trkpt lat="44.39177" lon="3.78895">
        <ele>1350</ele>
        <time>2017-03-02T17:17:38Z</time>
      </trkpt>
      <trkpt lat="44.39187" lon="3.789">
        <ele>1350</ele>
        <time>2017-03-02T17:19:38Z</time>
      </trkpt>
      <trkpt lat="44.39205" lon="3.78911">
        <ele>1350</ele>
        <time>2017-03-02T17:21:38Z</time>
      </trkpt>
      <trkpt lat="44.3921" lon="3.78915">
        <ele>1350</ele>
        <time>2017-03-02T17:23:38Z</time>
      </trkpt>
      <trkpt lat="44.39216" lon="3.7892">
        <ele>1349</ele>
        <time>2017-03-02T17:25:38Z</time>
      </trkpt>
      <trkpt lat="44.39222" lon="3.78923">
        <ele>1350</ele>
        <time>2017-03-02T17:27:38Z</time>
      </trkpt>
      <trkpt lat="44.39227" lon="3.78923">
        <ele>1350</ele>
        <time>2017-03-02T17:29:38Z</time>
      </trkpt>
      <trkpt lat="44.39258" lon="3.78933">
        <ele>1352</ele>
        <time>2017-03-02T17:31:38Z</time>
      </trkpt>
      <trkpt lat="44.39287" lon="3.78937">
        <ele>1354</ele>
        <time>2017-03-02T17:33:38Z</time>
      </trkpt>
      <trkpt lat="44.39311" lon="3.7894">
        <ele>1355</ele>
        <time>2017-03-02T17:35:38Z</time>
      </trkpt>
      <trkpt lat="44.39314" lon="3.78941">
        <ele>1355</ele>
        <time>2017-03-02T17:37:38Z</time>
      </trkpt>
      <trkpt lat="44.39319" lon="3.78942">
        <ele>1355</ele>
        <time>2017-03-02T17:39:38Z</time>
      </trkpt>
      <trkpt lat="44.39333" lon="3.78948">
        <ele>1355</ele>
        <time>2017-03-02T17:41:38Z</time>
      </trkpt>
      <trkpt lat="44.39358" lon="3.78956">
        <ele>1356</ele>
        <time>2017-03-02T17:43:38Z</time>
      </trkpt>
      <trkpt lat="44.39406" lon="3.78979">
        <ele>1356</ele>
        <time>2017-03-02T17:45:38Z</time>
      </trkpt>
      <trkpt lat="44.39416" lon="3.78986">
        <ele>1355</ele>
        <time>2017-03-02T17:47:38Z</time>
      </trkpt>
      <trkpt lat="44.3942" lon="3.7899">
        <ele>1355</ele>
        <time>2017-03-02T17:49:38Z</time>
      </trkpt>
      <trkpt lat="44.39422" lon="3.78993">
        <ele>1354</ele>
        <time>2017-03-02T17:51:38Z</time>
      </trkpt>
      <trkpt lat="44.39424" lon="3.78999">
        <ele>1353</ele>
        <time>2017-03-02T17:53:38Z</time>
      </trkpt>
      <trkpt lat="44.39424" lon="3.79004">
        <ele>1353</ele>
        <time>2017-03-02T17:55:38Z</time>
      </trkpt>
      <trkpt lat="44.39424" lon="3.7901">
        <ele>1353</ele>
        <time>2017-03-02T17:57:38Z</time>
      </trkpt>
      <trkpt lat="44.39424" lon="3.79022">
        <ele>1353</ele>
        <time>2017-03-02T17:59:38Z</time>
      </trkpt>
      <trkpt lat="44.39423" lon="3.79031">
        <ele>1354</ele>
        <time>2017-03-02T18:01:38Z</time>
      </trkpt>
      <trkpt lat="44.3942" lon="3.79043">
        <ele>1353</ele>
        <time>2017-03-02T18:03:38Z</time>
      </trkpt>
      <trkpt lat="44.39416" lon="3.79054">
        <ele>1353</ele>
        <time>2017-03-02T18:05:38Z</time>
      </trkpt>
      <trkpt lat="44.39413" lon="3.7906">
        <ele>1352</ele>
        <time>2017-03-02T18:07:38Z</time>
      </trkpt>
      <trkpt lat="44.394" lon="3.7908">
        <ele>1350</ele>
        <time>2017-03-02T18:09:38Z</time>
      </trkpt>
      <trkpt lat="44.39387" lon="3.79096">
        <ele>1351</ele>
        <time>2017-03-02T18:11:38Z</time>
      </trkpt>
      <trkpt lat="44.39376" lon="3.7911">
        <ele>1352</ele>
        <time>2017-03-02T18:13:38Z</time>
      </trkpt>
      <trkpt lat="44.39364" lon="3.79121">
        <ele>1352</ele>
        <time>2017-03-02T18:15:38Z</time>
      </trkpt>
      <trkpt lat="44.39344" lon="3.79136">
        <ele>1352</ele>
        <time>2017-03-02T18:17:38Z</time>
      </trkpt>
      <trkpt lat="44.39327" lon="3.7915">
        <ele>1352</ele>
        <time>2017-03-02T18:19:38Z</time>
      </trkpt>
      <trkpt lat="44.39306" lon="3.79168">
        <ele>1354</ele>
        <time>2017-03-02T18:21:38Z</time>
      </trkpt>
      <trkpt lat="44.39302" lon="3.79171">
        <ele>1355</ele>
        <time>2017-03-02T18:23:38Z</time>
      </trkpt>
      <trkpt lat="44.39297" lon="3.79175">
        <ele>1355</ele>
        <time>2017-03-02T18:25:38Z</time>
      </trkpt>
      <trkpt lat="44.39293" lon="3.7918">
        <ele>1355</ele>
        <time>2017-03-02T18:27:38Z</time>
      </trkpt>
      <trkpt lat="44.3929" lon="3.79186">
        <ele>1356</ele>
        <time>2017-03-02T18:29:38Z</time>
      </trkpt>
      <trkpt lat="44.39285" lon="3.79193">
        <ele>1357</ele>
        <time>2017-03-02T18:31:38Z</time>
      </trkpt>
      <trkpt lat="44.39278" lon="3.79201">
        <ele>1358</ele>
        <time>2017-03-02T18:33:38Z</time>
      </trkpt>
      <trkpt lat="44.39269" lon="3.7921">
        <ele>1358</ele>
        <time>2017-03-02T18:35:38Z</time>
      </trkpt>
      <trkpt lat="44.39259" lon="3.79217">
        <ele>1358</ele>
        <time>2017-03-02T18:37:38Z</time>
      </trkpt>
      <trkpt lat="44.39232" lon="3.7923">
        <ele>1358</ele>
        <time>2017-03-02T18:39:38Z</time>
      </trkpt>
      <trkpt lat="44.39225" lon="3.79234">
        <ele>1358</ele>
        <time>2017-03-02T18:41:38Z</time>
      </trkpt>
      <trkpt lat="44.39218" lon="3.7924">
        <ele>1359</ele>
        <time>2017-03-02T18:43:38Z</time>
      </trkpt>
      <trkpt lat="44.39214" lon="3.79246">
        <ele>1359</ele>
        <time>2017-03-02T18:45:38Z</time>
      </trkpt>
      <trkpt lat="44.3921" lon="3.79252">
        <ele>1360</ele>
        <time>2017-03-02T18:47:38Z</time>
      </trkpt>
      <trkpt lat="44.39206" lon="3.79258">
        <ele>1360</ele>
        <time>2017-03-02T18:49:38Z</time>
      </trkpt>
      <trkpt lat="44.39204" lon="3.79263">
        <ele>1360</ele>
        <time>2017-03-02T18:51:38Z</time>
      </trkpt>
      <trkpt lat="44.39201" lon="3.79274">
        <ele>1360</ele>
        <time>2017-03-02T18:53:38Z</time>
      </trkpt>
      <trkpt lat="44.39198" lon="3.79281">
        <ele>1360</ele>
        <time>2017-03-02T18:55:38Z</time>
      </trkpt>
      <trkpt lat="44.39198" lon="3.79281">
        <ele>1360</ele>
        <time>2017-03-02T18:57:38Z</time>
      </trkpt>
      <trkpt lat="44.3919" lon="3.7927">
        <ele>1359</ele>
        <time>2017-03-02T18:59:38Z</time>
      </trkpt>
      <trkpt lat="44.39181" lon="3.7926">
        <ele>1358</ele>
        <time>2017-03-02T19:01:38Z</time>
      </trkpt>
      <trkpt lat="44.39175" lon="3.79254">
        <ele>1358</ele>
        <time>2017-03-02T19:03:38Z</time>
      </trkpt>
      <trkpt lat="44.39165" lon="3.79248">
        <ele>1357</ele>
        <time>2017-03-02T19:05:38Z</time>
      </trkpt>
      <trkpt lat="44.39151" lon="3.79241">
        <ele>1356</ele>
        <time>2017-03-02T19:07:38Z</time>
      </trkpt>
      <trkpt lat="44.3913" lon="3.79229">
        <ele>1354</ele>
        <time>2017-03-02T19:09:38Z</time>
      </trkpt>
      <trkpt lat="44.39115" lon="3.79223">
        <ele>1353</ele>
        <time>2017-03-02T19:11:38Z</time>
      </trkpt>
      <trkpt lat="44.39099" lon="3.79218">
        <ele>1351</ele>
        <time>2017-03-02T19:13:38Z</time>
      </trkpt>
      <trkpt lat="44.39087" lon="3.79214">
        <ele>1351</ele>
        <time>2017-03-02T19:15:38Z</time>
      </trkpt>
      <trkpt lat="44.39063" lon="3.79208">
        <ele>1349</ele>
        <time>2017-03-02T19:17:38Z</time>
      </trkpt>
      <trkpt lat="44.39048" lon="3.79205">
        <ele>1349</ele>
        <time>2017-03-02T19:19:38Z</time>
      </trkpt>
      <trkpt lat="44.39024" lon="3.792">
        <ele>1347</ele>
        <time>2017-03-02T19:21:38Z</time>
      </trkpt>
      <trkpt lat="44.39011" lon="3.792">
        <ele>1347</ele>
        <time>2017-03-02T19:23:38Z</time>
      </trkpt>
      <trkpt lat="44.38999" lon="3.792">
        <ele>1346</ele>
        <time>2017-03-02T19:25:38Z</time>
      </trkpt>
      <trkpt lat="44.38986" lon="3.79202">
        <ele>1346</ele>
        <time>2017-03-02T19:27:38Z</time>
      </trkpt>
      <trkpt lat="44.38969" lon="3.79201">
        <ele>1346</ele>
        <time>2017-03-02T19:29:38Z</time>
      </trkpt>
      <trkpt lat="44.38961" lon="3.79199">
        <ele>1345</ele>
        <time>2017-03-02T19:31:38Z</time>
      </trkpt>
      <trkpt lat="44.38954" lon="3.79197">
        <ele>1345</ele>
        <time>2017-03-02T19:33:38Z</time>
      </trkpt>
      <trkpt lat="44.38947" lon="3.792">
        <ele>1345</ele>
        <time>2017-03-02T19:35:38Z</time>
      </trkpt>
      <trkpt lat="44.3894" lon="3.79202">
        <ele>1345</ele>
        <time>2017-03-02T19:37:38Z</time>
      </trkpt>
      <trkpt lat="44.38925" lon="3.79203">
        <ele>1345</ele>
        <time>2017-03-02T19:39:38Z</time>
      </trkpt>
      <trkpt lat="44.38905" lon="3.79203">
        <ele>1345</ele>
        <time>2017-03-02T19:41:38Z</time>
      </trkpt>
      <trkpt lat="44.38896" lon="3.79203">
        <ele>1345</ele>
        <time>2017-03-02T19:43:38Z</time>
      </trkpt>
      <trkpt lat="44.38889" lon="3.79201">
        <ele>1344</ele>
        <time>2017-03-02T19:45:38Z</time>
      </trkpt>
      <trkpt lat="44.38873" lon="3.79196">
        <ele>1344</ele>
        <time>2017-03-02T19:47:38Z</time>
      </trkpt>
      <trkpt lat="44.38859" lon="3.79192">
        <ele>1343</ele>
        <time>2017-03-02T19:49:38Z</time>
      </trkpt>
      <trkpt lat="44.38849" lon="3.79192">
        <ele>1343</ele>
        <time>2017-03-02T19:51:38Z</time>
      </trkpt>
      <trkpt lat="44.38842" lon="3.79192">
        <ele>1343</ele>
        <time>2017-03-02T19:53:38Z</time>
      </trkpt>
      <trkpt lat="44.38833" lon="3.7919">
        <ele>1342</ele>
        <time>2017-03-02T19:55:38Z</time>
      </trkpt>
      <trkpt lat="44.38821" lon="3.79187">
        <ele>1342</ele>
        <time>2017-03-02T19:57:38Z</time>
      </trkpt>
      <trkpt lat="44.38803" lon="3.79183">
        <ele>1341</ele>
        <time>2017-03-02T19:59:38Z</time>
      </trkpt>
      <trkpt lat="44.38785" lon="3.7918">
        <ele>1341</ele>
        <time>2017-03-02T20:01:38Z</time>
      </trkpt>
      <trkpt lat="44.3877" lon="3.7918">
        <ele>1341</ele>
        <time>2017-03-02T20:03:38Z</time>
      </trkpt>
      <trkpt lat="44.38752" lon="3.79179">
        <ele>1340</ele>
        <time>2017-03-02T20:05:38Z</time>
      </trkpt>
      <trkpt lat="44.3873" lon="3.79178">
        <ele>1340</ele>
        <time>2017-03-02T20:07:38Z</time>
      </trkpt>
      <trkpt lat="44.387" lon="3.79182">
        <ele>1339</ele>
        <time>2017-03-02T20:09:38Z</time>
      </trkpt>
      <trkpt lat="44.38679" lon="3.79183">
        <ele>1338</ele>
        <time>2017-03-02T20:11:38Z</time>
      </trkpt>
      <trkpt lat="44.3866" lon="3.79188">
        <ele>1338</ele>
        <time>2017-03-02T20:13:38Z</time>
      </trkpt>
      <trkpt lat="44.38646" lon="3.79191">
        <ele>1336</ele>
        <time>2017-03-02T20:15:38Z</time>
      </trkpt>
      <trkpt lat="44.3863" lon="3.79192">
        <ele>1335</ele>
        <time>2017-03-02T20:17:38Z</time>
      </trkpt>
      <trkpt lat="44.38625" lon="3.79192">
        <ele>1334</ele>
        <time>2017-03-02T20:19:38Z</time>
      </trkpt>
      <trkpt lat="44.38616" lon="3.79189">
        <ele>1333</ele>
        <time>2017-03-02T20:21:38Z</time>
      </trkpt>
      <trkpt lat="44.38609" lon="3.79188">
        <ele>1332</ele>
        <time>2017-03-02T20:23:38Z</time>
      </trkpt>
      <trkpt lat="44.38597" lon="3.79183">
        <ele>1331</ele>
        <time>2017-03-02T20:25:38Z</time>
      </trkpt>
      <trkpt lat="44.38587" lon="3.7918">
        <ele>1330</ele>
        <time>2017-03-02T20:27:38Z</time>
      </trkpt>
      <trkpt lat="44.38579" lon="3.79179">
        <ele>1329</ele>
        <time>2017-03-02T20:29:38Z</time>
      </trkpt>
      <trkpt lat="44.3857" lon="3.79184">
        <ele>1329</ele>
        <time>2017-03-02T20:31:38Z</time>
      </trkpt>
      <trkpt lat="44.38562" lon="3.79186">
        <ele>1328</ele>
        <time>2017-03-02T20:33:38Z</time>
      </trkpt>
      <trkpt lat="44.38548" lon="3.79189">
        <ele>1327</ele>
        <time>2017-03-02T20:35:38Z</time>
      </trkpt>
      <trkpt lat="44.38536" lon="3.79192">
        <ele>1326</ele>
        <time>2017-03-02T20:37:38Z</time>
      </trkpt>
      <trkpt lat="44.38527" lon="3.79192">
        <ele>1326</ele>
        <time>2017-03-02T20:39:38Z</time>
      </trkpt>
      <trkpt lat="44.38523" lon="3.79192">
        <ele>1325</ele>
        <time>2017-03-02T20:41:38Z</time>
      </trkpt>
      <trkpt lat="44.38515" lon="3.79191">
        <ele>1325</ele>
        <time>2017-03-02T20:43:38Z</time>
      </trkpt>
      <trkpt lat="44.38507" lon="3.79191">
        <ele>1324</ele>
        <time>2017-03-02T20:45:38Z</time>
      </trkpt>
      <trkpt lat="44.38499" lon="3.79191">
        <ele>1324</ele>
        <time>2017-03-02T20:47:38Z</time>
      </trkpt>
      <trkpt lat="44.38494" lon="3.79191">
        <ele>1323</ele>
        <time>2017-03-02T20:49:38Z</time>
      </trkpt>
      <trkpt lat="44.38486" lon="3.79189">
        <ele>1323</ele>
        <time>2017-03-02T20:51:38Z</time>
      </trkpt>
      <trkpt lat="44.38481" lon="3.79189">
        <ele>1323</ele>
        <time>2017-03-02T20:53:38Z</time>
      </trkpt>
      <trkpt lat="44.38476" lon="3.79187">
        <ele>1323</ele>
        <time>2017-03-02T20:55:38Z</time>
      </trkpt>
      <trkpt lat="44.38467" lon="3.79186">
        <ele>1323</ele>
        <time>2017-03-02T20:57:38Z</time>
      </trkpt>
      <trkpt lat="44.38459" lon="3.79186">
        <ele>1322</ele>
        <time>2017-03-02T20:59:38Z</time>
      </trkpt>
      <trkpt lat="44.38452" lon="3.79186">
        <ele>1322</ele>
        <time>2017-03-02T21:01:38Z</time>
      </trkpt>
      <trkpt lat="44.38446" lon="3.79187">
        <ele>1322</ele>
        <time>2017-03-02T21:03:38Z</time>
      </trkpt>
      <trkpt lat="44.38438" lon="3.79187">
        <ele>1322</ele>
        <time>2017-03-02T21:05:38Z</time>
      </trkpt>
      <trkpt lat="44.38428" lon="3.79186">
        <ele>1321</ele>
        <time>2017-03-02T21:07:38Z</time>
      </trkpt>
      <trkpt lat="44.38416" lon="3.79183">
        <ele>1321</ele>
        <time>2017-03-02T21:09:38Z</time>
      </trkpt>
      <trkpt lat="44.38403" lon="3.7918">
        <ele>1321</ele>
        <time>2017-03-02T21:11:38Z</time>
      </trkpt>
      <trkpt lat="44.38389" lon="3.79178">
        <ele>1321</ele>
        <time>2017-03-02T21:13:38Z</time>
      </trkpt>
      <trkpt lat="44.38378" lon="3.79177">
        <ele>1321</ele>
        <time>2017-03-02T21:15:38Z</time>
      </trkpt>
      <trkpt lat="44.3837" lon="3.79178">
        <ele>1320</ele>
        <time>2017-03-02T21:17:38Z</time>
      </trkpt>
      <trkpt lat="44.38363" lon="3.79176">
        <ele>1320</ele>
        <time>2017-03-02T21:19:38Z</time>
      </trkpt>
      <trkpt lat="44.38351" lon="3.79173">
        <ele>1320</ele>
        <time>2017-03-02T21:21:38Z</time>
      </trkpt>
      <trkpt lat="44.38336" lon="3.79169">
        <ele>1320</ele>
        <time>2017-03-02T21:23:38Z</time>
      </trkpt>
      <trkpt lat="44.3832" lon="3.79166">
        <ele>1320</ele>
        <time>2017-03-02T21:25:38Z</time>
      </trkpt>
      <trkpt lat="44.38312" lon="3.79163">
        <ele>1320</ele>
        <time>2017-03-02T21:27:38Z</time>
      </trkpt>
      <trkpt lat="44.38305" lon="3.79159">
        <ele>1320</ele>
        <time>2017-03-02T21:29:38Z</time>
      </trkpt>
      <trkpt lat="44.38295" lon="3.7915">
        <ele>1319</ele>
        <time>2017-03-02T21:31:38Z</time>
      </trkpt>
      <trkpt lat="44.38281" lon="3.79137">
        <ele>1318</ele>
        <time>2017-03-02T21:33:38Z</time>
      </trkpt>
      <trkpt lat="44.3827" lon="3.79128">
        <ele>1318</ele>
        <time>2017-03-02T21:35:38Z</time>
      </trkpt>
      <trkpt lat="44.38258" lon="3.79124">
        <ele>1318</ele>
        <time>2017-03-02T21:37:38Z</time>
      </trkpt>
      <trkpt lat="44.38247" lon="3.79121">
        <ele>1318</ele>
        <time>2017-03-02T21:39:38Z</time>
      </trkpt>
      <trkpt lat="44.38239" lon="3.79121">
        <ele>1317</ele>
        <time>2017-03-02T21:41:38Z</time>
      </trkpt>
      <trkpt lat="44.38231" lon="3.79122">
        <ele>1317</ele>
        <time>2017-03-02T21:43:38Z</time>
      </trkpt>
      <trkpt lat="44.38223" lon="3.79126">
        <ele>1317</ele>
        <time>2017-03-02T21:45:38Z</time>
      </trkpt>
      <trkpt lat="44.38215" lon="3.79133">
        <ele>1317</ele>
        <time>2017-03-02T21:47:38Z</time>
      </trkpt>
      <trkpt lat="44.38204" lon="3.7914">
        <ele>1318</ele>
        <time>2017-03-02T21:49:38Z</time>
      </trkpt>
      <trkpt lat="44.38191" lon="3.79144">
        <ele>1317</ele>
        <time>2017-03-02T21:51:38Z</time>
      </trkpt>
      <trkpt lat="44.38183" lon="3.79143">
        <ele>1317</ele>
        <time>2017-03-02T21:53:38Z</time>
      </trkpt>
      <trkpt lat="44.38175" lon="3.7914">
        <ele>1317</ele>
        <time>2017-03-02T21:55:38Z</time>
      </trkpt>
      <trkpt lat="44.38161" lon="3.79133">
        <ele>1316</ele>
        <time>2017-03-02T21:57:38Z</time>
      </trkpt>
      <trkpt lat="44.3815" lon="3.79124">
        <ele>1315</ele>
        <time>2017-03-02T21:59:38Z</time>
      </trkpt>
      <trkpt lat="44.38136" lon="3.79114">
        <ele>1314</ele>
        <time>2017-03-02T22:01:38Z</time>
      </trkpt>
      <trkpt lat="44.3812" lon="3.79108">
        <ele>1313</ele>
        <time>2017-03-02T22:03:38Z</time>
      </trkpt>
      <trkpt lat="44.38104" lon="3.79102">
        <ele>1313</ele>
        <time>2017-03-02T22:05:38Z</time>
      </trkpt>
      <trkpt lat="44.38094" lon="3.79101">
        <ele>1312</ele>
        <time>2017-03-02T22:07:38Z</time>
      </trkpt>
      <trkpt lat="44.38083" lon="3.79101">
        <ele>1312</ele>
        <time>2017-03-02T22:09:38Z</time>
      </trkpt>
      <trkpt lat="44.38075" lon="3.79104">
        <ele>1311</ele>
        <time>2017-03-02T22:11:38Z</time>
      </trkpt>
      <trkpt lat="44.38067" lon="3.79111">
        <ele>1311</ele>
        <time>2017-03-02T22:13:38Z</time>
      </trkpt>
      <trkpt lat="44.38054" lon="3.79122">
        <ele>1310</ele>
        <time>2017-03-02T22:15:38Z</time>
      </trkpt>
      <trkpt lat="44.38042" lon="3.79129">
        <ele>1310</ele>
        <time>2017-03-02T22:17:38Z</time>
      </trkpt>
      <trkpt lat="44.3803" lon="3.79133">
        <ele>1309</ele>
        <time>2017-03-02T22:19:38Z</time>
      </trkpt>
      <trkpt lat="44.38022" lon="3.79136">
        <ele>1309</ele>
        <time>2017-03-02T22:21:38Z</time>
      </trkpt>
      <trkpt lat="44.38006" lon="3.79147">
        <ele>1308</ele>
        <time>2017-03-02T22:23:38Z</time>
      </trkpt>
      <trkpt lat="44.37989" lon="3.79159">
        <ele>1307</ele>
        <time>2017-03-02T22:25:38Z</time>
      </trkpt>
      <trkpt lat="44.3797" lon="3.79171">
        <ele>1305</ele>
        <time>2017-03-02T22:27:38Z</time>
      </trkpt>
      <trkpt lat="44.37954" lon="3.79177">
        <ele>1304</ele>
        <time>2017-03-02T22:29:38Z</time>
      </trkpt>
      <trkpt lat="44.3793" lon="3.79194">
        <ele>1303</ele>
        <time>2017-03-02T22:31:38Z</time>
      </trkpt>
      <trkpt lat="44.37916" lon="3.79205">
        <ele>1302</ele>
        <time>2017-03-02T22:33:38Z</time>
      </trkpt>
      <trkpt lat="44.3791" lon="3.79213">
        <ele>1302</ele>
        <time>2017-03-02T22:35:38Z</time>
      </trkpt>
      <trkpt lat="44.37903" lon="3.79217">
        <ele>1302</ele>
        <time>2017-03-02T22:37:38Z</time>
      </trkpt>
      <trkpt lat="44.37894" lon="3.79218">
        <ele>1302</ele>
        <time>2017-03-02T22:39:38Z</time>
      </trkpt>
      <trkpt lat="44.37874" lon="3.79228">
        <ele>1302</ele>
        <time>2017-03-02T22:41:38Z</time>
      </trkpt>
      <trkpt lat="44.37858" lon="3.79237">
        <ele>1302</ele>
        <time>2017-03-02T22:43:38Z</time>
      </trkpt>
      <trkpt lat="44.37843" lon="3.79245">
        <ele>1303</ele>
        <time>2017-03-02T22:45:38Z</time>
      </trkpt>
      <trkpt lat="44.37843" lon="3.79245">
        <ele>1303</ele>
        <time>2017-03-02T22:47:38Z</time>
      </trkpt>
      <trkpt lat="44.37828" lon="3.7923">
        <ele>1302</ele>
        <time>2017-03-02T22:49:38Z</time>
      </trkpt>
      <trkpt lat="44.3779" lon="3.7919">
        <ele>1299</ele>
        <time>2017-03-02T22:51:38Z</time>
      </trkpt>
      <trkpt lat="44.37774" lon="3.79174">
        <ele>1298</ele>
        <time>2017-03-02T22:53:38Z</time>
      </trkpt>
      <trkpt lat="44.37766" lon="3.79167">
        <ele>1297</ele>
        <time>2017-03-02T22:55:38Z</time>
      </trkpt>
      <trkpt lat="44.3776" lon="3.79165">
        <ele>1297</ele>
        <time>2017-03-02T22:57:38Z</time>
      </trkpt>
      <trkpt lat="44.37744" lon="3.79159">
        <ele>1296</ele>
        <time>2017-03-02T22:59:38Z</time>
      </trkpt>
      <trkpt lat="44.37702" lon="3.79145">
        <ele>1293</ele>
        <time>2017-03-02T23:01:38Z</time>
      </trkpt>
      <trkpt lat="44.37689" lon="3.79142">
        <ele>1292</ele>
        <time>2017-03-02T23:03:38Z</time>
      </trkpt>
      <trkpt lat="44.37681" lon="3.79141">
        <ele>1292</ele>
        <time>2017-03-02T23:05:38Z</time>
      </trkpt>
      <trkpt lat="44.37673" lon="3.79142">
        <ele>1292</ele>
        <time>2017-03-02T23:07:38Z</time>
      </trkpt>
      <trkpt lat="44.37662" lon="3.79143">
        <ele>1291</ele>
        <time>2017-03-02T23:09:38Z</time>
      </trkpt>
      <trkpt lat="44.37645" lon="3.79145">
        <ele>1291</ele>
        <time>2017-03-02T23:11:38Z</time>
      </trkpt>
      <trkpt lat="44.37636" lon="3.79145">
        <ele>1291</ele>
        <time>2017-03-02T23:13:38Z</time>
      </trkpt>
      <trkpt lat="44.37626" lon="3.79143">
        <ele>1290</ele>
        <time>2017-03-02T23:15:38Z</time>
      </trkpt>
      <trkpt lat="44.37618" lon="3.79142">
        <ele>1290</ele>
        <time>2017-03-02T23:17:38Z</time>
      </trkpt>
      <trkpt lat="44.37586" lon="3.79136">
        <ele>1288</ele>
        <time>2017-03-02T23:19:38Z</time>
      </trkpt>
      <trkpt lat="44.37561" lon="3.79132">
        <ele>1287</ele>
        <time>2017-03-02T23:21:38Z</time>
      </trkpt>
      <trkpt lat="44.37546" lon="3.79129">
        <ele>1286</ele>
        <time>2017-03-02T23:23:38Z</time>
      </trkpt>
      <trkpt lat="44.37523" lon="3.79122">
        <ele>1285</ele>
        <time>2017-03-02T23:25:38Z</time>
      </trkpt>
      <trkpt lat="44.37498" lon="3.79114">
        <ele>1283</ele>
        <time>2017-03-02T23:27:38Z</time>
      </trkpt>
      <trkpt lat="44.37476" lon="3.79108">
        <ele>1281</ele>
        <time>2017-03-02T23:29:38Z</time>
      </trkpt>
      <trkpt lat="44.37464" lon="3.79106">
        <ele>1280</ele>
        <time>2017-03-02T23:31:38Z</time>
      </trkpt>
      <trkpt lat="44.37453" lon="3.79106">
        <ele>1279</ele>
        <time>2017-03-02T23:33:38Z</time>
      </trkpt>
      <trkpt lat="44.37438" lon="3.79107">
        <ele>1278</ele>
        <time>2017-03-02T23:35:38Z</time>
      </trkpt>
      <trkpt lat="44.37422" lon="3.79109">
        <ele>1278</ele>
        <time>2017-03-02T23:37:38Z</time>
      </trkpt>
      <trkpt lat="44.37409" lon="3.79111">
        <ele>1277</ele>
        <time>2017-03-02T23:39:38Z</time>
      </trkpt>
      <trkpt lat="44.37403" lon="3.79112">
        <ele>1277</ele>
        <time>2017-03-02T23:41:38Z</time>
      </trkpt>
      <trkpt lat="44.37396" lon="3.79111">
        <ele>1277</ele>
        <time>2017-03-02T23:43:38Z</time>
      </trkpt>
      <trkpt lat="44.37391" lon="3.79109">
        <ele>1276</ele>
        <time>2017-03-02T23:45:38Z</time>
      </trkpt>
      <trkpt lat="44.37382" lon="3.79103">
        <ele>1275</ele>
        <time>2017-03-02T23:47:38Z</time>
      </trkpt>
      <trkpt lat="44.37359" lon="3.79086">
        <ele>1271</ele>
        <time>2017-03-02T23:49:38Z</time>
      </trkpt>
      <trkpt lat="44.37335" lon="3.79068">
        <ele>1269</ele>
        <time>2017-03-02T23:51:38Z</time>
      </trkpt>
      <trkpt lat="44.37329" lon="3.79064">
        <ele>1269</ele>
        <time>2017-03-02T23:53:38Z</time>
      </trkpt>
      <trkpt lat="44.37326" lon="3.79059">
        <ele>1269</ele>
        <time>2017-03-02T23:55:38Z</time>
      </trkpt>
      <trkpt lat="44.37314" lon="3.79061">
        <ele>1269</ele>
        <time>2017-03-02T23:57:38Z</time>
      </trkpt>
      <trkpt lat="44.37302" lon="3.79062">
        <ele>1269</ele>
        <time>2017-03-02T23:59:38Z</time>
      </trkpt>
      <trkpt lat="44.37293" lon="3.79063">
        <ele>1269</ele>
        <time>2017-03-03T00:01:38Z</time>
      </trkpt>
      <trkpt lat="44.37284" lon="3.79066">
        <ele>1269</ele>
        <time>2017-03-03T00:03:38Z</time>
      </trkpt>
      <trkpt lat="44.37278" lon="3.79066">
        <ele>1269</ele>
        <time>2017-03-03T00:05:38Z</time>
      </trkpt>
      <trkpt lat="44.37267" lon="3.79065">
        <ele>1269</ele>
        <time>2017-03-03T00:07:38Z</time>
      </trkpt>
      <trkpt lat="44.37257" lon="3.79065">
        <ele>1269</ele>
        <time>2017-03-03T00:09:38Z</time>
      </trkpt>
      <trkpt lat="44.37243" lon="3.79066">
        <ele>1269</ele>
        <time>2017-03-03T00:11:38Z</time>
      </trkpt>
      <trkpt lat="44.37236" lon="3.79065">
        <ele>1269</ele>
        <time>2017-03-03T00:13:38Z</time>
      </trkpt>
      <trkpt lat="44.37228" lon="3.79062">
        <ele>1268</ele>
        <time>2017-03-03T00:15:38Z</time>
      </trkpt>
      <trkpt lat="44.37221" lon="3.79061">
        <ele>1268</ele>
        <time>2017-03-03T00:17:38Z</time>
      </trkpt>
      <trkpt lat="44.37212" lon="3.79061">
        <ele>1268</ele>
        <time>2017-03-03T00:19:38Z</time>
      </trkpt>
      <trkpt lat="44.37198" lon="3.79062">
        <ele>1267</ele>
        <time>2017-03-03T00:21:38Z</time>
      </trkpt>
      <trkpt lat="44.37188" lon="3.79062">
        <ele>1267</ele>
        <time>2017-03-03T00:23:38Z</time>
      </trkpt>
      <trkpt lat="44.37178" lon="3.79062">
        <ele>1267</ele>
        <time>2017-03-03T00:25:38Z</time>
      </trkpt>
      <trkpt lat="44.37171" lon="3.79065">
        <ele>1267</ele>
        <time>2017-03-03T00:27:38Z</time>
      </trkpt>
      <trkpt lat="44.37157" lon="3.79074">
        <ele>1266</ele>
        <time>2017-03-03T00:29:38Z</time>
      </trkpt>
      <trkpt lat="44.37152" lon="3.79077">
        <ele>1265</ele>
        <time>2017-03-03T00:31:38Z</time>
      </trkpt>
      <trkpt lat="44.37151" lon="3.79081">
        <ele>1266</ele>
        <time>2017-03-03T00:33:38Z</time>
      </trkpt>
      <trkpt lat="44.37151" lon="3.79085">
        <ele>1266</ele>
        <time>2017-03-03T00:35:38Z</time>
      </trkpt>
      <trkpt lat="44.37154" lon="3.79095">
        <ele>1267</ele>
        <time>2017-03-03T00:37:38Z</time>
      </trkpt>
      <trkpt lat="44.37163" lon="3.79123">
        <ele>1269</ele>
        <time>2017-03-03T00:39:38Z</time>
      </trkpt>
      <trkpt lat="44.3717" lon="3.7915">
        <ele>1270</ele>
        <time>2017-03-03T00:41:38Z</time>
      </trkpt>
      <trkpt lat="44.37172" lon="3.7916">
        <ele>1271</ele>
        <time>2017-03-03T00:43:38Z</time>
      </trkpt>
      <trkpt lat="44.37172" lon="3.79173">
        <ele>1271</ele>
        <time>2017-03-03T00:45:38Z</time>
      </trkpt>
      <trkpt lat="44.37171" lon="3.79186">
        <ele>1272</ele>
        <time>2017-03-03T00:47:38Z</time>
      </trkpt>
      <trkpt lat="44.37166" lon="3.79209">
        <ele>1272</ele>
        <time>2017-03-03T00:49:38Z</time>
      </trkpt>
      <trkpt lat="44.37158" lon="3.79234">
        <ele>1272</ele>
        <time>2017-03-03T00:51:38Z</time>
      </trkpt>
      <trkpt lat="44.37151" lon="3.7925">
        <ele>1271</ele>
        <time>2017-03-03T00:53:38Z</time>
      </trkpt>
      <trkpt lat="44.37146" lon="3.79268">
        <ele>1272</ele>
        <time>2017-03-03T00:55:38Z</time>
      </trkpt>
      <trkpt lat="44.37144" lon="3.7928">
        <ele>1272</ele>
        <time>2017-03-03T00:57:38Z</time>
      </trkpt>
      <trkpt lat="44.37144" lon="3.79295">
        <ele>1273</ele>
        <time>2017-03-03T00:59:38Z</time>
      </trkpt>
      <trkpt lat="44.37145" lon="3.79312">
        <ele>1275</ele>
        <time>2017-03-03T01:01:38Z</time>
      </trkpt>
      <trkpt lat="44.37147" lon="3.79332">
        <ele>1277</ele>
        <time>2017-03-03T01:03:38Z</time>
      </trkpt>
      <trkpt lat="44.37149" lon="3.79353">
        <ele>1278</ele>
        <time>2017-03-03T01:05:38Z</time>
      </trkpt>
      <trkpt lat="44.37149" lon="3.79371">
        <ele>1278</ele>
        <time>2017-03-03T01:07:38Z</time>
      </trkpt>
      <trkpt lat="44.37148" lon="3.79389">
        <ele>1278</ele>
        <time>2017-03-03T01:09:38Z</time>
      </trkpt>
      <trkpt lat="44.3715" lon="3.79401">
        <ele>1279</ele>
        <time>2017-03-03T01:11:38Z</time>
      </trkpt>
      <trkpt lat="44.37151" lon="3.79411">
        <ele>1279</ele>
        <time>2017-03-03T01:13:38Z</time>
      </trkpt>
      <trkpt lat="44.37151" lon="3.79417">
        <ele>1279</ele>
        <time>2017-03-03T01:15:38Z</time>
      </trkpt>
      <trkpt lat="44.37154" lon="3.79424">
        <ele>1279</ele>
        <time>2017-03-03T01:17:38Z</time>
      </trkpt>
      <trkpt lat="44.3716" lon="3.79442">
        <ele>1279</ele>
        <time>2017-03-03T01:19:38Z</time>
      </trkpt>
      <trkpt lat="44.37164" lon="3.79456">
        <ele>1278</ele>
        <time>2017-03-03T01:21:38Z</time>
      </trkpt>
      <trkpt lat="44.37165" lon="3.79469">
        <ele>1277</ele>
        <time>2017-03-03T01:23:38Z</time>
      </trkpt>
      <trkpt lat="44.37168" lon="3.79479">
        <ele>1277</ele>
        <time>2017-03-03T01:25:38Z</time>
      </trkpt>
      <trkpt lat="44.37172" lon="3.79488">
        <ele>1278</ele>
        <time>2017-03-03T01:27:38Z</time>
      </trkpt>
      <trkpt lat="44.37212" lon="3.79591">
        <ele>1276</ele>
        <time>2017-03-03T01:29:38Z</time>
      </trkpt>
      <trkpt lat="44.37211" lon="3.79591">
        <ele>1276</ele>
        <time>2017-03-03T01:31:38Z</time>
      </trkpt>
      <trkpt lat="44.37211" lon="3.79588">
        <ele>1276</ele>
        <time>2017-03-03T01:33:38Z</time>
      </trkpt>
      <trkpt lat="44.37207" lon="3.79583">
        <ele>1276</ele>
        <time>2017-03-03T01:35:38Z</time>
      </trkpt>
      <trkpt lat="44.37202" lon="3.79583">
        <ele>1275</ele>
        <time>2017-03-03T01:37:38Z</time>
      </trkpt>
      <trkpt lat="44.37194" lon="3.79584">
        <ele>1273</ele>
        <time>2017-03-03T01:39:38Z</time>
      </trkpt>
      <trkpt lat="44.37183" lon="3.79583">
        <ele>1271</ele>
        <time>2017-03-03T01:41:38Z</time>
      </trkpt>
      <trkpt lat="44.37177" lon="3.79582">
        <ele>1269</ele>
        <time>2017-03-03T01:43:38Z</time>
      </trkpt>
      <trkpt lat="44.37163" lon="3.79578">
        <ele>1268</ele>
        <time>2017-03-03T01:45:38Z</time>
      </trkpt>
      <trkpt lat="44.37153" lon="3.79572">
        <ele>1269</ele>
        <time>2017-03-03T01:47:38Z</time>
      </trkpt>
      <trkpt lat="44.37145" lon="3.79565">
        <ele>1269</ele>
        <time>2017-03-03T01:49:38Z</time>
      </trkpt>
      <trkpt lat="44.3714" lon="3.79561">
        <ele>1270</ele>
        <time>2017-03-03T01:51:38Z</time>
      </trkpt>
      <trkpt lat="44.37137" lon="3.79561">
        <ele>1270</ele>
        <time>2017-03-03T01:53:38Z</time>
      </trkpt>
      <trkpt lat="44.37132" lon="3.79565">
        <ele>1270</ele>
        <time>2017-03-03T01:55:38Z</time>
      </trkpt>
      <trkpt lat="44.37125" lon="3.79578">
        <ele>1269</ele>
        <time>2017-03-03T01:57:38Z</time>
      </trkpt>
      <trkpt lat="44.37119" lon="3.79587">
        <ele>1269</ele>
        <time>2017-03-03T01:59:38Z</time>
      </trkpt>
      <trkpt lat="44.37114" lon="3.79591">
        <ele>1270</ele>
        <time>2017-03-03T02:01:38Z</time>
      </trkpt>
      <trkpt lat="44.37107" lon="3.79593">
        <ele>1270</ele>
        <time>2017-03-03T02:03:38Z</time>
      </trkpt>
      <trkpt lat="44.37102" lon="3.79592">
        <ele>1270</ele>
        <time>2017-03-03T02:05:38Z</time>
      </trkpt>
      <trkpt lat="44.37096" lon="3.79589">
        <ele>1270</ele>
        <time>2017-03-03T02:07:38Z</time>
      </trkpt>
      <trkpt lat="44.37087" lon="3.7958">
        <ele>1271</ele>
        <time>2017-03-03T02:09:38Z</time>
      </trkpt>
      <trkpt lat="44.37083" lon="3.79576">
        <ele>1271</ele>
        <time>2017-03-03T02:11:38Z</time>
      </trkpt>
      <trkpt lat="44.3708" lon="3.79572">
        <ele>1272</ele>
        <time>2017-03-03T02:13:38Z</time>
      </trkpt>
      <trkpt lat="44.37077" lon="3.79572">
        <ele>1273</ele>
        <time>2017-03-03T02:15:38Z</time>
      </trkpt>
      <trkpt lat="44.37073" lon="3.79574">
        <ele>1273</ele>
        <time>2017-03-03T02:17:38Z</time>
      </trkpt>
      <trkpt lat="44.37071" lon="3.79576">
        <ele>1274</ele>
        <time>2017-03-03T02:19:38Z</time>
      </trkpt>
      <trkpt lat="44.37063" lon="3.7959">
        <ele>1275</ele>
        <time>2017-03-03T02:21:38Z</time>
      </trkpt>
      <trkpt lat="44.37063" lon="3.7959">
        <ele>1275</ele>
        <time>2017-03-03T02:23:38Z</time>
      </trkpt>
      <trkpt lat="44.37061" lon="3.79598">
        <ele>1275</ele>
        <time>2017-03-03T02:25:38Z</time>
      </trkpt>
      <trkpt lat="44.3706" lon="3.79602">
        <ele>1275</ele>
        <time>2017-03-03T02:27:38Z</time>
      </trkpt>
      <trkpt lat="44.37059" lon="3.79606">
        <ele>1276</ele>
        <time>2017-03-03T02:29:38Z</time>
      </trkpt>
      <trkpt lat="44.37058" lon="3.7961">
        <ele>1276</ele>
        <time>2017-03-03T02:31:38Z</time>
      </trkpt>
      <trkpt lat="44.37055" lon="3.79616">
        <ele>1276</ele>
        <time>2017-03-03T02:33:38Z</time>
      </trkpt>
      <trkpt lat="44.37051" lon="3.79623">
        <ele>1277</ele>
        <time>2017-03-03T02:35:38Z</time>
      </trkpt>
      <trkpt lat="44.37049" lon="3.79627">
        <ele>1277</ele>
        <time>2017-03-03T02:37:38Z</time>
      </trkpt>
      <trkpt lat="44.37045" lon="3.79635">
        <ele>1278</ele>
        <time>2017-03-03T02:39:38Z</time>
      </trkpt>
      <trkpt lat="44.37042" lon="3.79642">
        <ele>1279</ele>
        <time>2017-03-03T02:41:38Z</time>
      </trkpt>
      <trkpt lat="44.37041" lon="3.79647">
        <ele>1279</ele>
        <time>2017-03-03T02:43:38Z</time>
      </trkpt>
      <trkpt lat="44.37034" lon="3.79666">
        <ele>1281</ele>
        <time>2017-03-03T02:45:38Z</time>
      </trkpt>
      <trkpt lat="44.37032" lon="3.79672">
        <ele>1281</ele>
        <time>2017-03-03T02:47:38Z</time>
      </trkpt>
      <trkpt lat="44.37033" lon="3.79678">
        <ele>1281</ele>
        <time>2017-03-03T02:49:38Z</time>
      </trkpt>
      <trkpt lat="44.37036" lon="3.7971">
        <ele>1281</ele>
        <time>2017-03-03T02:51:38Z</time>
      </trkpt>
      <trkpt lat="44.37038" lon="3.79719">
        <ele>1281</ele>
        <time>2017-03-03T02:53:38Z</time>
      </trkpt>
      <trkpt lat="44.3704" lon="3.79725">
        <ele>1281</ele>
        <time>2017-03-03T02:55:38Z</time>
      </trkpt>
      <trkpt lat="44.37039" lon="3.79733">
        <ele>1281</ele>
        <time>2017-03-03T02:57:38Z</time>
      </trkpt>
      <trkpt lat="44.37037" lon="3.79744">
        <ele>1282</ele>
        <time>2017-03-03T02:59:38Z</time>
      </trkpt>
      <trkpt lat="44.37036" lon="3.7975">
        <ele>1283</ele>
        <time>2017-03-03T03:01:38Z</time>
      </trkpt>
      <trkpt lat="44.37033" lon="3.79761">
        <ele>1284</ele>
        <time>2017-03-03T03:03:38Z</time>
      </trkpt>
      <trkpt lat="44.37017" lon="3.79808">
        <ele>1289</ele>
        <time>2017-03-03T03:05:38Z</time>
      </trkpt>
      <trkpt lat="44.37016" lon="3.79812">
        <ele>1290</ele>
        <time>2017-03-03T03:07:38Z</time>
      </trkpt>
      <trkpt lat="44.37011" lon="3.79822">
        <ele>1291</ele>
        <time>2017-03-03T03:09:38Z</time>
      </trkpt>
      <trkpt lat="44.37009" lon="3.7983">
        <ele>1292</ele>
        <time>2017-03-03T03:11:38Z</time>
      </trkpt>
      <trkpt lat="44.37009" lon="3.79834">
        <ele>1292</ele>
        <time>2017-03-03T03:13:38Z</time>
      </trkpt>
      <trkpt lat="44.37011" lon="3.79843">
        <ele>1292</ele>
        <time>2017-03-03T03:15:38Z</time>
      </trkpt>
      <trkpt lat="44.37011" lon="3.79849">
        <ele>1293</ele>
        <time>2017-03-03T03:17:38Z</time>
      </trkpt>
      <trkpt lat="44.37011" lon="3.79853">
        <ele>1293</ele>
        <time>2017-03-03T03:19:38Z</time>
      </trkpt>
      <trkpt lat="44.3701" lon="3.79862">
        <ele>1293</ele>
        <time>2017-03-03T03:21:38Z</time>
      </trkpt>
      <trkpt lat="44.3701" lon="3.79869">
        <ele>1294</ele>
        <time>2017-03-03T03:23:38Z</time>
      </trkpt>
      <trkpt lat="44.37011" lon="3.79874">
        <ele>1294</ele>
        <time>2017-03-03T03:25:38Z</time>
      </trkpt>
      <trkpt lat="44.3701" lon="3.79882">
        <ele>1294</ele>
        <time>2017-03-03T03:27:38Z</time>
      </trkpt>
      <trkpt lat="44.37008" lon="3.79888">
        <ele>1295</ele>
        <time>2017-03-03T03:29:38Z</time>
      </trkpt>
      <trkpt lat="44.37005" lon="3.79895">
        <ele>1295</ele>
        <time>2017-03-03T03:31:38Z</time>
      </trkpt>
      <trkpt lat="44.37001" lon="3.79902">
        <ele>1296</ele>
        <time>2017-03-03T03:33:38Z</time>
      </trkpt>
      <trkpt lat="44.36997" lon="3.79908">
        <ele>1297</ele>
        <time>2017-03-03T03:35:38Z</time>
      </trkpt>
      <trkpt lat="44.36995" lon="3.79913">
        <ele>1298</ele>
        <time>2017-03-03T03:37:38Z</time>
      </trkpt>
      <trkpt lat="44.36991" lon="3.79921">
        <ele>1300</ele>
        <time>2017-03-03T03:39:38Z</time>
      </trkpt>
      <trkpt lat="44.36988" lon="3.79931">
        <ele>1301</ele>
        <time>2017-03-03T03:41:38Z</time>
      </trkpt>
      <trkpt lat="44.36987" lon="3.79937">
        <ele>1302</ele>
        <time>2017-03-03T03:43:38Z</time>
      </trkpt>
      <trkpt lat="44.36985" lon="3.79948">
        <ele>1304</ele>
        <time>2017-03-03T03:45:38Z</time>
      </trkpt>
      <trkpt lat="44.36984" lon="3.7996">
        <ele>1305</ele>
        <time>2017-03-03T03:47:38Z</time>
      </trkpt>
      <trkpt lat="44.36984" lon="3.7997">
        <ele>1306</ele>
        <time>2017-03-03T03:49:38Z</time>
      </trkpt>
      <trkpt lat="44.36983" lon="3.79982">
        <ele>1307</ele>
        <time>2017-03-03T03:51:38Z</time>
      </trkpt>
      <trkpt lat="44.36983" lon="3.79991">
        <ele>1308</ele>
        <time>2017-03-03T03:53:38Z</time>
      </trkpt>
      <trkpt lat="44.36984" lon="3.80001">
        <ele>1309</ele>
        <time>2017-03-03T03:55:38Z</time>
      </trkpt>
      <trkpt lat="44.36986" lon="3.8001">
        <ele>1309</ele>
        <time>2017-03-03T03:57:38Z</time>
      </trkpt>
      <trkpt lat="44.36987" lon="3.80014">
        <ele>1309</ele>
        <time>2017-03-03T03:59:38Z</time>
      </trkpt>
      <trkpt lat="44.36986" lon="3.80025">
        <ele>1310</ele>
        <time>2017-03-03T04:01:38Z</time>
      </trkpt>
      <trkpt lat="44.37021" lon="3.80108">
        <ele>1311</ele>
        <time>2017-03-03T04:03:38Z</time>
      </trkpt>
      <trkpt lat="44.37028" lon="3.80124">
        <ele>1312</ele>
        <time>2017-03-03T04:05:38Z</time>
      </trkpt>
      <trkpt lat="44.37035" lon="3.80134">
        <ele>1312</ele>
        <time>2017-03-03T04:07:38Z</time>
      </trkpt>
      <trkpt lat="44.37042" lon="3.80143">
        <ele>1311</ele>
        <time>2017-03-03T04:09:38Z</time>
      </trkpt>
      <trkpt lat="44.37051" lon="3.80154">
        <ele>1311</ele>
        <time>2017-03-03T04:11:38Z</time>
      </trkpt>
      <trkpt lat="44.37058" lon="3.80161">
        <ele>1310</ele>
        <time>2017-03-03T04:13:38Z</time>
      </trkpt>
      <trkpt lat="44.3707" lon="3.80177">
        <ele>1310</ele>
        <time>2017-03-03T04:15:38Z</time>
      </trkpt>
      <trkpt lat="44.37082" lon="3.80192">
        <ele>1310</ele>
        <time>2017-03-03T04:17:38Z</time>
      </trkpt>
      <trkpt lat="44.37104" lon="3.80219">
        <ele>1311</ele>
        <time>2017-03-03T04:19:38Z</time>
      </trkpt>
      <trkpt lat="44.3712" lon="3.80246">
        <ele>1312</ele>
        <time>2017-03-03T04:21:38Z</time>
      </trkpt>
      <trkpt lat="44.37131" lon="3.80272">
        <ele>1313</ele>
        <time>2017-03-03T04:23:38Z</time>
      </trkpt>
      <trkpt lat="44.37141" lon="3.80298">
        <ele>1314</ele>
        <time>2017-03-03T04:25:38Z</time>
      </trkpt>
      <trkpt lat="44.37145" lon="3.80322">
        <ele>1316</ele>
        <time>2017-03-03T04:27:38Z</time>
      </trkpt>
      <trkpt lat="44.37151" lon="3.80345">
        <ele>1318</ele>
        <time>2017-03-03T04:29:38Z</time>
      </trkpt>
      <trkpt lat="44.37159" lon="3.80364">
        <ele>1318</ele>
        <time>2017-03-03T04:31:38Z</time>
      </trkpt>
      <trkpt lat="44.37171" lon="3.80384">
        <ele>1319</ele>
        <time>2017-03-03T04:33:38Z</time>
      </trkpt>
      <trkpt lat="44.37178" lon="3.80401">
        <ele>1321</ele>
        <time>2017-03-03T04:35:38Z</time>
      </trkpt>
      <trkpt lat="44.37185" lon="3.80422">
        <ele>1323</ele>
        <time>2017-03-03T04:37:38Z</time>
      </trkpt>
      <trkpt lat="44.37188" lon="3.80437">
        <ele>1324</ele>
        <time>2017-03-03T04:39:38Z</time>
      </trkpt>
      <trkpt lat="44.3719" lon="3.80455">
        <ele>1325</ele>
        <time>2017-03-03T04:41:38Z</time>
      </trkpt>
      <trkpt lat="44.37192" lon="3.80476">
        <ele>1326</ele>
        <time>2017-03-03T04:43:38Z</time>
      </trkpt>
      <trkpt lat="44.37196" lon="3.80502">
        <ele>1327</ele>
        <time>2017-03-03T04:45:38Z</time>
      </trkpt>
      <trkpt lat="44.37202" lon="3.80534">
        <ele>1327</ele>
        <time>2017-03-03T04:47:38Z</time>
      </trkpt>
      <trkpt lat="44.37208" lon="3.80564">
        <ele>1326</ele>
        <time>2017-03-03T04:49:38Z</time>
      </trkpt>
      <trkpt lat="44.3721" lon="3.80581">
        <ele>1326</ele>
        <time>2017-03-03T04:51:38Z</time>
      </trkpt>
      <trkpt lat="44.3721" lon="3.80585">
        <ele>1326</ele>
        <time>2017-03-03T04:53:38Z</time>
      </trkpt>
      <trkpt lat="44.37209" lon="3.80588">
        <ele>1326</ele>
        <time>2017-03-03T04:55:38Z</time>
      </trkpt>
      <trkpt lat="44.37208" lon="3.8059">
        <ele>1326</ele>
        <time>2017-03-03T04:57:38Z</time>
      </trkpt>
      <trkpt lat="44.37206" lon="3.80592">
        <ele>1326</ele>
        <time>2017-03-03T04:59:38Z</time>
      </trkpt>
      <trkpt lat="44.37199" lon="3.80601">
        <ele>1326</ele>
        <time>2017-03-03T05:01:38Z</time>
      </trkpt>
      <trkpt lat="44.37194" lon="3.80612">
        <ele>1326</ele>
        <time>2017-03-03T05:03:38Z</time>
      </trkpt>
      <trkpt lat="44.37192" lon="3.80628">
        <ele>1326</ele>
        <time>2017-03-03T05:05:38Z</time>
      </trkpt>
      <trkpt lat="44.37191" lon="3.80636">
        <ele>1326</ele>
        <time>2017-03-03T05:07:38Z</time>
      </trkpt>
      <trkpt lat="44.37191" lon="3.80642">
        <ele>1326</ele>
        <time>2017-03-03T05:09:38Z</time>
      </trkpt>
      <trkpt lat="44.3719" lon="3.8065">
        <ele>1326</ele>
        <time>2017-03-03T05:11:38Z</time>
      </trkpt>
      <trkpt lat="44.37187" lon="3.80657">
        <ele>1326</ele>
        <time>2017-03-03T05:13:38Z</time>
      </trkpt>
      <trkpt lat="44.37179" lon="3.80673">
        <ele>1326</ele>
        <time>2017-03-03T05:15:38Z</time>
      </trkpt>
      <trkpt lat="44.3717" lon="3.80689">
        <ele>1325</ele>
        <time>2017-03-03T05:17:38Z</time>
      </trkpt>
      <trkpt lat="44.37157" lon="3.80703">
        <ele>1325</ele>
        <time>2017-03-03T05:19:38Z</time>
      </trkpt>
      <trkpt lat="44.37142" lon="3.80717">
        <ele>1325</ele>
        <time>2017-03-03T05:21:38Z</time>
      </trkpt>
      <trkpt lat="44.37135" lon="3.80727">
        <ele>1325</ele>
        <time>2017-03-03T05:23:38Z</time>
      </trkpt>
      <trkpt lat="44.3713" lon="3.80742">
        <ele>1323</ele>
        <time>2017-03-03T05:25:38Z</time>
      </trkpt>
      <trkpt lat="44.37127" lon="3.80749">
        <ele>1323</ele>
        <time>2017-03-03T05:27:38Z</time>
      </trkpt>
      <trkpt lat="44.37127" lon="3.80749">
        <ele>1323</ele>
        <time>2017-03-03T05:29:38Z</time>
      </trkpt>
      <trkpt lat="44.37122" lon="3.80759">
        <ele>1322</ele>
        <time>2017-03-03T05:31:38Z</time>
      </trkpt>
      <trkpt lat="44.37122" lon="3.80761">
        <ele>1322</ele>
        <time>2017-03-03T05:33:38Z</time>
      </trkpt>
      <trkpt lat="44.37121" lon="3.80765">
        <ele>1322</ele>
        <time>2017-03-03T05:35:38Z</time>
      </trkpt>
      <trkpt lat="44.37121" lon="3.80768">
        <ele>1322</ele>
        <time>2017-03-03T05:37:38Z</time>
      </trkpt>
      <trkpt lat="44.37121" lon="3.80771">
        <ele>1322</ele>
        <time>2017-03-03T05:39:38Z</time>
      </trkpt>
      <trkpt lat="44.37121" lon="3.80777">
        <ele>1322</ele>
        <time>2017-03-03T05:41:38Z</time>
      </trkpt>
      <trkpt lat="44.37121" lon="3.80784">
        <ele>1322</ele>
        <time>2017-03-03T05:43:38Z</time>
      </trkpt>
      <trkpt lat="44.3712" lon="3.80789">
        <ele>1321</ele>
        <time>2017-03-03T05:45:38Z</time>
      </trkpt>
      <trkpt lat="44.37118" lon="3.80794">
        <ele>1321</ele>
        <time>2017-03-03T05:47:38Z</time>
      </trkpt>
      <trkpt lat="44.37116" lon="3.80798">
        <ele>1321</ele>
        <time>2017-03-03T05:49:38Z</time>
      </trkpt>
      <trkpt lat="44.37114" lon="3.80801">
        <ele>1321</ele>
        <time>2017-03-03T05:51:38Z</time>
      </trkpt>
      <trkpt lat="44.37109" lon="3.80806">
        <ele>1321</ele>
        <time>2017-03-03T05:53:38Z</time>
      </trkpt>
      <trkpt lat="44.37106" lon="3.80809">
        <ele>1321</ele>
        <time>2017-03-03T05:55:38Z</time>
      </trkpt>
      <trkpt lat="44.37104" lon="3.80811">
        <ele>1321</ele>
        <time>2017-03-03T05:57:38Z</time>
      </trkpt>
      <trkpt lat="44.37103" lon="3.80814">
        <ele>1321</ele>
        <time>2017-03-03T05:59:38Z</time>
      </trkpt>
      <trkpt lat="44.37102" lon="3.80816">
        <ele>1321</ele>
        <time>2017-03-03T06:01:38Z</time>
      </trkpt>
      <trkpt lat="44.37096" lon="3.80833">
        <ele>1320</ele>
        <time>2017-03-03T06:03:38Z</time>
      </trkpt>
      <trkpt lat="44.37088" lon="3.80851">
        <ele>1320</ele>
        <time>2017-03-03T06:05:38Z</time>
      </trkpt>
      <trkpt lat="44.37086" lon="3.80857">
        <ele>1320</ele>
        <time>2017-03-03T06:07:38Z</time>
      </trkpt>
      <trkpt lat="44.37084" lon="3.8086">
        <ele>1320</ele>
        <time>2017-03-03T06:09:38Z</time>
      </trkpt>
      <trkpt lat="44.37083" lon="3.80862">
        <ele>1320</ele>
        <time>2017-03-03T06:11:38Z</time>
      </trkpt>
      <trkpt lat="44.37075" lon="3.80868">
        <ele>1320</ele>
        <time>2017-03-03T06:13:38Z</time>
      </trkpt>
      <trkpt lat="44.37072" lon="3.80873">
        <ele>1320</ele>
        <time>2017-03-03T06:15:38Z</time>
      </trkpt>
      <trkpt lat="44.37062" lon="3.80885">
        <ele>1320</ele>
        <time>2017-03-03T06:17:38Z</time>
      </trkpt>
      <trkpt lat="44.37057" lon="3.80888">
        <ele>1321</ele>
        <time>2017-03-03T06:19:38Z</time>
      </trkpt>
      <trkpt lat="44.37051" lon="3.80892">
        <ele>1321</ele>
        <time>2017-03-03T06:21:38Z</time>
      </trkpt>
      <trkpt lat="44.37044" lon="3.80899">
        <ele>1321</ele>
        <time>2017-03-03T06:23:38Z</time>
      </trkpt>
      <trkpt lat="44.3704" lon="3.80901">
        <ele>1321</ele>
        <time>2017-03-03T06:25:38Z</time>
      </trkpt>
      <trkpt lat="44.3703" lon="3.80908">
        <ele>1321</ele>
        <time>2017-03-03T06:27:38Z</time>
      </trkpt>
      <trkpt lat="44.3702" lon="3.80916">
        <ele>1321</ele>
        <time>2017-03-03T06:29:38Z</time>
      </trkpt>
      <trkpt lat="44.37016" lon="3.8092">
        <ele>1321</ele>
        <time>2017-03-03T06:31:38Z</time>
      </trkpt>
      <trkpt lat="44.37016" lon="3.80921">
        <ele>1321</ele>
        <time>2017-03-03T06:33:38Z</time>
      </trkpt>
      <trkpt lat="44.37015" lon="3.80922">
        <ele>1321</ele>
        <time>2017-03-03T06:35:38Z</time>
      </trkpt>
      <trkpt lat="44.37015" lon="3.80923">
        <ele>1321</ele>
        <time>2017-03-03T06:37:38Z</time>
      </trkpt>
      <trkpt lat="44.37015" lon="3.80924">
        <ele>1321</ele>
        <time>2017-03-03T06:39:38Z</time>
      </trkpt>
      <trkpt lat="44.37015" lon="3.80926">
        <ele>1321</ele>
        <time>2017-03-03T06:41:38Z</time>
      </trkpt>
      <trkpt lat="44.37016" lon="3.80927">
        <ele>1321</ele>
        <time>2017-03-03T06:43:38Z</time>
      </trkpt>
      <trkpt lat="44.37017" lon="3.80928">
        <ele>1321</ele>
        <time>2017-03-03T06:45:38Z</time>
      </trkpt>
      <trkpt lat="44.37017" lon="3.80929">
        <ele>1321</ele>
        <time>2017-03-03T06:47:38Z</time>
      </trkpt>
      <trkpt lat="44.37018" lon="3.80931">
        <ele>1321</ele>
        <time>2017-03-03T06:49:38Z</time>
      </trkpt>
      <trkpt lat="44.37018" lon="3.80932">
        <ele>1321</ele>
        <time>2017-03-03T06:51:38Z</time>
      </trkpt>
      <trkpt lat="44.37018" lon="3.80935">
        <ele>1321</ele>
        <time>2017-03-03T06:53:38Z</time>
      </trkpt>
      <trkpt lat="44.37013" lon="3.80964">
        <ele>1321</ele>
        <time>2017-03-03T06:55:38Z</time>
      </trkpt>
      <trkpt lat="44.37012" lon="3.80983">
        <ele>1321</ele>
        <time>2017-03-03T06:57:38Z</time>
      </trkpt>
      <trkpt lat="44.37012" lon="3.80993">
        <ele>1321</ele>
        <time>2017-03-03T06:59:38Z</time>
      </trkpt>
      <trkpt lat="44.37012" lon="3.81">
        <ele>1321</ele>
        <time>2017-03-03T07:01:38Z</time>
      </trkpt>
      <trkpt lat="44.37012" lon="3.81007">
        <ele>1321</ele>
        <time>2017-03-03T07:03:38Z</time>
      </trkpt>
      <trkpt lat="44.37011" lon="3.81012">
        <ele>1321</ele>
        <time>2017-03-03T07:05:38Z</time>
      </trkpt>
      <trkpt lat="44.37006" lon="3.81029">
        <ele>1321</ele>
        <time>2017-03-03T07:07:38Z</time>
      </trkpt>
      <trkpt lat="44.37005" lon="3.81038">
        <ele>1321</ele>
        <time>2017-03-03T07:09:38Z</time>
      </trkpt>
      <trkpt lat="44.37005" lon="3.81049">
        <ele>1320</ele>
        <time>2017-03-03T07:11:38Z</time>
      </trkpt>
      <trkpt lat="44.37005" lon="3.81061">
        <ele>1320</ele>
        <time>2017-03-03T07:13:38Z</time>
      </trkpt>
      <trkpt lat="44.37006" lon="3.81068">
        <ele>1320</ele>
        <time>2017-03-03T07:15:38Z</time>
      </trkpt>
      <trkpt lat="44.37008" lon="3.81074">
        <ele>1320</ele>
        <time>2017-03-03T07:17:38Z</time>
      </trkpt>
      <trkpt lat="44.37008" lon="3.81081">
        <ele>1320</ele>
        <time>2017-03-03T07:19:38Z</time>
      </trkpt>
      <trkpt lat="44.37009" lon="3.81086">
        <ele>1320</ele>
        <time>2017-03-03T07:21:38Z</time>
      </trkpt>
      <trkpt lat="44.37009" lon="3.81093">
        <ele>1320</ele>
        <time>2017-03-03T07:23:38Z</time>
      </trkpt>
      <trkpt lat="44.37008" lon="3.81099">
        <ele>1321</ele>
        <time>2017-03-03T07:25:38Z</time>
      </trkpt>
      <trkpt lat="44.37008" lon="3.81105">
        <ele>1321</ele>
        <time>2017-03-03T07:27:38Z</time>
      </trkpt>
      <trkpt lat="44.37009" lon="3.81112">
        <ele>1321</ele>
        <time>2017-03-03T07:29:38Z</time>
      </trkpt>
      <trkpt lat="44.37009" lon="3.81117">
        <ele>1321</ele>
        <time>2017-03-03T07:31:38Z</time>
      </trkpt>
      <trkpt lat="44.37008" lon="3.81121">
        <ele>1321</ele>
        <time>2017-03-03T07:33:38Z</time>
      </trkpt>
      <trkpt lat="44.37008" lon="3.81123">
        <ele>1321</ele>
        <time>2017-03-03T07:35:38Z</time>
      </trkpt>
      <trkpt lat="44.37008" lon="3.81126">
        <ele>1321</ele>
        <time>2017-03-03T07:37:38Z</time>
      </trkpt>
      <trkpt lat="44.37007" lon="3.81129">
        <ele>1321</ele>
        <time>2017-03-03T07:39:38Z</time>
      </trkpt>
      <trkpt lat="44.37006" lon="3.81133">
        <ele>1321</ele>
        <time>2017-03-03T07:41:38Z</time>
      </trkpt>
      <trkpt lat="44.37003" lon="3.81152">
        <ele>1322</ele>
        <time>2017-03-03T07:43:38Z</time>
      </trkpt>
      <trkpt lat="44.36998" lon="3.81177">
        <ele>1322</ele>
        <time>2017-03-03T07:45:38Z</time>
      </trkpt>
      <trkpt lat="44.36998" lon="3.81178">
        <ele>1322</ele>
        <time>2017-03-03T07:47:38Z</time>
      </trkpt>
      <trkpt lat="44.36997" lon="3.8118">
        <ele>1322</ele>
        <time>2017-03-03T07:49:38Z</time>
      </trkpt>
      <trkpt lat="44.36997" lon="3.81181">
        <ele>1322</ele>
        <time>2017-03-03T07:51:38Z</time>
      </trkpt>
      <trkpt lat="44.36996" lon="3.81182">
        <ele>1322</ele>
        <time>2017-03-03T07:53:38Z</time>
      </trkpt>
      <trkpt lat="44.36996" lon="3.81184">
        <ele>1322</ele>
        <time>2017-03-03T07:55:38Z</time>
      </trkpt>
      <trkpt lat="44.36995" lon="3.81186">
        <ele>1322</ele>
        <time>2017-03-03T07:57:38Z</time>
      </trkpt>
      <trkpt lat="44.36995" lon="3.81202">
        <ele>1322</ele>
        <time>2017-03-03T07:59:38Z</time>
      </trkpt>
      <trkpt lat="44.36994" lon="3.81205">
        <ele>1322</ele>
        <time>2017-03-03T08:01:38Z</time>
      </trkpt>
      <trkpt lat="44.36991" lon="3.81208">
        <ele>1322</ele>
        <time>2017-03-03T08:03:38Z</time>
      </trkpt>
      <trkpt lat="44.36987" lon="3.81211">
        <ele>1322</ele>
        <time>2017-03-03T08:05:38Z</time>
      </trkpt>
      <trkpt lat="44.3698" lon="3.81217">
        <ele>1322</ele>
        <time>2017-03-03T08:07:38Z</time>
      </trkpt>
      <trkpt lat="44.36973" lon="3.8122">
        <ele>1322</ele>
        <time>2017-03-03T08:09:38Z</time>
      </trkpt>
      <trkpt lat="44.36969" lon="3.81221">
        <ele>1323</ele>
        <time>2017-03-03T08:11:38Z</time>
      </trkpt>
      <trkpt lat="44.36962" lon="3.81224">
        <ele>1323</ele>
        <time>2017-03-03T08:13:38Z</time>
      </trkpt>
      <trkpt lat="44.36959" lon="3.81224">
        <ele>1323</ele>
        <time>2017-03-03T08:15:38Z</time>
      </trkpt>
      <trkpt lat="44.36957" lon="3.81225">
        <ele>1323</ele>
        <time>2017-03-03T08:17:38Z</time>
      </trkpt>
      <trkpt lat="44.36954" lon="3.81227">
        <ele>1323</ele>
        <time>2017-03-03T08:19:38Z</time>
      </trkpt>
      <trkpt lat="44.36952" lon="3.8123">
        <ele>1323</ele>
        <time>2017-03-03T08:21:38Z</time>
      </trkpt>
      <trkpt lat="44.36946" lon="3.81237">
        <ele>1323</ele>
        <time>2017-03-03T08:23:38Z</time>
      </trkpt>
      <trkpt lat="44.36941" lon="3.81243">
        <ele>1323</ele>
        <time>2017-03-03T08:25:38Z</time>
      </trkpt>
      <trkpt lat="44.36938" lon="3.81246">
        <ele>1323</ele>
        <time>2017-03-03T08:27:38Z</time>
      </trkpt>
      <trkpt lat="44.36933" lon="3.8125">
        <ele>1323</ele>
        <time>2017-03-03T08:29:38Z</time>
      </trkpt>
      <trkpt lat="44.36921" lon="3.81257">
        <ele>1323</ele>
        <time>2017-03-03T08:31:38Z</time>
      </trkpt>
      <trkpt lat="44.36915" lon="3.81261">
        <ele>1323</ele>
        <time>2017-03-03T08:33:38Z</time>
      </trkpt>
      <trkpt lat="44.3691" lon="3.81267">
        <ele>1323</ele>
        <time>2017-03-03T08:35:38Z</time>
      </trkpt>
      <trkpt lat="44.36897" lon="3.81282">
        <ele>1324</ele>
        <time>2017-03-03T08:37:38Z</time>
      </trkpt>
      <trkpt lat="44.36894" lon="3.81284">
        <ele>1325</ele>
        <time>2017-03-03T08:39:38Z</time>
      </trkpt>
      <trkpt lat="44.36891" lon="3.81285">
        <ele>1325</ele>
        <time>2017-03-03T08:41:38Z</time>
      </trkpt>
      <trkpt lat="44.36887" lon="3.81284">
        <ele>1325</ele>
        <time>2017-03-03T08:43:38Z</time>
      </trkpt>
      <trkpt lat="44.36884" lon="3.8129">
        <ele>1325</ele>
        <time>2017-03-03T08:45:38Z</time>
      </trkpt>
      <trkpt lat="44.36882" lon="3.81295">
        <ele>1325</ele>
        <time>2017-03-03T08:47:38Z</time>
      </trkpt>
      <trkpt lat="44.36879" lon="3.81301">
        <ele>1325</ele>
        <time>2017-03-03T08:49:38Z</time>
      </trkpt>
      <trkpt lat="44.36875" lon="3.81307">
        <ele>1325</ele>
        <time>2017-03-03T08:51:38Z</time>
      </trkpt>
      <trkpt lat="44.36872" lon="3.81313">
        <ele>1325</ele>
        <time>2017-03-03T08:53:38Z</time>
      </trkpt>
      <trkpt lat="44.3687" lon="3.81317">
        <ele>1325</ele>
        <time>2017-03-03T08:55:38Z</time>
      </trkpt>
      <trkpt lat="44.36867" lon="3.81323">
        <ele>1325</ele>
        <time>2017-03-03T08:57:38Z</time>
      </trkpt>
      <trkpt lat="44.36865" lon="3.81327">
        <ele>1325</ele>
        <time>2017-03-03T08:59:38Z</time>
      </trkpt>
      <trkpt lat="44.36863" lon="3.8133">
        <ele>1325</ele>
        <time>2017-03-03T09:01:38Z</time>
      </trkpt>
      <trkpt lat="44.3686" lon="3.81333">
        <ele>1325</ele>
        <time>2017-03-03T09:03:38Z</time>
      </trkpt>
      <trkpt lat="44.36857" lon="3.81335">
        <ele>1325</ele>
        <time>2017-03-03T09:05:38Z</time>
      </trkpt>
      <trkpt lat="44.36854" lon="3.81337">
        <ele>1325</ele>
        <time>2017-03-03T09:07:38Z</time>
      </trkpt>
      <trkpt lat="44.3685" lon="3.81344">
        <ele>1325</ele>
        <time>2017-03-03T09:09:38Z</time>
      </trkpt>
      <trkpt lat="44.36848" lon="3.81347">
        <ele>1325</ele>
        <time>2017-03-03T09:11:38Z</time>
      </trkpt>
      <trkpt lat="44.36844" lon="3.81349">
        <ele>1325</ele>
        <time>2017-03-03T09:13:38Z</time>
      </trkpt>
      <trkpt lat="44.36844" lon="3.8135">
        <ele>1325</ele>
        <time>2017-03-03T09:15:38Z</time>
      </trkpt>
      <trkpt lat="44.36843" lon="3.81352">
        <ele>1326</ele>
        <time>2017-03-03T09:17:38Z</time>
      </trkpt>
      <trkpt lat="44.36842" lon="3.81357">
        <ele>1326</ele>
        <time>2017-03-03T09:19:38Z</time>
      </trkpt>
      <trkpt lat="44.36838" lon="3.81361">
        <ele>1326</ele>
        <time>2017-03-03T09:21:38Z</time>
      </trkpt>
      <trkpt lat="44.36836" lon="3.81364">
        <ele>1326</ele>
        <time>2017-03-03T09:23:38Z</time>
      </trkpt>
      <trkpt lat="44.36835" lon="3.81371">
        <ele>1326</ele>
        <time>2017-03-03T09:25:38Z</time>
      </trkpt>
      <trkpt lat="44.36835" lon="3.81378">
        <ele>1326</ele>
        <time>2017-03-03T09:27:38Z</time>
      </trkpt>
      <trkpt lat="44.36834" lon="3.81382">
        <ele>1326</ele>
        <time>2017-03-03T09:29:38Z</time>
      </trkpt>
      <trkpt lat="44.36833" lon="3.81386">
        <ele>1326</ele>
        <time>2017-03-03T09:31:38Z</time>
      </trkpt>
      <trkpt lat="44.36832" lon="3.81392">
        <ele>1326</ele>
        <time>2017-03-03T09:33:38Z</time>
      </trkpt>
      <trkpt lat="44.36829" lon="3.81423">
        <ele>1327</ele>
        <time>2017-03-03T09:35:38Z</time>
      </trkpt>
      <trkpt lat="44.3683" lon="3.81429">
        <ele>1327</ele>
        <time>2017-03-03T09:37:38Z</time>
      </trkpt>
      <trkpt lat="44.36833" lon="3.8145">
        <ele>1326</ele>
        <time>2017-03-03T09:39:38Z</time>
      </trkpt>
      <trkpt lat="44.36834" lon="3.8146">
        <ele>1326</ele>
        <time>2017-03-03T09:41:38Z</time>
      </trkpt>
      <trkpt lat="44.36833" lon="3.81464">
        <ele>1327</ele>
        <time>2017-03-03T09:43:38Z</time>
      </trkpt>
      <trkpt lat="44.36831" lon="3.81467">
        <ele>1327</ele>
        <time>2017-03-03T09:45:38Z</time>
      </trkpt>
      <trkpt lat="44.36831" lon="3.8147">
        <ele>1327</ele>
        <time>2017-03-03T09:47:38Z</time>
      </trkpt>
      <trkpt lat="44.36832" lon="3.81473">
        <ele>1327</ele>
        <time>2017-03-03T09:49:38Z</time>
      </trkpt>
      <trkpt lat="44.36834" lon="3.81476">
        <ele>1327</ele>
        <time>2017-03-03T09:51:38Z</time>
      </trkpt>
      <trkpt lat="44.3684" lon="3.81481">
        <ele>1326</ele>
        <time>2017-03-03T09:53:38Z</time>
      </trkpt>
      <trkpt lat="44.36852" lon="3.81493">
        <ele>1325</ele>
        <time>2017-03-03T09:55:38Z</time>
      </trkpt>
      <trkpt lat="44.36855" lon="3.81505">
        <ele>1325</ele>
        <time>2017-03-03T09:57:38Z</time>
      </trkpt>
      <trkpt lat="44.36859" lon="3.8151">
        <ele>1325</ele>
        <time>2017-03-03T09:59:38Z</time>
      </trkpt>
      <trkpt lat="44.36878" lon="3.81529">
        <ele>1324</ele>
        <time>2017-03-03T10:01:38Z</time>
      </trkpt>
      <trkpt lat="44.36884" lon="3.81533">
        <ele>1324</ele>
        <time>2017-03-03T10:03:38Z</time>
      </trkpt>
      <trkpt lat="44.36907" lon="3.81542">
        <ele>1322</ele>
        <time>2017-03-03T10:05:38Z</time>
      </trkpt>
      <trkpt lat="44.36919" lon="3.81551">
        <ele>1322</ele>
        <time>2017-03-03T10:07:38Z</time>
      </trkpt>
      <trkpt lat="44.37009" lon="3.81599">
        <ele>1324</ele>
        <time>2017-03-03T10:09:38Z</time>
      </trkpt>
      <trkpt lat="44.37014" lon="3.81601">
        <ele>1324</ele>
        <time>2017-03-03T10:11:38Z</time>
      </trkpt>
      <trkpt lat="44.37018" lon="3.81605">
        <ele>1324</ele>
        <time>2017-03-03T10:13:38Z</time>
      </trkpt>
      <trkpt lat="44.3702" lon="3.81607">
        <ele>1324</ele>
        <time>2017-03-03T10:15:38Z</time>
      </trkpt>
      <trkpt lat="44.37021" lon="3.81609">
        <ele>1324</ele>
        <time>2017-03-03T10:17:38Z</time>
      </trkpt>
      <trkpt lat="44.37023" lon="3.8161">
        <ele>1324</ele>
        <time>2017-03-03T10:19:38Z</time>
      </trkpt>
      <trkpt lat="44.37024" lon="3.81613">
        <ele>1324</ele>
        <time>2017-03-03T10:21:38Z</time>
      </trkpt>
      <trkpt lat="44.37024" lon="3.81615">
        <ele>1324</ele>
        <time>2017-03-03T10:23:38Z</time>
      </trkpt>
      <trkpt lat="44.37026" lon="3.81624">
        <ele>1324</ele>
        <time>2017-03-03T10:25:38Z</time>
      </trkpt>
      <trkpt lat="44.37028" lon="3.81628">
        <ele>1324</ele>
        <time>2017-03-03T10:27:38Z</time>
      </trkpt>
      <trkpt lat="44.3703" lon="3.81631">
        <ele>1324</ele>
        <time>2017-03-03T10:29:38Z</time>
      </trkpt>
      <trkpt lat="44.37035" lon="3.81634">
        <ele>1324</ele>
        <time>2017-03-03T10:31:38Z</time>
      </trkpt>
      <trkpt lat="44.37041" lon="3.81638">
        <ele>1324</ele>
        <time>2017-03-03T10:33:38Z</time>
      </trkpt>
      <trkpt lat="44.37058" lon="3.81646">
        <ele>1324</ele>
        <time>2017-03-03T10:35:38Z</time>
      </trkpt>
      <trkpt lat="44.37077" lon="3.81655">
        <ele>1324</ele>
        <time>2017-03-03T10:37:38Z</time>
      </trkpt>
      <trkpt lat="44.3708" lon="3.81656">
        <ele>1324</ele>
        <time>2017-03-03T10:39:38Z</time>
      </trkpt>
      <trkpt lat="44.37083" lon="3.81657">
        <ele>1324</ele>
        <time>2017-03-03T10:41:38Z</time>
      </trkpt>
      <trkpt lat="44.37084" lon="3.81659">
        <ele>1324</ele>
        <time>2017-03-03T10:43:38Z</time>
      </trkpt>
      <trkpt lat="44.37085" lon="3.81661">
        <ele>1324</ele>
        <time>2017-03-03T10:45:38Z</time>
      </trkpt>
      <trkpt lat="44.37086" lon="3.81664">
        <ele>1324</ele>
        <time>2017-03-03T10:47:38Z</time>
      </trkpt>
      <trkpt lat="44.37087" lon="3.81666">
        <ele>1324</ele>
        <time>2017-03-03T10:49:38Z</time>
      </trkpt>
      <trkpt lat="44.37087" lon="3.81668">
        <ele>1324</ele>
        <time>2017-03-03T10:51:38Z</time>
      </trkpt>
      <trkpt lat="44.37091" lon="3.81672">
        <ele>1324</ele>
        <time>2017-03-03T10:53:38Z</time>
      </trkpt>
      <trkpt lat="44.37106" lon="3.81688">
        <ele>1325</ele>
        <time>2017-03-03T10:55:38Z</time>
      </trkpt>
      <trkpt lat="44.3711" lon="3.81692">
        <ele>1325</ele>
        <time>2017-03-03T10:57:38Z</time>
      </trkpt>
      <trkpt lat="44.37131" lon="3.81716">
        <ele>1325</ele>
        <time>2017-03-03T10:59:38Z</time>
      </trkpt>
      <trkpt lat="44.37138" lon="3.81725">
        <ele>1325</ele>
        <time>2017-03-03T11:01:38Z</time>
      </trkpt>
      <trkpt lat="44.37142" lon="3.81731">
        <ele>1326</ele>
        <time>2017-03-03T11:03:38Z</time>
      </trkpt>
      <trkpt lat="44.37145" lon="3.81734">
        <ele>1326</ele>
        <time>2017-03-03T11:05:38Z</time>
      </trkpt>
      <trkpt lat="44.37149" lon="3.81742">
        <ele>1326</ele>
        <time>2017-03-03T11:07:38Z</time>
      </trkpt>
      <trkpt lat="44.37157" lon="3.81755">
        <ele>1326</ele>
        <time>2017-03-03T11:09:38Z</time>
      </trkpt>
      <trkpt lat="44.37158" lon="3.81758">
        <ele>1326</ele>
        <time>2017-03-03T11:11:38Z</time>
      </trkpt>
      <trkpt lat="44.37159" lon="3.81761">
        <ele>1326</ele>
        <time>2017-03-03T11:13:38Z</time>
      </trkpt>
      <trkpt lat="44.37161" lon="3.81765">
        <ele>1326</ele>
        <time>2017-03-03T11:15:38Z</time>
      </trkpt>
      <trkpt lat="44.37162" lon="3.81769">
        <ele>1326</ele>
        <time>2017-03-03T11:17:38Z</time>
      </trkpt>
      <trkpt lat="44.37165" lon="3.81774">
        <ele>1326</ele>
        <time>2017-03-03T11:19:38Z</time>
      </trkpt>
      <trkpt lat="44.37167" lon="3.81778">
        <ele>1326</ele>
        <time>2017-03-03T11:21:38Z</time>
      </trkpt>
      <trkpt lat="44.37169" lon="3.81783">
        <ele>1326</ele>
        <time>2017-03-03T11:23:38Z</time>
      </trkpt>
      <trkpt lat="44.37171" lon="3.81786">
        <ele>1326</ele>
        <time>2017-03-03T11:25:38Z</time>
      </trkpt>
      <trkpt lat="44.37172" lon="3.81789">
        <ele>1326</ele>
        <time>2017-03-03T11:27:38Z</time>
      </trkpt>
      <trkpt lat="44.37172" lon="3.81793">
        <ele>1326</ele>
        <time>2017-03-03T11:29:38Z</time>
      </trkpt>
      <trkpt lat="44.37173" lon="3.81797">
        <ele>1326</ele>
        <time>2017-03-03T11:31:38Z</time>
      </trkpt>
      <trkpt lat="44.37173" lon="3.81801">
        <ele>1326</ele>
        <time>2017-03-03T11:33:38Z</time>
      </trkpt>
      <trkpt lat="44.37172" lon="3.81809">
        <ele>1326</ele>
        <time>2017-03-03T11:35:38Z</time>
      </trkpt>
      <trkpt lat="44.37171" lon="3.81821">
        <ele>1327</ele>
        <time>2017-03-03T11:37:38Z</time>
      </trkpt>
      <trkpt lat="44.37168" lon="3.81832">
        <ele>1327</ele>
        <time>2017-03-03T11:39:38Z</time>
      </trkpt>
      <trkpt lat="44.37156" lon="3.81876">
        <ele>1327</ele>
        <time>2017-03-03T11:41:38Z</time>
      </trkpt>
      <trkpt lat="44.37154" lon="3.81884">
        <ele>1327</ele>
        <time>2017-03-03T11:43:38Z</time>
      </trkpt>
      <trkpt lat="44.37152" lon="3.81892">
        <ele>1327</ele>
        <time>2017-03-03T11:45:38Z</time>
      </trkpt>
      <trkpt lat="44.3715" lon="3.81899">
        <ele>1327</ele>
        <time>2017-03-03T11:47:38Z</time>
      </trkpt>
      <trkpt lat="44.3715" lon="3.81903">
        <ele>1327</ele>
        <time>2017-03-03T11:49:38Z</time>
      </trkpt>
      <trkpt lat="44.3715" lon="3.81907">
        <ele>1327</ele>
        <time>2017-03-03T11:51:38Z</time>
      </trkpt>
      <trkpt lat="44.3715" lon="3.81911">
        <ele>1327</ele>
        <time>2017-03-03T11:53:38Z</time>
      </trkpt>
      <trkpt lat="44.3715" lon="3.81915">
        <ele>1326</ele>
        <time>2017-03-03T11:55:38Z</time>
      </trkpt>
      <trkpt lat="44.37149" lon="3.81918">
        <ele>1326</ele>
        <time>2017-03-03T11:57:38Z</time>
      </trkpt>
      <trkpt lat="44.37148" lon="3.81923">
        <ele>1326</ele>
        <time>2017-03-03T11:59:38Z</time>
      </trkpt>
      <trkpt lat="44.37144" lon="3.81934">
        <ele>1327</ele>
        <time>2017-03-03T12:01:38Z</time>
      </trkpt>
      <trkpt lat="44.37142" lon="3.81941">
        <ele>1327</ele>
        <time>2017-03-03T12:03:38Z</time>
      </trkpt>
      <trkpt lat="44.37141" lon="3.81945">
        <ele>1327</ele>
        <time>2017-03-03T12:05:38Z</time>
      </trkpt>
      <trkpt lat="44.3714" lon="3.8195">
        <ele>1327</ele>
        <time>2017-03-03T12:07:38Z</time>
      </trkpt>
      <trkpt lat="44.37139" lon="3.81958">
        <ele>1327</ele>
        <time>2017-03-03T12:09:38Z</time>
      </trkpt>
      <trkpt lat="44.37138" lon="3.81961">
        <ele>1327</ele>
        <time>2017-03-03T12:11:38Z</time>
      </trkpt>
      <trkpt lat="44.37137" lon="3.81965">
        <ele>1327</ele>
        <time>2017-03-03T12:13:38Z</time>
      </trkpt>
      <trkpt lat="44.37135" lon="3.81969">
        <ele>1327</ele>
        <time>2017-03-03T12:15:38Z</time>
      </trkpt>
      <trkpt lat="44.37134" lon="3.81972">
        <ele>1327</ele>
        <time>2017-03-03T12:17:38Z</time>
      </trkpt>
      <trkpt lat="44.37132" lon="3.81974">
        <ele>1327</ele>
        <time>2017-03-03T12:19:38Z</time>
      </trkpt>
      <trkpt lat="44.37131" lon="3.81977">
        <ele>1327</ele>
        <time>2017-03-03T12:21:38Z</time>
      </trkpt>
      <trkpt lat="44.3713" lon="3.81981">
        <ele>1327</ele>
        <time>2017-03-03T12:23:38Z</time>
      </trkpt>
      <trkpt lat="44.37129" lon="3.81983">
        <ele>1327</ele>
        <time>2017-03-03T12:25:38Z</time>
      </trkpt>
      <trkpt lat="44.37129" lon="3.81987">
        <ele>1327</ele>
        <time>2017-03-03T12:27:38Z</time>
      </trkpt>
      <trkpt lat="44.37129" lon="3.8199">
        <ele>1327</ele>
        <time>2017-03-03T12:29:38Z</time>
      </trkpt>
      <trkpt lat="44.37129" lon="3.81992">
        <ele>1327</ele>
        <time>2017-03-03T12:31:38Z</time>
      </trkpt>
      <trkpt lat="44.3713" lon="3.81995">
        <ele>1326</ele>
        <time>2017-03-03T12:33:38Z</time>
      </trkpt>
      <trkpt lat="44.3713" lon="3.81999">
        <ele>1326</ele>
        <time>2017-03-03T12:35:38Z</time>
      </trkpt>
      <trkpt lat="44.3713" lon="3.82002">
        <ele>1326</ele>
        <time>2017-03-03T12:37:38Z</time>
      </trkpt>
      <trkpt lat="44.3713" lon="3.82005">
        <ele>1326</ele>
        <time>2017-03-03T12:39:38Z</time>
      </trkpt>
      <trkpt lat="44.37128" lon="3.82008">
        <ele>1326</ele>
        <time>2017-03-03T12:41:38Z</time>
      </trkpt>
      <trkpt lat="44.37128" lon="3.8201">
        <ele>1326</ele>
        <time>2017-03-03T12:43:38Z</time>
      </trkpt>
      <trkpt lat="44.37127" lon="3.82014">
        <ele>1326</ele>
        <time>2017-03-03T12:45:38Z</time>
      </trkpt>
      <trkpt lat="44.37126" lon="3.82019">
        <ele>1326</ele>
        <time>2017-03-03T12:47:38Z</time>
      </trkpt>
      <trkpt lat="44.37126" lon="3.82023">
        <ele>1326</ele>
        <time>2017-03-03T12:49:38Z</time>
      </trkpt>
      <trkpt lat="44.37126" lon="3.82028">
        <ele>1326</ele>
        <time>2017-03-03T12:51:38Z</time>
      </trkpt>
      <trkpt lat="44.37127" lon="3.82032">
        <ele>1326</ele>
        <time>2017-03-03T12:53:38Z</time>
      </trkpt>
      <trkpt lat="44.37128" lon="3.82035">
        <ele>1326</ele>
        <time>2017-03-03T12:55:38Z</time>
      </trkpt>
      <trkpt lat="44.37129" lon="3.8204">
        <ele>1326</ele>
        <time>2017-03-03T12:57:38Z</time>
      </trkpt>
      <trkpt lat="44.37141" lon="3.82072">
        <ele>1325</ele>
        <time>2017-03-03T12:59:38Z</time>
      </trkpt>
      <trkpt lat="44.37159" lon="3.82106">
        <ele>1325</ele>
        <time>2017-03-03T13:01:38Z</time>
      </trkpt>
      <trkpt lat="44.37161" lon="3.82109">
        <ele>1325</ele>
        <time>2017-03-03T13:03:38Z</time>
      </trkpt>
      <trkpt lat="44.37163" lon="3.82113">
        <ele>1325</ele>
        <time>2017-03-03T13:05:38Z</time>
      </trkpt>
      <trkpt lat="44.37164" lon="3.82116">
        <ele>1325</ele>
        <time>2017-03-03T13:07:38Z</time>
      </trkpt>
      <trkpt lat="44.37165" lon="3.82122">
        <ele>1325</ele>
        <time>2017-03-03T13:09:38Z</time>
      </trkpt>
      <trkpt lat="44.37166" lon="3.82127">
        <ele>1326</ele>
        <time>2017-03-03T13:11:38Z</time>
      </trkpt>
      <trkpt lat="44.37168" lon="3.82133">
        <ele>1326</ele>
        <time>2017-03-03T13:13:38Z</time>
      </trkpt>
      <trkpt lat="44.37169" lon="3.82136">
        <ele>1326</ele>
        <time>2017-03-03T13:15:38Z</time>
      </trkpt>
      <trkpt lat="44.3717" lon="3.82139">
        <ele>1326</ele>
        <time>2017-03-03T13:17:38Z</time>
      </trkpt>
      <trkpt lat="44.37172" lon="3.82144">
        <ele>1326</ele>
        <time>2017-03-03T13:19:38Z</time>
      </trkpt>
      <trkpt lat="44.37175" lon="3.8215">
        <ele>1326</ele>
        <time>2017-03-03T13:21:38Z</time>
      </trkpt>
      <trkpt lat="44.37192" lon="3.82181">
        <ele>1327</ele>
        <time>2017-03-03T13:23:38Z</time>
      </trkpt>
      <trkpt lat="44.37196" lon="3.82186">
        <ele>1327</ele>
        <time>2017-03-03T13:25:38Z</time>
      </trkpt>
      <trkpt lat="44.37202" lon="3.82195">
        <ele>1327</ele>
        <time>2017-03-03T13:27:38Z</time>
      </trkpt>
      <trkpt lat="44.37205" lon="3.82199">
        <ele>1327</ele>
        <time>2017-03-03T13:29:38Z</time>
      </trkpt>
      <trkpt lat="44.37207" lon="3.82201">
        <ele>1327</ele>
        <time>2017-03-03T13:31:38Z</time>
      </trkpt>
      <trkpt lat="44.37212" lon="3.82206">
        <ele>1327</ele>
        <time>2017-03-03T13:33:38Z</time>
      </trkpt>
      <trkpt lat="44.37218" lon="3.8221">
        <ele>1328</ele>
        <time>2017-03-03T13:35:38Z</time>
      </trkpt>
      <trkpt lat="44.37219" lon="3.82211">
        <ele>1328</ele>
        <time>2017-03-03T13:37:38Z</time>
      </trkpt>
      <trkpt lat="44.37225" lon="3.82214">
        <ele>1328</ele>
        <time>2017-03-03T13:39:38Z</time>
      </trkpt>
      <trkpt lat="44.37227" lon="3.82215">
        <ele>1328</ele>
        <time>2017-03-03T13:41:38Z</time>
      </trkpt>
      <trkpt lat="44.37235" lon="3.82215">
        <ele>1328</ele>
        <time>2017-03-03T13:43:38Z</time>
      </trkpt>
      <trkpt lat="44.37235" lon="3.82215">
        <ele>1328</ele>
        <time>2017-03-03T13:45:38Z</time>
      </trkpt>
      <trkpt lat="44.37243" lon="3.82232">
        <ele>1328</ele>
        <time>2017-03-03T13:47:38Z</time>
      </trkpt>
      <trkpt lat="44.37246" lon="3.8224">
        <ele>1328</ele>
        <time>2017-03-03T13:49:38Z</time>
      </trkpt>
      <trkpt lat="44.37249" lon="3.82245">
        <ele>1328</ele>
        <time>2017-03-03T13:51:38Z</time>
      </trkpt>
      <trkpt lat="44.3725" lon="3.82251">
        <ele>1328</ele>
        <time>2017-03-03T13:53:38Z</time>
      </trkpt>
      <trkpt lat="44.37252" lon="3.82255">
        <ele>1328</ele>
        <time>2017-03-03T13:55:38Z</time>
      </trkpt>
      <trkpt lat="44.37254" lon="3.82258">
        <ele>1328</ele>
        <time>2017-03-03T13:57:38Z</time>
      </trkpt>
      <trkpt lat="44.37258" lon="3.8226">
        <ele>1328</ele>
        <time>2017-03-03T13:59:38Z</time>
      </trkpt>
      <trkpt lat="44.37264" lon="3.82263">
        <ele>1328</ele>
        <time>2017-03-03T14:01:38Z</time>
      </trkpt>
      <trkpt lat="44.37275" lon="3.82266">
        <ele>1329</ele>
        <time>2017-03-03T14:03:38Z</time>
      </trkpt>
      <trkpt lat="44.37312" lon="3.8227">
        <ele>1329</ele>
        <time>2017-03-03T14:05:38Z</time>
      </trkpt>
      <trkpt lat="44.37331" lon="3.82272">
        <ele>1329</ele>
        <time>2017-03-03T14:07:38Z</time>
      </trkpt>
      <trkpt lat="44.37369" lon="3.8228">
        <ele>1330</ele>
        <time>2017-03-03T14:09:38Z</time>
      </trkpt>
      <trkpt lat="44.37377" lon="3.82282">
        <ele>1330</ele>
        <time>2017-03-03T14:11:38Z</time>
      </trkpt>
      <trkpt lat="44.37381" lon="3.82285">
        <ele>1330</ele>
        <time>2017-03-03T14:13:38Z</time>
      </trkpt>
      <trkpt lat="44.37395" lon="3.823">
        <ele>1330</ele>
        <time>2017-03-03T14:15:38Z</time>
      </trkpt>
      <trkpt lat="44.37408" lon="3.82313">
        <ele>1331</ele>
        <time>2017-03-03T14:17:38Z</time>
      </trkpt>
      <trkpt lat="44.37433" lon="3.82336">
        <ele>1332</ele>
        <time>2017-03-03T14:19:38Z</time>
      </trkpt>
      <trkpt lat="44.37434" lon="3.82338">
        <ele>1332</ele>
        <time>2017-03-03T14:21:38Z</time>
      </trkpt>
      <trkpt lat="44.37449" lon="3.82355">
        <ele>1333</ele>
        <time>2017-03-03T14:23:38Z</time>
      </trkpt>
      <trkpt lat="44.37459" lon="3.82364">
        <ele>1333</ele>
        <time>2017-03-03T14:25:38Z</time>
      </trkpt>
      <trkpt lat="44.37475" lon="3.82381">
        <ele>1334</ele>
        <time>2017-03-03T14:27:38Z</time>
      </trkpt>
      <trkpt lat="44.375" lon="3.82406">
        <ele>1335</ele>
        <time>2017-03-03T14:29:38Z</time>
      </trkpt>
      <trkpt lat="44.37519" lon="3.82427">
        <ele>1336</ele>
        <time>2017-03-03T14:31:38Z</time>
      </trkpt>
      <trkpt lat="44.37549" lon="3.8246">
        <ele>1336</ele>
        <time>2017-03-03T14:33:38Z</time>
      </trkpt>
      <trkpt lat="44.3756" lon="3.82473">
        <ele>1336</ele>
        <time>2017-03-03T14:35:38Z</time>
      </trkpt>
      <trkpt lat="44.37567" lon="3.82485">
        <ele>1336</ele>
        <time>2017-03-03T14:37:38Z</time>
      </trkpt>
      <trkpt lat="44.37573" lon="3.82499">
        <ele>1336</ele>
        <time>2017-03-03T14:39:38Z</time>
      </trkpt>
      <trkpt lat="44.37578" lon="3.82517">
        <ele>1336</ele>
        <time>2017-03-03T14:41:38Z</time>
      </trkpt>
      <trkpt lat="44.3758" lon="3.82528">
        <ele>1336</ele>
        <time>2017-03-03T14:43:38Z</time>
      </trkpt>
      <trkpt lat="44.3758" lon="3.82539">
        <ele>1336</ele>
        <time>2017-03-03T14:45:38Z</time>
      </trkpt>
      <trkpt lat="44.3758" lon="3.82563">
        <ele>1336</ele>
        <time>2017-03-03T14:47:38Z</time>
      </trkpt>
      <trkpt lat="44.37578" lon="3.8258">
        <ele>1336</ele>
        <time>2017-03-03T14:49:38Z</time>
      </trkpt>
      <trkpt lat="44.37576" lon="3.82592">
        <ele>1337</ele>
        <time>2017-03-03T14:51:38Z</time>
      </trkpt>
      <trkpt lat="44.37571" lon="3.82606">
        <ele>1337</ele>
        <time>2017-03-03T14:53:38Z</time>
      </trkpt>
      <trkpt lat="44.37564" lon="3.82622">
        <ele>1338</ele>
        <time>2017-03-03T14:55:38Z</time>
      </trkpt>
      <trkpt lat="44.37558" lon="3.82636">
        <ele>1338</ele>
        <time>2017-03-03T14:57:38Z</time>
      </trkpt>
      <trkpt lat="44.37554" lon="3.82649">
        <ele>1339</ele>
        <time>2017-03-03T14:59:38Z</time>
      </trkpt>
      <trkpt lat="44.3755" lon="3.82667">
        <ele>1339</ele>
        <time>2017-03-03T15:01:38Z</time>
      </trkpt>
      <trkpt lat="44.37546" lon="3.82683">
        <ele>1339</ele>
        <time>2017-03-03T15:03:38Z</time>
      </trkpt>
      <trkpt lat="44.37544" lon="3.82693">
        <ele>1339</ele>
        <time>2017-03-03T15:05:38Z</time>
      </trkpt>
      <trkpt lat="44.37539" lon="3.82705">
        <ele>1339</ele>
        <time>2017-03-03T15:07:38Z</time>
      </trkpt>
      <trkpt lat="44.37533" lon="3.82718">
        <ele>1338</ele>
        <time>2017-03-03T15:09:38Z</time>
      </trkpt>
      <trkpt lat="44.37526" lon="3.82728">
        <ele>1338</ele>
        <time>2017-03-03T15:11:38Z</time>
      </trkpt>
      <trkpt lat="44.37515" lon="3.82739">
        <ele>1339</ele>
        <time>2017-03-03T15:13:38Z</time>
      </trkpt>
      <trkpt lat="44.37505" lon="3.8275">
        <ele>1339</ele>
        <time>2017-03-03T15:15:38Z</time>
      </trkpt>
      <trkpt lat="44.37497" lon="3.82756">
        <ele>1339</ele>
        <time>2017-03-03T15:17:38Z</time>
      </trkpt>
      <trkpt lat="44.37482" lon="3.82762">
        <ele>1340</ele>
        <time>2017-03-03T15:19:38Z</time>
      </trkpt>
      <trkpt lat="44.37461" lon="3.8277">
        <ele>1342</ele>
        <time>2017-03-03T15:21:38Z</time>
      </trkpt>
      <trkpt lat="44.37451" lon="3.82774">
        <ele>1342</ele>
        <time>2017-03-03T15:23:38Z</time>
      </trkpt>
      <trkpt lat="44.37442" lon="3.82776">
        <ele>1343</ele>
        <time>2017-03-03T15:25:38Z</time>
      </trkpt>
      <trkpt lat="44.37429" lon="3.82779">
        <ele>1344</ele>
        <time>2017-03-03T15:27:38Z</time>
      </trkpt>
      <trkpt lat="44.3742" lon="3.82782">
        <ele>1345</ele>
        <time>2017-03-03T15:29:38Z</time>
      </trkpt>
      <trkpt lat="44.37411" lon="3.82787">
        <ele>1345</ele>
        <time>2017-03-03T15:31:38Z</time>
      </trkpt>
      <trkpt lat="44.37403" lon="3.82794">
        <ele>1345</ele>
        <time>2017-03-03T15:33:38Z</time>
      </trkpt>
      <trkpt lat="44.37396" lon="3.82802">
        <ele>1346</ele>
        <time>2017-03-03T15:35:38Z</time>
      </trkpt>
      <trkpt lat="44.37388" lon="3.82814">
        <ele>1346</ele>
        <time>2017-03-03T15:37:38Z</time>
      </trkpt>
      <trkpt lat="44.37385" lon="3.82821">
        <ele>1346</ele>
        <time>2017-03-03T15:39:38Z</time>
      </trkpt>
      <trkpt lat="44.37383" lon="3.82827">
        <ele>1346</ele>
        <time>2017-03-03T15:41:38Z</time>
      </trkpt>
      <trkpt lat="44.37381" lon="3.82837">
        <ele>1347</ele>
        <time>2017-03-03T15:43:38Z</time>
      </trkpt>
      <trkpt lat="44.37381" lon="3.82847">
        <ele>1348</ele>
        <time>2017-03-03T15:45:38Z</time>
      </trkpt>
      <trkpt lat="44.37383" lon="3.82858">
        <ele>1348</ele>
        <time>2017-03-03T15:47:38Z</time>
      </trkpt>
      <trkpt lat="44.37387" lon="3.82871">
        <ele>1349</ele>
        <time>2017-03-03T15:49:38Z</time>
      </trkpt>
      <trkpt lat="44.37404" lon="3.82902">
        <ele>1349</ele>
        <time>2017-03-03T15:51:38Z</time>
      </trkpt>
      <trkpt lat="44.37413" lon="3.82917">
        <ele>1349</ele>
        <time>2017-03-03T15:53:38Z</time>
      </trkpt>
      <trkpt lat="44.37421" lon="3.82931">
        <ele>1349</ele>
        <time>2017-03-03T15:55:38Z</time>
      </trkpt>
      <trkpt lat="44.37434" lon="3.82953">
        <ele>1350</ele>
        <time>2017-03-03T15:57:38Z</time>
      </trkpt>
      <trkpt lat="44.37444" lon="3.82974">
        <ele>1351</ele>
        <time>2017-03-03T15:59:38Z</time>
      </trkpt>
      <trkpt lat="44.37449" lon="3.82988">
        <ele>1352</ele>
        <time>2017-03-03T16:01:38Z</time>
      </trkpt>
      <trkpt lat="44.37453" lon="3.83001">
        <ele>1352</ele>
        <time>2017-03-03T16:03:38Z</time>
      </trkpt>
      <trkpt lat="44.37458" lon="3.83016">
        <ele>1352</ele>
        <time>2017-03-03T16:05:38Z</time>
      </trkpt>
      <trkpt lat="44.37462" lon="3.83036">
        <ele>1353</ele>
        <time>2017-03-03T16:07:38Z</time>
      </trkpt>
      <trkpt lat="44.37464" lon="3.83051">
        <ele>1353</ele>
        <time>2017-03-03T16:09:38Z</time>
      </trkpt>
      <trkpt lat="44.37465" lon="3.83092">
        <ele>1355</ele>
        <time>2017-03-03T16:11:38Z</time>
      </trkpt>
      <trkpt lat="44.37465" lon="3.83124">
        <ele>1355</ele>
        <time>2017-03-03T16:13:38Z</time>
      </trkpt>
      <trkpt lat="44.37463" lon="3.83145">
        <ele>1356</ele>
        <time>2017-03-03T16:15:38Z</time>
      </trkpt>
      <trkpt lat="44.37461" lon="3.83165">
        <ele>1356</ele>
        <time>2017-03-03T16:17:38Z</time>
      </trkpt>
      <trkpt lat="44.37456" lon="3.83184">
        <ele>1357</ele>
        <time>2017-03-03T16:19:38Z</time>
      </trkpt>
      <trkpt lat="44.37449" lon="3.83207">
        <ele>1357</ele>
        <time>2017-03-03T16:21:38Z</time>
      </trkpt>
      <trkpt lat="44.37441" lon="3.83227">
        <ele>1356</ele>
        <time>2017-03-03T16:23:38Z</time>
      </trkpt>
      <trkpt lat="44.37429" lon="3.83252">
        <ele>1356</ele>
        <time>2017-03-03T16:25:38Z</time>
      </trkpt>
      <trkpt lat="44.3742" lon="3.83269">
        <ele>1356</ele>
        <time>2017-03-03T16:27:38Z</time>
      </trkpt>
      <trkpt lat="44.37414" lon="3.83281">
        <ele>1356</ele>
        <time>2017-03-03T16:29:38Z</time>
      </trkpt>
      <trkpt lat="44.37406" lon="3.83299">
        <ele>1357</ele>
        <time>2017-03-03T16:31:38Z</time>
      </trkpt>
      <trkpt lat="44.37399" lon="3.83322">
        <ele>1356</ele>
        <time>2017-03-03T16:33:38Z</time>
      </trkpt>
      <trkpt lat="44.37392" lon="3.83337">
        <ele>1356</ele>
        <time>2017-03-03T16:35:38Z</time>
      </trkpt>
      <trkpt lat="44.37382" lon="3.83356">
        <ele>1358</ele>
        <time>2017-03-03T16:37:38Z</time>
      </trkpt>
      <trkpt lat="44.37362" lon="3.83389">
        <ele>1359</ele>
        <time>2017-03-03T16:39:38Z</time>
      </trkpt>
      <trkpt lat="44.37348" lon="3.8341">
        <ele>1359</ele>
        <time>2017-03-03T16:41:38Z</time>
      </trkpt>
      <trkpt lat="44.37337" lon="3.83425">
        <ele>1359</ele>
        <time>2017-03-03T16:43:38Z</time>
      </trkpt>
      <trkpt lat="44.3733" lon="3.83436">
        <ele>1360</ele>
        <time>2017-03-03T16:45:38Z</time>
      </trkpt>
      <trkpt lat="44.37326" lon="3.83445">
        <ele>1360</ele>
        <time>2017-03-03T16:47:38Z</time>
      </trkpt>
      <trkpt lat="44.37324" lon="3.83453">
        <ele>1361</ele>
        <time>2017-03-03T16:49:38Z</time>
      </trkpt>
      <trkpt lat="44.37324" lon="3.83455">
        <ele>1361</ele>
        <time>2017-03-03T16:51:38Z</time>
      </trkpt>
      <trkpt lat="44.37323" lon="3.83464">
        <ele>1361</ele>
        <time>2017-03-03T16:53:38Z</time>
      </trkpt>
      <trkpt lat="44.37324" lon="3.83475">
        <ele>1361</ele>
        <time>2017-03-03T16:55:38Z</time>
      </trkpt>
      <trkpt lat="44.37324" lon="3.83475">
        <ele>1361</ele>
        <time>2017-03-03T16:57:38Z</time>
      </trkpt>
      <trkpt lat="44.37341" lon="3.83469">
        <ele>1360</ele>
        <time>2017-03-03T16:59:38Z</time>
      </trkpt>
      <trkpt lat="44.37357" lon="3.83464">
        <ele>1360</ele>
        <time>2017-03-03T17:01:38Z</time>
      </trkpt>
      <trkpt lat="44.37362" lon="3.83459">
        <ele>1360</ele>
        <time>2017-03-03T17:03:38Z</time>
      </trkpt>
      <trkpt lat="44.37367" lon="3.83453">
        <ele>1359</ele>
        <time>2017-03-03T17:05:38Z</time>
      </trkpt>
      <trkpt lat="44.37373" lon="3.83443">
        <ele>1359</ele>
        <time>2017-03-03T17:07:38Z</time>
      </trkpt>
      <trkpt lat="44.37378" lon="3.83437">
        <ele>1358</ele>
        <time>2017-03-03T17:09:38Z</time>
      </trkpt>
      <trkpt lat="44.37389" lon="3.83429">
        <ele>1357</ele>
        <time>2017-03-03T17:11:38Z</time>
      </trkpt>
      <trkpt lat="44.37411" lon="3.83422">
        <ele>1356</ele>
        <time>2017-03-03T17:13:38Z</time>
      </trkpt>
      <trkpt lat="44.3742" lon="3.83422">
        <ele>1355</ele>
        <time>2017-03-03T17:15:38Z</time>
      </trkpt>
      <trkpt lat="44.37427" lon="3.83421">
        <ele>1355</ele>
        <time>2017-03-03T17:17:38Z</time>
      </trkpt>
      <trkpt lat="44.37433" lon="3.8342">
        <ele>1355</ele>
        <time>2017-03-03T17:19:38Z</time>
      </trkpt>
      <trkpt lat="44.3744" lon="3.83417">
        <ele>1354</ele>
        <time>2017-03-03T17:21:38Z</time>
      </trkpt>
      <trkpt lat="44.37447" lon="3.83415">
        <ele>1353</ele>
        <time>2017-03-03T17:23:38Z</time>
      </trkpt>
      <trkpt lat="44.37459" lon="3.83412">
        <ele>1353</ele>
        <time>2017-03-03T17:25:38Z</time>
      </trkpt>
      <trkpt lat="44.37467" lon="3.83412">
        <ele>1352</ele>
        <time>2017-03-03T17:27:38Z</time>
      </trkpt>
      <trkpt lat="44.37478" lon="3.83412">
        <ele>1352</ele>
        <time>2017-03-03T17:29:38Z</time>
      </trkpt>
      <trkpt lat="44.37507" lon="3.83413">
        <ele>1351</ele>
        <time>2017-03-03T17:31:38Z</time>
      </trkpt>
      <trkpt lat="44.37521" lon="3.83415">
        <ele>1351</ele>
        <time>2017-03-03T17:33:38Z</time>
      </trkpt>
      <trkpt lat="44.37539" lon="3.83412">
        <ele>1351</ele>
        <time>2017-03-03T17:35:38Z</time>
      </trkpt>
      <trkpt lat="44.37568" lon="3.83403">
        <ele>1351</ele>
        <time>2017-03-03T17:37:38Z</time>
      </trkpt>
      <trkpt lat="44.3758" lon="3.83399">
        <ele>1351</ele>
        <time>2017-03-03T17:39:38Z</time>
      </trkpt>
      <trkpt lat="44.37597" lon="3.83396">
        <ele>1351</ele>
        <time>2017-03-03T17:41:38Z</time>
      </trkpt>
      <trkpt lat="44.37604" lon="3.83396">
        <ele>1351</ele>
        <time>2017-03-03T17:43:38Z</time>
      </trkpt>
      <trkpt lat="44.37614" lon="3.83399">
        <ele>1351</ele>
        <time>2017-03-03T17:45:38Z</time>
      </trkpt>
      <trkpt lat="44.3762" lon="3.834">
        <ele>1351</ele>
        <time>2017-03-03T17:47:38Z</time>
      </trkpt>
      <trkpt lat="44.37626" lon="3.83401">
        <ele>1351</ele>
        <time>2017-03-03T17:49:38Z</time>
      </trkpt>
      <trkpt lat="44.37635" lon="3.834">
        <ele>1351</ele>
        <time>2017-03-03T17:51:38Z</time>
      </trkpt>
      <trkpt lat="44.37646" lon="3.834">
        <ele>1351</ele>
        <time>2017-03-03T17:53:38Z</time>
      </trkpt>
      <trkpt lat="44.37659" lon="3.83401">
        <ele>1351</ele>
        <time>2017-03-03T17:55:38Z</time>
      </trkpt>
      <trkpt lat="44.37669" lon="3.83403">
        <ele>1351</ele>
        <time>2017-03-03T17:57:38Z</time>
      </trkpt>
      <trkpt lat="44.37677" lon="3.83405">
        <ele>1351</ele>
        <time>2017-03-03T17:59:38Z</time>
      </trkpt>
      <trkpt lat="44.37691" lon="3.83409">
        <ele>1351</ele>
        <time>2017-03-03T18:01:38Z</time>
      </trkpt>
      <trkpt lat="44.37697" lon="3.8341">
        <ele>1351</ele>
        <time>2017-03-03T18:03:38Z</time>
      </trkpt>
      <trkpt lat="44.37705" lon="3.83412">
        <ele>1351</ele>
        <time>2017-03-03T18:05:38Z</time>
      </trkpt>
      <trkpt lat="44.37708" lon="3.83412">
        <ele>1351</ele>
        <time>2017-03-03T18:07:38Z</time>
      </trkpt>
      <trkpt lat="44.37721" lon="3.83418">
        <ele>1351</ele>
        <time>2017-03-03T18:09:38Z</time>
      </trkpt>
      <trkpt lat="44.37722" lon="3.83419">
        <ele>1351</ele>
        <time>2017-03-03T18:11:38Z</time>
      </trkpt>
      <trkpt lat="44.37732" lon="3.83423">
        <ele>1351</ele>
        <time>2017-03-03T18:13:38Z</time>
      </trkpt>
      <trkpt lat="44.37746" lon="3.83423">
        <ele>1350</ele>
        <time>2017-03-03T18:15:38Z</time>
      </trkpt>
      <trkpt lat="44.37769" lon="3.83431">
        <ele>1351</ele>
        <time>2017-03-03T18:17:38Z</time>
      </trkpt>
      <trkpt lat="44.37785" lon="3.83439">
        <ele>1351</ele>
        <time>2017-03-03T18:19:38Z</time>
      </trkpt>
      <trkpt lat="44.37792" lon="3.83443">
        <ele>1351</ele>
        <time>2017-03-03T18:21:38Z</time>
      </trkpt>
      <trkpt lat="44.37798" lon="3.83443">
        <ele>1351</ele>
        <time>2017-03-03T18:23:38Z</time>
      </trkpt>
      <trkpt lat="44.3781" lon="3.83442">
        <ele>1351</ele>
        <time>2017-03-03T18:25:38Z</time>
      </trkpt>
      <trkpt lat="44.37818" lon="3.83438">
        <ele>1351</ele>
        <time>2017-03-03T18:27:38Z</time>
      </trkpt>
      <trkpt lat="44.37833" lon="3.83431">
        <ele>1350</ele>
        <time>2017-03-03T18:29:38Z</time>
      </trkpt>
      <trkpt lat="44.37838" lon="3.83429">
        <ele>1350</ele>
        <time>2017-03-03T18:31:38Z</time>
      </trkpt>
      <trkpt lat="44.37843" lon="3.83427">
        <ele>1350</ele>
        <time>2017-03-03T18:33:38Z</time>
      </trkpt>
      <trkpt lat="44.37852" lon="3.83424">
        <ele>1351</ele>
        <time>2017-03-03T18:35:38Z</time>
      </trkpt>
      <trkpt lat="44.37857" lon="3.83423">
        <ele>1351</ele>
        <time>2017-03-03T18:37:38Z</time>
      </trkpt>
      <trkpt lat="44.3786" lon="3.83422">
        <ele>1351</ele>
        <time>2017-03-03T18:39:38Z</time>
      </trkpt>
      <trkpt lat="44.37863" lon="3.83423">
        <ele>1351</ele>
        <time>2017-03-03T18:41:38Z</time>
      </trkpt>
      <trkpt lat="44.37866" lon="3.83424">
        <ele>1351</ele>
        <time>2017-03-03T18:43:38Z</time>
      </trkpt>
      <trkpt lat="44.37868" lon="3.83427">
        <ele>1351</ele>
        <time>2017-03-03T18:45:38Z</time>
      </trkpt>
      <trkpt lat="44.37876" lon="3.83449">
        <ele>1352</ele>
        <time>2017-03-03T18:47:38Z</time>
      </trkpt>
      <trkpt lat="44.37879" lon="3.83463">
        <ele>1352</ele>
        <time>2017-03-03T18:49:38Z</time>
      </trkpt>
      <trkpt lat="44.37881" lon="3.83466">
        <ele>1352</ele>
        <time>2017-03-03T18:51:38Z</time>
      </trkpt>
      <trkpt lat="44.37885" lon="3.83473">
        <ele>1353</ele>
        <time>2017-03-03T18:53:38Z</time>
      </trkpt>
      <trkpt lat="44.37893" lon="3.8348">
        <ele>1353</ele>
        <time>2017-03-03T18:55:38Z</time>
      </trkpt>
      <trkpt lat="44.37903" lon="3.83488">
        <ele>1353</ele>
        <time>2017-03-03T18:57:38Z</time>
      </trkpt>
      <trkpt lat="44.37914" lon="3.83496">
        <ele>1354</ele>
        <time>2017-03-03T18:59:38Z</time>
      </trkpt>
      <trkpt lat="44.37927" lon="3.83505">
        <ele>1355</ele>
        <time>2017-03-03T19:01:38Z</time>
      </trkpt>
      <trkpt lat="44.3793" lon="3.83508">
        <ele>1355</ele>
        <time>2017-03-03T19:03:38Z</time>
      </trkpt>
      <trkpt lat="44.37934" lon="3.83514">
        <ele>1355</ele>
        <time>2017-03-03T19:05:38Z</time>
      </trkpt>
      <trkpt lat="44.3794" lon="3.83521">
        <ele>1356</ele>
        <time>2017-03-03T19:07:38Z</time>
      </trkpt>
      <trkpt lat="44.37944" lon="3.83525">
        <ele>1356</ele>
        <time>2017-03-03T19:09:38Z</time>
      </trkpt>
      <trkpt lat="44.3795" lon="3.83527">
        <ele>1356</ele>
        <time>2017-03-03T19:11:38Z</time>
      </trkpt>
      <trkpt lat="44.37954" lon="3.83526">
        <ele>1357</ele>
        <time>2017-03-03T19:13:38Z</time>
      </trkpt>
      <trkpt lat="44.37957" lon="3.83523">
        <ele>1357</ele>
        <time>2017-03-03T19:15:38Z</time>
      </trkpt>
      <trkpt lat="44.37963" lon="3.83518">
        <ele>1357</ele>
        <time>2017-03-03T19:17:38Z</time>
      </trkpt>
      <trkpt lat="44.37968" lon="3.83516">
        <ele>1357</ele>
        <time>2017-03-03T19:19:38Z</time>
      </trkpt>
      <trkpt lat="44.37976" lon="3.83514">
        <ele>1358</ele>
        <time>2017-03-03T19:21:38Z</time>
      </trkpt>
      <trkpt lat="44.37996" lon="3.8351">
        <ele>1359</ele>
        <time>2017-03-03T19:23:38Z</time>
      </trkpt>
      <trkpt lat="44.38" lon="3.83508">
        <ele>1359</ele>
        <time>2017-03-03T19:25:38Z</time>
      </trkpt>
      <trkpt lat="44.38004" lon="3.83506">
        <ele>1359</ele>
        <time>2017-03-03T19:27:38Z</time>
      </trkpt>
      <trkpt lat="44.38014" lon="3.83502">
        <ele>1359</ele>
        <time>2017-03-03T19:29:38Z</time>
      </trkpt>
      <trkpt lat="44.38026" lon="3.83496">
        <ele>1360</ele>
        <time>2017-03-03T19:31:38Z</time>
      </trkpt>
      <trkpt lat="44.3805" lon="3.8348">
        <ele>1361</ele>
        <time>2017-03-03T19:33:38Z</time>
      </trkpt>
      <trkpt lat="44.38071" lon="3.83469">
        <ele>1361</ele>
        <time>2017-03-03T19:35:38Z</time>
      </trkpt>
      <trkpt lat="44.38108" lon="3.83452">
        <ele>1363</ele>
        <time>2017-03-03T19:37:38Z</time>
      </trkpt>
      <trkpt lat="44.38126" lon="3.83449">
        <ele>1365</ele>
        <time>2017-03-03T19:39:38Z</time>
      </trkpt>
      <trkpt lat="44.3816" lon="3.83449">
        <ele>1367</ele>
        <time>2017-03-03T19:41:38Z</time>
      </trkpt>
      <trkpt lat="44.38172" lon="3.83451">
        <ele>1368</ele>
        <time>2017-03-03T19:43:38Z</time>
      </trkpt>
      <trkpt lat="44.38172" lon="3.83451">
        <ele>1368</ele>
        <time>2017-03-03T19:45:38Z</time>
      </trkpt>
      <trkpt lat="44.38176" lon="3.83468">
        <ele>1369</ele>
        <time>2017-03-03T19:47:38Z</time>
      </trkpt>
      <trkpt lat="44.38179" lon="3.83481">
        <ele>1369</ele>
        <time>2017-03-03T19:49:38Z</time>
      </trkpt>
      <trkpt lat="44.38182" lon="3.83494">
        <ele>1369</ele>
        <time>2017-03-03T19:51:38Z</time>
      </trkpt>
      <trkpt lat="44.38182" lon="3.83502">
        <ele>1369</ele>
        <time>2017-03-03T19:53:38Z</time>
      </trkpt>
      <trkpt lat="44.3818" lon="3.8351">
        <ele>1369</ele>
        <time>2017-03-03T19:55:38Z</time>
      </trkpt>
      <trkpt lat="44.38178" lon="3.8352">
        <ele>1369</ele>
        <time>2017-03-03T19:57:38Z</time>
      </trkpt>
      <trkpt lat="44.38177" lon="3.83532">
        <ele>1369</ele>
        <time>2017-03-03T19:59:38Z</time>
      </trkpt>
      <trkpt lat="44.38176" lon="3.83549">
        <ele>1369</ele>
        <time>2017-03-03T20:01:38Z</time>
      </trkpt>
      <trkpt lat="44.38176" lon="3.83558">
        <ele>1369</ele>
        <time>2017-03-03T20:03:38Z</time>
      </trkpt>
      <trkpt lat="44.38177" lon="3.83566">
        <ele>1369</ele>
        <time>2017-03-03T20:05:38Z</time>
      </trkpt>
      <trkpt lat="44.38179" lon="3.83572">
        <ele>1369</ele>
        <time>2017-03-03T20:07:38Z</time>
      </trkpt>
      <trkpt lat="44.38184" lon="3.83579">
        <ele>1370</ele>
        <time>2017-03-03T20:09:38Z</time>
      </trkpt>
      <trkpt lat="44.38193" lon="3.83587">
        <ele>1371</ele>
        <time>2017-03-03T20:11:38Z</time>
      </trkpt>
      <trkpt lat="44.38197" lon="3.83592">
        <ele>1371</ele>
        <time>2017-03-03T20:13:38Z</time>
      </trkpt>
      <trkpt lat="44.38204" lon="3.83604">
        <ele>1372</ele>
        <time>2017-03-03T20:15:38Z</time>
      </trkpt>
      <trkpt lat="44.3821" lon="3.83616">
        <ele>1372</ele>
        <time>2017-03-03T20:17:38Z</time>
      </trkpt>
      <trkpt lat="44.38215" lon="3.83629">
        <ele>1372</ele>
        <time>2017-03-03T20:19:38Z</time>
      </trkpt>
      <trkpt lat="44.38221" lon="3.83647">
        <ele>1373</ele>
        <time>2017-03-03T20:21:38Z</time>
      </trkpt>
      <trkpt lat="44.38224" lon="3.83662">
        <ele>1373</ele>
        <time>2017-03-03T20:23:38Z</time>
      </trkpt>
      <trkpt lat="44.38226" lon="3.83675">
        <ele>1372</ele>
        <time>2017-03-03T20:25:38Z</time>
      </trkpt>
      <trkpt lat="44.38228" lon="3.83693">
        <ele>1371</ele>
        <time>2017-03-03T20:27:38Z</time>
      </trkpt>
      <trkpt lat="44.38229" lon="3.83704">
        <ele>1370</ele>
        <time>2017-03-03T20:29:38Z</time>
      </trkpt>
      <trkpt lat="44.38232" lon="3.83715">
        <ele>1370</ele>
        <time>2017-03-03T20:31:38Z</time>
      </trkpt>
      <trkpt lat="44.38236" lon="3.83729">
        <ele>1369</ele>
        <time>2017-03-03T20:33:38Z</time>
      </trkpt>
      <trkpt lat="44.38241" lon="3.83745">
        <ele>1368</ele>
        <time>2017-03-03T20:35:38Z</time>
      </trkpt>
      <trkpt lat="44.38248" lon="3.83766">
        <ele>1368</ele>
        <time>2017-03-03T20:37:38Z</time>
      </trkpt>
      <trkpt lat="44.38252" lon="3.83781">
        <ele>1368</ele>
        <time>2017-03-03T20:39:38Z</time>
      </trkpt>
      <trkpt lat="44.38254" lon="3.83796">
        <ele>1367</ele>
        <time>2017-03-03T20:41:38Z</time>
      </trkpt>
      <trkpt lat="44.38253" lon="3.83812">
        <ele>1366</ele>
        <time>2017-03-03T20:43:38Z</time>
      </trkpt>
      <trkpt lat="44.3825" lon="3.83844">
        <ele>1364</ele>
        <time>2017-03-03T20:45:38Z</time>
      </trkpt>
      <trkpt lat="44.3825" lon="3.83858">
        <ele>1364</ele>
        <time>2017-03-03T20:47:38Z</time>
      </trkpt>
      <trkpt lat="44.3825" lon="3.83873">
        <ele>1364</ele>
        <time>2017-03-03T20:49:38Z</time>
      </trkpt>
      <trkpt lat="44.3825" lon="3.8388">
        <ele>1363</ele>
        <time>2017-03-03T20:51:38Z</time>
      </trkpt>
      <trkpt lat="44.38251" lon="3.83888">
        <ele>1363</ele>
        <time>2017-03-03T20:53:38Z</time>
      </trkpt>
      <trkpt lat="44.38251" lon="3.83895">
        <ele>1363</ele>
        <time>2017-03-03T20:55:38Z</time>
      </trkpt>
      <trkpt lat="44.38251" lon="3.83901">
        <ele>1363</ele>
        <time>2017-03-03T20:57:38Z</time>
      </trkpt>
      <trkpt lat="44.38253" lon="3.83938">
        <ele>1364</ele>
        <time>2017-03-03T20:59:38Z</time>
      </trkpt>
      <trkpt lat="44.38254" lon="3.83959">
        <ele>1365</ele>
        <time>2017-03-03T21:01:38Z</time>
      </trkpt>
      <trkpt lat="44.38253" lon="3.83976">
        <ele>1365</ele>
        <time>2017-03-03T21:03:38Z</time>
      </trkpt>
      <trkpt lat="44.3825" lon="3.83992">
        <ele>1366</ele>
        <time>2017-03-03T21:05:38Z</time>
      </trkpt>
      <trkpt lat="44.38244" lon="3.84012">
        <ele>1366</ele>
        <time>2017-03-03T21:07:38Z</time>
      </trkpt>
      <trkpt lat="44.38241" lon="3.84021">
        <ele>1366</ele>
        <time>2017-03-03T21:09:38Z</time>
      </trkpt>
      <trkpt lat="44.38238" lon="3.84039">
        <ele>1366</ele>
        <time>2017-03-03T21:11:38Z</time>
      </trkpt>
      <trkpt lat="44.38236" lon="3.84053">
        <ele>1366</ele>
        <time>2017-03-03T21:13:38Z</time>
      </trkpt>
      <trkpt lat="44.38237" lon="3.84069">
        <ele>1366</ele>
        <time>2017-03-03T21:15:38Z</time>
      </trkpt>
      <trkpt lat="44.38238" lon="3.84076">
        <ele>1366</ele>
        <time>2017-03-03T21:17:38Z</time>
      </trkpt>
      <trkpt lat="44.3824" lon="3.84079">
        <ele>1367</ele>
        <time>2017-03-03T21:19:38Z</time>
      </trkpt>
      <trkpt lat="44.38247" lon="3.84092">
        <ele>1367</ele>
        <time>2017-03-03T21:21:38Z</time>
      </trkpt>
      <trkpt lat="44.38257" lon="3.84107">
        <ele>1368</ele>
        <time>2017-03-03T21:23:38Z</time>
      </trkpt>
      <trkpt lat="44.38267" lon="3.84118">
        <ele>1369</ele>
        <time>2017-03-03T21:25:38Z</time>
      </trkpt>
      <trkpt lat="44.38275" lon="3.84126">
        <ele>1369</ele>
        <time>2017-03-03T21:27:38Z</time>
      </trkpt>
      <trkpt lat="44.38277" lon="3.84129">
        <ele>1369</ele>
        <time>2017-03-03T21:29:38Z</time>
      </trkpt>
      <trkpt lat="44.3828" lon="3.84134">
        <ele>1370</ele>
        <time>2017-03-03T21:31:38Z</time>
      </trkpt>
      <trkpt lat="44.38281" lon="3.84144">
        <ele>1370</ele>
        <time>2017-03-03T21:33:38Z</time>
      </trkpt>
      <trkpt lat="44.38281" lon="3.84149">
        <ele>1370</ele>
        <time>2017-03-03T21:35:38Z</time>
      </trkpt>
      <trkpt lat="44.3828" lon="3.84154">
        <ele>1370</ele>
        <time>2017-03-03T21:37:38Z</time>
      </trkpt>
      <trkpt lat="44.38279" lon="3.8416">
        <ele>1370</ele>
        <time>2017-03-03T21:39:38Z</time>
      </trkpt>
      <trkpt lat="44.38277" lon="3.8417">
        <ele>1370</ele>
        <time>2017-03-03T21:41:38Z</time>
      </trkpt>
      <trkpt lat="44.38271" lon="3.84184">
        <ele>1371</ele>
        <time>2017-03-03T21:43:38Z</time>
      </trkpt>
      <trkpt lat="44.38263" lon="3.84198">
        <ele>1372</ele>
        <time>2017-03-03T21:45:38Z</time>
      </trkpt>
      <trkpt lat="44.38257" lon="3.84203">
        <ele>1373</ele>
        <time>2017-03-03T21:47:38Z</time>
      </trkpt>
      <trkpt lat="44.38252" lon="3.84205">
        <ele>1373</ele>
        <time>2017-03-03T21:49:38Z</time>
      </trkpt>
      <trkpt lat="44.38244" lon="3.84205">
        <ele>1373</ele>
        <time>2017-03-03T21:51:38Z</time>
      </trkpt>
      <trkpt lat="44.38232" lon="3.84202">
        <ele>1373</ele>
        <time>2017-03-03T21:53:38Z</time>
      </trkpt>
      <trkpt lat="44.38224" lon="3.84201">
        <ele>1373</ele>
        <time>2017-03-03T21:55:38Z</time>
      </trkpt>
      <trkpt lat="44.38214" lon="3.842">
        <ele>1374</ele>
        <time>2017-03-03T21:57:38Z</time>
      </trkpt>
      <trkpt lat="44.38203" lon="3.84204">
        <ele>1374</ele>
        <time>2017-03-03T21:59:38Z</time>
      </trkpt>
      <trkpt lat="44.38192" lon="3.84208">
        <ele>1375</ele>
        <time>2017-03-03T22:01:38Z</time>
      </trkpt>
      <trkpt lat="44.38183" lon="3.8421">
        <ele>1376</ele>
        <time>2017-03-03T22:03:38Z</time>
      </trkpt>
      <trkpt lat="44.38176" lon="3.84211">
        <ele>1376</ele>
        <time>2017-03-03T22:05:38Z</time>
      </trkpt>
      <trkpt lat="44.38155" lon="3.84207">
        <ele>1376</ele>
        <time>2017-03-03T22:07:38Z</time>
      </trkpt>
      <trkpt lat="44.38121" lon="3.84204">
        <ele>1376</ele>
        <time>2017-03-03T22:09:38Z</time>
      </trkpt>
      <trkpt lat="44.38107" lon="3.84205">
        <ele>1376</ele>
        <time>2017-03-03T22:11:38Z</time>
      </trkpt>
      <trkpt lat="44.38098" lon="3.84208">
        <ele>1377</ele>
        <time>2017-03-03T22:13:38Z</time>
      </trkpt>
      <trkpt lat="44.38088" lon="3.84217">
        <ele>1378</ele>
        <time>2017-03-03T22:15:38Z</time>
      </trkpt>
      <trkpt lat="44.38075" lon="3.84232">
        <ele>1379</ele>
        <time>2017-03-03T22:17:38Z</time>
      </trkpt>
      <trkpt lat="44.38067" lon="3.84241">
        <ele>1379</ele>
        <time>2017-03-03T22:19:38Z</time>
      </trkpt>
      <trkpt lat="44.38059" lon="3.8426">
        <ele>1381</ele>
        <time>2017-03-03T22:21:38Z</time>
      </trkpt>
      <trkpt lat="44.38048" lon="3.84288">
        <ele>1382</ele>
        <time>2017-03-03T22:23:38Z</time>
      </trkpt>
      <trkpt lat="44.3804" lon="3.84308">
        <ele>1383</ele>
        <time>2017-03-03T22:25:38Z</time>
      </trkpt>
      <trkpt lat="44.38032" lon="3.84323">
        <ele>1383</ele>
        <time>2017-03-03T22:27:38Z</time>
      </trkpt>
      <trkpt lat="44.38025" lon="3.84337">
        <ele>1383</ele>
        <time>2017-03-03T22:29:38Z</time>
      </trkpt>
      <trkpt lat="44.38021" lon="3.84351">
        <ele>1383</ele>
        <time>2017-03-03T22:31:38Z</time>
      </trkpt>
      <trkpt lat="44.38019" lon="3.84369">
        <ele>1383</ele>
        <time>2017-03-03T22:33:38Z</time>
      </trkpt>
      <trkpt lat="44.38017" lon="3.84394">
        <ele>1384</ele>
        <time>2017-03-03T22:35:38Z</time>
      </trkpt>
      <trkpt lat="44.38017" lon="3.84423">
        <ele>1385</ele>
        <time>2017-03-03T22:37:38Z</time>
      </trkpt>
      <trkpt lat="44.38019" lon="3.84452">
        <ele>1387</ele>
        <time>2017-03-03T22:39:38Z</time>
      </trkpt>
      <trkpt lat="44.38023" lon="3.84486">
        <ele>1389</ele>
        <time>2017-03-03T22:41:38Z</time>
      </trkpt>
      <trkpt lat="44.3803" lon="3.84523">
        <ele>1391</ele>
        <time>2017-03-03T22:43:38Z</time>
      </trkpt>
      <trkpt lat="44.38037" lon="3.84557">
        <ele>1393</ele>
        <time>2017-03-03T22:45:38Z</time>
      </trkpt>
      <trkpt lat="44.38042" lon="3.8458">
        <ele>1394</ele>
        <time>2017-03-03T22:47:38Z</time>
      </trkpt>
      <trkpt lat="44.38047" lon="3.8459">
        <ele>1395</ele>
        <time>2017-03-03T22:49:38Z</time>
      </trkpt>
      <trkpt lat="44.3805" lon="3.84597">
        <ele>1395</ele>
        <time>2017-03-03T22:51:38Z</time>
      </trkpt>
      <trkpt lat="44.38058" lon="3.84607">
        <ele>1396</ele>
        <time>2017-03-03T22:53:38Z</time>
      </trkpt>
      <trkpt lat="44.38069" lon="3.84621">
        <ele>1397</ele>
        <time>2017-03-03T22:55:38Z</time>
      </trkpt>
      <trkpt lat="44.38084" lon="3.84644">
        <ele>1398</ele>
        <time>2017-03-03T22:57:38Z</time>
      </trkpt>
      <trkpt lat="44.38092" lon="3.84655">
        <ele>1399</ele>
        <time>2017-03-03T22:59:38Z</time>
      </trkpt>
      <trkpt lat="44.381" lon="3.84667">
        <ele>1399</ele>
        <time>2017-03-03T23:01:38Z</time>
      </trkpt>
      <trkpt lat="44.38109" lon="3.84681">
        <ele>1400</ele>
        <time>2017-03-03T23:03:38Z</time>
      </trkpt>
      <trkpt lat="44.38118" lon="3.84696">
        <ele>1401</ele>
        <time>2017-03-03T23:05:38Z</time>
      </trkpt>
      <trkpt lat="44.38128" lon="3.84714">
        <ele>1402</ele>
        <time>2017-03-03T23:07:38Z</time>
      </trkpt>
      <trkpt lat="44.38134" lon="3.84726">
        <ele>1403</ele>
        <time>2017-03-03T23:09:38Z</time>
      </trkpt>
      <trkpt lat="44.38139" lon="3.84738">
        <ele>1404</ele>
        <time>2017-03-03T23:11:38Z</time>
      </trkpt>
      <trkpt lat="44.38143" lon="3.8475">
        <ele>1405</ele>
        <time>2017-03-03T23:13:38Z</time>
      </trkpt>
      <trkpt lat="44.38146" lon="3.84762">
        <ele>1405</ele>
        <time>2017-03-03T23:15:38Z</time>
      </trkpt>
      <trkpt lat="44.38147" lon="3.84773">
        <ele>1406</ele>
        <time>2017-03-03T23:17:38Z</time>
      </trkpt>
      <trkpt lat="44.38148" lon="3.8479">
        <ele>1407</ele>
        <time>2017-03-03T23:19:38Z</time>
      </trkpt>
      <trkpt lat="44.38146" lon="3.84804">
        <ele>1407</ele>
        <time>2017-03-03T23:21:38Z</time>
      </trkpt>
      <trkpt lat="44.38142" lon="3.84816">
        <ele>1407</ele>
        <time>2017-03-03T23:23:38Z</time>
      </trkpt>
      <trkpt lat="44.38131" lon="3.84839">
        <ele>1408</ele>
        <time>2017-03-03T23:25:38Z</time>
      </trkpt>
      <trkpt lat="44.38126" lon="3.84853">
        <ele>1408</ele>
        <time>2017-03-03T23:27:38Z</time>
      </trkpt>
      <trkpt lat="44.38123" lon="3.84865">
        <ele>1408</ele>
        <time>2017-03-03T23:29:38Z</time>
      </trkpt>
      <trkpt lat="44.38122" lon="3.84875">
        <ele>1408</ele>
        <time>2017-03-03T23:31:38Z</time>
      </trkpt>
      <trkpt lat="44.38123" lon="3.849">
        <ele>1409</ele>
        <time>2017-03-03T23:33:38Z</time>
      </trkpt>
      <trkpt lat="44.38126" lon="3.84919">
        <ele>1410</ele>
        <time>2017-03-03T23:35:38Z</time>
      </trkpt>
      <trkpt lat="44.38129" lon="3.84932">
        <ele>1411</ele>
        <time>2017-03-03T23:37:38Z</time>
      </trkpt>
      <trkpt lat="44.38136" lon="3.84954">
        <ele>1412</ele>
        <time>2017-03-03T23:39:38Z</time>
      </trkpt>
      <trkpt lat="44.3815" lon="3.84997">
        <ele>1415</ele>
        <time>2017-03-03T23:41:38Z</time>
      </trkpt>
      <trkpt lat="44.38159" lon="3.85019">
        <ele>1416</ele>
        <time>2017-03-03T23:43:38Z</time>
      </trkpt>
      <trkpt lat="44.38164" lon="3.85033">
        <ele>1416</ele>
        <time>2017-03-03T23:45:38Z</time>
      </trkpt>
      <trkpt lat="44.38168" lon="3.85051">
        <ele>1416</ele>
        <time>2017-03-03T23:47:38Z</time>
      </trkpt>
      <trkpt lat="44.38171" lon="3.85062">
        <ele>1416</ele>
        <time>2017-03-03T23:49:38Z</time>
      </trkpt>
      <trkpt lat="44.38174" lon="3.85069">
        <ele>1416</ele>
        <time>2017-03-03T23:51:38Z</time>
      </trkpt>
      <trkpt lat="44.38183" lon="3.85077">
        <ele>1416</ele>
        <time>2017-03-03T23:53:38Z</time>
      </trkpt>
      <trkpt lat="44.38195" lon="3.85081">
        <ele>1417</ele>
        <time>2017-03-03T23:55:38Z</time>
      </trkpt>
      <trkpt lat="44.38202" lon="3.85084">
        <ele>1418</ele>
        <time>2017-03-03T23:57:38Z</time>
      </trkpt>
      <trkpt lat="44.38221" lon="3.85084">
        <ele>1419</ele>
        <time>2017-03-03T23:59:38Z</time>
      </trkpt>
      <trkpt lat="44.3824" lon="3.85085">
        <ele>1420</ele>
        <time>2017-03-04T00:01:38Z</time>
      </trkpt>
      <trkpt lat="44.38258" lon="3.85086">
        <ele>1421</ele>
        <time>2017-03-04T00:03:38Z</time>
      </trkpt>
      <trkpt lat="44.38268" lon="3.85085">
        <ele>1421</ele>
        <time>2017-03-04T00:05:38Z</time>
      </trkpt>
      <trkpt lat="44.38284" lon="3.85076">
        <ele>1422</ele>
        <time>2017-03-04T00:07:38Z</time>
      </trkpt>
      <trkpt lat="44.38292" lon="3.85073">
        <ele>1423</ele>
        <time>2017-03-04T00:09:38Z</time>
      </trkpt>
      <trkpt lat="44.38302" lon="3.85072">
        <ele>1423</ele>
        <time>2017-03-04T00:11:38Z</time>
      </trkpt>
      <trkpt lat="44.38311" lon="3.85075">
        <ele>1423</ele>
        <time>2017-03-04T00:13:38Z</time>
      </trkpt>
      <trkpt lat="44.38315" lon="3.85077">
        <ele>1422</ele>
        <time>2017-03-04T00:15:38Z</time>
      </trkpt>
      <trkpt lat="44.3832" lon="3.85081">
        <ele>1422</ele>
        <time>2017-03-04T00:17:38Z</time>
      </trkpt>
      <trkpt lat="44.38326" lon="3.85083">
        <ele>1422</ele>
        <time>2017-03-04T00:19:38Z</time>
      </trkpt>
      <trkpt lat="44.38347" lon="3.85082">
        <ele>1423</ele>
        <time>2017-03-04T00:21:38Z</time>
      </trkpt>
      <trkpt lat="44.38355" lon="3.85082">
        <ele>1423</ele>
        <time>2017-03-04T00:23:38Z</time>
      </trkpt>
      <trkpt lat="44.38364" lon="3.85084">
        <ele>1424</ele>
        <time>2017-03-04T00:25:38Z</time>
      </trkpt>
      <trkpt lat="44.38381" lon="3.85093">
        <ele>1425</ele>
        <time>2017-03-04T00:27:38Z</time>
      </trkpt>
      <trkpt lat="44.38425" lon="3.85118">
        <ele>1426</ele>
        <time>2017-03-04T00:29:38Z</time>
      </trkpt>
      <trkpt lat="44.38458" lon="3.85138">
        <ele>1428</ele>
        <time>2017-03-04T00:31:38Z</time>
      </trkpt>
      <trkpt lat="44.38463" lon="3.85141">
        <ele>1428</ele>
        <time>2017-03-04T00:33:38Z</time>
      </trkpt>
      <trkpt lat="44.38467" lon="3.85144">
        <ele>1428</ele>
        <time>2017-03-04T00:35:38Z</time>
      </trkpt>
      <trkpt lat="44.38474" lon="3.85153">
        <ele>1428</ele>
        <time>2017-03-04T00:37:38Z</time>
      </trkpt>
      <trkpt lat="44.38479" lon="3.85163">
        <ele>1429</ele>
        <time>2017-03-04T00:39:38Z</time>
      </trkpt>
      <trkpt lat="44.38481" lon="3.85173">
        <ele>1429</ele>
        <time>2017-03-04T00:41:38Z</time>
      </trkpt>
      <trkpt lat="44.38481" lon="3.85196">
        <ele>1430</ele>
        <time>2017-03-04T00:43:38Z</time>
      </trkpt>
      <trkpt lat="44.38479" lon="3.85217">
        <ele>1431</ele>
        <time>2017-03-04T00:45:38Z</time>
      </trkpt>
      <trkpt lat="44.38479" lon="3.85218">
        <ele>1431</ele>
        <time>2017-03-04T00:47:38Z</time>
      </trkpt>
      <trkpt lat="44.38479" lon="3.8522">
        <ele>1431</ele>
        <time>2017-03-04T00:49:38Z</time>
      </trkpt>
      <trkpt lat="44.38479" lon="3.85221">
        <ele>1431</ele>
        <time>2017-03-04T00:51:38Z</time>
      </trkpt>
      <trkpt lat="44.38476" lon="3.85226">
        <ele>1431</ele>
        <time>2017-03-04T00:53:38Z</time>
      </trkpt>
      <trkpt lat="44.3847" lon="3.85233">
        <ele>1431</ele>
        <time>2017-03-04T00:55:38Z</time>
      </trkpt>
      <trkpt lat="44.38461" lon="3.8524">
        <ele>1431</ele>
        <time>2017-03-04T00:57:38Z</time>
      </trkpt>
      <trkpt lat="44.38447" lon="3.85245">
        <ele>1430</ele>
        <time>2017-03-04T00:59:38Z</time>
      </trkpt>
      <trkpt lat="44.38436" lon="3.85249">
        <ele>1430</ele>
        <time>2017-03-04T01:01:38Z</time>
      </trkpt>
      <trkpt lat="44.38424" lon="3.85256">
        <ele>1430</ele>
        <time>2017-03-04T01:03:38Z</time>
      </trkpt>
      <trkpt lat="44.3841" lon="3.85264">
        <ele>1431</ele>
        <time>2017-03-04T01:05:38Z</time>
      </trkpt>
      <trkpt lat="44.38398" lon="3.85273">
        <ele>1432</ele>
        <time>2017-03-04T01:07:38Z</time>
      </trkpt>
      <trkpt lat="44.38386" lon="3.85285">
        <ele>1433</ele>
        <time>2017-03-04T01:09:38Z</time>
      </trkpt>
      <trkpt lat="44.38376" lon="3.85297">
        <ele>1435</ele>
        <time>2017-03-04T01:11:38Z</time>
      </trkpt>
      <trkpt lat="44.38367" lon="3.85304">
        <ele>1436</ele>
        <time>2017-03-04T01:13:38Z</time>
      </trkpt>
      <trkpt lat="44.38351" lon="3.85315">
        <ele>1437</ele>
        <time>2017-03-04T01:15:38Z</time>
      </trkpt>
      <trkpt lat="44.3834" lon="3.85325">
        <ele>1438</ele>
        <time>2017-03-04T01:17:38Z</time>
      </trkpt>
      <trkpt lat="44.38325" lon="3.85342">
        <ele>1439</ele>
        <time>2017-03-04T01:19:38Z</time>
      </trkpt>
      <trkpt lat="44.38316" lon="3.85355">
        <ele>1439</ele>
        <time>2017-03-04T01:21:38Z</time>
      </trkpt>
      <trkpt lat="44.38306" lon="3.85368">
        <ele>1439</ele>
        <time>2017-03-04T01:23:38Z</time>
      </trkpt>
      <trkpt lat="44.38301" lon="3.8538">
        <ele>1439</ele>
        <time>2017-03-04T01:25:38Z</time>
      </trkpt>
      <trkpt lat="44.38298" lon="3.85388">
        <ele>1439</ele>
        <time>2017-03-04T01:27:38Z</time>
      </trkpt>
      <trkpt lat="44.38297" lon="3.85398">
        <ele>1439</ele>
        <time>2017-03-04T01:29:38Z</time>
      </trkpt>
      <trkpt lat="44.38299" lon="3.85425">
        <ele>1438</ele>
        <time>2017-03-04T01:31:38Z</time>
      </trkpt>
      <trkpt lat="44.38303" lon="3.85458">
        <ele>1437</ele>
        <time>2017-03-04T01:33:38Z</time>
      </trkpt>
      <trkpt lat="44.38308" lon="3.85476">
        <ele>1437</ele>
        <time>2017-03-04T01:35:38Z</time>
      </trkpt>
      <trkpt lat="44.38312" lon="3.8549">
        <ele>1436</ele>
        <time>2017-03-04T01:37:38Z</time>
      </trkpt>
      <trkpt lat="44.38316" lon="3.85499">
        <ele>1436</ele>
        <time>2017-03-04T01:39:38Z</time>
      </trkpt>
      <trkpt lat="44.38323" lon="3.85535">
        <ele>1435</ele>
        <time>2017-03-04T01:41:38Z</time>
      </trkpt>
      <trkpt lat="44.38329" lon="3.85555">
        <ele>1434</ele>
        <time>2017-03-04T01:43:38Z</time>
      </trkpt>
      <trkpt lat="44.38336" lon="3.85573">
        <ele>1434</ele>
        <time>2017-03-04T01:45:38Z</time>
      </trkpt>
      <trkpt lat="44.38344" lon="3.85589">
        <ele>1434</ele>
        <time>2017-03-04T01:47:38Z</time>
      </trkpt>
      <trkpt lat="44.38351" lon="3.85611">
        <ele>1435</ele>
        <time>2017-03-04T01:49:38Z</time>
      </trkpt>
      <trkpt lat="44.38357" lon="3.85638">
        <ele>1434</ele>
        <time>2017-03-04T01:51:38Z</time>
      </trkpt>
      <trkpt lat="44.38361" lon="3.85665">
        <ele>1434</ele>
        <time>2017-03-04T01:53:38Z</time>
      </trkpt>
      <trkpt lat="44.38362" lon="3.85675">
        <ele>1434</ele>
        <time>2017-03-04T01:55:38Z</time>
      </trkpt>
      <trkpt lat="44.38364" lon="3.85684">
        <ele>1434</ele>
        <time>2017-03-04T01:57:38Z</time>
      </trkpt>
      <trkpt lat="44.38365" lon="3.85695">
        <ele>1434</ele>
        <time>2017-03-04T01:59:38Z</time>
      </trkpt>
      <trkpt lat="44.38366" lon="3.85709">
        <ele>1434</ele>
        <time>2017-03-04T02:01:38Z</time>
      </trkpt>
      <trkpt lat="44.38366" lon="3.85727">
        <ele>1433</ele>
        <time>2017-03-04T02:03:38Z</time>
      </trkpt>
      <trkpt lat="44.38364" lon="3.85836">
        <ele>1433</ele>
        <time>2017-03-04T02:05:38Z</time>
      </trkpt>
      <trkpt lat="44.38362" lon="3.85953">
        <ele>1432</ele>
        <time>2017-03-04T02:07:38Z</time>
      </trkpt>
      <trkpt lat="44.38362" lon="3.85968">
        <ele>1432</ele>
        <time>2017-03-04T02:09:38Z</time>
      </trkpt>
      <trkpt lat="44.38361" lon="3.86033">
        <ele>1433</ele>
        <time>2017-03-04T02:11:38Z</time>
      </trkpt>
      <trkpt lat="44.3836" lon="3.86043">
        <ele>1433</ele>
        <time>2017-03-04T02:13:38Z</time>
      </trkpt>
      <trkpt lat="44.3836" lon="3.86052">
        <ele>1433</ele>
        <time>2017-03-04T02:15:38Z</time>
      </trkpt>
      <trkpt lat="44.3836" lon="3.8606">
        <ele>1433</ele>
        <time>2017-03-04T02:17:38Z</time>
      </trkpt>
      <trkpt lat="44.38358" lon="3.86085">
        <ele>1433</ele>
        <time>2017-03-04T02:19:38Z</time>
      </trkpt>
      <trkpt lat="44.38356" lon="3.86113">
        <ele>1434</ele>
        <time>2017-03-04T02:21:38Z</time>
      </trkpt>
      <trkpt lat="44.38354" lon="3.86124">
        <ele>1434</ele>
        <time>2017-03-04T02:23:38Z</time>
      </trkpt>
      <trkpt lat="44.38351" lon="3.86144">
        <ele>1435</ele>
        <time>2017-03-04T02:25:38Z</time>
      </trkpt>
      <trkpt lat="44.38349" lon="3.86167">
        <ele>1435</ele>
        <time>2017-03-04T02:27:38Z</time>
      </trkpt>
      <trkpt lat="44.38347" lon="3.86184">
        <ele>1435</ele>
        <time>2017-03-04T02:29:38Z</time>
      </trkpt>
      <trkpt lat="44.38344" lon="3.86213">
        <ele>1436</ele>
        <time>2017-03-04T02:31:38Z</time>
      </trkpt>
      <trkpt lat="44.38343" lon="3.86224">
        <ele>1436</ele>
        <time>2017-03-04T02:33:38Z</time>
      </trkpt>
      <trkpt lat="44.38344" lon="3.86234">
        <ele>1436</ele>
        <time>2017-03-04T02:35:38Z</time>
      </trkpt>
      <trkpt lat="44.38345" lon="3.86249">
        <ele>1436</ele>
        <time>2017-03-04T02:37:38Z</time>
      </trkpt>
      <trkpt lat="44.38351" lon="3.8627">
        <ele>1436</ele>
        <time>2017-03-04T02:39:38Z</time>
      </trkpt>
      <trkpt lat="44.38361" lon="3.863">
        <ele>1436</ele>
        <time>2017-03-04T02:41:38Z</time>
      </trkpt>
      <trkpt lat="44.38371" lon="3.86324">
        <ele>1436</ele>
        <time>2017-03-04T02:43:38Z</time>
      </trkpt>
      <trkpt lat="44.38378" lon="3.86345">
        <ele>1436</ele>
        <time>2017-03-04T02:45:38Z</time>
      </trkpt>
      <trkpt lat="44.38383" lon="3.86365">
        <ele>1436</ele>
        <time>2017-03-04T02:47:38Z</time>
      </trkpt>
      <trkpt lat="44.38387" lon="3.86382">
        <ele>1436</ele>
        <time>2017-03-04T02:49:38Z</time>
      </trkpt>
      <trkpt lat="44.38395" lon="3.86402">
        <ele>1436</ele>
        <time>2017-03-04T02:51:38Z</time>
      </trkpt>
      <trkpt lat="44.38409" lon="3.86428">
        <ele>1436</ele>
        <time>2017-03-04T02:53:38Z</time>
      </trkpt>
      <trkpt lat="44.38416" lon="3.86443">
        <ele>1436</ele>
        <time>2017-03-04T02:55:38Z</time>
      </trkpt>
      <trkpt lat="44.38419" lon="3.86455">
        <ele>1435</ele>
        <time>2017-03-04T02:57:38Z</time>
      </trkpt>
      <trkpt lat="44.38422" lon="3.86475">
        <ele>1435</ele>
        <time>2017-03-04T02:59:38Z</time>
      </trkpt>
      <trkpt lat="44.38423" lon="3.86496">
        <ele>1434</ele>
        <time>2017-03-04T03:01:38Z</time>
      </trkpt>
      <trkpt lat="44.38422" lon="3.86508">
        <ele>1434</ele>
        <time>2017-03-04T03:03:38Z</time>
      </trkpt>
      <trkpt lat="44.38419" lon="3.86516">
        <ele>1433</ele>
        <time>2017-03-04T03:05:38Z</time>
      </trkpt>
      <trkpt lat="44.38412" lon="3.86529">
        <ele>1432</ele>
        <time>2017-03-04T03:07:38Z</time>
      </trkpt>
      <trkpt lat="44.38409" lon="3.86539">
        <ele>1431</ele>
        <time>2017-03-04T03:09:38Z</time>
      </trkpt>
      <trkpt lat="44.38408" lon="3.86548">
        <ele>1431</ele>
        <time>2017-03-04T03:11:38Z</time>
      </trkpt>
      <trkpt lat="44.38408" lon="3.86559">
        <ele>1431</ele>
        <time>2017-03-04T03:13:38Z</time>
      </trkpt>
      <trkpt lat="44.38411" lon="3.8657">
        <ele>1431</ele>
        <time>2017-03-04T03:15:38Z</time>
      </trkpt>
      <trkpt lat="44.38421" lon="3.86591">
        <ele>1431</ele>
        <time>2017-03-04T03:17:38Z</time>
      </trkpt>
      <trkpt lat="44.38433" lon="3.86615">
        <ele>1432</ele>
        <time>2017-03-04T03:19:38Z</time>
      </trkpt>
      <trkpt lat="44.38442" lon="3.86633">
        <ele>1432</ele>
        <time>2017-03-04T03:21:38Z</time>
      </trkpt>
      <trkpt lat="44.3845" lon="3.86645">
        <ele>1432</ele>
        <time>2017-03-04T03:23:38Z</time>
      </trkpt>
      <trkpt lat="44.3849" lon="3.86685">
        <ele>1433</ele>
        <time>2017-03-04T03:25:38Z</time>
      </trkpt>
      <trkpt lat="44.38506" lon="3.86702">
        <ele>1433</ele>
        <time>2017-03-04T03:27:38Z</time>
      </trkpt>
      <trkpt lat="44.38521" lon="3.86719">
        <ele>1432</ele>
        <time>2017-03-04T03:29:38Z</time>
      </trkpt>
      <trkpt lat="44.38544" lon="3.86746">
        <ele>1432</ele>
        <time>2017-03-04T03:31:38Z</time>
      </trkpt>
      <trkpt lat="44.38548" lon="3.86752">
        <ele>1432</ele>
        <time>2017-03-04T03:33:38Z</time>
      </trkpt>
      <trkpt lat="44.38548" lon="3.86752">
        <ele>1432</ele>
        <time>2017-03-04T03:35:38Z</time>
      </trkpt>
      <trkpt lat="44.38554" lon="3.86782">
        <ele>1432</ele>
        <time>2017-03-04T03:37:38Z</time>
      </trkpt>
      <trkpt lat="44.38562" lon="3.86808">
        <ele>1432</ele>
        <time>2017-03-04T03:39:38Z</time>
      </trkpt>
      <trkpt lat="44.38565" lon="3.86822">
        <ele>1432</ele>
        <time>2017-03-04T03:41:38Z</time>
      </trkpt>
      <trkpt lat="44.38568" lon="3.86839">
        <ele>1433</ele>
        <time>2017-03-04T03:43:38Z</time>
      </trkpt>
      <trkpt lat="44.38569" lon="3.86843">
        <ele>1433</ele>
        <time>2017-03-04T03:45:38Z</time>
      </trkpt>
      <trkpt lat="44.38574" lon="3.86856">
        <ele>1434</ele>
        <time>2017-03-04T03:47:38Z</time>
      </trkpt>
      <trkpt lat="44.38571" lon="3.86866">
        <ele>1434</ele>
        <time>2017-03-04T03:49:38Z</time>
      </trkpt>
      <trkpt lat="44.38571" lon="3.86875">
        <ele>1434</ele>
        <time>2017-03-04T03:51:38Z</time>
      </trkpt>
      <trkpt lat="44.38571" lon="3.86894">
        <ele>1435</ele>
        <time>2017-03-04T03:53:38Z</time>
      </trkpt>
      <trkpt lat="44.38573" lon="3.86917">
        <ele>1436</ele>
        <time>2017-03-04T03:55:38Z</time>
      </trkpt>
      <trkpt lat="44.38575" lon="3.86936">
        <ele>1436</ele>
        <time>2017-03-04T03:57:38Z</time>
      </trkpt>
      <trkpt lat="44.38576" lon="3.86956">
        <ele>1436</ele>
        <time>2017-03-04T03:59:38Z</time>
      </trkpt>
      <trkpt lat="44.38577" lon="3.86975">
        <ele>1436</ele>
        <time>2017-03-04T04:01:38Z</time>
      </trkpt>
      <trkpt lat="44.38577" lon="3.86982">
        <ele>1436</ele>
        <time>2017-03-04T04:03:38Z</time>
      </trkpt>
      <trkpt lat="44.38578" lon="3.86992">
        <ele>1437</ele>
        <time>2017-03-04T04:05:38Z</time>
      </trkpt>
      <trkpt lat="44.38578" lon="3.86998">
        <ele>1437</ele>
        <time>2017-03-04T04:07:38Z</time>
      </trkpt>
      <trkpt lat="44.38579" lon="3.87003">
        <ele>1436</ele>
        <time>2017-03-04T04:09:38Z</time>
      </trkpt>
      <trkpt lat="44.38582" lon="3.87017">
        <ele>1436</ele>
        <time>2017-03-04T04:11:38Z</time>
      </trkpt>
      <trkpt lat="44.38584" lon="3.87022">
        <ele>1436</ele>
        <time>2017-03-04T04:13:38Z</time>
      </trkpt>
      <trkpt lat="44.38586" lon="3.87028">
        <ele>1436</ele>
        <time>2017-03-04T04:15:38Z</time>
      </trkpt>
      <trkpt lat="44.38587" lon="3.87035">
        <ele>1436</ele>
        <time>2017-03-04T04:17:38Z</time>
      </trkpt>
      <trkpt lat="44.38588" lon="3.87041">
        <ele>1435</ele>
        <time>2017-03-04T04:19:38Z</time>
      </trkpt>
      <trkpt lat="44.3859" lon="3.87047">
        <ele>1435</ele>
        <time>2017-03-04T04:21:38Z</time>
      </trkpt>
      <trkpt lat="44.3859" lon="3.87053">
        <ele>1435</ele>
        <time>2017-03-04T04:23:38Z</time>
      </trkpt>
      <trkpt lat="44.38591" lon="3.87059">
        <ele>1435</ele>
        <time>2017-03-04T04:25:38Z</time>
      </trkpt>
      <trkpt lat="44.38592" lon="3.87065">
        <ele>1435</ele>
        <time>2017-03-04T04:27:38Z</time>
      </trkpt>
      <trkpt lat="44.38592" lon="3.8707">
        <ele>1434</ele>
        <time>2017-03-04T04:29:38Z</time>
      </trkpt>
      <trkpt lat="44.38593" lon="3.87076">
        <ele>1434</ele>
        <time>2017-03-04T04:31:38Z</time>
      </trkpt>
      <trkpt lat="44.38593" lon="3.87083">
        <ele>1434</ele>
        <time>2017-03-04T04:33:38Z</time>
      </trkpt>
      <trkpt lat="44.38593" lon="3.87089">
        <ele>1434</ele>
        <time>2017-03-04T04:35:38Z</time>
      </trkpt>
      <trkpt lat="44.38593" lon="3.87094">
        <ele>1434</ele>
        <time>2017-03-04T04:37:38Z</time>
      </trkpt>
      <trkpt lat="44.38594" lon="3.87099">
        <ele>1433</ele>
        <time>2017-03-04T04:39:38Z</time>
      </trkpt>
      <trkpt lat="44.38594" lon="3.87103">
        <ele>1433</ele>
        <time>2017-03-04T04:41:38Z</time>
      </trkpt>
      <trkpt lat="44.38594" lon="3.87104">
        <ele>1433</ele>
        <time>2017-03-04T04:43:38Z</time>
      </trkpt>
      <trkpt lat="44.38595" lon="3.87107">
        <ele>1433</ele>
        <time>2017-03-04T04:45:38Z</time>
      </trkpt>
      <trkpt lat="44.38596" lon="3.87111">
        <ele>1433</ele>
        <time>2017-03-04T04:47:38Z</time>
      </trkpt>
      <trkpt lat="44.38597" lon="3.87115">
        <ele>1433</ele>
        <time>2017-03-04T04:49:38Z</time>
      </trkpt>
      <trkpt lat="44.38599" lon="3.8712">
        <ele>1433</ele>
        <time>2017-03-04T04:51:38Z</time>
      </trkpt>
      <trkpt lat="44.38599" lon="3.8712">
        <ele>1433</ele>
        <time>2017-03-04T04:53:38Z</time>
      </trkpt>
      <trkpt lat="44.386" lon="3.87123">
        <ele>1433</ele>
        <time>2017-03-04T04:55:38Z</time>
      </trkpt>
      <trkpt lat="44.38602" lon="3.87126">
        <ele>1433</ele>
        <time>2017-03-04T04:57:38Z</time>
      </trkpt>
      <trkpt lat="44.38608" lon="3.87135">
        <ele>1433</ele>
        <time>2017-03-04T04:59:38Z</time>
      </trkpt>
      <trkpt lat="44.38612" lon="3.87138">
        <ele>1434</ele>
        <time>2017-03-04T05:01:38Z</time>
      </trkpt>
      <trkpt lat="44.38616" lon="3.8714">
        <ele>1434</ele>
        <time>2017-03-04T05:03:38Z</time>
      </trkpt>
      <trkpt lat="44.3862" lon="3.87143">
        <ele>1434</ele>
        <time>2017-03-04T05:05:38Z</time>
      </trkpt>
      <trkpt lat="44.38624" lon="3.87145">
        <ele>1434</ele>
        <time>2017-03-04T05:07:38Z</time>
      </trkpt>
      <trkpt lat="44.38627" lon="3.87148">
        <ele>1434</ele>
        <time>2017-03-04T05:09:38Z</time>
      </trkpt>
      <trkpt lat="44.3864" lon="3.87162">
        <ele>1435</ele>
        <time>2017-03-04T05:11:38Z</time>
      </trkpt>
      <trkpt lat="44.38643" lon="3.87166">
        <ele>1435</ele>
        <time>2017-03-04T05:13:38Z</time>
      </trkpt>
      <trkpt lat="44.38645" lon="3.8717">
        <ele>1435</ele>
        <time>2017-03-04T05:15:38Z</time>
      </trkpt>
      <trkpt lat="44.38646" lon="3.87174">
        <ele>1435</ele>
        <time>2017-03-04T05:17:38Z</time>
      </trkpt>
      <trkpt lat="44.38647" lon="3.87179">
        <ele>1435</ele>
        <time>2017-03-04T05:19:38Z</time>
      </trkpt>
      <trkpt lat="44.38648" lon="3.87184">
        <ele>1434</ele>
        <time>2017-03-04T05:21:38Z</time>
      </trkpt>
      <trkpt lat="44.38648" lon="3.87191">
        <ele>1434</ele>
        <time>2017-03-04T05:23:38Z</time>
      </trkpt>
      <trkpt lat="44.38646" lon="3.87211">
        <ele>1433</ele>
        <time>2017-03-04T05:25:38Z</time>
      </trkpt>
      <trkpt lat="44.38645" lon="3.87227">
        <ele>1432</ele>
        <time>2017-03-04T05:27:38Z</time>
      </trkpt>
      <trkpt lat="44.38644" lon="3.87233">
        <ele>1432</ele>
        <time>2017-03-04T05:29:38Z</time>
      </trkpt>
      <trkpt lat="44.38644" lon="3.87234">
        <ele>1431</ele>
        <time>2017-03-04T05:31:38Z</time>
      </trkpt>
      <trkpt lat="44.38644" lon="3.8724">
        <ele>1431</ele>
        <time>2017-03-04T05:33:38Z</time>
      </trkpt>
      <trkpt lat="44.38644" lon="3.87249">
        <ele>1431</ele>
        <time>2017-03-04T05:35:38Z</time>
      </trkpt>
      <trkpt lat="44.38645" lon="3.87258">
        <ele>1431</ele>
        <time>2017-03-04T05:37:38Z</time>
      </trkpt>
      <trkpt lat="44.38644" lon="3.87267">
        <ele>1431</ele>
        <time>2017-03-04T05:39:38Z</time>
      </trkpt>
      <trkpt lat="44.38643" lon="3.87281">
        <ele>1430</ele>
        <time>2017-03-04T05:41:38Z</time>
      </trkpt>
      <trkpt lat="44.38635" lon="3.87319">
        <ele>1429</ele>
        <time>2017-03-04T05:43:38Z</time>
      </trkpt>
      <trkpt lat="44.38625" lon="3.87362">
        <ele>1429</ele>
        <time>2017-03-04T05:45:38Z</time>
      </trkpt>
      <trkpt lat="44.38621" lon="3.87373">
        <ele>1429</ele>
        <time>2017-03-04T05:47:38Z</time>
      </trkpt>
      <trkpt lat="44.38618" lon="3.87385">
        <ele>1429</ele>
        <time>2017-03-04T05:49:38Z</time>
      </trkpt>
      <trkpt lat="44.38615" lon="3.87394">
        <ele>1429</ele>
        <time>2017-03-04T05:51:38Z</time>
      </trkpt>
      <trkpt lat="44.38614" lon="3.87406">
        <ele>1430</ele>
        <time>2017-03-04T05:53:38Z</time>
      </trkpt>
      <trkpt lat="44.38612" lon="3.87424">
        <ele>1430</ele>
        <time>2017-03-04T05:55:38Z</time>
      </trkpt>
      <trkpt lat="44.3861" lon="3.87434">
        <ele>1431</ele>
        <time>2017-03-04T05:57:38Z</time>
      </trkpt>
      <trkpt lat="44.38601" lon="3.87462">
        <ele>1431</ele>
        <time>2017-03-04T05:59:38Z</time>
      </trkpt>
      <trkpt lat="44.38595" lon="3.8748">
        <ele>1431</ele>
        <time>2017-03-04T06:01:38Z</time>
      </trkpt>
      <trkpt lat="44.38594" lon="3.87486">
        <ele>1431</ele>
        <time>2017-03-04T06:03:38Z</time>
      </trkpt>
      <trkpt lat="44.38594" lon="3.87486">
        <ele>1431</ele>
        <time>2017-03-04T06:05:38Z</time>
      </trkpt>
      <trkpt lat="44.386" lon="3.87485">
        <ele>1432</ele>
        <time>2017-03-04T06:07:38Z</time>
      </trkpt>
      <trkpt lat="44.38635" lon="3.87472">
        <ele>1434</ele>
        <time>2017-03-04T06:09:38Z</time>
      </trkpt>
      <trkpt lat="44.38638" lon="3.8747">
        <ele>1435</ele>
        <time>2017-03-04T06:11:38Z</time>
      </trkpt>
      <trkpt lat="44.38641" lon="3.87469">
        <ele>1435</ele>
        <time>2017-03-04T06:13:38Z</time>
      </trkpt>
      <trkpt lat="44.38644" lon="3.87467">
        <ele>1435</ele>
        <time>2017-03-04T06:15:38Z</time>
      </trkpt>
      <trkpt lat="44.38647" lon="3.87464">
        <ele>1435</ele>
        <time>2017-03-04T06:17:38Z</time>
      </trkpt>
      <trkpt lat="44.38649" lon="3.87461">
        <ele>1435</ele>
        <time>2017-03-04T06:19:38Z</time>
      </trkpt>
      <trkpt lat="44.38651" lon="3.87457">
        <ele>1435</ele>
        <time>2017-03-04T06:21:38Z</time>
      </trkpt>
      <trkpt lat="44.38655" lon="3.87443">
        <ele>1435</ele>
        <time>2017-03-04T06:23:38Z</time>
      </trkpt>
      <trkpt lat="44.38662" lon="3.87429">
        <ele>1436</ele>
        <time>2017-03-04T06:25:38Z</time>
      </trkpt>
      <trkpt lat="44.38667" lon="3.87417">
        <ele>1436</ele>
        <time>2017-03-04T06:27:38Z</time>
      </trkpt>
      <trkpt lat="44.38672" lon="3.87408">
        <ele>1437</ele>
        <time>2017-03-04T06:29:38Z</time>
      </trkpt>
      <trkpt lat="44.38686" lon="3.87387">
        <ele>1440</ele>
        <time>2017-03-04T06:31:38Z</time>
      </trkpt>
      <trkpt lat="44.38703" lon="3.87362">
        <ele>1442</ele>
        <time>2017-03-04T06:33:38Z</time>
      </trkpt>
      <trkpt lat="44.3871" lon="3.87352">
        <ele>1443</ele>
        <time>2017-03-04T06:35:38Z</time>
      </trkpt>
      <trkpt lat="44.38716" lon="3.87344">
        <ele>1444</ele>
        <time>2017-03-04T06:37:38Z</time>
      </trkpt>
      <trkpt lat="44.38727" lon="3.87327">
        <ele>1446</ele>
        <time>2017-03-04T06:39:38Z</time>
      </trkpt>
      <trkpt lat="44.3874" lon="3.87313">
        <ele>1448</ele>
        <time>2017-03-04T06:41:38Z</time>
      </trkpt>
      <trkpt lat="44.3875" lon="3.87305">
        <ele>1449</ele>
        <time>2017-03-04T06:43:38Z</time>
      </trkpt>
      <trkpt lat="44.38759" lon="3.87295">
        <ele>1450</ele>
        <time>2017-03-04T06:45:38Z</time>
      </trkpt>
      <trkpt lat="44.38772" lon="3.87287">
        <ele>1451</ele>
        <time>2017-03-04T06:47:38Z</time>
      </trkpt>
      <trkpt lat="44.38795" lon="3.87273">
        <ele>1453</ele>
        <time>2017-03-04T06:49:38Z</time>
      </trkpt>
      <trkpt lat="44.38817" lon="3.87261">
        <ele>1456</ele>
        <time>2017-03-04T06:51:38Z</time>
      </trkpt>
      <trkpt lat="44.38826" lon="3.87257">
        <ele>1457</ele>
        <time>2017-03-04T06:53:38Z</time>
      </trkpt>
      <trkpt lat="44.38852" lon="3.8725">
        <ele>1459</ele>
        <time>2017-03-04T06:55:38Z</time>
      </trkpt>
      <trkpt lat="44.38881" lon="3.87241">
        <ele>1462</ele>
        <time>2017-03-04T06:57:38Z</time>
      </trkpt>
      <trkpt lat="44.389" lon="3.87236">
        <ele>1464</ele>
        <time>2017-03-04T06:59:38Z</time>
      </trkpt>
      <trkpt lat="44.3892" lon="3.8723">
        <ele>1466</ele>
        <time>2017-03-04T07:01:38Z</time>
      </trkpt>
      <trkpt lat="44.38943" lon="3.87224">
        <ele>1469</ele>
        <time>2017-03-04T07:03:38Z</time>
      </trkpt>
      <trkpt lat="44.3896" lon="3.87221">
        <ele>1471</ele>
        <time>2017-03-04T07:05:38Z</time>
      </trkpt>
      <trkpt lat="44.38981" lon="3.87218">
        <ele>1474</ele>
        <time>2017-03-04T07:07:38Z</time>
      </trkpt>
      <trkpt lat="44.38988" lon="3.87216">
        <ele>1474</ele>
        <time>2017-03-04T07:09:38Z</time>
      </trkpt>
      <trkpt lat="44.38993" lon="3.87214">
        <ele>1475</ele>
        <time>2017-03-04T07:11:38Z</time>
      </trkpt>
      <trkpt lat="44.38997" lon="3.87212">
        <ele>1475</ele>
        <time>2017-03-04T07:13:38Z</time>
      </trkpt>
      <trkpt lat="44.39001" lon="3.8721">
        <ele>1475</ele>
        <time>2017-03-04T07:15:38Z</time>
      </trkpt>
      <trkpt lat="44.39006" lon="3.87206">
        <ele>1476</ele>
        <time>2017-03-04T07:17:38Z</time>
      </trkpt>
      <trkpt lat="44.3901" lon="3.87203">
        <ele>1476</ele>
        <time>2017-03-04T07:19:38Z</time>
      </trkpt>
      <trkpt lat="44.39015" lon="3.87198">
        <ele>1477</ele>
        <time>2017-03-04T07:21:38Z</time>
      </trkpt>
      <trkpt lat="44.39028" lon="3.87186">
        <ele>1478</ele>
        <time>2017-03-04T07:23:38Z</time>
      </trkpt>
      <trkpt lat="44.39068" lon="3.87144">
        <ele>1481</ele>
        <time>2017-03-04T07:25:38Z</time>
      </trkpt>
      <trkpt lat="44.39096" lon="3.87116">
        <ele>1484</ele>
        <time>2017-03-04T07:27:38Z</time>
      </trkpt>
      <trkpt lat="44.39123" lon="3.8709">
        <ele>1488</ele>
        <time>2017-03-04T07:29:38Z</time>
      </trkpt>
      <trkpt lat="44.39133" lon="3.87076">
        <ele>1489</ele>
        <time>2017-03-04T07:31:38Z</time>
      </trkpt>
      <trkpt lat="44.39143" lon="3.8706">
        <ele>1491</ele>
        <time>2017-03-04T07:33:38Z</time>
      </trkpt>
      <trkpt lat="44.39147" lon="3.87051">
        <ele>1492</ele>
        <time>2017-03-04T07:35:38Z</time>
      </trkpt>
      <trkpt lat="44.39149" lon="3.87047">
        <ele>1492</ele>
        <time>2017-03-04T07:37:38Z</time>
      </trkpt>
      <trkpt lat="44.3915" lon="3.87042">
        <ele>1492</ele>
        <time>2017-03-04T07:39:38Z</time>
      </trkpt>
      <trkpt lat="44.39151" lon="3.87037">
        <ele>1492</ele>
        <time>2017-03-04T07:41:38Z</time>
      </trkpt>
      <trkpt lat="44.39152" lon="3.87033">
        <ele>1492</ele>
        <time>2017-03-04T07:43:38Z</time>
      </trkpt>
      <trkpt lat="44.39152" lon="3.87027">
        <ele>1492</ele>
        <time>2017-03-04T07:45:38Z</time>
      </trkpt>
      <trkpt lat="44.39152" lon="3.87022">
        <ele>1492</ele>
        <time>2017-03-04T07:47:38Z</time>
      </trkpt>
      <trkpt lat="44.39152" lon="3.87017">
        <ele>1492</ele>
        <time>2017-03-04T07:49:38Z</time>
      </trkpt>
      <trkpt lat="44.39152" lon="3.87012">
        <ele>1492</ele>
        <time>2017-03-04T07:51:38Z</time>
      </trkpt>
      <trkpt lat="44.39152" lon="3.87006">
        <ele>1491</ele>
        <time>2017-03-04T07:53:38Z</time>
      </trkpt>
      <trkpt lat="44.39153" lon="3.87">
        <ele>1491</ele>
        <time>2017-03-04T07:55:38Z</time>
      </trkpt>
      <trkpt lat="44.39154" lon="3.86996">
        <ele>1492</ele>
        <time>2017-03-04T07:57:38Z</time>
      </trkpt>
      <trkpt lat="44.39155" lon="3.86989">
        <ele>1492</ele>
        <time>2017-03-04T07:59:38Z</time>
      </trkpt>
      <trkpt lat="44.39161" lon="3.8697">
        <ele>1493</ele>
        <time>2017-03-04T08:01:38Z</time>
      </trkpt>
      <trkpt lat="44.39169" lon="3.86946">
        <ele>1495</ele>
        <time>2017-03-04T08:03:38Z</time>
      </trkpt>
      <trkpt lat="44.39175" lon="3.86918">
        <ele>1496</ele>
        <time>2017-03-04T08:05:38Z</time>
      </trkpt>
      <trkpt lat="44.39177" lon="3.86902">
        <ele>1497</ele>
        <time>2017-03-04T08:07:38Z</time>
      </trkpt>
      <trkpt lat="44.39177" lon="3.86895">
        <ele>1497</ele>
        <time>2017-03-04T08:09:38Z</time>
      </trkpt>
      <trkpt lat="44.39177" lon="3.86895">
        <ele>1497</ele>
        <time>2017-03-04T08:11:38Z</time>
      </trkpt>
      <trkpt lat="44.39192" lon="3.86876">
        <ele>1500</ele>
        <time>2017-03-04T08:13:38Z</time>
      </trkpt>
      <trkpt lat="44.39194" lon="3.86875">
        <ele>1500</ele>
        <time>2017-03-04T08:15:38Z</time>
      </trkpt>
      <trkpt lat="44.39196" lon="3.86875">
        <ele>1500</ele>
        <time>2017-03-04T08:17:38Z</time>
      </trkpt>
      <trkpt lat="44.39199" lon="3.86877">
        <ele>1501</ele>
        <time>2017-03-04T08:19:38Z</time>
      </trkpt>
      <trkpt lat="44.39212" lon="3.86893">
        <ele>1503</ele>
        <time>2017-03-04T08:21:38Z</time>
      </trkpt>
      <trkpt lat="44.3922" lon="3.869">
        <ele>1504</ele>
        <time>2017-03-04T08:23:38Z</time>
      </trkpt>
      <trkpt lat="44.39233" lon="3.86911">
        <ele>1507</ele>
        <time>2017-03-04T08:25:38Z</time>
      </trkpt>
      <trkpt lat="44.39252" lon="3.86923">
        <ele>1511</ele>
        <time>2017-03-04T08:27:38Z</time>
      </trkpt>
      <trkpt lat="44.39274" lon="3.86937">
        <ele>1515</ele>
        <time>2017-03-04T08:29:38Z</time>
      </trkpt>
      <trkpt lat="44.39287" lon="3.86945">
        <ele>1518</ele>
        <time>2017-03-04T08:31:38Z</time>
      </trkpt>
      <trkpt lat="44.39287" lon="3.86945">
        <ele>1518</ele>
        <time>2017-03-04T08:33:38Z</time>
      </trkpt>
      <trkpt lat="44.39291" lon="3.86938">
        <ele>1518</ele>
        <time>2017-03-04T08:35:38Z</time>
      </trkpt>
      <trkpt lat="44.39304" lon="3.86921">
        <ele>1519</ele>
        <time>2017-03-04T08:37:38Z</time>
      </trkpt>
      <trkpt lat="44.39313" lon="3.86911">
        <ele>1520</ele>
        <time>2017-03-04T08:39:38Z</time>
      </trkpt>
      <trkpt lat="44.39318" lon="3.86905">
        <ele>1521</ele>
        <time>2017-03-04T08:41:38Z</time>
      </trkpt>
      <trkpt lat="44.39326" lon="3.86901">
        <ele>1522</ele>
        <time>2017-03-04T08:43:38Z</time>
      </trkpt>
      <trkpt lat="44.39339" lon="3.86896">
        <ele>1524</ele>
        <time>2017-03-04T08:45:38Z</time>
      </trkpt>
      <trkpt lat="44.39348" lon="3.86894">
        <ele>1525</ele>
        <time>2017-03-04T08:47:38Z</time>
      </trkpt>
      <trkpt lat="44.39357" lon="3.86888">
        <ele>1527</ele>
        <time>2017-03-04T08:49:38Z</time>
      </trkpt>
      <trkpt lat="44.39365" lon="3.86881">
        <ele>1528</ele>
        <time>2017-03-04T08:51:38Z</time>
      </trkpt>
      <trkpt lat="44.3937" lon="3.86875">
        <ele>1529</ele>
        <time>2017-03-04T08:53:38Z</time>
      </trkpt>
      <trkpt lat="44.39374" lon="3.86871">
        <ele>1529</ele>
        <time>2017-03-04T08:55:38Z</time>
      </trkpt>
      <trkpt lat="44.39387" lon="3.86855">
        <ele>1531</ele>
        <time>2017-03-04T08:57:38Z</time>
      </trkpt>
      <trkpt lat="44.39407" lon="3.86819">
        <ele>1533</ele>
        <time>2017-03-04T08:59:38Z</time>
      </trkpt>
      <trkpt lat="44.39431" lon="3.86762">
        <ele>1535</ele>
        <time>2017-03-04T09:01:38Z</time>
      </trkpt>
      <trkpt lat="44.39448" lon="3.86726">
        <ele>1537</ele>
        <time>2017-03-04T09:03:38Z</time>
      </trkpt>
      <trkpt lat="44.39459" lon="3.86708">
        <ele>1538</ele>
        <time>2017-03-04T09:05:38Z</time>
      </trkpt>
      <trkpt lat="44.39478" lon="3.86684">
        <ele>1540</ele>
        <time>2017-03-04T09:07:38Z</time>
      </trkpt>
      <trkpt lat="44.39506" lon="3.86649">
        <ele>1544</ele>
        <time>2017-03-04T09:09:38Z</time>
      </trkpt>
      <trkpt lat="44.39542" lon="3.86597">
        <ele>1548</ele>
        <time>2017-03-04T09:11:38Z</time>
      </trkpt>
      <trkpt lat="44.39563" lon="3.86564">
        <ele>1552</ele>
        <time>2017-03-04T09:13:38Z</time>
      </trkpt>
      <trkpt lat="44.39569" lon="3.86552">
        <ele>1553</ele>
        <time>2017-03-04T09:15:38Z</time>
      </trkpt>
      <trkpt lat="44.39581" lon="3.86506">
        <ele>1555</ele>
        <time>2017-03-04T09:17:38Z</time>
      </trkpt>
      <trkpt lat="44.39585" lon="3.86483">
        <ele>1556</ele>
        <time>2017-03-04T09:19:38Z</time>
      </trkpt>
      <trkpt lat="44.39584" lon="3.86472">
        <ele>1556</ele>
        <time>2017-03-04T09:21:38Z</time>
      </trkpt>
      <trkpt lat="44.39583" lon="3.86463">
        <ele>1557</ele>
        <time>2017-03-04T09:23:38Z</time>
      </trkpt>
      <trkpt lat="44.39578" lon="3.86444">
        <ele>1556</ele>
        <time>2017-03-04T09:25:38Z</time>
      </trkpt>
      <trkpt lat="44.3957" lon="3.86393">
        <ele>1558</ele>
        <time>2017-03-04T09:27:38Z</time>
      </trkpt>
      <trkpt lat="44.39566" lon="3.86371">
        <ele>1559</ele>
        <time>2017-03-04T09:29:38Z</time>
      </trkpt>
      <trkpt lat="44.39564" lon="3.86345">
        <ele>1562</ele>
        <time>2017-03-04T09:31:38Z</time>
      </trkpt>
      <trkpt lat="44.39562" lon="3.86317">
        <ele>1563</ele>
        <time>2017-03-04T09:33:38Z</time>
      </trkpt>
      <trkpt lat="44.39562" lon="3.86278">
        <ele>1564</ele>
        <time>2017-03-04T09:35:38Z</time>
      </trkpt>
      <trkpt lat="44.39563" lon="3.86248">
        <ele>1565</ele>
        <time>2017-03-04T09:37:38Z</time>
      </trkpt>
      <trkpt lat="44.39571" lon="3.86197">
        <ele>1568</ele>
        <time>2017-03-04T09:39:38Z</time>
      </trkpt>
      <trkpt lat="44.39571" lon="3.86193">
        <ele>1567</ele>
        <time>2017-03-04T09:41:38Z</time>
      </trkpt>
      <trkpt lat="44.39572" lon="3.86191">
        <ele>1568</ele>
        <time>2017-03-04T09:43:38Z</time>
      </trkpt>
      <trkpt lat="44.39578" lon="3.86144">
        <ele>1570</ele>
        <time>2017-03-04T09:45:38Z</time>
      </trkpt>
      <trkpt lat="44.39584" lon="3.86105">
        <ele>1573</ele>
        <time>2017-03-04T09:47:38Z</time>
      </trkpt>
      <trkpt lat="44.39592" lon="3.8607">
        <ele>1577</ele>
        <time>2017-03-04T09:49:38Z</time>
      </trkpt>
      <trkpt lat="44.39597" lon="3.86047">
        <ele>1580</ele>
        <time>2017-03-04T09:51:38Z</time>
      </trkpt>
      <trkpt lat="44.39597" lon="3.86031">
        <ele>1581</ele>
        <time>2017-03-04T09:53:38Z</time>
      </trkpt>
      <trkpt lat="44.39597" lon="3.86023">
        <ele>1582</ele>
        <time>2017-03-04T09:55:38Z</time>
      </trkpt>
      <trkpt lat="44.39594" lon="3.86014">
        <ele>1581</ele>
        <time>2017-03-04T09:57:38Z</time>
      </trkpt>
      <trkpt lat="44.39585" lon="3.8599">
        <ele>1582</ele>
        <time>2017-03-04T09:59:38Z</time>
      </trkpt>
      <trkpt lat="44.39564" lon="3.85934">
        <ele>1585</ele>
        <time>2017-03-04T10:01:38Z</time>
      </trkpt>
      <trkpt lat="44.39546" lon="3.85891">
        <ele>1587</ele>
        <time>2017-03-04T10:03:38Z</time>
      </trkpt>
      <trkpt lat="44.39528" lon="3.85856">
        <ele>1588</ele>
        <time>2017-03-04T10:05:38Z</time>
      </trkpt>
      <trkpt lat="44.39512" lon="3.85823">
        <ele>1589</ele>
        <time>2017-03-04T10:07:38Z</time>
      </trkpt>
      <trkpt lat="44.39505" lon="3.85809">
        <ele>1589</ele>
        <time>2017-03-04T10:09:38Z</time>
      </trkpt>
      <trkpt lat="44.39494" lon="3.85773">
        <ele>1591</ele>
        <time>2017-03-04T10:11:38Z</time>
      </trkpt>
      <trkpt lat="44.39485" lon="3.8574">
        <ele>1592</ele>
        <time>2017-03-04T10:13:38Z</time>
      </trkpt>
      <trkpt lat="44.39484" lon="3.85725">
        <ele>1591</ele>
        <time>2017-03-04T10:15:38Z</time>
      </trkpt>
      <trkpt lat="44.39484" lon="3.85714">
        <ele>1591</ele>
        <time>2017-03-04T10:17:38Z</time>
      </trkpt>
      <trkpt lat="44.39488" lon="3.85706">
        <ele>1591</ele>
        <time>2017-03-04T10:19:38Z</time>
      </trkpt>
      <trkpt lat="44.39493" lon="3.85701">
        <ele>1591</ele>
        <time>2017-03-04T10:21:38Z</time>
      </trkpt>
      <trkpt lat="44.39506" lon="3.85697">
        <ele>1591</ele>
        <time>2017-03-04T10:23:38Z</time>
      </trkpt>
      <trkpt lat="44.39521" lon="3.85695">
        <ele>1592</ele>
        <time>2017-03-04T10:25:38Z</time>
      </trkpt>
      <trkpt lat="44.39556" lon="3.85693">
        <ele>1594</ele>
        <time>2017-03-04T10:27:38Z</time>
      </trkpt>
      <trkpt lat="44.39571" lon="3.85692">
        <ele>1594</ele>
        <time>2017-03-04T10:29:38Z</time>
      </trkpt>
      <trkpt lat="44.3961" lon="3.85686">
        <ele>1596</ele>
        <time>2017-03-04T10:31:38Z</time>
      </trkpt>
      <trkpt lat="44.39633" lon="3.85682">
        <ele>1596</ele>
        <time>2017-03-04T10:33:38Z</time>
      </trkpt>
      <trkpt lat="44.39647" lon="3.85681">
        <ele>1597</ele>
        <time>2017-03-04T10:35:38Z</time>
      </trkpt>
      <trkpt lat="44.39657" lon="3.85681">
        <ele>1597</ele>
        <time>2017-03-04T10:37:38Z</time>
      </trkpt>
      <trkpt lat="44.39663" lon="3.85683">
        <ele>1598</ele>
        <time>2017-03-04T10:39:38Z</time>
      </trkpt>
      <trkpt lat="44.39689" lon="3.85692">
        <ele>1599</ele>
        <time>2017-03-04T10:41:38Z</time>
      </trkpt>
      <trkpt lat="44.39694" lon="3.85693">
        <ele>1599</ele>
        <time>2017-03-04T10:43:38Z</time>
      </trkpt>
      <trkpt lat="44.39748" lon="3.85715">
        <ele>1601</ele>
        <time>2017-03-04T10:45:38Z</time>
      </trkpt>
      <trkpt lat="44.39751" lon="3.85716">
        <ele>1601</ele>
        <time>2017-03-04T10:47:38Z</time>
      </trkpt>
      <trkpt lat="44.39771" lon="3.85725">
        <ele>1603</ele>
        <time>2017-03-04T10:49:38Z</time>
      </trkpt>
      <trkpt lat="44.39781" lon="3.85728">
        <ele>1603</ele>
        <time>2017-03-04T10:51:38Z</time>
      </trkpt>
      <trkpt lat="44.39788" lon="3.85728">
        <ele>1604</ele>
        <time>2017-03-04T10:53:38Z</time>
      </trkpt>
      <trkpt lat="44.39797" lon="3.85727">
        <ele>1604</ele>
        <time>2017-03-04T10:55:38Z</time>
      </trkpt>
      <trkpt lat="44.39838" lon="3.85707">
        <ele>1602</ele>
        <time>2017-03-04T10:57:38Z</time>
      </trkpt>
      <trkpt lat="44.39843" lon="3.85705">
        <ele>1602</ele>
        <time>2017-03-04T10:59:38Z</time>
      </trkpt>
      <trkpt lat="44.39867" lon="3.85694">
        <ele>1602</ele>
        <time>2017-03-04T11:01:38Z</time>
      </trkpt>
      <trkpt lat="44.39875" lon="3.85689">
        <ele>1602</ele>
        <time>2017-03-04T11:03:38Z</time>
      </trkpt>
      <trkpt lat="44.39887" lon="3.85678">
        <ele>1602</ele>
        <time>2017-03-04T11:05:38Z</time>
      </trkpt>
      <trkpt lat="44.39896" lon="3.85669">
        <ele>1602</ele>
        <time>2017-03-04T11:07:38Z</time>
      </trkpt>
      <trkpt lat="44.39937" lon="3.85617">
        <ele>1599</ele>
        <time>2017-03-04T11:09:38Z</time>
      </trkpt>
      <trkpt lat="44.39958" lon="3.85592">
        <ele>1597</ele>
        <time>2017-03-04T11:11:38Z</time>
      </trkpt>
      <trkpt lat="44.39978" lon="3.8556">
        <ele>1597</ele>
        <time>2017-03-04T11:13:38Z</time>
      </trkpt>
      <trkpt lat="44.39978" lon="3.8556">
        <ele>1597</ele>
        <time>2017-03-04T11:15:38Z</time>
      </trkpt>
      <trkpt lat="44.39984" lon="3.85565">
        <ele>1597</ele>
        <time>2017-03-04T11:17:38Z</time>
      </trkpt>
      <trkpt lat="44.3999" lon="3.85568">
        <ele>1596</ele>
        <time>2017-03-04T11:19:38Z</time>
      </trkpt>
      <trkpt lat="44.39997" lon="3.85573">
        <ele>1596</ele>
        <time>2017-03-04T11:21:38Z</time>
      </trkpt>
      <trkpt lat="44.40002" lon="3.85574">
        <ele>1595</ele>
        <time>2017-03-04T11:23:38Z</time>
      </trkpt>
      <trkpt lat="44.40008" lon="3.85575">
        <ele>1592</ele>
        <time>2017-03-04T11:25:38Z</time>
      </trkpt>
      <trkpt lat="44.40013" lon="3.85575">
        <ele>1590</ele>
        <time>2017-03-04T11:27:38Z</time>
      </trkpt>
      <trkpt lat="44.40018" lon="3.85575">
        <ele>1588</ele>
        <time>2017-03-04T11:29:38Z</time>
      </trkpt>
      <trkpt lat="44.4002" lon="3.85574">
        <ele>1588</ele>
        <time>2017-03-04T11:31:38Z</time>
      </trkpt>
      <trkpt lat="44.40023" lon="3.8557">
        <ele>1587</ele>
        <time>2017-03-04T11:33:38Z</time>
      </trkpt>
      <trkpt lat="44.4003" lon="3.85558">
        <ele>1586</ele>
        <time>2017-03-04T11:35:38Z</time>
      </trkpt>
      <trkpt lat="44.40032" lon="3.85554">
        <ele>1585</ele>
        <time>2017-03-04T11:37:38Z</time>
      </trkpt>
      <trkpt lat="44.40034" lon="3.85553">
        <ele>1585</ele>
        <time>2017-03-04T11:39:38Z</time>
      </trkpt>
      <trkpt lat="44.40035" lon="3.85554">
        <ele>1584</ele>
        <time>2017-03-04T11:41:38Z</time>
      </trkpt>
      <trkpt lat="44.40035" lon="3.85557">
        <ele>1584</ele>
        <time>2017-03-04T11:43:38Z</time>
      </trkpt>
      <trkpt lat="44.40035" lon="3.85564">
        <ele>1583</ele>
        <time>2017-03-04T11:45:38Z</time>
      </trkpt>
      <trkpt lat="44.40035" lon="3.85571">
        <ele>1582</ele>
        <time>2017-03-04T11:47:38Z</time>
      </trkpt>
      <trkpt lat="44.40036" lon="3.85576">
        <ele>1581</ele>
        <time>2017-03-04T11:49:38Z</time>
      </trkpt>
      <trkpt lat="44.40037" lon="3.85576">
        <ele>1580</ele>
        <time>2017-03-04T11:51:38Z</time>
      </trkpt>
      <trkpt lat="44.40038" lon="3.85576">
        <ele>1580</ele>
        <time>2017-03-04T11:53:38Z</time>
      </trkpt>
      <trkpt lat="44.40039" lon="3.85576">
        <ele>1580</ele>
        <time>2017-03-04T11:55:38Z</time>
      </trkpt>
      <trkpt lat="44.4004" lon="3.8557">
        <ele>1580</ele>
        <time>2017-03-04T11:57:38Z</time>
      </trkpt>
      <trkpt lat="44.40041" lon="3.85562">
        <ele>1581</ele>
        <time>2017-03-04T11:59:38Z</time>
      </trkpt>
      <trkpt lat="44.40042" lon="3.85559">
        <ele>1581</ele>
        <time>2017-03-04T12:01:38Z</time>
      </trkpt>
      <trkpt lat="44.40043" lon="3.85557">
        <ele>1581</ele>
        <time>2017-03-04T12:03:38Z</time>
      </trkpt>
      <trkpt lat="44.40045" lon="3.85557">
        <ele>1580</ele>
        <time>2017-03-04T12:05:38Z</time>
      </trkpt>
      <trkpt lat="44.40046" lon="3.85557">
        <ele>1579</ele>
        <time>2017-03-04T12:07:38Z</time>
      </trkpt>
      <trkpt lat="44.40048" lon="3.85559">
        <ele>1578</ele>
        <time>2017-03-04T12:09:38Z</time>
      </trkpt>
      <trkpt lat="44.40049" lon="3.85566">
        <ele>1577</ele>
        <time>2017-03-04T12:11:38Z</time>
      </trkpt>
      <trkpt lat="44.4005" lon="3.85576">
        <ele>1575</ele>
        <time>2017-03-04T12:13:38Z</time>
      </trkpt>
      <trkpt lat="44.40051" lon="3.85579">
        <ele>1574</ele>
        <time>2017-03-04T12:15:38Z</time>
      </trkpt>
      <trkpt lat="44.40052" lon="3.85579">
        <ele>1574</ele>
        <time>2017-03-04T12:17:38Z</time>
      </trkpt>
      <trkpt lat="44.40053" lon="3.85577">
        <ele>1574</ele>
        <time>2017-03-04T12:19:38Z</time>
      </trkpt>
      <trkpt lat="44.40053" lon="3.85572">
        <ele>1574</ele>
        <time>2017-03-04T12:21:38Z</time>
      </trkpt>
      <trkpt lat="44.40054" lon="3.85562">
        <ele>1576</ele>
        <time>2017-03-04T12:23:38Z</time>
      </trkpt>
      <trkpt lat="44.40054" lon="3.85554">
        <ele>1577</ele>
        <time>2017-03-04T12:25:38Z</time>
      </trkpt>
      <trkpt lat="44.40055" lon="3.85552">
        <ele>1577</ele>
        <time>2017-03-04T12:27:38Z</time>
      </trkpt>
      <trkpt lat="44.40056" lon="3.85551">
        <ele>1577</ele>
        <time>2017-03-04T12:29:38Z</time>
      </trkpt>
      <trkpt lat="44.40058" lon="3.85552">
        <ele>1576</ele>
        <time>2017-03-04T12:31:38Z</time>
      </trkpt>
      <trkpt lat="44.40059" lon="3.85554">
        <ele>1575</ele>
        <time>2017-03-04T12:33:38Z</time>
      </trkpt>
      <trkpt lat="44.40061" lon="3.85568">
        <ele>1572</ele>
        <time>2017-03-04T12:35:38Z</time>
      </trkpt>
      <trkpt lat="44.40061" lon="3.85574">
        <ele>1571</ele>
        <time>2017-03-04T12:37:38Z</time>
      </trkpt>
      <trkpt lat="44.40061" lon="3.85579">
        <ele>1570</ele>
        <time>2017-03-04T12:39:38Z</time>
      </trkpt>
      <trkpt lat="44.40059" lon="3.85585">
        <ele>1570</ele>
        <time>2017-03-04T12:41:38Z</time>
      </trkpt>
      <trkpt lat="44.40059" lon="3.85592">
        <ele>1569</ele>
        <time>2017-03-04T12:43:38Z</time>
      </trkpt>
      <trkpt lat="44.40062" lon="3.85593">
        <ele>1568</ele>
        <time>2017-03-04T12:45:38Z</time>
      </trkpt>
      <trkpt lat="44.40064" lon="3.85589">
        <ele>1567</ele>
        <time>2017-03-04T12:47:38Z</time>
      </trkpt>
      <trkpt lat="44.40066" lon="3.85581">
        <ele>1568</ele>
        <time>2017-03-04T12:49:38Z</time>
      </trkpt>
      <trkpt lat="44.40069" lon="3.85571">
        <ele>1568</ele>
        <time>2017-03-04T12:51:38Z</time>
      </trkpt>
      <trkpt lat="44.40069" lon="3.85566">
        <ele>1569</ele>
        <time>2017-03-04T12:53:38Z</time>
      </trkpt>
      <trkpt lat="44.4007" lon="3.85559">
        <ele>1570</ele>
        <time>2017-03-04T12:55:38Z</time>
      </trkpt>
      <trkpt lat="44.40071" lon="3.85552">
        <ele>1571</ele>
        <time>2017-03-04T12:57:38Z</time>
      </trkpt>
      <trkpt lat="44.40072" lon="3.85548">
        <ele>1571</ele>
        <time>2017-03-04T12:59:38Z</time>
      </trkpt>
      <trkpt lat="44.40072" lon="3.85545">
        <ele>1572</ele>
        <time>2017-03-04T13:01:38Z</time>
      </trkpt>
      <trkpt lat="44.40073" lon="3.85543">
        <ele>1572</ele>
        <time>2017-03-04T13:03:38Z</time>
      </trkpt>
      <trkpt lat="44.40074" lon="3.85542">
        <ele>1571</ele>
        <time>2017-03-04T13:05:38Z</time>
      </trkpt>
      <trkpt lat="44.40075" lon="3.85541">
        <ele>1571</ele>
        <time>2017-03-04T13:07:38Z</time>
      </trkpt>
      <trkpt lat="44.40076" lon="3.85542">
        <ele>1571</ele>
        <time>2017-03-04T13:09:38Z</time>
      </trkpt>
      <trkpt lat="44.40077" lon="3.85544">
        <ele>1570</ele>
        <time>2017-03-04T13:11:38Z</time>
      </trkpt>
      <trkpt lat="44.40078" lon="3.85552">
        <ele>1568</ele>
        <time>2017-03-04T13:13:38Z</time>
      </trkpt>
      <trkpt lat="44.40079" lon="3.85558">
        <ele>1567</ele>
        <time>2017-03-04T13:15:38Z</time>
      </trkpt>
      <trkpt lat="44.40079" lon="3.85565">
        <ele>1565</ele>
        <time>2017-03-04T13:17:38Z</time>
      </trkpt>
      <trkpt lat="44.40079" lon="3.85571">
        <ele>1564</ele>
        <time>2017-03-04T13:19:38Z</time>
      </trkpt>
      <trkpt lat="44.4008" lon="3.85574">
        <ele>1563</ele>
        <time>2017-03-04T13:21:38Z</time>
      </trkpt>
      <trkpt lat="44.40082" lon="3.85574">
        <ele>1562</ele>
        <time>2017-03-04T13:23:38Z</time>
      </trkpt>
      <trkpt lat="44.40083" lon="3.85571">
        <ele>1563</ele>
        <time>2017-03-04T13:25:38Z</time>
      </trkpt>
      <trkpt lat="44.40083" lon="3.85568">
        <ele>1563</ele>
        <time>2017-03-04T13:27:38Z</time>
      </trkpt>
      <trkpt lat="44.40083" lon="3.8556">
        <ele>1565</ele>
        <time>2017-03-04T13:29:38Z</time>
      </trkpt>
      <trkpt lat="44.40085" lon="3.85541">
        <ele>1567</ele>
        <time>2017-03-04T13:31:38Z</time>
      </trkpt>
      <trkpt lat="44.40085" lon="3.85536">
        <ele>1568</ele>
        <time>2017-03-04T13:33:38Z</time>
      </trkpt>
      <trkpt lat="44.40088" lon="3.85534">
        <ele>1567</ele>
        <time>2017-03-04T13:35:38Z</time>
      </trkpt>
      <trkpt lat="44.4009" lon="3.85535">
        <ele>1566</ele>
        <time>2017-03-04T13:37:38Z</time>
      </trkpt>
      <trkpt lat="44.40092" lon="3.85539">
        <ele>1565</ele>
        <time>2017-03-04T13:39:38Z</time>
      </trkpt>
      <trkpt lat="44.40092" lon="3.85551">
        <ele>1562</ele>
        <time>2017-03-04T13:41:38Z</time>
      </trkpt>
      <trkpt lat="44.40093" lon="3.85571">
        <ele>1558</ele>
        <time>2017-03-04T13:43:38Z</time>
      </trkpt>
      <trkpt lat="44.40092" lon="3.85581">
        <ele>1556</ele>
        <time>2017-03-04T13:45:38Z</time>
      </trkpt>
      <trkpt lat="44.40091" lon="3.85587">
        <ele>1556</ele>
        <time>2017-03-04T13:47:38Z</time>
      </trkpt>
      <trkpt lat="44.40092" lon="3.85589">
        <ele>1555</ele>
        <time>2017-03-04T13:49:38Z</time>
      </trkpt>
      <trkpt lat="44.40094" lon="3.85589">
        <ele>1554</ele>
        <time>2017-03-04T13:51:38Z</time>
      </trkpt>
      <trkpt lat="44.40095" lon="3.85587">
        <ele>1554</ele>
        <time>2017-03-04T13:53:38Z</time>
      </trkpt>
      <trkpt lat="44.40097" lon="3.85581">
        <ele>1554</ele>
        <time>2017-03-04T13:55:38Z</time>
      </trkpt>
      <trkpt lat="44.40099" lon="3.8557">
        <ele>1555</ele>
        <time>2017-03-04T13:57:38Z</time>
      </trkpt>
      <trkpt lat="44.401" lon="3.85563">
        <ele>1556</ele>
        <time>2017-03-04T13:59:38Z</time>
      </trkpt>
      <trkpt lat="44.40101" lon="3.85559">
        <ele>1556</ele>
        <time>2017-03-04T14:01:38Z</time>
      </trkpt>
      <trkpt lat="44.40102" lon="3.85554">
        <ele>1557</ele>
        <time>2017-03-04T14:03:38Z</time>
      </trkpt>
      <trkpt lat="44.40103" lon="3.85545">
        <ele>1559</ele>
        <time>2017-03-04T14:05:38Z</time>
      </trkpt>
      <trkpt lat="44.40104" lon="3.85543">
        <ele>1559</ele>
        <time>2017-03-04T14:07:38Z</time>
      </trkpt>
      <trkpt lat="44.40106" lon="3.85542">
        <ele>1558</ele>
        <time>2017-03-04T14:09:38Z</time>
      </trkpt>
      <trkpt lat="44.40107" lon="3.85543">
        <ele>1557</ele>
        <time>2017-03-04T14:11:38Z</time>
      </trkpt>
      <trkpt lat="44.40108" lon="3.85546">
        <ele>1556</ele>
        <time>2017-03-04T14:13:38Z</time>
      </trkpt>
      <trkpt lat="44.40108" lon="3.85556">
        <ele>1554</ele>
        <time>2017-03-04T14:15:38Z</time>
      </trkpt>
      <trkpt lat="44.40109" lon="3.8557">
        <ele>1550</ele>
        <time>2017-03-04T14:17:38Z</time>
      </trkpt>
      <trkpt lat="44.4011" lon="3.85591">
        <ele>1545</ele>
        <time>2017-03-04T14:19:38Z</time>
      </trkpt>
      <trkpt lat="44.40111" lon="3.856">
        <ele>1543</ele>
        <time>2017-03-04T14:21:38Z</time>
      </trkpt>
      <trkpt lat="44.40114" lon="3.85603">
        <ele>1541</ele>
        <time>2017-03-04T14:23:38Z</time>
      </trkpt>
      <trkpt lat="44.40119" lon="3.85604">
        <ele>1538</ele>
        <time>2017-03-04T14:25:38Z</time>
      </trkpt>
      <trkpt lat="44.40124" lon="3.85604">
        <ele>1536</ele>
        <time>2017-03-04T14:27:38Z</time>
      </trkpt>
      <trkpt lat="44.40127" lon="3.85601">
        <ele>1535</ele>
        <time>2017-03-04T14:29:38Z</time>
      </trkpt>
      <trkpt lat="44.40133" lon="3.85593">
        <ele>1533</ele>
        <time>2017-03-04T14:31:38Z</time>
      </trkpt>
      <trkpt lat="44.40136" lon="3.85593">
        <ele>1532</ele>
        <time>2017-03-04T14:33:38Z</time>
      </trkpt>
      <trkpt lat="44.40139" lon="3.85595">
        <ele>1530</ele>
        <time>2017-03-04T14:35:38Z</time>
      </trkpt>
      <trkpt lat="44.4014" lon="3.85599">
        <ele>1528</ele>
        <time>2017-03-04T14:37:38Z</time>
      </trkpt>
      <trkpt lat="44.40141" lon="3.85611">
        <ele>1525</ele>
        <time>2017-03-04T14:39:38Z</time>
      </trkpt>
      <trkpt lat="44.40141" lon="3.85623">
        <ele>1522</ele>
        <time>2017-03-04T14:41:38Z</time>
      </trkpt>
      <trkpt lat="44.4014" lon="3.85642">
        <ele>1518</ele>
        <time>2017-03-04T14:43:38Z</time>
      </trkpt>
      <trkpt lat="44.4014" lon="3.85656">
        <ele>1515</ele>
        <time>2017-03-04T14:45:38Z</time>
      </trkpt>
      <trkpt lat="44.40142" lon="3.85685">
        <ele>1510</ele>
        <time>2017-03-04T14:47:38Z</time>
      </trkpt>
      <trkpt lat="44.40143" lon="3.85693">
        <ele>1508</ele>
        <time>2017-03-04T14:49:38Z</time>
      </trkpt>
      <trkpt lat="44.40146" lon="3.85702">
        <ele>1505</ele>
        <time>2017-03-04T14:51:38Z</time>
      </trkpt>
      <trkpt lat="44.4015" lon="3.85713">
        <ele>1502</ele>
        <time>2017-03-04T14:53:38Z</time>
      </trkpt>
      <trkpt lat="44.40156" lon="3.8573">
        <ele>1496</ele>
        <time>2017-03-04T14:55:38Z</time>
      </trkpt>
      <trkpt lat="44.40159" lon="3.85738">
        <ele>1493</ele>
        <time>2017-03-04T14:57:38Z</time>
      </trkpt>
      <trkpt lat="44.4016" lon="3.85745">
        <ele>1492</ele>
        <time>2017-03-04T14:59:38Z</time>
      </trkpt>
      <trkpt lat="44.40162" lon="3.85753">
        <ele>1490</ele>
        <time>2017-03-04T15:01:38Z</time>
      </trkpt>
      <trkpt lat="44.40163" lon="3.85759">
        <ele>1488</ele>
        <time>2017-03-04T15:03:38Z</time>
      </trkpt>
      <trkpt lat="44.40165" lon="3.85774">
        <ele>1485</ele>
        <time>2017-03-04T15:05:38Z</time>
      </trkpt>
      <trkpt lat="44.40166" lon="3.85784">
        <ele>1483</ele>
        <time>2017-03-04T15:07:38Z</time>
      </trkpt>
      <trkpt lat="44.40167" lon="3.85794">
        <ele>1481</ele>
        <time>2017-03-04T15:09:38Z</time>
      </trkpt>
      <trkpt lat="44.40168" lon="3.85811">
        <ele>1478</ele>
        <time>2017-03-04T15:11:38Z</time>
      </trkpt>
      <trkpt lat="44.40169" lon="3.8583">
        <ele>1474</ele>
        <time>2017-03-04T15:13:38Z</time>
      </trkpt>
      <trkpt lat="44.40169" lon="3.8584">
        <ele>1472</ele>
        <time>2017-03-04T15:15:38Z</time>
      </trkpt>
      <trkpt lat="44.40169" lon="3.85848">
        <ele>1470</ele>
        <time>2017-03-04T15:17:38Z</time>
      </trkpt>
      <trkpt lat="44.40169" lon="3.85857">
        <ele>1467</ele>
        <time>2017-03-04T15:19:38Z</time>
      </trkpt>
      <trkpt lat="44.40169" lon="3.85865">
        <ele>1465</ele>
        <time>2017-03-04T15:21:38Z</time>
      </trkpt>
      <trkpt lat="44.40169" lon="3.85881">
        <ele>1461</ele>
        <time>2017-03-04T15:23:38Z</time>
      </trkpt>
      <trkpt lat="44.40165" lon="3.85891">
        <ele>1460</ele>
        <time>2017-03-04T15:25:38Z</time>
      </trkpt>
      <trkpt lat="44.40162" lon="3.85905">
        <ele>1458</ele>
        <time>2017-03-04T15:27:38Z</time>
      </trkpt>
      <trkpt lat="44.40158" lon="3.85929">
        <ele>1455</ele>
        <time>2017-03-04T15:29:38Z</time>
      </trkpt>
      <trkpt lat="44.40152" lon="3.85955">
        <ele>1453</ele>
        <time>2017-03-04T15:31:38Z</time>
      </trkpt>
      <trkpt lat="44.40142" lon="3.85984">
        <ele>1453</ele>
        <time>2017-03-04T15:33:38Z</time>
      </trkpt>
      <trkpt lat="44.40125" lon="3.86022">
        <ele>1453</ele>
        <time>2017-03-04T15:35:38Z</time>
      </trkpt>
      <trkpt lat="44.40102" lon="3.86064">
        <ele>1451</ele>
        <time>2017-03-04T15:37:38Z</time>
      </trkpt>
      <trkpt lat="44.40098" lon="3.8607">
        <ele>1451</ele>
        <time>2017-03-04T15:39:38Z</time>
      </trkpt>
      <trkpt lat="44.40093" lon="3.861">
        <ele>1443</ele>
        <time>2017-03-04T15:41:38Z</time>
      </trkpt>
      <trkpt lat="44.40093" lon="3.86105">
        <ele>1441</ele>
        <time>2017-03-04T15:43:38Z</time>
      </trkpt>
      <trkpt lat="44.40094" lon="3.86111">
        <ele>1439</ele>
        <time>2017-03-04T15:45:38Z</time>
      </trkpt>
      <trkpt lat="44.40099" lon="3.86129">
        <ele>1432</ele>
        <time>2017-03-04T15:47:38Z</time>
      </trkpt>
      <trkpt lat="44.40102" lon="3.86142">
        <ele>1428</ele>
        <time>2017-03-04T15:49:38Z</time>
      </trkpt>
      <trkpt lat="44.40107" lon="3.86149">
        <ele>1425</ele>
        <time>2017-03-04T15:51:38Z</time>
      </trkpt>
      <trkpt lat="44.40114" lon="3.86158">
        <ele>1421</ele>
        <time>2017-03-04T15:53:38Z</time>
      </trkpt>
      <trkpt lat="44.40116" lon="3.86161">
        <ele>1420</ele>
        <time>2017-03-04T15:55:38Z</time>
      </trkpt>
      <trkpt lat="44.40117" lon="3.86165">
        <ele>1419</ele>
        <time>2017-03-04T15:57:38Z</time>
      </trkpt>
      <trkpt lat="44.40117" lon="3.86169">
        <ele>1418</ele>
        <time>2017-03-04T15:59:38Z</time>
      </trkpt>
      <trkpt lat="44.40122" lon="3.86199">
        <ele>1411</ele>
        <time>2017-03-04T16:01:38Z</time>
      </trkpt>
      <trkpt lat="44.40122" lon="3.86203">
        <ele>1411</ele>
        <time>2017-03-04T16:03:38Z</time>
      </trkpt>
      <trkpt lat="44.40122" lon="3.86206">
        <ele>1410</ele>
        <time>2017-03-04T16:05:38Z</time>
      </trkpt>
      <trkpt lat="44.4012" lon="3.86209">
        <ele>1410</ele>
        <time>2017-03-04T16:07:38Z</time>
      </trkpt>
      <trkpt lat="44.40113" lon="3.86223">
        <ele>1407</ele>
        <time>2017-03-04T16:09:38Z</time>
      </trkpt>
      <trkpt lat="44.40109" lon="3.86229">
        <ele>1406</ele>
        <time>2017-03-04T16:11:38Z</time>
      </trkpt>
      <trkpt lat="44.40105" lon="3.86235">
        <ele>1405</ele>
        <time>2017-03-04T16:13:38Z</time>
      </trkpt>
      <trkpt lat="44.40103" lon="3.86238">
        <ele>1404</ele>
        <time>2017-03-04T16:15:38Z</time>
      </trkpt>
      <trkpt lat="44.40101" lon="3.86243">
        <ele>1403</ele>
        <time>2017-03-04T16:17:38Z</time>
      </trkpt>
      <trkpt lat="44.401" lon="3.86249">
        <ele>1401</ele>
        <time>2017-03-04T16:19:38Z</time>
      </trkpt>
      <trkpt lat="44.401" lon="3.86249">
        <ele>1401</ele>
        <time>2017-03-04T16:21:38Z</time>
      </trkpt>
      <trkpt lat="44.40111" lon="3.8625">
        <ele>1401</ele>
        <time>2017-03-04T16:23:38Z</time>
      </trkpt>
      <trkpt lat="44.4012" lon="3.86254">
        <ele>1401</ele>
        <time>2017-03-04T16:25:38Z</time>
      </trkpt>
      <trkpt lat="44.40126" lon="3.86258">
        <ele>1400</ele>
        <time>2017-03-04T16:27:38Z</time>
      </trkpt>
      <trkpt lat="44.40137" lon="3.86266">
        <ele>1399</ele>
        <time>2017-03-04T16:29:38Z</time>
      </trkpt>
      <trkpt lat="44.40144" lon="3.86273">
        <ele>1398</ele>
        <time>2017-03-04T16:31:38Z</time>
      </trkpt>
      <trkpt lat="44.40169" lon="3.86296">
        <ele>1393</ele>
        <time>2017-03-04T16:33:38Z</time>
      </trkpt>
      <trkpt lat="44.40228" lon="3.86354">
        <ele>1369</ele>
        <time>2017-03-04T16:35:38Z</time>
      </trkpt>
      <trkpt lat="44.40245" lon="3.8638">
        <ele>1362</ele>
        <time>2017-03-04T16:37:38Z</time>
      </trkpt>
      <trkpt lat="44.40247" lon="3.86384">
        <ele>1361</ele>
        <time>2017-03-04T16:39:38Z</time>
      </trkpt>
      <trkpt lat="44.40248" lon="3.86389">
        <ele>1360</ele>
        <time>2017-03-04T16:41:38Z</time>
      </trkpt>
      <trkpt lat="44.40246" lon="3.86395">
        <ele>1360</ele>
        <time>2017-03-04T16:43:38Z</time>
      </trkpt>
      <trkpt lat="44.40243" lon="3.86397">
        <ele>1360</ele>
        <time>2017-03-04T16:45:38Z</time>
      </trkpt>
      <trkpt lat="44.40239" lon="3.86397">
        <ele>1360</ele>
        <time>2017-03-04T16:47:38Z</time>
      </trkpt>
      <trkpt lat="44.40233" lon="3.86396">
        <ele>1361</ele>
        <time>2017-03-04T16:49:38Z</time>
      </trkpt>
      <trkpt lat="44.40224" lon="3.86393">
        <ele>1363</ele>
        <time>2017-03-04T16:51:38Z</time>
      </trkpt>
      <trkpt lat="44.40216" lon="3.86389">
        <ele>1364</ele>
        <time>2017-03-04T16:53:38Z</time>
      </trkpt>
      <trkpt lat="44.4021" lon="3.86386">
        <ele>1366</ele>
        <time>2017-03-04T16:55:38Z</time>
      </trkpt>
      <trkpt lat="44.40201" lon="3.86378">
        <ele>1369</ele>
        <time>2017-03-04T16:57:38Z</time>
      </trkpt>
      <trkpt lat="44.40198" lon="3.86376">
        <ele>1370</ele>
        <time>2017-03-04T16:59:38Z</time>
      </trkpt>
      <trkpt lat="44.40196" lon="3.86376">
        <ele>1370</ele>
        <time>2017-03-04T17:01:38Z</time>
      </trkpt>
      <trkpt lat="44.40194" lon="3.86377">
        <ele>1370</ele>
        <time>2017-03-04T17:03:38Z</time>
      </trkpt>
      <trkpt lat="44.40193" lon="3.8638">
        <ele>1369</ele>
        <time>2017-03-04T17:05:38Z</time>
      </trkpt>
      <trkpt lat="44.40193" lon="3.86385">
        <ele>1368</ele>
        <time>2017-03-04T17:07:38Z</time>
      </trkpt>
      <trkpt lat="44.40195" lon="3.86392">
        <ele>1366</ele>
        <time>2017-03-04T17:09:38Z</time>
      </trkpt>
      <trkpt lat="44.40213" lon="3.8643">
        <ele>1356</ele>
        <time>2017-03-04T17:11:38Z</time>
      </trkpt>
      <trkpt lat="44.40242" lon="3.86473">
        <ele>1344</ele>
        <time>2017-03-04T17:13:38Z</time>
      </trkpt>
      <trkpt lat="44.40277" lon="3.86506">
        <ele>1325</ele>
        <time>2017-03-04T17:15:38Z</time>
      </trkpt>
      <trkpt lat="44.40283" lon="3.86515">
        <ele>1320</ele>
        <time>2017-03-04T17:17:38Z</time>
      </trkpt>
      <trkpt lat="44.40287" lon="3.86518">
        <ele>1318</ele>
        <time>2017-03-04T17:19:38Z</time>
      </trkpt>
      <trkpt lat="44.40292" lon="3.86519">
        <ele>1316</ele>
        <time>2017-03-04T17:21:38Z</time>
      </trkpt>
      <trkpt lat="44.40293" lon="3.8652">
        <ele>1315</ele>
        <time>2017-03-04T17:23:38Z</time>
      </trkpt>
      <trkpt lat="44.40295" lon="3.86521">
        <ele>1314</ele>
        <time>2017-03-04T17:25:38Z</time>
      </trkpt>
      <trkpt lat="44.40295" lon="3.86523">
        <ele>1314</ele>
        <time>2017-03-04T17:27:38Z</time>
      </trkpt>
      <trkpt lat="44.40295" lon="3.86526">
        <ele>1313</ele>
        <time>2017-03-04T17:29:38Z</time>
      </trkpt>
      <trkpt lat="44.40295" lon="3.86528">
        <ele>1313</ele>
        <time>2017-03-04T17:31:38Z</time>
      </trkpt>
      <trkpt lat="44.40289" lon="3.86542">
        <ele>1312</ele>
        <time>2017-03-04T17:33:38Z</time>
      </trkpt>
      <trkpt lat="44.40282" lon="3.8655">
        <ele>1313</ele>
        <time>2017-03-04T17:35:38Z</time>
      </trkpt>
      <trkpt lat="44.4027" lon="3.86556">
        <ele>1316</ele>
        <time>2017-03-04T17:37:38Z</time>
      </trkpt>
      <trkpt lat="44.40253" lon="3.86559">
        <ele>1321</ele>
        <time>2017-03-04T17:39:38Z</time>
      </trkpt>
      <trkpt lat="44.40244" lon="3.8656">
        <ele>1322</ele>
        <time>2017-03-04T17:41:38Z</time>
      </trkpt>
      <trkpt lat="44.40243" lon="3.8656">
        <ele>1322</ele>
        <time>2017-03-04T17:43:38Z</time>
      </trkpt>
      <trkpt lat="44.40242" lon="3.86561">
        <ele>1322</ele>
        <time>2017-03-04T17:45:38Z</time>
      </trkpt>
      <trkpt lat="44.40241" lon="3.86564">
        <ele>1322</ele>
        <time>2017-03-04T17:47:38Z</time>
      </trkpt>
      <trkpt lat="44.40241" lon="3.86565">
        <ele>1321</ele>
        <time>2017-03-04T17:49:38Z</time>
      </trkpt>
      <trkpt lat="44.40241" lon="3.86567">
        <ele>1321</ele>
        <time>2017-03-04T17:51:38Z</time>
      </trkpt>
      <trkpt lat="44.40241" lon="3.86568">
        <ele>1321</ele>
        <time>2017-03-04T17:53:38Z</time>
      </trkpt>
      <trkpt lat="44.40248" lon="3.86583">
        <ele>1316</ele>
        <time>2017-03-04T17:55:38Z</time>
      </trkpt>
      <trkpt lat="44.40248" lon="3.86585">
        <ele>1316</ele>
        <time>2017-03-04T17:57:38Z</time>
      </trkpt>
      <trkpt lat="44.4025" lon="3.86587">
        <ele>1315</ele>
        <time>2017-03-04T17:59:38Z</time>
      </trkpt>
      <trkpt lat="44.40262" lon="3.86595">
        <ele>1309</ele>
        <time>2017-03-04T18:01:38Z</time>
      </trkpt>
      <trkpt lat="44.40281" lon="3.8661">
        <ele>1299</ele>
        <time>2017-03-04T18:03:38Z</time>
      </trkpt>
      <trkpt lat="44.40304" lon="3.86618">
        <ele>1289</ele>
        <time>2017-03-04T18:05:38Z</time>
      </trkpt>
      <trkpt lat="44.40305" lon="3.86619">
        <ele>1289</ele>
        <time>2017-03-04T18:07:38Z</time>
      </trkpt>
      <trkpt lat="44.40305" lon="3.8662">
        <ele>1288</ele>
        <time>2017-03-04T18:09:38Z</time>
      </trkpt>
      <trkpt lat="44.40305" lon="3.86621">
        <ele>1288</ele>
        <time>2017-03-04T18:11:38Z</time>
      </trkpt>
      <trkpt lat="44.40305" lon="3.86622">
        <ele>1288</ele>
        <time>2017-03-04T18:13:38Z</time>
      </trkpt>
      <trkpt lat="44.40296" lon="3.86627">
        <ele>1289</ele>
        <time>2017-03-04T18:15:38Z</time>
      </trkpt>
      <trkpt lat="44.40285" lon="3.8663">
        <ele>1292</ele>
        <time>2017-03-04T18:17:38Z</time>
      </trkpt>
      <trkpt lat="44.40283" lon="3.86631">
        <ele>1292</ele>
        <time>2017-03-04T18:19:38Z</time>
      </trkpt>
      <trkpt lat="44.40282" lon="3.86632">
        <ele>1292</ele>
        <time>2017-03-04T18:21:38Z</time>
      </trkpt>
      <trkpt lat="44.4028" lon="3.86635">
        <ele>1292</ele>
        <time>2017-03-04T18:23:38Z</time>
      </trkpt>
      <trkpt lat="44.4028" lon="3.86637">
        <ele>1292</ele>
        <time>2017-03-04T18:25:38Z</time>
      </trkpt>
      <trkpt lat="44.40281" lon="3.86639">
        <ele>1291</ele>
        <time>2017-03-04T18:27:38Z</time>
      </trkpt>
      <trkpt lat="44.40282" lon="3.86641">
        <ele>1290</ele>
        <time>2017-03-04T18:29:38Z</time>
      </trkpt>
      <trkpt lat="44.40283" lon="3.86642">
        <ele>1289</ele>
        <time>2017-03-04T18:31:38Z</time>
      </trkpt>
      <trkpt lat="44.40285" lon="3.86643">
        <ele>1288</ele>
        <time>2017-03-04T18:33:38Z</time>
      </trkpt>
      <trkpt lat="44.40294" lon="3.86642">
        <ele>1286</ele>
        <time>2017-03-04T18:35:38Z</time>
      </trkpt>
      <trkpt lat="44.40309" lon="3.86638">
        <ele>1282</ele>
        <time>2017-03-04T18:37:38Z</time>
      </trkpt>
      <trkpt lat="44.40312" lon="3.86639">
        <ele>1281</ele>
        <time>2017-03-04T18:39:38Z</time>
      </trkpt>
      <trkpt lat="44.40313" lon="3.86642">
        <ele>1280</ele>
        <time>2017-03-04T18:41:38Z</time>
      </trkpt>
      <trkpt lat="44.40313" lon="3.86648">
        <ele>1278</ele>
        <time>2017-03-04T18:43:38Z</time>
      </trkpt>
      <trkpt lat="44.40312" lon="3.8665">
        <ele>1278</ele>
        <time>2017-03-04T18:45:38Z</time>
      </trkpt>
      <trkpt lat="44.4031" lon="3.86652">
        <ele>1278</ele>
        <time>2017-03-04T18:47:38Z</time>
      </trkpt>
      <trkpt lat="44.40294" lon="3.8666">
        <ele>1281</ele>
        <time>2017-03-04T18:49:38Z</time>
      </trkpt>
      <trkpt lat="44.40284" lon="3.86667">
        <ele>1282</ele>
        <time>2017-03-04T18:51:38Z</time>
      </trkpt>
      <trkpt lat="44.40283" lon="3.86668">
        <ele>1282</ele>
        <time>2017-03-04T18:53:38Z</time>
      </trkpt>
      <trkpt lat="44.40282" lon="3.86671">
        <ele>1282</ele>
        <time>2017-03-04T18:55:38Z</time>
      </trkpt>
      <trkpt lat="44.40283" lon="3.86674">
        <ele>1281</ele>
        <time>2017-03-04T18:57:38Z</time>
      </trkpt>
      <trkpt lat="44.40283" lon="3.86676">
        <ele>1281</ele>
        <time>2017-03-04T18:59:38Z</time>
      </trkpt>
      <trkpt lat="44.40284" lon="3.86678">
        <ele>1280</ele>
        <time>2017-03-04T19:01:38Z</time>
      </trkpt>
      <trkpt lat="44.40285" lon="3.86679">
        <ele>1280</ele>
        <time>2017-03-04T19:03:38Z</time>
      </trkpt>
      <trkpt lat="44.4029" lon="3.86678">
        <ele>1278</ele>
        <time>2017-03-04T19:05:38Z</time>
      </trkpt>
      <trkpt lat="44.40302" lon="3.86676">
        <ele>1275</ele>
        <time>2017-03-04T19:07:38Z</time>
      </trkpt>
      <trkpt lat="44.40307" lon="3.86677">
        <ele>1273</ele>
        <time>2017-03-04T19:09:38Z</time>
      </trkpt>
      <trkpt lat="44.40309" lon="3.86679">
        <ele>1272</ele>
        <time>2017-03-04T19:11:38Z</time>
      </trkpt>
      <trkpt lat="44.40311" lon="3.8668">
        <ele>1271</ele>
        <time>2017-03-04T19:13:38Z</time>
      </trkpt>
      <trkpt lat="44.40312" lon="3.86681">
        <ele>1271</ele>
        <time>2017-03-04T19:15:38Z</time>
      </trkpt>
      <trkpt lat="44.40313" lon="3.86684">
        <ele>1270</ele>
        <time>2017-03-04T19:17:38Z</time>
      </trkpt>
      <trkpt lat="44.40313" lon="3.86686">
        <ele>1269</ele>
        <time>2017-03-04T19:19:38Z</time>
      </trkpt>
      <trkpt lat="44.40312" lon="3.86689">
        <ele>1269</ele>
        <time>2017-03-04T19:21:38Z</time>
      </trkpt>
      <trkpt lat="44.4031" lon="3.86694">
        <ele>1268</ele>
        <time>2017-03-04T19:23:38Z</time>
      </trkpt>
      <trkpt lat="44.40296" lon="3.8671">
        <ele>1270</ele>
        <time>2017-03-04T19:25:38Z</time>
      </trkpt>
      <trkpt lat="44.40292" lon="3.86719">
        <ele>1269</ele>
        <time>2017-03-04T19:27:38Z</time>
      </trkpt>
      <trkpt lat="44.40292" lon="3.86724">
        <ele>1268</ele>
        <time>2017-03-04T19:29:38Z</time>
      </trkpt>
      <trkpt lat="44.40292" lon="3.86726">
        <ele>1268</ele>
        <time>2017-03-04T19:31:38Z</time>
      </trkpt>
      <trkpt lat="44.40294" lon="3.86729">
        <ele>1266</ele>
        <time>2017-03-04T19:33:38Z</time>
      </trkpt>
      <trkpt lat="44.40301" lon="3.86739">
        <ele>1262</ele>
        <time>2017-03-04T19:35:38Z</time>
      </trkpt>
      <trkpt lat="44.40305" lon="3.86743">
        <ele>1260</ele>
        <time>2017-03-04T19:37:38Z</time>
      </trkpt>
      <trkpt lat="44.40309" lon="3.86748">
        <ele>1257</ele>
        <time>2017-03-04T19:39:38Z</time>
      </trkpt>
      <trkpt lat="44.40311" lon="3.8675">
        <ele>1256</ele>
        <time>2017-03-04T19:41:38Z</time>
      </trkpt>
      <trkpt lat="44.40313" lon="3.86752">
        <ele>1255</ele>
        <time>2017-03-04T19:43:38Z</time>
      </trkpt>
      <trkpt lat="44.40318" lon="3.86753">
        <ele>1253</ele>
        <time>2017-03-04T19:45:38Z</time>
      </trkpt>
      <trkpt lat="44.40321" lon="3.86754">
        <ele>1252</ele>
        <time>2017-03-04T19:47:38Z</time>
      </trkpt>
      <trkpt lat="44.40324" lon="3.86753">
        <ele>1251</ele>
        <time>2017-03-04T19:49:38Z</time>
      </trkpt>
      <trkpt lat="44.40327" lon="3.86751">
        <ele>1250</ele>
        <time>2017-03-04T19:51:38Z</time>
      </trkpt>
      <trkpt lat="44.40328" lon="3.8675">
        <ele>1250</ele>
        <time>2017-03-04T19:53:38Z</time>
      </trkpt>
      <trkpt lat="44.40358" lon="3.86712">
        <ele>1247</ele>
        <time>2017-03-04T19:55:38Z</time>
      </trkpt>
      <trkpt lat="44.4036" lon="3.86711">
        <ele>1246</ele>
        <time>2017-03-04T19:57:38Z</time>
      </trkpt>
      <trkpt lat="44.40361" lon="3.86711">
        <ele>1246</ele>
        <time>2017-03-04T19:59:38Z</time>
      </trkpt>
      <trkpt lat="44.40362" lon="3.86711">
        <ele>1246</ele>
        <time>2017-03-04T20:01:38Z</time>
      </trkpt>
      <trkpt lat="44.40363" lon="3.86712">
        <ele>1245</ele>
        <time>2017-03-04T20:03:38Z</time>
      </trkpt>
      <trkpt lat="44.40365" lon="3.86714">
        <ele>1244</ele>
        <time>2017-03-04T20:05:38Z</time>
      </trkpt>
      <trkpt lat="44.40366" lon="3.86716">
        <ele>1243</ele>
        <time>2017-03-04T20:07:38Z</time>
      </trkpt>
      <trkpt lat="44.40366" lon="3.86719">
        <ele>1242</ele>
        <time>2017-03-04T20:09:38Z</time>
      </trkpt>
      <trkpt lat="44.40367" lon="3.86721">
        <ele>1242</ele>
        <time>2017-03-04T20:11:38Z</time>
      </trkpt>
      <trkpt lat="44.40363" lon="3.86771">
        <ele>1234</ele>
        <time>2017-03-04T20:13:38Z</time>
      </trkpt>
      <trkpt lat="44.40364" lon="3.86822">
        <ele>1226</ele>
        <time>2017-03-04T20:15:38Z</time>
      </trkpt>
      <trkpt lat="44.40364" lon="3.86822">
        <ele>1226</ele>
        <time>2017-03-04T20:17:38Z</time>
      </trkpt>
      <trkpt lat="44.40362" lon="3.86825">
        <ele>1226</ele>
        <time>2017-03-04T20:19:38Z</time>
      </trkpt>
      <trkpt lat="44.40359" lon="3.86835">
        <ele>1226</ele>
        <time>2017-03-04T20:21:38Z</time>
      </trkpt>
      <trkpt lat="44.40335" lon="3.8693">
        <ele>1230</ele>
        <time>2017-03-04T20:23:38Z</time>
      </trkpt>
      <trkpt lat="44.40328" lon="3.86962">
        <ele>1233</ele>
        <time>2017-03-04T20:25:38Z</time>
      </trkpt>
      <trkpt lat="44.40325" lon="3.86971">
        <ele>1234</ele>
        <time>2017-03-04T20:27:38Z</time>
      </trkpt>
      <trkpt lat="44.40324" lon="3.86981">
        <ele>1234</ele>
        <time>2017-03-04T20:29:38Z</time>
      </trkpt>
      <trkpt lat="44.40322" lon="3.86998">
        <ele>1235</ele>
        <time>2017-03-04T20:31:38Z</time>
      </trkpt>
      <trkpt lat="44.40321" lon="3.87012">
        <ele>1237</ele>
        <time>2017-03-04T20:33:38Z</time>
      </trkpt>
      <trkpt lat="44.4032" lon="3.87037">
        <ele>1239</ele>
        <time>2017-03-04T20:35:38Z</time>
      </trkpt>
      <trkpt lat="44.40317" lon="3.8712">
        <ele>1245</ele>
        <time>2017-03-04T20:37:38Z</time>
      </trkpt>
      <trkpt lat="44.40317" lon="3.87165">
        <ele>1246</ele>
        <time>2017-03-04T20:39:38Z</time>
      </trkpt>
      <trkpt lat="44.40316" lon="3.87202">
        <ele>1247</ele>
        <time>2017-03-04T20:41:38Z</time>
      </trkpt>
      <trkpt lat="44.40314" lon="3.87228">
        <ele>1248</ele>
        <time>2017-03-04T20:43:38Z</time>
      </trkpt>
      <trkpt lat="44.40312" lon="3.87246">
        <ele>1249</ele>
        <time>2017-03-04T20:45:38Z</time>
      </trkpt>
      <trkpt lat="44.4031" lon="3.87262">
        <ele>1251</ele>
        <time>2017-03-04T20:47:38Z</time>
      </trkpt>
      <trkpt lat="44.40303" lon="3.87294">
        <ele>1256</ele>
        <time>2017-03-04T20:49:38Z</time>
      </trkpt>
      <trkpt lat="44.40298" lon="3.87326">
        <ele>1260</ele>
        <time>2017-03-04T20:51:38Z</time>
      </trkpt>
      <trkpt lat="44.40292" lon="3.87382">
        <ele>1264</ele>
        <time>2017-03-04T20:53:38Z</time>
      </trkpt>
      <trkpt lat="44.40284" lon="3.87472">
        <ele>1267</ele>
        <time>2017-03-04T20:55:38Z</time>
      </trkpt>
      <trkpt lat="44.40278" lon="3.87528">
        <ele>1270</ele>
        <time>2017-03-04T20:57:38Z</time>
      </trkpt>
      <trkpt lat="44.40274" lon="3.87572">
        <ele>1271</ele>
        <time>2017-03-04T20:59:38Z</time>
      </trkpt>
      <trkpt lat="44.40272" lon="3.87602">
        <ele>1272</ele>
        <time>2017-03-04T21:01:38Z</time>
      </trkpt>
      <trkpt lat="44.40271" lon="3.87651">
        <ele>1272</ele>
        <time>2017-03-04T21:03:38Z</time>
      </trkpt>
      <trkpt lat="44.4027" lon="3.87686">
        <ele>1272</ele>
        <time>2017-03-04T21:05:38Z</time>
      </trkpt>
      <trkpt lat="44.4027" lon="3.87718">
        <ele>1270</ele>
        <time>2017-03-04T21:07:38Z</time>
      </trkpt>
      <trkpt lat="44.4027" lon="3.87728">
        <ele>1269</ele>
        <time>2017-03-04T21:09:38Z</time>
      </trkpt>
      <trkpt lat="44.40269" lon="3.87734">
        <ele>1269</ele>
        <time>2017-03-04T21:11:38Z</time>
      </trkpt>
      <trkpt lat="44.40267" lon="3.87742">
        <ele>1270</ele>
        <time>2017-03-04T21:13:38Z</time>
      </trkpt>
      <trkpt lat="44.40263" lon="3.87754">
        <ele>1270</ele>
        <time>2017-03-04T21:15:38Z</time>
      </trkpt>
      <trkpt lat="44.40261" lon="3.87759">
        <ele>1271</ele>
        <time>2017-03-04T21:17:38Z</time>
      </trkpt>
      <trkpt lat="44.40259" lon="3.87764">
        <ele>1271</ele>
        <time>2017-03-04T21:19:38Z</time>
      </trkpt>
      <trkpt lat="44.40256" lon="3.87768">
        <ele>1271</ele>
        <time>2017-03-04T21:21:38Z</time>
      </trkpt>
      <trkpt lat="44.40252" lon="3.87769">
        <ele>1273</ele>
        <time>2017-03-04T21:23:38Z</time>
      </trkpt>
      <trkpt lat="44.40249" lon="3.87769">
        <ele>1273</ele>
        <time>2017-03-04T21:25:38Z</time>
      </trkpt>
      <trkpt lat="44.40246" lon="3.87769">
        <ele>1274</ele>
        <time>2017-03-04T21:27:38Z</time>
      </trkpt>
      <trkpt lat="44.40241" lon="3.87768">
        <ele>1275</ele>
        <time>2017-03-04T21:29:38Z</time>
      </trkpt>
      <trkpt lat="44.40238" lon="3.87766">
        <ele>1275</ele>
        <time>2017-03-04T21:31:38Z</time>
      </trkpt>
      <trkpt lat="44.40234" lon="3.87764">
        <ele>1276</ele>
        <time>2017-03-04T21:33:38Z</time>
      </trkpt>
      <trkpt lat="44.40224" lon="3.87757">
        <ele>1279</ele>
        <time>2017-03-04T21:35:38Z</time>
      </trkpt>
      <trkpt lat="44.40211" lon="3.87754">
        <ele>1282</ele>
        <time>2017-03-04T21:37:38Z</time>
      </trkpt>
      <trkpt lat="44.40196" lon="3.87751">
        <ele>1285</ele>
        <time>2017-03-04T21:39:38Z</time>
      </trkpt>
      <trkpt lat="44.40191" lon="3.8775">
        <ele>1286</ele>
        <time>2017-03-04T21:41:38Z</time>
      </trkpt>
      <trkpt lat="44.40187" lon="3.87749">
        <ele>1287</ele>
        <time>2017-03-04T21:43:38Z</time>
      </trkpt>
      <trkpt lat="44.40177" lon="3.87748">
        <ele>1289</ele>
        <time>2017-03-04T21:45:38Z</time>
      </trkpt>
      <trkpt lat="44.40167" lon="3.87748">
        <ele>1291</ele>
        <time>2017-03-04T21:47:38Z</time>
      </trkpt>
      <trkpt lat="44.40152" lon="3.87748">
        <ele>1294</ele>
        <time>2017-03-04T21:49:38Z</time>
      </trkpt>
      <trkpt lat="44.40139" lon="3.87747">
        <ele>1297</ele>
        <time>2017-03-04T21:51:38Z</time>
      </trkpt>
      <trkpt lat="44.40131" lon="3.87746">
        <ele>1299</ele>
        <time>2017-03-04T21:53:38Z</time>
      </trkpt>
      <trkpt lat="44.40126" lon="3.87745">
        <ele>1300</ele>
        <time>2017-03-04T21:55:38Z</time>
      </trkpt>
      <trkpt lat="44.40121" lon="3.87745">
        <ele>1301</ele>
        <time>2017-03-04T21:57:38Z</time>
      </trkpt>
      <trkpt lat="44.40116" lon="3.87745">
        <ele>1302</ele>
        <time>2017-03-04T21:59:38Z</time>
      </trkpt>
      <trkpt lat="44.40112" lon="3.87745">
        <ele>1303</ele>
        <time>2017-03-04T22:01:38Z</time>
      </trkpt>
      <trkpt lat="44.40108" lon="3.87745">
        <ele>1304</ele>
        <time>2017-03-04T22:03:38Z</time>
      </trkpt>
      <trkpt lat="44.40103" lon="3.87746">
        <ele>1304</ele>
        <time>2017-03-04T22:05:38Z</time>
      </trkpt>
      <trkpt lat="44.40091" lon="3.87751">
        <ele>1305</ele>
        <time>2017-03-04T22:07:38Z</time>
      </trkpt>
      <trkpt lat="44.40087" lon="3.87753">
        <ele>1306</ele>
        <time>2017-03-04T22:09:38Z</time>
      </trkpt>
      <trkpt lat="44.40083" lon="3.87756">
        <ele>1306</ele>
        <time>2017-03-04T22:11:38Z</time>
      </trkpt>
      <trkpt lat="44.4008" lon="3.87758">
        <ele>1307</ele>
        <time>2017-03-04T22:13:38Z</time>
      </trkpt>
      <trkpt lat="44.40078" lon="3.87763">
        <ele>1307</ele>
        <time>2017-03-04T22:15:38Z</time>
      </trkpt>
      <trkpt lat="44.40073" lon="3.87774">
        <ele>1308</ele>
        <time>2017-03-04T22:17:38Z</time>
      </trkpt>
      <trkpt lat="44.40067" lon="3.87797">
        <ele>1307</ele>
        <time>2017-03-04T22:19:38Z</time>
      </trkpt>
      <trkpt lat="44.40063" lon="3.87816">
        <ele>1306</ele>
        <time>2017-03-04T22:21:38Z</time>
      </trkpt>
      <trkpt lat="44.4006" lon="3.8784">
        <ele>1304</ele>
        <time>2017-03-04T22:23:38Z</time>
      </trkpt>
      <trkpt lat="44.40059" lon="3.87864">
        <ele>1301</ele>
        <time>2017-03-04T22:25:38Z</time>
      </trkpt>
      <trkpt lat="44.40055" lon="3.87884">
        <ele>1301</ele>
        <time>2017-03-04T22:27:38Z</time>
      </trkpt>
      <trkpt lat="44.40053" lon="3.87891">
        <ele>1301</ele>
        <time>2017-03-04T22:29:38Z</time>
      </trkpt>
      <trkpt lat="44.40051" lon="3.87896">
        <ele>1302</ele>
        <time>2017-03-04T22:31:38Z</time>
      </trkpt>
      <trkpt lat="44.40048" lon="3.87903">
        <ele>1302</ele>
        <time>2017-03-04T22:33:38Z</time>
      </trkpt>
      <trkpt lat="44.40045" lon="3.87909">
        <ele>1303</ele>
        <time>2017-03-04T22:35:38Z</time>
      </trkpt>
      <trkpt lat="44.40033" lon="3.87926">
        <ele>1307</ele>
        <time>2017-03-04T22:37:38Z</time>
      </trkpt>
      <trkpt lat="44.40023" lon="3.87939">
        <ele>1309</ele>
        <time>2017-03-04T22:39:38Z</time>
      </trkpt>
      <trkpt lat="44.40015" lon="3.8795">
        <ele>1310</ele>
        <time>2017-03-04T22:41:38Z</time>
      </trkpt>
      <trkpt lat="44.40002" lon="3.8797">
        <ele>1312</ele>
        <time>2017-03-04T22:43:38Z</time>
      </trkpt>
      <trkpt lat="44.39988" lon="3.87992">
        <ele>1312</ele>
        <time>2017-03-04T22:45:38Z</time>
      </trkpt>
      <trkpt lat="44.39984" lon="3.87999">
        <ele>1312</ele>
        <time>2017-03-04T22:47:38Z</time>
      </trkpt>
      <trkpt lat="44.39981" lon="3.88004">
        <ele>1312</ele>
        <time>2017-03-04T22:49:38Z</time>
      </trkpt>
      <trkpt lat="44.39977" lon="3.88009">
        <ele>1312</ele>
        <time>2017-03-04T22:51:38Z</time>
      </trkpt>
      <trkpt lat="44.39971" lon="3.88016">
        <ele>1312</ele>
        <time>2017-03-04T22:53:38Z</time>
      </trkpt>
      <trkpt lat="44.39956" lon="3.88028">
        <ele>1315</ele>
        <time>2017-03-04T22:55:38Z</time>
      </trkpt>
      <trkpt lat="44.39939" lon="3.88042">
        <ele>1318</ele>
        <time>2017-03-04T22:57:38Z</time>
      </trkpt>
      <trkpt lat="44.39912" lon="3.88062">
        <ele>1323</ele>
        <time>2017-03-04T22:59:38Z</time>
      </trkpt>
      <trkpt lat="44.39888" lon="3.88079">
        <ele>1329</ele>
        <time>2017-03-04T23:01:38Z</time>
      </trkpt>
      <trkpt lat="44.39877" lon="3.88088">
        <ele>1332</ele>
        <time>2017-03-04T23:03:38Z</time>
      </trkpt>
      <trkpt lat="44.39867" lon="3.88098">
        <ele>1334</ele>
        <time>2017-03-04T23:05:38Z</time>
      </trkpt>
      <trkpt lat="44.39848" lon="3.8812">
        <ele>1337</ele>
        <time>2017-03-04T23:07:38Z</time>
      </trkpt>
      <trkpt lat="44.39824" lon="3.88155">
        <ele>1339</ele>
        <time>2017-03-04T23:09:38Z</time>
      </trkpt>
      <trkpt lat="44.39812" lon="3.88174">
        <ele>1341</ele>
        <time>2017-03-04T23:11:38Z</time>
      </trkpt>
      <trkpt lat="44.39809" lon="3.88179">
        <ele>1342</ele>
        <time>2017-03-04T23:13:38Z</time>
      </trkpt>
      <trkpt lat="44.39806" lon="3.88187">
        <ele>1343</ele>
        <time>2017-03-04T23:15:38Z</time>
      </trkpt>
      <trkpt lat="44.39803" lon="3.88199">
        <ele>1343</ele>
        <time>2017-03-04T23:17:38Z</time>
      </trkpt>
      <trkpt lat="44.398" lon="3.88214">
        <ele>1342</ele>
        <time>2017-03-04T23:19:38Z</time>
      </trkpt>
      <trkpt lat="44.39799" lon="3.88216">
        <ele>1342</ele>
        <time>2017-03-04T23:21:38Z</time>
      </trkpt>
      <trkpt lat="44.39795" lon="3.88247">
        <ele>1340</ele>
        <time>2017-03-04T23:23:38Z</time>
      </trkpt>
      <trkpt lat="44.39792" lon="3.88263">
        <ele>1342</ele>
        <time>2017-03-04T23:25:38Z</time>
      </trkpt>
      <trkpt lat="44.3979" lon="3.88269">
        <ele>1344</ele>
        <time>2017-03-04T23:27:38Z</time>
      </trkpt>
      <trkpt lat="44.39787" lon="3.88274">
        <ele>1346</ele>
        <time>2017-03-04T23:29:38Z</time>
      </trkpt>
      <trkpt lat="44.39785" lon="3.88279">
        <ele>1347</ele>
        <time>2017-03-04T23:31:38Z</time>
      </trkpt>
      <trkpt lat="44.39782" lon="3.88283">
        <ele>1349</ele>
        <time>2017-03-04T23:33:38Z</time>
      </trkpt>
      <trkpt lat="44.39779" lon="3.88287">
        <ele>1351</ele>
        <time>2017-03-04T23:35:38Z</time>
      </trkpt>
      <trkpt lat="44.39777" lon="3.88292">
        <ele>1352</ele>
        <time>2017-03-04T23:37:38Z</time>
      </trkpt>
      <trkpt lat="44.39776" lon="3.88296">
        <ele>1353</ele>
        <time>2017-03-04T23:39:38Z</time>
      </trkpt>
      <trkpt lat="44.39775" lon="3.883">
        <ele>1354</ele>
        <time>2017-03-04T23:41:38Z</time>
      </trkpt>
      <trkpt lat="44.39776" lon="3.88303">
        <ele>1353</ele>
        <time>2017-03-04T23:43:38Z</time>
      </trkpt>
      <trkpt lat="44.39776" lon="3.88305">
        <ele>1353</ele>
        <time>2017-03-04T23:45:38Z</time>
      </trkpt>
      <trkpt lat="44.39778" lon="3.88308">
        <ele>1352</ele>
        <time>2017-03-04T23:47:38Z</time>
      </trkpt>
      <trkpt lat="44.39829" lon="3.88381">
        <ele>1338</ele>
        <time>2017-03-04T23:49:38Z</time>
      </trkpt>
      <trkpt lat="44.3984" lon="3.88398">
        <ele>1337</ele>
        <time>2017-03-04T23:51:38Z</time>
      </trkpt>
      <trkpt lat="44.39841" lon="3.88402">
        <ele>1337</ele>
        <time>2017-03-04T23:53:38Z</time>
      </trkpt>
      <trkpt lat="44.39842" lon="3.88407">
        <ele>1338</ele>
        <time>2017-03-04T23:55:38Z</time>
      </trkpt>
      <trkpt lat="44.39842" lon="3.88412">
        <ele>1339</ele>
        <time>2017-03-04T23:57:38Z</time>
      </trkpt>
      <trkpt lat="44.39841" lon="3.8842">
        <ele>1340</ele>
        <time>2017-03-04T23:59:38Z</time>
      </trkpt>
      <trkpt lat="44.39839" lon="3.88425">
        <ele>1340</ele>
        <time>2017-03-05T00:01:38Z</time>
      </trkpt>
      <trkpt lat="44.39836" lon="3.88433">
        <ele>1341</ele>
        <time>2017-03-05T00:03:38Z</time>
      </trkpt>
      <trkpt lat="44.39829" lon="3.88443">
        <ele>1342</ele>
        <time>2017-03-05T00:05:38Z</time>
      </trkpt>
      <trkpt lat="44.39829" lon="3.88443">
        <ele>1342</ele>
        <time>2017-03-05T00:07:38Z</time>
      </trkpt>
      <trkpt lat="44.39828" lon="3.88448">
        <ele>1342</ele>
        <time>2017-03-05T00:09:38Z</time>
      </trkpt>
      <trkpt lat="44.39828" lon="3.8845">
        <ele>1342</ele>
        <time>2017-03-05T00:11:38Z</time>
      </trkpt>
      <trkpt lat="44.39826" lon="3.88455">
        <ele>1342</ele>
        <time>2017-03-05T00:13:38Z</time>
      </trkpt>
      <trkpt lat="44.3982" lon="3.88464">
        <ele>1344</ele>
        <time>2017-03-05T00:15:38Z</time>
      </trkpt>
      <trkpt lat="44.39788" lon="3.88506">
        <ele>1348</ele>
        <time>2017-03-05T00:17:38Z</time>
      </trkpt>
      <trkpt lat="44.39773" lon="3.88525">
        <ele>1348</ele>
        <time>2017-03-05T00:19:38Z</time>
      </trkpt>
      <trkpt lat="44.3975" lon="3.88563">
        <ele>1347</ele>
        <time>2017-03-05T00:21:38Z</time>
      </trkpt>
      <trkpt lat="44.39746" lon="3.88569">
        <ele>1348</ele>
        <time>2017-03-05T00:23:38Z</time>
      </trkpt>
      <trkpt lat="44.39744" lon="3.88575">
        <ele>1348</ele>
        <time>2017-03-05T00:25:38Z</time>
      </trkpt>
      <trkpt lat="44.39742" lon="3.88581">
        <ele>1347</ele>
        <time>2017-03-05T00:27:38Z</time>
      </trkpt>
      <trkpt lat="44.39741" lon="3.88587">
        <ele>1347</ele>
        <time>2017-03-05T00:29:38Z</time>
      </trkpt>
      <trkpt lat="44.39741" lon="3.88594">
        <ele>1347</ele>
        <time>2017-03-05T00:31:38Z</time>
      </trkpt>
      <trkpt lat="44.39743" lon="3.88602">
        <ele>1345</ele>
        <time>2017-03-05T00:33:38Z</time>
      </trkpt>
      <trkpt lat="44.39744" lon="3.8861">
        <ele>1344</ele>
        <time>2017-03-05T00:35:38Z</time>
      </trkpt>
      <trkpt lat="44.39745" lon="3.8862">
        <ele>1343</ele>
        <time>2017-03-05T00:37:38Z</time>
      </trkpt>
      <trkpt lat="44.39748" lon="3.88638">
        <ele>1341</ele>
        <time>2017-03-05T00:39:38Z</time>
      </trkpt>
      <trkpt lat="44.39748" lon="3.88647">
        <ele>1340</ele>
        <time>2017-03-05T00:41:38Z</time>
      </trkpt>
      <trkpt lat="44.39748" lon="3.88654">
        <ele>1340</ele>
        <time>2017-03-05T00:43:38Z</time>
      </trkpt>
      <trkpt lat="44.39748" lon="3.88661">
        <ele>1339</ele>
        <time>2017-03-05T00:45:38Z</time>
      </trkpt>
      <trkpt lat="44.39747" lon="3.88667">
        <ele>1339</ele>
        <time>2017-03-05T00:47:38Z</time>
      </trkpt>
      <trkpt lat="44.39747" lon="3.88674">
        <ele>1340</ele>
        <time>2017-03-05T00:49:38Z</time>
      </trkpt>
      <trkpt lat="44.39747" lon="3.88681">
        <ele>1340</ele>
        <time>2017-03-05T00:51:38Z</time>
      </trkpt>
      <trkpt lat="44.39747" lon="3.88686">
        <ele>1340</ele>
        <time>2017-03-05T00:53:38Z</time>
      </trkpt>
      <trkpt lat="44.39748" lon="3.88695">
        <ele>1340</ele>
        <time>2017-03-05T00:55:38Z</time>
      </trkpt>
      <trkpt lat="44.3976" lon="3.88739">
        <ele>1336</ele>
        <time>2017-03-05T00:57:38Z</time>
      </trkpt>
      <trkpt lat="44.39766" lon="3.88761">
        <ele>1335</ele>
        <time>2017-03-05T00:59:38Z</time>
      </trkpt>
      <trkpt lat="44.39772" lon="3.88778">
        <ele>1333</ele>
        <time>2017-03-05T01:01:38Z</time>
      </trkpt>
      <trkpt lat="44.39775" lon="3.88784">
        <ele>1332</ele>
        <time>2017-03-05T01:03:38Z</time>
      </trkpt>
      <trkpt lat="44.39777" lon="3.88789">
        <ele>1331</ele>
        <time>2017-03-05T01:05:38Z</time>
      </trkpt>
      <trkpt lat="44.39779" lon="3.88796">
        <ele>1331</ele>
        <time>2017-03-05T01:07:38Z</time>
      </trkpt>
      <trkpt lat="44.39781" lon="3.888">
        <ele>1330</ele>
        <time>2017-03-05T01:09:38Z</time>
      </trkpt>
      <trkpt lat="44.39782" lon="3.88807">
        <ele>1330</ele>
        <time>2017-03-05T01:11:38Z</time>
      </trkpt>
      <trkpt lat="44.39783" lon="3.88813">
        <ele>1330</ele>
        <time>2017-03-05T01:13:38Z</time>
      </trkpt>
      <trkpt lat="44.39783" lon="3.88821">
        <ele>1330</ele>
        <time>2017-03-05T01:15:38Z</time>
      </trkpt>
      <trkpt lat="44.39784" lon="3.8883">
        <ele>1330</ele>
        <time>2017-03-05T01:17:38Z</time>
      </trkpt>
      <trkpt lat="44.39784" lon="3.88842">
        <ele>1330</ele>
        <time>2017-03-05T01:19:38Z</time>
      </trkpt>
      <trkpt lat="44.39785" lon="3.88851">
        <ele>1330</ele>
        <time>2017-03-05T01:21:38Z</time>
      </trkpt>
      <trkpt lat="44.39785" lon="3.88859">
        <ele>1330</ele>
        <time>2017-03-05T01:23:38Z</time>
      </trkpt>
      <trkpt lat="44.39786" lon="3.88866">
        <ele>1330</ele>
        <time>2017-03-05T01:25:38Z</time>
      </trkpt>
      <trkpt lat="44.39788" lon="3.88875">
        <ele>1330</ele>
        <time>2017-03-05T01:27:38Z</time>
      </trkpt>
      <trkpt lat="44.3979" lon="3.88886">
        <ele>1329</ele>
        <time>2017-03-05T01:29:38Z</time>
      </trkpt>
      <trkpt lat="44.39795" lon="3.88905">
        <ele>1328</ele>
        <time>2017-03-05T01:31:38Z</time>
      </trkpt>
      <trkpt lat="44.39802" lon="3.88922">
        <ele>1326</ele>
        <time>2017-03-05T01:33:38Z</time>
      </trkpt>
      <trkpt lat="44.3981" lon="3.88948">
        <ele>1323</ele>
        <time>2017-03-05T01:35:38Z</time>
      </trkpt>
      <trkpt lat="44.39811" lon="3.88955">
        <ele>1322</ele>
        <time>2017-03-05T01:37:38Z</time>
      </trkpt>
      <trkpt lat="44.39811" lon="3.88964">
        <ele>1322</ele>
        <time>2017-03-05T01:39:38Z</time>
      </trkpt>
      <trkpt lat="44.39812" lon="3.88976">
        <ele>1321</ele>
        <time>2017-03-05T01:41:38Z</time>
      </trkpt>
      <trkpt lat="44.39812" lon="3.88984">
        <ele>1321</ele>
        <time>2017-03-05T01:43:38Z</time>
      </trkpt>
      <trkpt lat="44.39811" lon="3.88994">
        <ele>1321</ele>
        <time>2017-03-05T01:45:38Z</time>
      </trkpt>
      <trkpt lat="44.3981" lon="3.89001">
        <ele>1321</ele>
        <time>2017-03-05T01:47:38Z</time>
      </trkpt>
      <trkpt lat="44.3981" lon="3.89007">
        <ele>1320</ele>
        <time>2017-03-05T01:49:38Z</time>
      </trkpt>
      <trkpt lat="44.39809" lon="3.89012">
        <ele>1319</ele>
        <time>2017-03-05T01:51:38Z</time>
      </trkpt>
      <trkpt lat="44.39807" lon="3.89017">
        <ele>1319</ele>
        <time>2017-03-05T01:53:38Z</time>
      </trkpt>
      <trkpt lat="44.39798" lon="3.89036">
        <ele>1318</ele>
        <time>2017-03-05T01:55:38Z</time>
      </trkpt>
      <trkpt lat="44.39763" lon="3.89103">
        <ele>1315</ele>
        <time>2017-03-05T01:57:38Z</time>
      </trkpt>
      <trkpt lat="44.39736" lon="3.8915">
        <ele>1315</ele>
        <time>2017-03-05T01:59:38Z</time>
      </trkpt>
      <trkpt lat="44.39732" lon="3.89157">
        <ele>1315</ele>
        <time>2017-03-05T02:01:38Z</time>
      </trkpt>
      <trkpt lat="44.39723" lon="3.89168">
        <ele>1316</ele>
        <time>2017-03-05T02:03:38Z</time>
      </trkpt>
      <trkpt lat="44.39716" lon="3.89175">
        <ele>1316</ele>
        <time>2017-03-05T02:05:38Z</time>
      </trkpt>
      <trkpt lat="44.3971" lon="3.89182">
        <ele>1317</ele>
        <time>2017-03-05T02:07:38Z</time>
      </trkpt>
      <trkpt lat="44.39707" lon="3.89187">
        <ele>1317</ele>
        <time>2017-03-05T02:09:38Z</time>
      </trkpt>
      <trkpt lat="44.39705" lon="3.89193">
        <ele>1316</ele>
        <time>2017-03-05T02:11:38Z</time>
      </trkpt>
      <trkpt lat="44.39704" lon="3.89199">
        <ele>1315</ele>
        <time>2017-03-05T02:13:38Z</time>
      </trkpt>
      <trkpt lat="44.39701" lon="3.89213">
        <ele>1312</ele>
        <time>2017-03-05T02:15:38Z</time>
      </trkpt>
      <trkpt lat="44.39699" lon="3.89224">
        <ele>1310</ele>
        <time>2017-03-05T02:17:38Z</time>
      </trkpt>
      <trkpt lat="44.39693" lon="3.89259">
        <ele>1304</ele>
        <time>2017-03-05T02:19:38Z</time>
      </trkpt>
      <trkpt lat="44.39677" lon="3.89298">
        <ele>1299</ele>
        <time>2017-03-05T02:21:38Z</time>
      </trkpt>
      <trkpt lat="44.39644" lon="3.89347">
        <ele>1298</ele>
        <time>2017-03-05T02:23:38Z</time>
      </trkpt>
      <trkpt lat="44.39619" lon="3.89378">
        <ele>1298</ele>
        <time>2017-03-05T02:25:38Z</time>
      </trkpt>
      <trkpt lat="44.39608" lon="3.89416">
        <ele>1291</ele>
        <time>2017-03-05T02:27:38Z</time>
      </trkpt>
      <trkpt lat="44.39595" lon="3.89449">
        <ele>1285</ele>
        <time>2017-03-05T02:29:38Z</time>
      </trkpt>
      <trkpt lat="44.3958" lon="3.8948">
        <ele>1281</ele>
        <time>2017-03-05T02:31:38Z</time>
      </trkpt>
      <trkpt lat="44.39549" lon="3.89524">
        <ele>1281</ele>
        <time>2017-03-05T02:33:38Z</time>
      </trkpt>
      <trkpt lat="44.39532" lon="3.89546">
        <ele>1282</ele>
        <time>2017-03-05T02:35:38Z</time>
      </trkpt>
      <trkpt lat="44.39525" lon="3.89554">
        <ele>1282</ele>
        <time>2017-03-05T02:37:38Z</time>
      </trkpt>
      <trkpt lat="44.39519" lon="3.89566">
        <ele>1281</ele>
        <time>2017-03-05T02:39:38Z</time>
      </trkpt>
      <trkpt lat="44.39525" lon="3.89573">
        <ele>1277</ele>
        <time>2017-03-05T02:41:38Z</time>
      </trkpt>
      <trkpt lat="44.39503" lon="3.89654">
        <ele>1279</ele>
        <time>2017-03-05T02:43:38Z</time>
      </trkpt>
      <trkpt lat="44.39555" lon="3.89715">
        <ele>1269</ele>
        <time>2017-03-05T02:45:38Z</time>
      </trkpt>
      <trkpt lat="44.39555" lon="3.89714">
        <ele>1269</ele>
        <time>2017-03-05T02:47:38Z</time>
      </trkpt>
      <trkpt lat="44.39573" lon="3.89726">
        <ele>1266</ele>
        <time>2017-03-05T02:49:38Z</time>
      </trkpt>
      <trkpt lat="44.39644" lon="3.89752">
        <ele>1256</ele>
        <time>2017-03-05T02:51:38Z</time>
      </trkpt>
      <trkpt lat="44.39752" lon="3.89782">
        <ele>1248</ele>
        <time>2017-03-05T02:53:38Z</time>
      </trkpt>
      <trkpt lat="44.39787" lon="3.898">
        <ele>1248</ele>
        <time>2017-03-05T02:55:38Z</time>
      </trkpt>
      <trkpt lat="44.39837" lon="3.89826">
        <ele>1247</ele>
        <time>2017-03-05T02:57:38Z</time>
      </trkpt>
      <trkpt lat="44.39884" lon="3.8984">
        <ele>1234</ele>
        <time>2017-03-05T02:59:38Z</time>
      </trkpt>
      <trkpt lat="44.39904" lon="3.89857">
        <ele>1228</ele>
        <time>2017-03-05T03:01:38Z</time>
      </trkpt>
      <trkpt lat="44.39905" lon="3.89859">
        <ele>1228</ele>
        <time>2017-03-05T03:03:38Z</time>
      </trkpt>
      <trkpt lat="44.39907" lon="3.8986">
        <ele>1227</ele>
        <time>2017-03-05T03:05:38Z</time>
      </trkpt>
      <trkpt lat="44.39908" lon="3.89862">
        <ele>1227</ele>
        <time>2017-03-05T03:07:38Z</time>
      </trkpt>
      <trkpt lat="44.39909" lon="3.89864">
        <ele>1226</ele>
        <time>2017-03-05T03:09:38Z</time>
      </trkpt>
      <trkpt lat="44.3991" lon="3.89867">
        <ele>1226</ele>
        <time>2017-03-05T03:11:38Z</time>
      </trkpt>
      <trkpt lat="44.39911" lon="3.89871">
        <ele>1226</ele>
        <time>2017-03-05T03:13:38Z</time>
      </trkpt>
      <trkpt lat="44.39912" lon="3.89874">
        <ele>1226</ele>
        <time>2017-03-05T03:15:38Z</time>
      </trkpt>
      <trkpt lat="44.39912" lon="3.89877">
        <ele>1226</ele>
        <time>2017-03-05T03:17:38Z</time>
      </trkpt>
      <trkpt lat="44.39912" lon="3.89881">
        <ele>1227</ele>
        <time>2017-03-05T03:19:38Z</time>
      </trkpt>
      <trkpt lat="44.39912" lon="3.89885">
        <ele>1227</ele>
        <time>2017-03-05T03:21:38Z</time>
      </trkpt>
      <trkpt lat="44.39911" lon="3.89891">
        <ele>1228</ele>
        <time>2017-03-05T03:23:38Z</time>
      </trkpt>
      <trkpt lat="44.39909" lon="3.89897">
        <ele>1229</ele>
        <time>2017-03-05T03:25:38Z</time>
      </trkpt>
      <trkpt lat="44.39907" lon="3.89904">
        <ele>1231</ele>
        <time>2017-03-05T03:27:38Z</time>
      </trkpt>
      <trkpt lat="44.39906" lon="3.8991">
        <ele>1232</ele>
        <time>2017-03-05T03:29:38Z</time>
      </trkpt>
      <trkpt lat="44.39897" lon="3.89937">
        <ele>1235</ele>
        <time>2017-03-05T03:31:38Z</time>
      </trkpt>
      <trkpt lat="44.39888" lon="3.89967">
        <ele>1236</ele>
        <time>2017-03-05T03:33:38Z</time>
      </trkpt>
      <trkpt lat="44.39878" lon="3.90008">
        <ele>1237</ele>
        <time>2017-03-05T03:35:38Z</time>
      </trkpt>
      <trkpt lat="44.39869" lon="3.90058">
        <ele>1237</ele>
        <time>2017-03-05T03:37:38Z</time>
      </trkpt>
      <trkpt lat="44.39865" lon="3.90078">
        <ele>1237</ele>
        <time>2017-03-05T03:39:38Z</time>
      </trkpt>
      <trkpt lat="44.39864" lon="3.90085">
        <ele>1237</ele>
        <time>2017-03-05T03:41:38Z</time>
      </trkpt>
      <trkpt lat="44.39863" lon="3.90095">
        <ele>1237</ele>
        <time>2017-03-05T03:43:38Z</time>
      </trkpt>
      <trkpt lat="44.39862" lon="3.90103">
        <ele>1238</ele>
        <time>2017-03-05T03:45:38Z</time>
      </trkpt>
      <trkpt lat="44.39863" lon="3.90112">
        <ele>1237</ele>
        <time>2017-03-05T03:47:38Z</time>
      </trkpt>
      <trkpt lat="44.39864" lon="3.90122">
        <ele>1236</ele>
        <time>2017-03-05T03:49:38Z</time>
      </trkpt>
      <trkpt lat="44.39865" lon="3.90136">
        <ele>1234</ele>
        <time>2017-03-05T03:51:38Z</time>
      </trkpt>
      <trkpt lat="44.39872" lon="3.90197">
        <ele>1230</ele>
        <time>2017-03-05T03:53:38Z</time>
      </trkpt>
      <trkpt lat="44.39879" lon="3.90241">
        <ele>1227</ele>
        <time>2017-03-05T03:55:38Z</time>
      </trkpt>
      <trkpt lat="44.39881" lon="3.9027">
        <ele>1226</ele>
        <time>2017-03-05T03:57:38Z</time>
      </trkpt>
      <trkpt lat="44.39882" lon="3.90293">
        <ele>1225</ele>
        <time>2017-03-05T03:59:38Z</time>
      </trkpt>
      <trkpt lat="44.3988" lon="3.90312">
        <ele>1226</ele>
        <time>2017-03-05T04:01:38Z</time>
      </trkpt>
      <trkpt lat="44.39879" lon="3.90322">
        <ele>1226</ele>
        <time>2017-03-05T04:03:38Z</time>
      </trkpt>
      <trkpt lat="44.39878" lon="3.9033">
        <ele>1227</ele>
        <time>2017-03-05T04:05:38Z</time>
      </trkpt>
      <trkpt lat="44.39876" lon="3.90336">
        <ele>1227</ele>
        <time>2017-03-05T04:07:38Z</time>
      </trkpt>
      <trkpt lat="44.39874" lon="3.90344">
        <ele>1227</ele>
        <time>2017-03-05T04:09:38Z</time>
      </trkpt>
      <trkpt lat="44.3987" lon="3.90354">
        <ele>1226</ele>
        <time>2017-03-05T04:11:38Z</time>
      </trkpt>
      <trkpt lat="44.39868" lon="3.9036">
        <ele>1226</ele>
        <time>2017-03-05T04:13:38Z</time>
      </trkpt>
      <trkpt lat="44.39864" lon="3.90366">
        <ele>1227</ele>
        <time>2017-03-05T04:15:38Z</time>
      </trkpt>
      <trkpt lat="44.39856" lon="3.90375">
        <ele>1228</ele>
        <time>2017-03-05T04:17:38Z</time>
      </trkpt>
      <trkpt lat="44.39866" lon="3.90382">
        <ele>1223</ele>
        <time>2017-03-05T04:19:38Z</time>
      </trkpt>
      <trkpt lat="44.39908" lon="3.9038">
        <ele>1207</ele>
        <time>2017-03-05T04:21:38Z</time>
      </trkpt>
      <trkpt lat="44.39924" lon="3.9038">
        <ele>1200</ele>
        <time>2017-03-05T04:23:38Z</time>
      </trkpt>
      <trkpt lat="44.39951" lon="3.904">
        <ele>1185</ele>
        <time>2017-03-05T04:25:38Z</time>
      </trkpt>
      <trkpt lat="44.3997" lon="3.90437">
        <ele>1171</ele>
        <time>2017-03-05T04:27:38Z</time>
      </trkpt>
      <trkpt lat="44.39975" lon="3.90455">
        <ele>1166</ele>
        <time>2017-03-05T04:29:38Z</time>
      </trkpt>
      <trkpt lat="44.39991" lon="3.90521">
        <ele>1148</ele>
        <time>2017-03-05T04:31:38Z</time>
      </trkpt>
      <trkpt lat="44.4" lon="3.90539">
        <ele>1142</ele>
        <time>2017-03-05T04:33:38Z</time>
      </trkpt>
      <trkpt lat="44.4" lon="3.90539">
        <ele>1142</ele>
        <time>2017-03-05T04:35:38Z</time>
      </trkpt>
      <trkpt lat="44.40006" lon="3.90534">
        <ele>1140</ele>
        <time>2017-03-05T04:37:38Z</time>
      </trkpt>
      <trkpt lat="44.40014" lon="3.90518">
        <ele>1140</ele>
        <time>2017-03-05T04:39:38Z</time>
      </trkpt>
      <trkpt lat="44.40024" lon="3.90493">
        <ele>1139</ele>
        <time>2017-03-05T04:41:38Z</time>
      </trkpt>
      <trkpt lat="44.40031" lon="3.90474">
        <ele>1139</ele>
        <time>2017-03-05T04:43:38Z</time>
      </trkpt>
      <trkpt lat="44.40036" lon="3.90458">
        <ele>1139</ele>
        <time>2017-03-05T04:45:38Z</time>
      </trkpt>
      <trkpt lat="44.4004" lon="3.90444">
        <ele>1139</ele>
        <time>2017-03-05T04:47:38Z</time>
      </trkpt>
      <trkpt lat="44.40043" lon="3.90438">
        <ele>1138</ele>
        <time>2017-03-05T04:49:38Z</time>
      </trkpt>
      <trkpt lat="44.40045" lon="3.90431">
        <ele>1138</ele>
        <time>2017-03-05T04:51:38Z</time>
      </trkpt>
      <trkpt lat="44.40047" lon="3.90425">
        <ele>1138</ele>
        <time>2017-03-05T04:53:38Z</time>
      </trkpt>
      <trkpt lat="44.4005" lon="3.90419">
        <ele>1137</ele>
        <time>2017-03-05T04:55:38Z</time>
      </trkpt>
      <trkpt lat="44.40061" lon="3.90404">
        <ele>1134</ele>
        <time>2017-03-05T04:57:38Z</time>
      </trkpt>
      <trkpt lat="44.40069" lon="3.90393">
        <ele>1132</ele>
        <time>2017-03-05T04:59:38Z</time>
      </trkpt>
      <trkpt lat="44.40077" lon="3.9038">
        <ele>1130</ele>
        <time>2017-03-05T05:01:38Z</time>
      </trkpt>
      <trkpt lat="44.40085" lon="3.90368">
        <ele>1128</ele>
        <time>2017-03-05T05:03:38Z</time>
      </trkpt>
      <trkpt lat="44.40093" lon="3.9035">
        <ele>1127</ele>
        <time>2017-03-05T05:05:38Z</time>
      </trkpt>
      <trkpt lat="44.40097" lon="3.90338">
        <ele>1127</ele>
        <time>2017-03-05T05:07:38Z</time>
      </trkpt>
      <trkpt lat="44.401" lon="3.90325">
        <ele>1126</ele>
        <time>2017-03-05T05:09:38Z</time>
      </trkpt>
      <trkpt lat="44.40102" lon="3.90315">
        <ele>1125</ele>
        <time>2017-03-05T05:11:38Z</time>
      </trkpt>
      <trkpt lat="44.40103" lon="3.90307">
        <ele>1124</ele>
        <time>2017-03-05T05:13:38Z</time>
      </trkpt>
      <trkpt lat="44.40104" lon="3.90298">
        <ele>1124</ele>
        <time>2017-03-05T05:15:38Z</time>
      </trkpt>
      <trkpt lat="44.40104" lon="3.90291">
        <ele>1124</ele>
        <time>2017-03-05T05:17:38Z</time>
      </trkpt>
      <trkpt lat="44.40104" lon="3.90283">
        <ele>1123</ele>
        <time>2017-03-05T05:19:38Z</time>
      </trkpt>
      <trkpt lat="44.40104" lon="3.90277">
        <ele>1123</ele>
        <time>2017-03-05T05:21:38Z</time>
      </trkpt>
      <trkpt lat="44.40103" lon="3.90269">
        <ele>1123</ele>
        <time>2017-03-05T05:23:38Z</time>
      </trkpt>
      <trkpt lat="44.40102" lon="3.90264">
        <ele>1123</ele>
        <time>2017-03-05T05:25:38Z</time>
      </trkpt>
      <trkpt lat="44.401" lon="3.9026">
        <ele>1124</ele>
        <time>2017-03-05T05:27:38Z</time>
      </trkpt>
      <trkpt lat="44.40098" lon="3.90254">
        <ele>1124</ele>
        <time>2017-03-05T05:29:38Z</time>
      </trkpt>
      <trkpt lat="44.40096" lon="3.9025">
        <ele>1125</ele>
        <time>2017-03-05T05:31:38Z</time>
      </trkpt>
      <trkpt lat="44.40095" lon="3.90244">
        <ele>1124</ele>
        <time>2017-03-05T05:33:38Z</time>
      </trkpt>
      <trkpt lat="44.40095" lon="3.90241">
        <ele>1124</ele>
        <time>2017-03-05T05:35:38Z</time>
      </trkpt>
      <trkpt lat="44.40096" lon="3.9024">
        <ele>1124</ele>
        <time>2017-03-05T05:37:38Z</time>
      </trkpt>
      <trkpt lat="44.40099" lon="3.90239">
        <ele>1122</ele>
        <time>2017-03-05T05:39:38Z</time>
      </trkpt>
      <trkpt lat="44.40102" lon="3.90239">
        <ele>1121</ele>
        <time>2017-03-05T05:41:38Z</time>
      </trkpt>
      <trkpt lat="44.40103" lon="3.90241">
        <ele>1121</ele>
        <time>2017-03-05T05:43:38Z</time>
      </trkpt>
      <trkpt lat="44.40111" lon="3.90268">
        <ele>1120</ele>
        <time>2017-03-05T05:45:38Z</time>
      </trkpt>
      <trkpt lat="44.40118" lon="3.90292">
        <ele>1119</ele>
        <time>2017-03-05T05:47:38Z</time>
      </trkpt>
      <trkpt lat="44.40122" lon="3.90307">
        <ele>1117</ele>
        <time>2017-03-05T05:49:38Z</time>
      </trkpt>
      <trkpt lat="44.40123" lon="3.90315">
        <ele>1117</ele>
        <time>2017-03-05T05:51:38Z</time>
      </trkpt>
      <trkpt lat="44.40124" lon="3.90324">
        <ele>1117</ele>
        <time>2017-03-05T05:53:38Z</time>
      </trkpt>
      <trkpt lat="44.40124" lon="3.90331">
        <ele>1117</ele>
        <time>2017-03-05T05:55:38Z</time>
      </trkpt>
      <trkpt lat="44.40124" lon="3.9034">
        <ele>1116</ele>
        <time>2017-03-05T05:57:38Z</time>
      </trkpt>
      <trkpt lat="44.40123" lon="3.90348">
        <ele>1115</ele>
        <time>2017-03-05T05:59:38Z</time>
      </trkpt>
      <trkpt lat="44.40121" lon="3.90362">
        <ele>1114</ele>
        <time>2017-03-05T06:01:38Z</time>
      </trkpt>
      <trkpt lat="44.40116" lon="3.90378">
        <ele>1114</ele>
        <time>2017-03-05T06:03:38Z</time>
      </trkpt>
      <trkpt lat="44.40109" lon="3.90394">
        <ele>1115</ele>
        <time>2017-03-05T06:05:38Z</time>
      </trkpt>
      <trkpt lat="44.40105" lon="3.90403">
        <ele>1116</ele>
        <time>2017-03-05T06:07:38Z</time>
      </trkpt>
      <trkpt lat="44.40099" lon="3.90416">
        <ele>1117</ele>
        <time>2017-03-05T06:09:38Z</time>
      </trkpt>
      <trkpt lat="44.40093" lon="3.90435">
        <ele>1117</ele>
        <time>2017-03-05T06:11:38Z</time>
      </trkpt>
      <trkpt lat="44.40087" lon="3.90454">
        <ele>1117</ele>
        <time>2017-03-05T06:13:38Z</time>
      </trkpt>
      <trkpt lat="44.40084" lon="3.90466">
        <ele>1116</ele>
        <time>2017-03-05T06:15:38Z</time>
      </trkpt>
      <trkpt lat="44.40083" lon="3.90473">
        <ele>1116</ele>
        <time>2017-03-05T06:17:38Z</time>
      </trkpt>
      <trkpt lat="44.40083" lon="3.90478">
        <ele>1115</ele>
        <time>2017-03-05T06:19:38Z</time>
      </trkpt>
      <trkpt lat="44.40083" lon="3.90484">
        <ele>1114</ele>
        <time>2017-03-05T06:21:38Z</time>
      </trkpt>
      <trkpt lat="44.40083" lon="3.90489">
        <ele>1114</ele>
        <time>2017-03-05T06:23:38Z</time>
      </trkpt>
      <trkpt lat="44.40086" lon="3.90515">
        <ele>1110</ele>
        <time>2017-03-05T06:25:38Z</time>
      </trkpt>
      <trkpt lat="44.40092" lon="3.90557">
        <ele>1105</ele>
        <time>2017-03-05T06:27:38Z</time>
      </trkpt>
      <trkpt lat="44.40097" lon="3.90595">
        <ele>1102</ele>
        <time>2017-03-05T06:29:38Z</time>
      </trkpt>
      <trkpt lat="44.40101" lon="3.9063">
        <ele>1100</ele>
        <time>2017-03-05T06:31:38Z</time>
      </trkpt>
      <trkpt lat="44.40105" lon="3.90658">
        <ele>1100</ele>
        <time>2017-03-05T06:33:38Z</time>
      </trkpt>
      <trkpt lat="44.40105" lon="3.9067">
        <ele>1100</ele>
        <time>2017-03-05T06:35:38Z</time>
      </trkpt>
      <trkpt lat="44.40104" lon="3.9068">
        <ele>1099</ele>
        <time>2017-03-05T06:37:38Z</time>
      </trkpt>
      <trkpt lat="44.40104" lon="3.90683">
        <ele>1099</ele>
        <time>2017-03-05T06:39:38Z</time>
      </trkpt>
      <trkpt lat="44.40102" lon="3.90689">
        <ele>1099</ele>
        <time>2017-03-05T06:41:38Z</time>
      </trkpt>
      <trkpt lat="44.40102" lon="3.90689">
        <ele>1099</ele>
        <time>2017-03-05T06:43:38Z</time>
      </trkpt>
      <trkpt lat="44.40121" lon="3.90696">
        <ele>1099</ele>
        <time>2017-03-05T06:45:38Z</time>
      </trkpt>
      <trkpt lat="44.4014" lon="3.90706">
        <ele>1100</ele>
        <time>2017-03-05T06:47:38Z</time>
      </trkpt>
      <trkpt lat="44.40154" lon="3.90711">
        <ele>1101</ele>
        <time>2017-03-05T06:49:38Z</time>
      </trkpt>
      <trkpt lat="44.40168" lon="3.90719">
        <ele>1103</ele>
        <time>2017-03-05T06:51:38Z</time>
      </trkpt>
      <trkpt lat="44.40191" lon="3.90733">
        <ele>1104</ele>
        <time>2017-03-05T06:53:38Z</time>
      </trkpt>
      <trkpt lat="44.40208" lon="3.90741">
        <ele>1106</ele>
        <time>2017-03-05T06:55:38Z</time>
      </trkpt>
      <trkpt lat="44.4022" lon="3.90747">
        <ele>1107</ele>
        <time>2017-03-05T06:57:38Z</time>
      </trkpt>
      <trkpt lat="44.40232" lon="3.90754">
        <ele>1107</ele>
        <time>2017-03-05T06:59:38Z</time>
      </trkpt>
      <trkpt lat="44.40248" lon="3.90777">
        <ele>1107</ele>
        <time>2017-03-05T07:01:38Z</time>
      </trkpt>
      <trkpt lat="44.4026" lon="3.90794">
        <ele>1104</ele>
        <time>2017-03-05T07:03:38Z</time>
      </trkpt>
      <trkpt lat="44.40268" lon="3.90814">
        <ele>1102</ele>
        <time>2017-03-05T07:05:38Z</time>
      </trkpt>
      <trkpt lat="44.40277" lon="3.90839">
        <ele>1101</ele>
        <time>2017-03-05T07:07:38Z</time>
      </trkpt>
      <trkpt lat="44.40286" lon="3.90866">
        <ele>1099</ele>
        <time>2017-03-05T07:09:38Z</time>
      </trkpt>
      <trkpt lat="44.40292" lon="3.90891">
        <ele>1099</ele>
        <time>2017-03-05T07:11:38Z</time>
      </trkpt>
      <trkpt lat="44.40294" lon="3.90906">
        <ele>1099</ele>
        <time>2017-03-05T07:13:38Z</time>
      </trkpt>
      <trkpt lat="44.40294" lon="3.90913">
        <ele>1099</ele>
        <time>2017-03-05T07:15:38Z</time>
      </trkpt>
      <trkpt lat="44.40294" lon="3.9092">
        <ele>1099</ele>
        <time>2017-03-05T07:17:38Z</time>
      </trkpt>
      <trkpt lat="44.40293" lon="3.90928">
        <ele>1098</ele>
        <time>2017-03-05T07:19:38Z</time>
      </trkpt>
      <trkpt lat="44.40292" lon="3.90937">
        <ele>1098</ele>
        <time>2017-03-05T07:21:38Z</time>
      </trkpt>
      <trkpt lat="44.40291" lon="3.90944">
        <ele>1098</ele>
        <time>2017-03-05T07:23:38Z</time>
      </trkpt>
      <trkpt lat="44.40292" lon="3.90951">
        <ele>1098</ele>
        <time>2017-03-05T07:25:38Z</time>
      </trkpt>
      <trkpt lat="44.40294" lon="3.90955">
        <ele>1098</ele>
        <time>2017-03-05T07:27:38Z</time>
      </trkpt>
      <trkpt lat="44.40297" lon="3.90958">
        <ele>1098</ele>
        <time>2017-03-05T07:29:38Z</time>
      </trkpt>
      <trkpt lat="44.40302" lon="3.90963">
        <ele>1099</ele>
        <time>2017-03-05T07:31:38Z</time>
      </trkpt>
      <trkpt lat="44.40308" lon="3.90966">
        <ele>1100</ele>
        <time>2017-03-05T07:33:38Z</time>
      </trkpt>
      <trkpt lat="44.40311" lon="3.90972">
        <ele>1100</ele>
        <time>2017-03-05T07:35:38Z</time>
      </trkpt>
      <trkpt lat="44.40314" lon="3.90978">
        <ele>1101</ele>
        <time>2017-03-05T07:37:38Z</time>
      </trkpt>
      <trkpt lat="44.40317" lon="3.90984">
        <ele>1102</ele>
        <time>2017-03-05T07:39:38Z</time>
      </trkpt>
      <trkpt lat="44.4032" lon="3.90991">
        <ele>1102</ele>
        <time>2017-03-05T07:41:38Z</time>
      </trkpt>
      <trkpt lat="44.40323" lon="3.90999">
        <ele>1103</ele>
        <time>2017-03-05T07:43:38Z</time>
      </trkpt>
      <trkpt lat="44.40324" lon="3.91008">
        <ele>1103</ele>
        <time>2017-03-05T07:45:38Z</time>
      </trkpt>
      <trkpt lat="44.40325" lon="3.91015">
        <ele>1104</ele>
        <time>2017-03-05T07:47:38Z</time>
      </trkpt>
      <trkpt lat="44.40328" lon="3.91023">
        <ele>1105</ele>
        <time>2017-03-05T07:49:38Z</time>
      </trkpt>
      <trkpt lat="44.40331" lon="3.91029">
        <ele>1105</ele>
        <time>2017-03-05T07:51:38Z</time>
      </trkpt>
      <trkpt lat="44.40334" lon="3.91038">
        <ele>1106</ele>
        <time>2017-03-05T07:53:38Z</time>
      </trkpt>
      <trkpt lat="44.4034" lon="3.91063">
        <ele>1105</ele>
        <time>2017-03-05T07:55:38Z</time>
      </trkpt>
      <trkpt lat="44.40345" lon="3.91086">
        <ele>1105</ele>
        <time>2017-03-05T07:57:38Z</time>
      </trkpt>
      <trkpt lat="44.40348" lon="3.91102">
        <ele>1105</ele>
        <time>2017-03-05T07:59:38Z</time>
      </trkpt>
      <trkpt lat="44.40349" lon="3.91138">
        <ele>1104</ele>
        <time>2017-03-05T08:01:38Z</time>
      </trkpt>
      <trkpt lat="44.40346" lon="3.91155">
        <ele>1104</ele>
        <time>2017-03-05T08:03:38Z</time>
      </trkpt>
      <trkpt lat="44.40346" lon="3.91176">
        <ele>1104</ele>
        <time>2017-03-05T08:05:38Z</time>
      </trkpt>
      <trkpt lat="44.40344" lon="3.91191">
        <ele>1103</ele>
        <time>2017-03-05T08:07:38Z</time>
      </trkpt>
      <trkpt lat="44.40345" lon="3.91201">
        <ele>1102</ele>
        <time>2017-03-05T08:09:38Z</time>
      </trkpt>
      <trkpt lat="44.40345" lon="3.9121">
        <ele>1101</ele>
        <time>2017-03-05T08:11:38Z</time>
      </trkpt>
      <trkpt lat="44.40383" lon="3.91316">
        <ele>1087</ele>
        <time>2017-03-05T08:13:38Z</time>
      </trkpt>
      <trkpt lat="44.40395" lon="3.91342">
        <ele>1084</ele>
        <time>2017-03-05T08:15:38Z</time>
      </trkpt>
      <trkpt lat="44.40398" lon="3.91357">
        <ele>1084</ele>
        <time>2017-03-05T08:17:38Z</time>
      </trkpt>
      <trkpt lat="44.40402" lon="3.9137">
        <ele>1084</ele>
        <time>2017-03-05T08:19:38Z</time>
      </trkpt>
      <trkpt lat="44.40402" lon="3.91376">
        <ele>1084</ele>
        <time>2017-03-05T08:21:38Z</time>
      </trkpt>
      <trkpt lat="44.40401" lon="3.91384">
        <ele>1084</ele>
        <time>2017-03-05T08:23:38Z</time>
      </trkpt>
      <trkpt lat="44.40402" lon="3.91392">
        <ele>1084</ele>
        <time>2017-03-05T08:25:38Z</time>
      </trkpt>
      <trkpt lat="44.40403" lon="3.91401">
        <ele>1084</ele>
        <time>2017-03-05T08:27:38Z</time>
      </trkpt>
      <trkpt lat="44.40404" lon="3.9141">
        <ele>1084</ele>
        <time>2017-03-05T08:29:38Z</time>
      </trkpt>
      <trkpt lat="44.40407" lon="3.91421">
        <ele>1085</ele>
        <time>2017-03-05T08:31:38Z</time>
      </trkpt>
      <trkpt lat="44.40408" lon="3.91429">
        <ele>1086</ele>
        <time>2017-03-05T08:33:38Z</time>
      </trkpt>
      <trkpt lat="44.4041" lon="3.91435">
        <ele>1088</ele>
        <time>2017-03-05T08:35:38Z</time>
      </trkpt>
      <trkpt lat="44.40413" lon="3.91441">
        <ele>1089</ele>
        <time>2017-03-05T08:37:38Z</time>
      </trkpt>
      <trkpt lat="44.40416" lon="3.91446">
        <ele>1090</ele>
        <time>2017-03-05T08:39:38Z</time>
      </trkpt>
      <trkpt lat="44.40418" lon="3.91451">
        <ele>1091</ele>
        <time>2017-03-05T08:41:38Z</time>
      </trkpt>
      <trkpt lat="44.40419" lon="3.91458">
        <ele>1091</ele>
        <time>2017-03-05T08:43:38Z</time>
      </trkpt>
      <trkpt lat="44.40419" lon="3.91467">
        <ele>1093</ele>
        <time>2017-03-05T08:45:38Z</time>
      </trkpt>
      <trkpt lat="44.40419" lon="3.91475">
        <ele>1094</ele>
        <time>2017-03-05T08:47:38Z</time>
      </trkpt>
      <trkpt lat="44.40419" lon="3.91483">
        <ele>1094</ele>
        <time>2017-03-05T08:49:38Z</time>
      </trkpt>
      <trkpt lat="44.40417" lon="3.91494">
        <ele>1096</ele>
        <time>2017-03-05T08:51:38Z</time>
      </trkpt>
      <trkpt lat="44.40416" lon="3.91502">
        <ele>1097</ele>
        <time>2017-03-05T08:53:38Z</time>
      </trkpt>
      <trkpt lat="44.40419" lon="3.91508">
        <ele>1097</ele>
        <time>2017-03-05T08:55:38Z</time>
      </trkpt>
      <trkpt lat="44.40421" lon="3.91517">
        <ele>1096</ele>
        <time>2017-03-05T08:57:38Z</time>
      </trkpt>
      <trkpt lat="44.40421" lon="3.91525">
        <ele>1096</ele>
        <time>2017-03-05T08:59:38Z</time>
      </trkpt>
      <trkpt lat="44.40423" lon="3.91536">
        <ele>1096</ele>
        <time>2017-03-05T09:01:38Z</time>
      </trkpt>
      <trkpt lat="44.40427" lon="3.91545">
        <ele>1096</ele>
        <time>2017-03-05T09:03:38Z</time>
      </trkpt>
      <trkpt lat="44.40431" lon="3.91552">
        <ele>1096</ele>
        <time>2017-03-05T09:05:38Z</time>
      </trkpt>
      <trkpt lat="44.40435" lon="3.91561">
        <ele>1096</ele>
        <time>2017-03-05T09:07:38Z</time>
      </trkpt>
      <trkpt lat="44.40438" lon="3.91568">
        <ele>1096</ele>
        <time>2017-03-05T09:09:38Z</time>
      </trkpt>
      <trkpt lat="44.40442" lon="3.91575">
        <ele>1097</ele>
        <time>2017-03-05T09:11:38Z</time>
      </trkpt>
      <trkpt lat="44.40447" lon="3.91582">
        <ele>1097</ele>
        <time>2017-03-05T09:13:38Z</time>
      </trkpt>
      <trkpt lat="44.40451" lon="3.91592">
        <ele>1097</ele>
        <time>2017-03-05T09:15:38Z</time>
      </trkpt>
      <trkpt lat="44.40455" lon="3.91601">
        <ele>1098</ele>
        <time>2017-03-05T09:17:38Z</time>
      </trkpt>
      <trkpt lat="44.40459" lon="3.91614">
        <ele>1099</ele>
        <time>2017-03-05T09:19:38Z</time>
      </trkpt>
      <trkpt lat="44.40462" lon="3.91628">
        <ele>1100</ele>
        <time>2017-03-05T09:21:38Z</time>
      </trkpt>
      <trkpt lat="44.40467" lon="3.91639">
        <ele>1101</ele>
        <time>2017-03-05T09:23:38Z</time>
      </trkpt>
      <trkpt lat="44.40473" lon="3.91649">
        <ele>1103</ele>
        <time>2017-03-05T09:25:38Z</time>
      </trkpt>
      <trkpt lat="44.40479" lon="3.91658">
        <ele>1104</ele>
        <time>2017-03-05T09:27:38Z</time>
      </trkpt>
      <trkpt lat="44.40486" lon="3.91666">
        <ele>1106</ele>
        <time>2017-03-05T09:29:38Z</time>
      </trkpt>
      <trkpt lat="44.40499" lon="3.91683">
        <ele>1107</ele>
        <time>2017-03-05T09:31:38Z</time>
      </trkpt>
      <trkpt lat="44.40506" lon="3.91696">
        <ele>1106</ele>
        <time>2017-03-05T09:33:38Z</time>
      </trkpt>
      <trkpt lat="44.4051" lon="3.91699">
        <ele>1105</ele>
        <time>2017-03-05T09:35:38Z</time>
      </trkpt>
      <trkpt lat="44.40513" lon="3.91706">
        <ele>1104</ele>
        <time>2017-03-05T09:37:38Z</time>
      </trkpt>
      <trkpt lat="44.40515" lon="3.91715">
        <ele>1104</ele>
        <time>2017-03-05T09:39:38Z</time>
      </trkpt>
      <trkpt lat="44.40517" lon="3.9172">
        <ele>1104</ele>
        <time>2017-03-05T09:41:38Z</time>
      </trkpt>
      <trkpt lat="44.40518" lon="3.91726">
        <ele>1104</ele>
        <time>2017-03-05T09:43:38Z</time>
      </trkpt>
      <trkpt lat="44.40521" lon="3.91734">
        <ele>1104</ele>
        <time>2017-03-05T09:45:38Z</time>
      </trkpt>
      <trkpt lat="44.40523" lon="3.91739">
        <ele>1104</ele>
        <time>2017-03-05T09:47:38Z</time>
      </trkpt>
      <trkpt lat="44.40526" lon="3.91745">
        <ele>1104</ele>
        <time>2017-03-05T09:49:38Z</time>
      </trkpt>
      <trkpt lat="44.40532" lon="3.91752">
        <ele>1103</ele>
        <time>2017-03-05T09:51:38Z</time>
      </trkpt>
      <trkpt lat="44.40536" lon="3.91756">
        <ele>1102</ele>
        <time>2017-03-05T09:53:38Z</time>
      </trkpt>
      <trkpt lat="44.40538" lon="3.91759">
        <ele>1102</ele>
        <time>2017-03-05T09:55:38Z</time>
      </trkpt>
      <trkpt lat="44.40541" lon="3.91761">
        <ele>1102</ele>
        <time>2017-03-05T09:57:38Z</time>
      </trkpt>
      <trkpt lat="44.40544" lon="3.91763">
        <ele>1101</ele>
        <time>2017-03-05T09:59:38Z</time>
      </trkpt>
      <trkpt lat="44.40547" lon="3.91764">
        <ele>1101</ele>
        <time>2017-03-05T10:01:38Z</time>
      </trkpt>
      <trkpt lat="44.4055" lon="3.91764">
        <ele>1101</ele>
        <time>2017-03-05T10:03:38Z</time>
      </trkpt>
      <trkpt lat="44.40554" lon="3.91765">
        <ele>1101</ele>
        <time>2017-03-05T10:05:38Z</time>
      </trkpt>
      <trkpt lat="44.40557" lon="3.91765">
        <ele>1101</ele>
        <time>2017-03-05T10:07:38Z</time>
      </trkpt>
      <trkpt lat="44.40563" lon="3.91765">
        <ele>1102</ele>
        <time>2017-03-05T10:09:38Z</time>
      </trkpt>
      <trkpt lat="44.40567" lon="3.91765">
        <ele>1102</ele>
        <time>2017-03-05T10:11:38Z</time>
      </trkpt>
      <trkpt lat="44.40572" lon="3.91765">
        <ele>1102</ele>
        <time>2017-03-05T10:13:38Z</time>
      </trkpt>
      <trkpt lat="44.40574" lon="3.91765">
        <ele>1102</ele>
        <time>2017-03-05T10:15:38Z</time>
      </trkpt>
      <trkpt lat="44.40578" lon="3.91767">
        <ele>1102</ele>
        <time>2017-03-05T10:17:38Z</time>
      </trkpt>
      <trkpt lat="44.40581" lon="3.91768">
        <ele>1102</ele>
        <time>2017-03-05T10:19:38Z</time>
      </trkpt>
      <trkpt lat="44.40584" lon="3.91771">
        <ele>1101</ele>
        <time>2017-03-05T10:21:38Z</time>
      </trkpt>
      <trkpt lat="44.40587" lon="3.91773">
        <ele>1100</ele>
        <time>2017-03-05T10:23:38Z</time>
      </trkpt>
      <trkpt lat="44.4059" lon="3.91774">
        <ele>1099</ele>
        <time>2017-03-05T10:25:38Z</time>
      </trkpt>
      <trkpt lat="44.40593" lon="3.91774">
        <ele>1099</ele>
        <time>2017-03-05T10:27:38Z</time>
      </trkpt>
      <trkpt lat="44.40597" lon="3.91778">
        <ele>1098</ele>
        <time>2017-03-05T10:29:38Z</time>
      </trkpt>
      <trkpt lat="44.406" lon="3.91779">
        <ele>1097</ele>
        <time>2017-03-05T10:31:38Z</time>
      </trkpt>
      <trkpt lat="44.40604" lon="3.91779">
        <ele>1096</ele>
        <time>2017-03-05T10:33:38Z</time>
      </trkpt>
      <trkpt lat="44.40609" lon="3.91781">
        <ele>1095</ele>
        <time>2017-03-05T10:35:38Z</time>
      </trkpt>
      <trkpt lat="44.40613" lon="3.91782">
        <ele>1094</ele>
        <time>2017-03-05T10:37:38Z</time>
      </trkpt>
      <trkpt lat="44.40617" lon="3.91782">
        <ele>1094</ele>
        <time>2017-03-05T10:39:38Z</time>
      </trkpt>
      <trkpt lat="44.4062" lon="3.91781">
        <ele>1093</ele>
        <time>2017-03-05T10:41:38Z</time>
      </trkpt>
      <trkpt lat="44.40623" lon="3.91779">
        <ele>1093</ele>
        <time>2017-03-05T10:43:38Z</time>
      </trkpt>
      <trkpt lat="44.40627" lon="3.91778">
        <ele>1092</ele>
        <time>2017-03-05T10:45:38Z</time>
      </trkpt>
      <trkpt lat="44.4063" lon="3.91778">
        <ele>1092</ele>
        <time>2017-03-05T10:47:38Z</time>
      </trkpt>
      <trkpt lat="44.40634" lon="3.91777">
        <ele>1091</ele>
        <time>2017-03-05T10:49:38Z</time>
      </trkpt>
      <trkpt lat="44.40639" lon="3.91777">
        <ele>1090</ele>
        <time>2017-03-05T10:51:38Z</time>
      </trkpt>
      <trkpt lat="44.40643" lon="3.91777">
        <ele>1090</ele>
        <time>2017-03-05T10:53:38Z</time>
      </trkpt>
      <trkpt lat="44.40647" lon="3.91777">
        <ele>1089</ele>
        <time>2017-03-05T10:55:38Z</time>
      </trkpt>
      <trkpt lat="44.40651" lon="3.91779">
        <ele>1088</ele>
        <time>2017-03-05T10:57:38Z</time>
      </trkpt>
      <trkpt lat="44.40656" lon="3.91781">
        <ele>1087</ele>
        <time>2017-03-05T10:59:38Z</time>
      </trkpt>
      <trkpt lat="44.40659" lon="3.91784">
        <ele>1086</ele>
        <time>2017-03-05T11:01:38Z</time>
      </trkpt>
      <trkpt lat="44.40662" lon="3.91786">
        <ele>1086</ele>
        <time>2017-03-05T11:03:38Z</time>
      </trkpt>
      <trkpt lat="44.40665" lon="3.91788">
        <ele>1085</ele>
        <time>2017-03-05T11:05:38Z</time>
      </trkpt>
      <trkpt lat="44.40668" lon="3.91791">
        <ele>1085</ele>
        <time>2017-03-05T11:07:38Z</time>
      </trkpt>
      <trkpt lat="44.40671" lon="3.91793">
        <ele>1084</ele>
        <time>2017-03-05T11:09:38Z</time>
      </trkpt>
      <trkpt lat="44.40674" lon="3.91794">
        <ele>1083</ele>
        <time>2017-03-05T11:11:38Z</time>
      </trkpt>
      <trkpt lat="44.40677" lon="3.91794">
        <ele>1082</ele>
        <time>2017-03-05T11:13:38Z</time>
      </trkpt>
      <trkpt lat="44.40681" lon="3.91794">
        <ele>1081</ele>
        <time>2017-03-05T11:15:38Z</time>
      </trkpt>
      <trkpt lat="44.40684" lon="3.91791">
        <ele>1080</ele>
        <time>2017-03-05T11:17:38Z</time>
      </trkpt>
      <trkpt lat="44.40687" lon="3.91788">
        <ele>1080</ele>
        <time>2017-03-05T11:19:38Z</time>
      </trkpt>
      <trkpt lat="44.4069" lon="3.91786">
        <ele>1079</ele>
        <time>2017-03-05T11:21:38Z</time>
      </trkpt>
      <trkpt lat="44.40693" lon="3.91785">
        <ele>1078</ele>
        <time>2017-03-05T11:23:38Z</time>
      </trkpt>
      <trkpt lat="44.40696" lon="3.91785">
        <ele>1077</ele>
        <time>2017-03-05T11:25:38Z</time>
      </trkpt>
      <trkpt lat="44.40699" lon="3.91787">
        <ele>1077</ele>
        <time>2017-03-05T11:27:38Z</time>
      </trkpt>
      <trkpt lat="44.40703" lon="3.91789">
        <ele>1075</ele>
        <time>2017-03-05T11:29:38Z</time>
      </trkpt>
      <trkpt lat="44.40707" lon="3.91792">
        <ele>1074</ele>
        <time>2017-03-05T11:31:38Z</time>
      </trkpt>
      <trkpt lat="44.40717" lon="3.918">
        <ele>1072</ele>
        <time>2017-03-05T11:33:38Z</time>
      </trkpt>
      <trkpt lat="44.40726" lon="3.91809">
        <ele>1069</ele>
        <time>2017-03-05T11:35:38Z</time>
      </trkpt>
      <trkpt lat="44.40731" lon="3.91815">
        <ele>1068</ele>
        <time>2017-03-05T11:37:38Z</time>
      </trkpt>
      <trkpt lat="44.40734" lon="3.91817">
        <ele>1067</ele>
        <time>2017-03-05T11:39:38Z</time>
      </trkpt>
      <trkpt lat="44.40738" lon="3.91817">
        <ele>1066</ele>
        <time>2017-03-05T11:41:38Z</time>
      </trkpt>
      <trkpt lat="44.40745" lon="3.91818">
        <ele>1064</ele>
        <time>2017-03-05T11:43:38Z</time>
      </trkpt>
      <trkpt lat="44.40751" lon="3.91819">
        <ele>1063</ele>
        <time>2017-03-05T11:45:38Z</time>
      </trkpt>
      <trkpt lat="44.40756" lon="3.9182">
        <ele>1062</ele>
        <time>2017-03-05T11:47:38Z</time>
      </trkpt>
      <trkpt lat="44.4076" lon="3.91823">
        <ele>1061</ele>
        <time>2017-03-05T11:49:38Z</time>
      </trkpt>
      <trkpt lat="44.40765" lon="3.91826">
        <ele>1060</ele>
        <time>2017-03-05T11:51:38Z</time>
      </trkpt>
      <trkpt lat="44.40774" lon="3.91838">
        <ele>1058</ele>
        <time>2017-03-05T11:53:38Z</time>
      </trkpt>
      <trkpt lat="44.40789" lon="3.91856">
        <ele>1054</ele>
        <time>2017-03-05T11:55:38Z</time>
      </trkpt>
      <trkpt lat="44.40797" lon="3.91863">
        <ele>1052</ele>
        <time>2017-03-05T11:57:38Z</time>
      </trkpt>
      <trkpt lat="44.40803" lon="3.9187">
        <ele>1051</ele>
        <time>2017-03-05T11:59:38Z</time>
      </trkpt>
      <trkpt lat="44.40815" lon="3.91879">
        <ele>1050</ele>
        <time>2017-03-05T12:01:38Z</time>
      </trkpt>
      <trkpt lat="44.40827" lon="3.91887">
        <ele>1049</ele>
        <time>2017-03-05T12:03:38Z</time>
      </trkpt>
      <trkpt lat="44.4084" lon="3.91895">
        <ele>1047</ele>
        <time>2017-03-05T12:05:38Z</time>
      </trkpt>
      <trkpt lat="44.4085" lon="3.91902">
        <ele>1045</ele>
        <time>2017-03-05T12:07:38Z</time>
      </trkpt>
      <trkpt lat="44.40859" lon="3.91911">
        <ele>1044</ele>
        <time>2017-03-05T12:09:38Z</time>
      </trkpt>
      <trkpt lat="44.40873" lon="3.91923">
        <ele>1041</ele>
        <time>2017-03-05T12:11:38Z</time>
      </trkpt>
      <trkpt lat="44.40884" lon="3.9193">
        <ele>1039</ele>
        <time>2017-03-05T12:13:38Z</time>
      </trkpt>
      <trkpt lat="44.40895" lon="3.91937">
        <ele>1037</ele>
        <time>2017-03-05T12:15:38Z</time>
      </trkpt>
      <trkpt lat="44.40901" lon="3.91941">
        <ele>1036</ele>
        <time>2017-03-05T12:17:38Z</time>
      </trkpt>
      <trkpt lat="44.40907" lon="3.91944">
        <ele>1035</ele>
        <time>2017-03-05T12:19:38Z</time>
      </trkpt>
      <trkpt lat="44.40912" lon="3.91945">
        <ele>1035</ele>
        <time>2017-03-05T12:21:38Z</time>
      </trkpt>
      <trkpt lat="44.40917" lon="3.91947">
        <ele>1034</ele>
        <time>2017-03-05T12:23:38Z</time>
      </trkpt>
      <trkpt lat="44.40927" lon="3.91947">
        <ele>1034</ele>
        <time>2017-03-05T12:25:38Z</time>
      </trkpt>
      <trkpt lat="44.40938" lon="3.91948">
        <ele>1034</ele>
        <time>2017-03-05T12:27:38Z</time>
      </trkpt>
      <trkpt lat="44.40945" lon="3.91948">
        <ele>1034</ele>
        <time>2017-03-05T12:29:38Z</time>
      </trkpt>
      <trkpt lat="44.40959" lon="3.91945">
        <ele>1034</ele>
        <time>2017-03-05T12:31:38Z</time>
      </trkpt>
      <trkpt lat="44.40975" lon="3.91942">
        <ele>1035</ele>
        <time>2017-03-05T12:33:38Z</time>
      </trkpt>
      <trkpt lat="44.40992" lon="3.91934">
        <ele>1036</ele>
        <time>2017-03-05T12:35:38Z</time>
      </trkpt>
      <trkpt lat="44.41011" lon="3.91928">
        <ele>1036</ele>
        <time>2017-03-05T12:37:38Z</time>
      </trkpt>
      <trkpt lat="44.41027" lon="3.91923">
        <ele>1036</ele>
        <time>2017-03-05T12:39:38Z</time>
      </trkpt>
      <trkpt lat="44.41046" lon="3.91917">
        <ele>1037</ele>
        <time>2017-03-05T12:41:38Z</time>
      </trkpt>
      <trkpt lat="44.41066" lon="3.91906">
        <ele>1035</ele>
        <time>2017-03-05T12:43:38Z</time>
      </trkpt>
      <trkpt lat="44.41092" lon="3.91892">
        <ele>1034</ele>
        <time>2017-03-05T12:45:38Z</time>
      </trkpt>
      <trkpt lat="44.41102" lon="3.91885">
        <ele>1034</ele>
        <time>2017-03-05T12:47:38Z</time>
      </trkpt>
      <trkpt lat="44.41115" lon="3.91878">
        <ele>1034</ele>
        <time>2017-03-05T12:49:38Z</time>
      </trkpt>
      <trkpt lat="44.41132" lon="3.91869">
        <ele>1036</ele>
        <time>2017-03-05T12:51:38Z</time>
      </trkpt>
      <trkpt lat="44.41154" lon="3.91857">
        <ele>1039</ele>
        <time>2017-03-05T12:53:38Z</time>
      </trkpt>
      <trkpt lat="44.41167" lon="3.91849">
        <ele>1041</ele>
        <time>2017-03-05T12:55:38Z</time>
      </trkpt>
      <trkpt lat="44.41186" lon="3.91839">
        <ele>1042</ele>
        <time>2017-03-05T12:57:38Z</time>
      </trkpt>
      <trkpt lat="44.41204" lon="3.91826">
        <ele>1042</ele>
        <time>2017-03-05T12:59:38Z</time>
      </trkpt>
      <trkpt lat="44.41221" lon="3.91817">
        <ele>1041</ele>
        <time>2017-03-05T13:01:38Z</time>
      </trkpt>
      <trkpt lat="44.41235" lon="3.9181">
        <ele>1041</ele>
        <time>2017-03-05T13:03:38Z</time>
      </trkpt>
      <trkpt lat="44.41244" lon="3.91807">
        <ele>1042</ele>
        <time>2017-03-05T13:05:38Z</time>
      </trkpt>
      <trkpt lat="44.41252" lon="3.91806">
        <ele>1041</ele>
        <time>2017-03-05T13:07:38Z</time>
      </trkpt>
      <trkpt lat="44.41264" lon="3.91807">
        <ele>1040</ele>
        <time>2017-03-05T13:09:38Z</time>
      </trkpt>
      <trkpt lat="44.41278" lon="3.91809">
        <ele>1038</ele>
        <time>2017-03-05T13:11:38Z</time>
      </trkpt>
      <trkpt lat="44.41287" lon="3.91809">
        <ele>1037</ele>
        <time>2017-03-05T13:13:38Z</time>
      </trkpt>
      <trkpt lat="44.41306" lon="3.91807">
        <ele>1035</ele>
        <time>2017-03-05T13:15:38Z</time>
      </trkpt>
      <trkpt lat="44.41323" lon="3.91806">
        <ele>1033</ele>
        <time>2017-03-05T13:17:38Z</time>
      </trkpt>
      <trkpt lat="44.41346" lon="3.91803">
        <ele>1029</ele>
        <time>2017-03-05T13:19:38Z</time>
      </trkpt>
      <trkpt lat="44.41363" lon="3.91799">
        <ele>1024</ele>
        <time>2017-03-05T13:21:38Z</time>
      </trkpt>
      <trkpt lat="44.41381" lon="3.91796">
        <ele>1019</ele>
        <time>2017-03-05T13:23:38Z</time>
      </trkpt>
      <trkpt lat="44.41399" lon="3.91792">
        <ele>1015</ele>
        <time>2017-03-05T13:25:38Z</time>
      </trkpt>
      <trkpt lat="44.41411" lon="3.9179">
        <ele>1011</ele>
        <time>2017-03-05T13:27:38Z</time>
      </trkpt>
      <trkpt lat="44.4142" lon="3.91789">
        <ele>1009</ele>
        <time>2017-03-05T13:29:38Z</time>
      </trkpt>
      <trkpt lat="44.41429" lon="3.91789">
        <ele>1007</ele>
        <time>2017-03-05T13:31:38Z</time>
      </trkpt>
      <trkpt lat="44.41441" lon="3.91789">
        <ele>1005</ele>
        <time>2017-03-05T13:33:38Z</time>
      </trkpt>
      <trkpt lat="44.41454" lon="3.9179">
        <ele>1002</ele>
        <time>2017-03-05T13:35:38Z</time>
      </trkpt>
      <trkpt lat="44.41462" lon="3.9179">
        <ele>1000</ele>
        <time>2017-03-05T13:37:38Z</time>
      </trkpt>
      <trkpt lat="44.41469" lon="3.91791">
        <ele>999</ele>
        <time>2017-03-05T13:39:38Z</time>
      </trkpt>
      <trkpt lat="44.41476" lon="3.91792">
        <ele>998</ele>
        <time>2017-03-05T13:41:38Z</time>
      </trkpt>
      <trkpt lat="44.41484" lon="3.91794">
        <ele>996</ele>
        <time>2017-03-05T13:43:38Z</time>
      </trkpt>
      <trkpt lat="44.41495" lon="3.91797">
        <ele>994</ele>
        <time>2017-03-05T13:45:38Z</time>
      </trkpt>
      <trkpt lat="44.41513" lon="3.91801">
        <ele>992</ele>
        <time>2017-03-05T13:47:38Z</time>
      </trkpt>
      <trkpt lat="44.41522" lon="3.91802">
        <ele>991</ele>
        <time>2017-03-05T13:49:38Z</time>
      </trkpt>
      <trkpt lat="44.41535" lon="3.91805">
        <ele>991</ele>
        <time>2017-03-05T13:51:38Z</time>
      </trkpt>
      <trkpt lat="44.4155" lon="3.91806">
        <ele>990</ele>
        <time>2017-03-05T13:53:38Z</time>
      </trkpt>
      <trkpt lat="44.41596" lon="3.91815">
        <ele>988</ele>
        <time>2017-03-05T13:55:38Z</time>
      </trkpt>
      <trkpt lat="44.41613" lon="3.91821">
        <ele>989</ele>
        <time>2017-03-05T13:57:38Z</time>
      </trkpt>
      <trkpt lat="44.4164" lon="3.91827">
        <ele>990</ele>
        <time>2017-03-05T13:59:38Z</time>
      </trkpt>
      <trkpt lat="44.41667" lon="3.91829">
        <ele>991</ele>
        <time>2017-03-05T14:01:38Z</time>
      </trkpt>
      <trkpt lat="44.41686" lon="3.91832">
        <ele>990</ele>
        <time>2017-03-05T14:03:38Z</time>
      </trkpt>
      <trkpt lat="44.41708" lon="3.91835">
        <ele>989</ele>
        <time>2017-03-05T14:05:38Z</time>
      </trkpt>
      <trkpt lat="44.41731" lon="3.91843">
        <ele>988</ele>
        <time>2017-03-05T14:07:38Z</time>
      </trkpt>
      <trkpt lat="44.41746" lon="3.9185">
        <ele>987</ele>
        <time>2017-03-05T14:09:38Z</time>
      </trkpt>
      <trkpt lat="44.41784" lon="3.91869">
        <ele>987</ele>
        <time>2017-03-05T14:11:38Z</time>
      </trkpt>
      <trkpt lat="44.41812" lon="3.91881">
        <ele>988</ele>
        <time>2017-03-05T14:13:38Z</time>
      </trkpt>
      <trkpt lat="44.41849" lon="3.91887">
        <ele>989</ele>
        <time>2017-03-05T14:15:38Z</time>
      </trkpt>
      <trkpt lat="44.41886" lon="3.91887">
        <ele>988</ele>
        <time>2017-03-05T14:17:38Z</time>
      </trkpt>
      <trkpt lat="44.4191" lon="3.91886">
        <ele>988</ele>
        <time>2017-03-05T14:19:38Z</time>
      </trkpt>
      <trkpt lat="44.41926" lon="3.91883">
        <ele>987</ele>
        <time>2017-03-05T14:21:38Z</time>
      </trkpt>
      <trkpt lat="44.41948" lon="3.91885">
        <ele>986</ele>
        <time>2017-03-05T14:23:38Z</time>
      </trkpt>
      <trkpt lat="44.41961" lon="3.9189">
        <ele>986</ele>
        <time>2017-03-05T14:25:38Z</time>
      </trkpt>
      <trkpt lat="44.4197" lon="3.91897">
        <ele>986</ele>
        <time>2017-03-05T14:27:38Z</time>
      </trkpt>
      <trkpt lat="44.41977" lon="3.91902">
        <ele>986</ele>
        <time>2017-03-05T14:29:38Z</time>
      </trkpt>
      <trkpt lat="44.41981" lon="3.91907">
        <ele>986</ele>
        <time>2017-03-05T14:31:38Z</time>
      </trkpt>
      <trkpt lat="44.41986" lon="3.91911">
        <ele>986</ele>
        <time>2017-03-05T14:33:38Z</time>
      </trkpt>
      <trkpt lat="44.41992" lon="3.91917">
        <ele>986</ele>
        <time>2017-03-05T14:35:38Z</time>
      </trkpt>
      <trkpt lat="44.42009" lon="3.91932">
        <ele>982</ele>
        <time>2017-03-05T14:37:38Z</time>
      </trkpt>
      <trkpt lat="44.42027" lon="3.91951">
        <ele>976</ele>
        <time>2017-03-05T14:39:38Z</time>
      </trkpt>
      <trkpt lat="44.42041" lon="3.91964">
        <ele>973</ele>
        <time>2017-03-05T14:41:38Z</time>
      </trkpt>
      <trkpt lat="44.42055" lon="3.91978">
        <ele>972</ele>
        <time>2017-03-05T14:43:38Z</time>
      </trkpt>
      <trkpt lat="44.42074" lon="3.92002">
        <ele>971</ele>
        <time>2017-03-05T14:45:38Z</time>
      </trkpt>
      <trkpt lat="44.42078" lon="3.92007">
        <ele>969</ele>
        <time>2017-03-05T14:47:38Z</time>
      </trkpt>
      <trkpt lat="44.421" lon="3.92022">
        <ele>964</ele>
        <time>2017-03-05T14:49:38Z</time>
      </trkpt>
      <trkpt lat="44.42108" lon="3.92026">
        <ele>962</ele>
        <time>2017-03-05T14:51:38Z</time>
      </trkpt>
      <trkpt lat="44.42122" lon="3.92038">
        <ele>960</ele>
        <time>2017-03-05T14:53:38Z</time>
      </trkpt>
      <trkpt lat="44.42147" lon="3.92062">
        <ele>959</ele>
        <time>2017-03-05T14:55:38Z</time>
      </trkpt>
      <trkpt lat="44.42161" lon="3.92074">
        <ele>960</ele>
        <time>2017-03-05T14:57:38Z</time>
      </trkpt>
      <trkpt lat="44.42186" lon="3.92103">
        <ele>958</ele>
        <time>2017-03-05T14:59:38Z</time>
      </trkpt>
      <trkpt lat="44.42201" lon="3.9212">
        <ele>957</ele>
        <time>2017-03-05T15:01:38Z</time>
      </trkpt>
      <trkpt lat="44.42214" lon="3.92136">
        <ele>958</ele>
        <time>2017-03-05T15:03:38Z</time>
      </trkpt>
      <trkpt lat="44.42221" lon="3.92142">
        <ele>958</ele>
        <time>2017-03-05T15:05:38Z</time>
      </trkpt>
      <trkpt lat="44.42225" lon="3.92143">
        <ele>958</ele>
        <time>2017-03-05T15:07:38Z</time>
      </trkpt>
      <trkpt lat="44.4223" lon="3.9214">
        <ele>958</ele>
        <time>2017-03-05T15:09:38Z</time>
      </trkpt>
      <trkpt lat="44.4223" lon="3.9214">
        <ele>958</ele>
        <time>2017-03-05T15:11:38Z</time>
      </trkpt>
      <trkpt lat="44.42236" lon="3.92152">
        <ele>960</ele>
        <time>2017-03-05T15:13:38Z</time>
      </trkpt>
      <trkpt lat="44.42239" lon="3.92155">
        <ele>960</ele>
        <time>2017-03-05T15:15:38Z</time>
      </trkpt>
      <trkpt lat="44.42242" lon="3.92159">
        <ele>961</ele>
        <time>2017-03-05T15:17:38Z</time>
      </trkpt>
      <trkpt lat="44.42264" lon="3.92175">
        <ele>962</ele>
        <time>2017-03-05T15:19:38Z</time>
      </trkpt>
      <trkpt lat="44.42269" lon="3.92181">
        <ele>962</ele>
        <time>2017-03-05T15:21:38Z</time>
      </trkpt>
      <trkpt lat="44.42296" lon="3.9222">
        <ele>963</ele>
        <time>2017-03-05T15:23:38Z</time>
      </trkpt>
      <trkpt lat="44.423" lon="3.92227">
        <ele>964</ele>
        <time>2017-03-05T15:25:38Z</time>
      </trkpt>
      <trkpt lat="44.42302" lon="3.9223">
        <ele>964</ele>
        <time>2017-03-05T15:27:38Z</time>
      </trkpt>
      <trkpt lat="44.42305" lon="3.92234">
        <ele>964</ele>
        <time>2017-03-05T15:29:38Z</time>
      </trkpt>
      <trkpt lat="44.42308" lon="3.92237">
        <ele>965</ele>
        <time>2017-03-05T15:31:38Z</time>
      </trkpt>
      <trkpt lat="44.4231" lon="3.92238">
        <ele>965</ele>
        <time>2017-03-05T15:33:38Z</time>
      </trkpt>
      <trkpt lat="44.42313" lon="3.9224">
        <ele>966</ele>
        <time>2017-03-05T15:35:38Z</time>
      </trkpt>
      <trkpt lat="44.42315" lon="3.9224">
        <ele>966</ele>
        <time>2017-03-05T15:37:38Z</time>
      </trkpt>
      <trkpt lat="44.4232" lon="3.9224">
        <ele>967</ele>
        <time>2017-03-05T15:39:38Z</time>
      </trkpt>
      <trkpt lat="44.42328" lon="3.92241">
        <ele>968</ele>
        <time>2017-03-05T15:41:38Z</time>
      </trkpt>
      <trkpt lat="44.42354" lon="3.92239">
        <ele>969</ele>
        <time>2017-03-05T15:43:38Z</time>
      </trkpt>
      <trkpt lat="44.42361" lon="3.92241">
        <ele>969</ele>
        <time>2017-03-05T15:45:38Z</time>
      </trkpt>
      <trkpt lat="44.42368" lon="3.92243">
        <ele>969</ele>
        <time>2017-03-05T15:47:38Z</time>
      </trkpt>
      <trkpt lat="44.42374" lon="3.92247">
        <ele>970</ele>
        <time>2017-03-05T15:49:38Z</time>
      </trkpt>
      <trkpt lat="44.42385" lon="3.92256">
        <ele>970</ele>
        <time>2017-03-05T15:51:38Z</time>
      </trkpt>
      <trkpt lat="44.42422" lon="3.92288">
        <ele>969</ele>
        <time>2017-03-05T15:53:38Z</time>
      </trkpt>
      <trkpt lat="44.4243" lon="3.92294">
        <ele>969</ele>
        <time>2017-03-05T15:55:38Z</time>
      </trkpt>
      <trkpt lat="44.42438" lon="3.92298">
        <ele>969</ele>
        <time>2017-03-05T15:57:38Z</time>
      </trkpt>
      <trkpt lat="44.42443" lon="3.923">
        <ele>969</ele>
        <time>2017-03-05T15:59:38Z</time>
      </trkpt>
      <trkpt lat="44.42449" lon="3.92303">
        <ele>969</ele>
        <time>2017-03-05T16:01:38Z</time>
      </trkpt>
      <trkpt lat="44.42488" lon="3.92312">
        <ele>970</ele>
        <time>2017-03-05T16:03:38Z</time>
      </trkpt>
      <trkpt lat="44.4251" lon="3.92316">
        <ele>970</ele>
        <time>2017-03-05T16:05:38Z</time>
      </trkpt>
      <trkpt lat="44.42524" lon="3.92317">
        <ele>969</ele>
        <time>2017-03-05T16:07:38Z</time>
      </trkpt>
      <trkpt lat="44.42539" lon="3.9232">
        <ele>969</ele>
        <time>2017-03-05T16:09:38Z</time>
      </trkpt>
      <trkpt lat="44.42554" lon="3.92325">
        <ele>968</ele>
        <time>2017-03-05T16:11:38Z</time>
      </trkpt>
      <trkpt lat="44.42591" lon="3.92348">
        <ele>965</ele>
        <time>2017-03-05T16:13:38Z</time>
      </trkpt>
      <trkpt lat="44.42611" lon="3.92364">
        <ele>960</ele>
        <time>2017-03-05T16:15:38Z</time>
      </trkpt>
      <trkpt lat="44.42621" lon="3.9237">
        <ele>958</ele>
        <time>2017-03-05T16:17:38Z</time>
      </trkpt>
      <trkpt lat="44.42631" lon="3.92375">
        <ele>957</ele>
        <time>2017-03-05T16:19:38Z</time>
      </trkpt>
      <trkpt lat="44.42671" lon="3.92389">
        <ele>952</ele>
        <time>2017-03-05T16:21:38Z</time>
      </trkpt>
      <trkpt lat="44.4268" lon="3.9239">
        <ele>949</ele>
        <time>2017-03-05T16:23:38Z</time>
      </trkpt>
      <trkpt lat="44.42693" lon="3.9239">
        <ele>946</ele>
        <time>2017-03-05T16:25:38Z</time>
      </trkpt>
      <trkpt lat="44.42782" lon="3.92403">
        <ele>923</ele>
        <time>2017-03-05T16:27:38Z</time>
      </trkpt>
      <trkpt lat="44.42921" lon="3.92414">
        <ele>885</ele>
        <time>2017-03-05T16:29:38Z</time>
      </trkpt>
      <trkpt lat="44.42932" lon="3.92414">
        <ele>883</ele>
        <time>2017-03-05T16:31:38Z</time>
      </trkpt>
      <trkpt lat="44.4296" lon="3.92412">
        <ele>878</ele>
        <time>2017-03-05T16:33:38Z</time>
      </trkpt>
      <trkpt lat="44.42967" lon="3.92412">
        <ele>877</ele>
        <time>2017-03-05T16:35:38Z</time>
      </trkpt>
      <trkpt lat="44.43004" lon="3.92413">
        <ele>870</ele>
        <time>2017-03-05T16:37:38Z</time>
      </trkpt>
      <trkpt lat="44.43067" lon="3.92413">
        <ele>860</ele>
        <time>2017-03-05T16:39:38Z</time>
      </trkpt>
      <trkpt lat="44.43081" lon="3.92413">
        <ele>858</ele>
        <time>2017-03-05T16:41:38Z</time>
      </trkpt>
      <trkpt lat="44.4309" lon="3.92412">
        <ele>857</ele>
        <time>2017-03-05T16:43:38Z</time>
      </trkpt>
      <trkpt lat="44.43118" lon="3.9241">
        <ele>856</ele>
        <time>2017-03-05T16:45:38Z</time>
      </trkpt>
      <trkpt lat="44.43145" lon="3.92406">
        <ele>854</ele>
        <time>2017-03-05T16:47:38Z</time>
      </trkpt>
      <trkpt lat="44.43152" lon="3.92405">
        <ele>853</ele>
        <time>2017-03-05T16:49:38Z</time>
      </trkpt>
      <trkpt lat="44.43162" lon="3.92404">
        <ele>853</ele>
        <time>2017-03-05T16:51:38Z</time>
      </trkpt>
      <trkpt lat="44.43165" lon="3.92404">
        <ele>853</ele>
        <time>2017-03-05T16:53:38Z</time>
      </trkpt>
      <trkpt lat="44.43165" lon="3.92404">
        <ele>853</ele>
        <time>2017-03-05T16:55:38Z</time>
      </trkpt>
      <trkpt lat="44.43153" lon="3.92419">
        <ele>854</ele>
        <time>2017-03-05T16:57:38Z</time>
      </trkpt>
      <trkpt lat="44.43144" lon="3.92429">
        <ele>853</ele>
        <time>2017-03-05T16:59:38Z</time>
      </trkpt>
      <trkpt lat="44.43096" lon="3.92461">
        <ele>849</ele>
        <time>2017-03-05T17:01:38Z</time>
      </trkpt>
      <trkpt lat="44.43023" lon="3.92501">
        <ele>850</ele>
        <time>2017-03-05T17:03:38Z</time>
      </trkpt>
      <trkpt lat="44.42994" lon="3.92515">
        <ele>852</ele>
        <time>2017-03-05T17:05:38Z</time>
      </trkpt>
      <trkpt lat="44.42985" lon="3.92518">
        <ele>853</ele>
        <time>2017-03-05T17:07:38Z</time>
      </trkpt>
      <trkpt lat="44.42974" lon="3.92524">
        <ele>854</ele>
        <time>2017-03-05T17:09:38Z</time>
      </trkpt>
      <trkpt lat="44.42964" lon="3.92535">
        <ele>853</ele>
        <time>2017-03-05T17:11:38Z</time>
      </trkpt>
      <trkpt lat="44.42956" lon="3.92545">
        <ele>852</ele>
        <time>2017-03-05T17:13:38Z</time>
      </trkpt>
      <trkpt lat="44.42946" lon="3.92558">
        <ele>851</ele>
        <time>2017-03-05T17:15:38Z</time>
      </trkpt>
      <trkpt lat="44.42937" lon="3.92571">
        <ele>848</ele>
        <time>2017-03-05T17:17:38Z</time>
      </trkpt>
      <trkpt lat="44.42905" lon="3.92626">
        <ele>841</ele>
        <time>2017-03-05T17:19:38Z</time>
      </trkpt>
      <trkpt lat="44.42888" lon="3.92653">
        <ele>839</ele>
        <time>2017-03-05T17:21:38Z</time>
      </trkpt>
      <trkpt lat="44.42884" lon="3.92663">
        <ele>838</ele>
        <time>2017-03-05T17:23:38Z</time>
      </trkpt>
      <trkpt lat="44.42879" lon="3.92673">
        <ele>837</ele>
        <time>2017-03-05T17:25:38Z</time>
      </trkpt>
      <trkpt lat="44.42876" lon="3.92684">
        <ele>836</ele>
        <time>2017-03-05T17:27:38Z</time>
      </trkpt>
      <trkpt lat="44.4287" lon="3.92699">
        <ele>834</ele>
        <time>2017-03-05T17:29:38Z</time>
      </trkpt>
      <trkpt lat="44.42862" lon="3.92749">
        <ele>825</ele>
        <time>2017-03-05T17:31:38Z</time>
      </trkpt>
      <trkpt lat="44.4286" lon="3.92761">
        <ele>824</ele>
        <time>2017-03-05T17:33:38Z</time>
      </trkpt>
      <trkpt lat="44.42856" lon="3.92776">
        <ele>822</ele>
        <time>2017-03-05T17:35:38Z</time>
      </trkpt>
      <trkpt lat="44.42855" lon="3.9278">
        <ele>822</ele>
        <time>2017-03-05T17:37:38Z</time>
      </trkpt>
      <trkpt lat="44.42854" lon="3.92784">
        <ele>822</ele>
        <time>2017-03-05T17:39:38Z</time>
      </trkpt>
      <trkpt lat="44.42852" lon="3.92788">
        <ele>821</ele>
        <time>2017-03-05T17:41:38Z</time>
      </trkpt>
      <trkpt lat="44.4285" lon="3.92793">
        <ele>821</ele>
        <time>2017-03-05T17:43:38Z</time>
      </trkpt>
      <trkpt lat="44.42849" lon="3.92795">
        <ele>821</ele>
        <time>2017-03-05T17:45:38Z</time>
      </trkpt>
      <trkpt lat="44.42846" lon="3.92799">
        <ele>821</ele>
        <time>2017-03-05T17:47:38Z</time>
      </trkpt>
      <trkpt lat="44.42844" lon="3.92802">
        <ele>821</ele>
        <time>2017-03-05T17:49:38Z</time>
      </trkpt>
      <trkpt lat="44.42843" lon="3.92804">
        <ele>821</ele>
        <time>2017-03-05T17:51:38Z</time>
      </trkpt>
      <trkpt lat="44.42842" lon="3.92807">
        <ele>821</ele>
        <time>2017-03-05T17:53:38Z</time>
      </trkpt>
      <trkpt lat="44.42841" lon="3.92812">
        <ele>820</ele>
        <time>2017-03-05T17:55:38Z</time>
      </trkpt>
      <trkpt lat="44.42841" lon="3.92815">
        <ele>820</ele>
        <time>2017-03-05T17:57:38Z</time>
      </trkpt>
      <trkpt lat="44.42843" lon="3.92816">
        <ele>819</ele>
        <time>2017-03-05T17:59:38Z</time>
      </trkpt>
      <trkpt lat="44.42846" lon="3.92817">
        <ele>818</ele>
        <time>2017-03-05T18:01:38Z</time>
      </trkpt>
      <trkpt lat="44.42849" lon="3.92816">
        <ele>817</ele>
        <time>2017-03-05T18:03:38Z</time>
      </trkpt>
      <trkpt lat="44.42852" lon="3.92814">
        <ele>817</ele>
        <time>2017-03-05T18:05:38Z</time>
      </trkpt>
      <trkpt lat="44.42856" lon="3.9281">
        <ele>817</ele>
        <time>2017-03-05T18:07:38Z</time>
      </trkpt>
      <trkpt lat="44.42862" lon="3.92804">
        <ele>816</ele>
        <time>2017-03-05T18:09:38Z</time>
      </trkpt>
      <trkpt lat="44.42872" lon="3.92793">
        <ele>815</ele>
        <time>2017-03-05T18:11:38Z</time>
      </trkpt>
      <trkpt lat="44.42881" lon="3.92779">
        <ele>815</ele>
        <time>2017-03-05T18:13:38Z</time>
      </trkpt>
      <trkpt lat="44.42889" lon="3.92765">
        <ele>814</ele>
        <time>2017-03-05T18:15:38Z</time>
      </trkpt>
      <trkpt lat="44.4291" lon="3.92733">
        <ele>814</ele>
        <time>2017-03-05T18:17:38Z</time>
      </trkpt>
      <trkpt lat="44.42919" lon="3.92718">
        <ele>815</ele>
        <time>2017-03-05T18:19:38Z</time>
      </trkpt>
      <trkpt lat="44.42923" lon="3.92713">
        <ele>815</ele>
        <time>2017-03-05T18:21:38Z</time>
      </trkpt>
      <trkpt lat="44.4293" lon="3.92707">
        <ele>815</ele>
        <time>2017-03-05T18:23:38Z</time>
      </trkpt>
      <trkpt lat="44.42938" lon="3.92702">
        <ele>815</ele>
        <time>2017-03-05T18:25:38Z</time>
      </trkpt>
      <trkpt lat="44.42962" lon="3.92691">
        <ele>813</ele>
        <time>2017-03-05T18:27:38Z</time>
      </trkpt>
      <trkpt lat="44.42968" lon="3.92688">
        <ele>812</ele>
        <time>2017-03-05T18:29:38Z</time>
      </trkpt>
      <trkpt lat="44.42974" lon="3.92686">
        <ele>812</ele>
        <time>2017-03-05T18:31:38Z</time>
      </trkpt>
      <trkpt lat="44.42979" lon="3.92684">
        <ele>811</ele>
        <time>2017-03-05T18:33:38Z</time>
      </trkpt>
      <trkpt lat="44.42983" lon="3.92684">
        <ele>811</ele>
        <time>2017-03-05T18:35:38Z</time>
      </trkpt>
      <trkpt lat="44.42989" lon="3.92685">
        <ele>809</ele>
        <time>2017-03-05T18:37:38Z</time>
      </trkpt>
      <trkpt lat="44.43001" lon="3.9269">
        <ele>806</ele>
        <time>2017-03-05T18:39:38Z</time>
      </trkpt>
      <trkpt lat="44.43014" lon="3.92697">
        <ele>801</ele>
        <time>2017-03-05T18:41:38Z</time>
      </trkpt>
      <trkpt lat="44.43019" lon="3.92698">
        <ele>800</ele>
        <time>2017-03-05T18:43:38Z</time>
      </trkpt>
      <trkpt lat="44.43024" lon="3.92699">
        <ele>798</ele>
        <time>2017-03-05T18:45:38Z</time>
      </trkpt>
      <trkpt lat="44.43029" lon="3.92699">
        <ele>798</ele>
        <time>2017-03-05T18:47:38Z</time>
      </trkpt>
      <trkpt lat="44.43034" lon="3.92697">
        <ele>797</ele>
        <time>2017-03-05T18:49:38Z</time>
      </trkpt>
      <trkpt lat="44.43039" lon="3.92695">
        <ele>797</ele>
        <time>2017-03-05T18:51:38Z</time>
      </trkpt>
      <trkpt lat="44.43046" lon="3.9269">
        <ele>797</ele>
        <time>2017-03-05T18:53:38Z</time>
      </trkpt>
      <trkpt lat="44.43049" lon="3.92685">
        <ele>798</ele>
        <time>2017-03-05T18:55:38Z</time>
      </trkpt>
      <trkpt lat="44.43052" lon="3.92682">
        <ele>799</ele>
        <time>2017-03-05T18:57:38Z</time>
      </trkpt>
      <trkpt lat="44.43055" lon="3.92679">
        <ele>799</ele>
        <time>2017-03-05T18:59:38Z</time>
      </trkpt>
      <trkpt lat="44.43056" lon="3.92677">
        <ele>800</ele>
        <time>2017-03-05T19:01:38Z</time>
      </trkpt>
      <trkpt lat="44.43059" lon="3.92675">
        <ele>800</ele>
        <time>2017-03-05T19:03:38Z</time>
      </trkpt>
      <trkpt lat="44.43065" lon="3.92673">
        <ele>799</ele>
        <time>2017-03-05T19:05:38Z</time>
      </trkpt>
      <trkpt lat="44.43071" lon="3.92672">
        <ele>799</ele>
        <time>2017-03-05T19:07:38Z</time>
      </trkpt>
      <trkpt lat="44.43077" lon="3.92673">
        <ele>797</ele>
        <time>2017-03-05T19:09:38Z</time>
      </trkpt>
      <trkpt lat="44.43083" lon="3.92674">
        <ele>796</ele>
        <time>2017-03-05T19:11:38Z</time>
      </trkpt>
      <trkpt lat="44.4309" lon="3.92675">
        <ele>795</ele>
        <time>2017-03-05T19:13:38Z</time>
      </trkpt>
      <trkpt lat="44.43096" lon="3.92676">
        <ele>794</ele>
        <time>2017-03-05T19:15:38Z</time>
      </trkpt>
      <trkpt lat="44.43104" lon="3.92676">
        <ele>794</ele>
        <time>2017-03-05T19:17:38Z</time>
      </trkpt>
      <trkpt lat="44.43114" lon="3.92673">
        <ele>795</ele>
        <time>2017-03-05T19:19:38Z</time>
      </trkpt>
      <trkpt lat="44.4312" lon="3.92671">
        <ele>795</ele>
        <time>2017-03-05T19:21:38Z</time>
      </trkpt>
      <trkpt lat="44.43125" lon="3.92668">
        <ele>796</ele>
        <time>2017-03-05T19:23:38Z</time>
      </trkpt>
      <trkpt lat="44.4313" lon="3.92665">
        <ele>797</ele>
        <time>2017-03-05T19:25:38Z</time>
      </trkpt>
      <trkpt lat="44.43134" lon="3.92663">
        <ele>797</ele>
        <time>2017-03-05T19:27:38Z</time>
      </trkpt>
      <trkpt lat="44.43142" lon="3.9266">
        <ele>798</ele>
        <time>2017-03-05T19:29:38Z</time>
      </trkpt>
      <trkpt lat="44.43148" lon="3.92659">
        <ele>798</ele>
        <time>2017-03-05T19:31:38Z</time>
      </trkpt>
      <trkpt lat="44.43153" lon="3.92659">
        <ele>798</ele>
        <time>2017-03-05T19:33:38Z</time>
      </trkpt>
      <trkpt lat="44.43164" lon="3.9266">
        <ele>797</ele>
        <time>2017-03-05T19:35:38Z</time>
      </trkpt>
      <trkpt lat="44.4318" lon="3.92663">
        <ele>796</ele>
        <time>2017-03-05T19:37:38Z</time>
      </trkpt>
      <trkpt lat="44.43192" lon="3.92669">
        <ele>794</ele>
        <time>2017-03-05T19:39:38Z</time>
      </trkpt>
      <trkpt lat="44.43203" lon="3.92678">
        <ele>791</ele>
        <time>2017-03-05T19:41:38Z</time>
      </trkpt>
      <trkpt lat="44.43218" lon="3.92696">
        <ele>785</ele>
        <time>2017-03-05T19:43:38Z</time>
      </trkpt>
      <trkpt lat="44.43229" lon="3.92721">
        <ele>777</ele>
        <time>2017-03-05T19:45:38Z</time>
      </trkpt>
      <trkpt lat="44.43241" lon="3.92748">
        <ele>769</ele>
        <time>2017-03-05T19:47:38Z</time>
      </trkpt>
      <trkpt lat="44.43249" lon="3.92762">
        <ele>766</ele>
        <time>2017-03-05T19:49:38Z</time>
      </trkpt>
      <trkpt lat="44.4326" lon="3.92772">
        <ele>764</ele>
        <time>2017-03-05T19:51:38Z</time>
      </trkpt>
      <trkpt lat="44.43265" lon="3.92776">
        <ele>763</ele>
        <time>2017-03-05T19:53:38Z</time>
      </trkpt>
      <trkpt lat="44.43277" lon="3.92779">
        <ele>762</ele>
        <time>2017-03-05T19:55:38Z</time>
      </trkpt>
      <trkpt lat="44.43287" lon="3.92781">
        <ele>761</ele>
        <time>2017-03-05T19:57:38Z</time>
      </trkpt>
      <trkpt lat="44.4333" lon="3.92786">
        <ele>759</ele>
        <time>2017-03-05T19:59:38Z</time>
      </trkpt>
      <trkpt lat="44.4338" lon="3.92789">
        <ele>756</ele>
        <time>2017-03-05T20:01:38Z</time>
      </trkpt>
      <trkpt lat="44.43417" lon="3.92799">
        <ele>751</ele>
        <time>2017-03-05T20:03:38Z</time>
      </trkpt>
      <trkpt lat="44.43417" lon="3.92799">
        <ele>751</ele>
        <time>2017-03-05T20:05:38Z</time>
      </trkpt>
      <trkpt lat="44.43377" lon="3.92809">
        <ele>748</ele>
        <time>2017-03-05T20:07:38Z</time>
      </trkpt>
      <trkpt lat="44.43373" lon="3.92812">
        <ele>747</ele>
        <time>2017-03-05T20:09:38Z</time>
      </trkpt>
      <trkpt lat="44.4337" lon="3.92815">
        <ele>746</ele>
        <time>2017-03-05T20:11:38Z</time>
      </trkpt>
      <trkpt lat="44.4337" lon="3.92817">
        <ele>746</ele>
        <time>2017-03-05T20:13:38Z</time>
      </trkpt>
      <trkpt lat="44.43371" lon="3.92819">
        <ele>745</ele>
        <time>2017-03-05T20:15:38Z</time>
      </trkpt>
      <trkpt lat="44.43373" lon="3.92821">
        <ele>744</ele>
        <time>2017-03-05T20:17:38Z</time>
      </trkpt>
      <trkpt lat="44.43377" lon="3.92822">
        <ele>744</ele>
        <time>2017-03-05T20:19:38Z</time>
      </trkpt>
      <trkpt lat="44.43388" lon="3.92825">
        <ele>742</ele>
        <time>2017-03-05T20:21:38Z</time>
      </trkpt>
      <trkpt lat="44.43403" lon="3.92828">
        <ele>741</ele>
        <time>2017-03-05T20:23:38Z</time>
      </trkpt>
      <trkpt lat="44.43411" lon="3.92832">
        <ele>740</ele>
        <time>2017-03-05T20:25:38Z</time>
      </trkpt>
      <trkpt lat="44.43415" lon="3.92835">
        <ele>738</ele>
        <time>2017-03-05T20:27:38Z</time>
      </trkpt>
      <trkpt lat="44.43419" lon="3.92837">
        <ele>738</ele>
        <time>2017-03-05T20:29:38Z</time>
      </trkpt>
      <trkpt lat="44.43426" lon="3.9284">
        <ele>737</ele>
        <time>2017-03-05T20:31:38Z</time>
      </trkpt>
      <trkpt lat="44.43433" lon="3.92841">
        <ele>736</ele>
        <time>2017-03-05T20:33:38Z</time>
      </trkpt>
      <trkpt lat="44.43437" lon="3.92841">
        <ele>736</ele>
        <time>2017-03-05T20:35:38Z</time>
      </trkpt>
      <trkpt lat="44.43443" lon="3.92839">
        <ele>736</ele>
        <time>2017-03-05T20:37:38Z</time>
      </trkpt>
      <trkpt lat="44.43448" lon="3.92838">
        <ele>736</ele>
        <time>2017-03-05T20:39:38Z</time>
      </trkpt>
      <trkpt lat="44.43452" lon="3.92836">
        <ele>737</ele>
        <time>2017-03-05T20:41:38Z</time>
      </trkpt>
      <trkpt lat="44.43457" lon="3.92836">
        <ele>737</ele>
        <time>2017-03-05T20:43:38Z</time>
      </trkpt>
      <trkpt lat="44.43461" lon="3.92836">
        <ele>737</ele>
        <time>2017-03-05T20:45:38Z</time>
      </trkpt>
      <trkpt lat="44.43466" lon="3.92836">
        <ele>736</ele>
        <time>2017-03-05T20:47:38Z</time>
      </trkpt>
      <trkpt lat="44.43469" lon="3.92837">
        <ele>736</ele>
        <time>2017-03-05T20:49:38Z</time>
      </trkpt>
      <trkpt lat="44.43472" lon="3.92838">
        <ele>736</ele>
        <time>2017-03-05T20:51:38Z</time>
      </trkpt>
      <trkpt lat="44.43473" lon="3.92839">
        <ele>735</ele>
        <time>2017-03-05T20:53:38Z</time>
      </trkpt>
      <trkpt lat="44.43473" lon="3.9284">
        <ele>735</ele>
        <time>2017-03-05T20:55:38Z</time>
      </trkpt>
      <trkpt lat="44.43473" lon="3.92842">
        <ele>734</ele>
        <time>2017-03-05T20:57:38Z</time>
      </trkpt>
      <trkpt lat="44.43471" lon="3.92846">
        <ele>733</ele>
        <time>2017-03-05T20:59:38Z</time>
      </trkpt>
      <trkpt lat="44.43468" lon="3.9285">
        <ele>732</ele>
        <time>2017-03-05T21:01:38Z</time>
      </trkpt>
      <trkpt lat="44.43441" lon="3.92884">
        <ele>722</ele>
        <time>2017-03-05T21:03:38Z</time>
      </trkpt>
      <trkpt lat="44.43439" lon="3.92888">
        <ele>721</ele>
        <time>2017-03-05T21:05:38Z</time>
      </trkpt>
      <trkpt lat="44.43436" lon="3.92891">
        <ele>720</ele>
        <time>2017-03-05T21:07:38Z</time>
      </trkpt>
      <trkpt lat="44.43432" lon="3.92895">
        <ele>719</ele>
        <time>2017-03-05T21:09:38Z</time>
      </trkpt>
      <trkpt lat="44.4343" lon="3.92897">
        <ele>719</ele>
        <time>2017-03-05T21:11:38Z</time>
      </trkpt>
      <trkpt lat="44.43426" lon="3.92899">
        <ele>718</ele>
        <time>2017-03-05T21:13:38Z</time>
      </trkpt>
      <trkpt lat="44.43422" lon="3.92901">
        <ele>718</ele>
        <time>2017-03-05T21:15:38Z</time>
      </trkpt>
      <trkpt lat="44.43418" lon="3.92902">
        <ele>718</ele>
        <time>2017-03-05T21:17:38Z</time>
      </trkpt>
      <trkpt lat="44.43416" lon="3.92903">
        <ele>717</ele>
        <time>2017-03-05T21:19:38Z</time>
      </trkpt>
      <trkpt lat="44.43415" lon="3.92906">
        <ele>716</ele>
        <time>2017-03-05T21:21:38Z</time>
      </trkpt>
      <trkpt lat="44.43415" lon="3.92909">
        <ele>715</ele>
        <time>2017-03-05T21:23:38Z</time>
      </trkpt>
      <trkpt lat="44.43417" lon="3.92912">
        <ele>714</ele>
        <time>2017-03-05T21:25:38Z</time>
      </trkpt>
      <trkpt lat="44.4342" lon="3.92914">
        <ele>714</ele>
        <time>2017-03-05T21:27:38Z</time>
      </trkpt>
      <trkpt lat="44.43424" lon="3.92914">
        <ele>714</ele>
        <time>2017-03-05T21:29:38Z</time>
      </trkpt>
      <trkpt lat="44.43432" lon="3.92915">
        <ele>713</ele>
        <time>2017-03-05T21:31:38Z</time>
      </trkpt>
      <trkpt lat="44.43443" lon="3.92915">
        <ele>713</ele>
        <time>2017-03-05T21:33:38Z</time>
      </trkpt>
      <trkpt lat="44.43458" lon="3.92917">
        <ele>711</ele>
        <time>2017-03-05T21:35:38Z</time>
      </trkpt>
      <trkpt lat="44.4347" lon="3.92916">
        <ele>711</ele>
        <time>2017-03-05T21:37:38Z</time>
      </trkpt>
      <trkpt lat="44.43475" lon="3.92915">
        <ele>711</ele>
        <time>2017-03-05T21:39:38Z</time>
      </trkpt>
      <trkpt lat="44.4348" lon="3.92912">
        <ele>712</ele>
        <time>2017-03-05T21:41:38Z</time>
      </trkpt>
      <trkpt lat="44.4348" lon="3.92912">
        <ele>712</ele>
        <time>2017-03-05T21:43:38Z</time>
      </trkpt>
      <trkpt lat="44.43462" lon="3.92936">
        <ele>706</ele>
        <time>2017-03-05T21:45:38Z</time>
      </trkpt>
      <trkpt lat="44.43434" lon="3.92955">
        <ele>701</ele>
        <time>2017-03-05T21:47:38Z</time>
      </trkpt>
      <trkpt lat="44.43419" lon="3.92961">
        <ele>700</ele>
        <time>2017-03-05T21:49:38Z</time>
      </trkpt>
      <trkpt lat="44.43408" lon="3.92953">
        <ele>702</ele>
        <time>2017-03-05T21:51:38Z</time>
      </trkpt>
      <trkpt lat="44.43393" lon="3.92937">
        <ele>706</ele>
        <time>2017-03-05T21:53:38Z</time>
      </trkpt>
      <trkpt lat="44.43378" lon="3.92937">
        <ele>706</ele>
        <time>2017-03-05T21:55:38Z</time>
      </trkpt>
      <trkpt lat="44.43365" lon="3.92954">
        <ele>700</ele>
        <time>2017-03-05T21:57:38Z</time>
      </trkpt>
      <trkpt lat="44.43353" lon="3.92979">
        <ele>693</ele>
        <time>2017-03-05T21:59:38Z</time>
      </trkpt>
      <trkpt lat="44.43352" lon="3.93035">
        <ele>679</ele>
        <time>2017-03-05T22:01:38Z</time>
      </trkpt>
      <trkpt lat="44.4335" lon="3.93047">
        <ele>676</ele>
        <time>2017-03-05T22:03:38Z</time>
      </trkpt>
      <trkpt lat="44.43349" lon="3.93053">
        <ele>675</ele>
        <time>2017-03-05T22:05:38Z</time>
      </trkpt>
      <trkpt lat="44.43348" lon="3.93062">
        <ele>672</ele>
        <time>2017-03-05T22:07:38Z</time>
      </trkpt>
      <trkpt lat="44.43348" lon="3.9307">
        <ele>670</ele>
        <time>2017-03-05T22:09:38Z</time>
      </trkpt>
      <trkpt lat="44.43348" lon="3.93081">
        <ele>668</ele>
        <time>2017-03-05T22:11:38Z</time>
      </trkpt>
      <trkpt lat="44.43347" lon="3.93093">
        <ele>666</ele>
        <time>2017-03-05T22:13:38Z</time>
      </trkpt>
      <trkpt lat="44.43348" lon="3.93094">
        <ele>665</ele>
        <time>2017-03-05T22:15:38Z</time>
      </trkpt>
      <trkpt lat="44.43348" lon="3.93096">
        <ele>665</ele>
        <time>2017-03-05T22:17:38Z</time>
      </trkpt>
      <trkpt lat="44.43348" lon="3.93098">
        <ele>665</ele>
        <time>2017-03-05T22:19:38Z</time>
      </trkpt>
      <trkpt lat="44.43348" lon="3.93101">
        <ele>664</ele>
        <time>2017-03-05T22:21:38Z</time>
      </trkpt>
      <trkpt lat="44.43349" lon="3.93103">
        <ele>664</ele>
        <time>2017-03-05T22:23:38Z</time>
      </trkpt>
      <trkpt lat="44.43349" lon="3.93106">
        <ele>663</ele>
        <time>2017-03-05T22:25:38Z</time>
      </trkpt>
      <trkpt lat="44.43349" lon="3.93109">
        <ele>663</ele>
        <time>2017-03-05T22:27:38Z</time>
      </trkpt>
      <trkpt lat="44.43349" lon="3.93113">
        <ele>662</ele>
        <time>2017-03-05T22:29:38Z</time>
      </trkpt>
      <trkpt lat="44.43349" lon="3.93116">
        <ele>661</ele>
        <time>2017-03-05T22:31:38Z</time>
      </trkpt>
      <trkpt lat="44.43349" lon="3.93119">
        <ele>661</ele>
        <time>2017-03-05T22:33:38Z</time>
      </trkpt>
      <trkpt lat="44.4335" lon="3.93121">
        <ele>660</ele>
        <time>2017-03-05T22:35:38Z</time>
      </trkpt>
      <trkpt lat="44.4335" lon="3.93123">
        <ele>660</ele>
        <time>2017-03-05T22:37:38Z</time>
      </trkpt>
      <trkpt lat="44.4335" lon="3.93126">
        <ele>659</ele>
        <time>2017-03-05T22:39:38Z</time>
      </trkpt>
      <trkpt lat="44.4335" lon="3.93129">
        <ele>659</ele>
        <time>2017-03-05T22:41:38Z</time>
      </trkpt>
      <trkpt lat="44.4335" lon="3.93132">
        <ele>658</ele>
        <time>2017-03-05T22:43:38Z</time>
      </trkpt>
      <trkpt lat="44.4335" lon="3.93135">
        <ele>658</ele>
        <time>2017-03-05T22:45:38Z</time>
      </trkpt>
      <trkpt lat="44.4335" lon="3.93138">
        <ele>657</ele>
        <time>2017-03-05T22:47:38Z</time>
      </trkpt>
      <trkpt lat="44.43349" lon="3.93141">
        <ele>657</ele>
        <time>2017-03-05T22:49:38Z</time>
      </trkpt>
      <trkpt lat="44.43349" lon="3.93144">
        <ele>656</ele>
        <time>2017-03-05T22:51:38Z</time>
      </trkpt>
      <trkpt lat="44.43348" lon="3.93147">
        <ele>656</ele>
        <time>2017-03-05T22:53:38Z</time>
      </trkpt>
      <trkpt lat="44.43348" lon="3.9315">
        <ele>655</ele>
        <time>2017-03-05T22:55:38Z</time>
      </trkpt>
      <trkpt lat="44.43347" lon="3.93154">
        <ele>654</ele>
        <time>2017-03-05T22:57:38Z</time>
      </trkpt>
      <trkpt lat="44.43347" lon="3.93157">
        <ele>654</ele>
        <time>2017-03-05T22:59:38Z</time>
      </trkpt>
      <trkpt lat="44.43347" lon="3.93159">
        <ele>654</ele>
        <time>2017-03-05T23:01:38Z</time>
      </trkpt>
      <trkpt lat="44.43346" lon="3.93163">
        <ele>653</ele>
        <time>2017-03-05T23:03:38Z</time>
      </trkpt>
      <trkpt lat="44.43346" lon="3.93168">
        <ele>652</ele>
        <time>2017-03-05T23:05:38Z</time>
      </trkpt>
      <trkpt lat="44.43346" lon="3.93168">
        <ele>652</ele>
        <time>2017-03-05T23:07:38Z</time>
      </trkpt>
      <trkpt lat="44.43344" lon="3.93174">
        <ele>651</ele>
        <time>2017-03-05T23:09:38Z</time>
      </trkpt>
      <trkpt lat="44.43342" lon="3.93179">
        <ele>651</ele>
        <time>2017-03-05T23:11:38Z</time>
      </trkpt>
      <trkpt lat="44.4334" lon="3.93186">
        <ele>650</ele>
        <time>2017-03-05T23:13:38Z</time>
      </trkpt>
      <trkpt lat="44.4334" lon="3.93192">
        <ele>649</ele>
        <time>2017-03-05T23:15:38Z</time>
      </trkpt>
      <trkpt lat="44.43339" lon="3.93197">
        <ele>648</ele>
        <time>2017-03-05T23:17:38Z</time>
      </trkpt>
      <trkpt lat="44.43339" lon="3.93203">
        <ele>647</ele>
        <time>2017-03-05T23:19:38Z</time>
      </trkpt>
      <trkpt lat="44.43338" lon="3.93209">
        <ele>646</ele>
        <time>2017-03-05T23:21:38Z</time>
      </trkpt>
      <trkpt lat="44.43338" lon="3.93214">
        <ele>645</ele>
        <time>2017-03-05T23:23:38Z</time>
      </trkpt>
      <trkpt lat="44.43337" lon="3.9322">
        <ele>645</ele>
        <time>2017-03-05T23:25:38Z</time>
      </trkpt>
      <trkpt lat="44.43335" lon="3.93224">
        <ele>644</ele>
        <time>2017-03-05T23:27:38Z</time>
      </trkpt>
      <trkpt lat="44.43334" lon="3.93228">
        <ele>643</ele>
        <time>2017-03-05T23:29:38Z</time>
      </trkpt>
      <trkpt lat="44.43331" lon="3.93232">
        <ele>643</ele>
        <time>2017-03-05T23:31:38Z</time>
      </trkpt>
      <trkpt lat="44.43329" lon="3.93235">
        <ele>642</ele>
        <time>2017-03-05T23:33:38Z</time>
      </trkpt>
      <trkpt lat="44.43327" lon="3.93238">
        <ele>642</ele>
        <time>2017-03-05T23:35:38Z</time>
      </trkpt>
      <trkpt lat="44.43325" lon="3.9324">
        <ele>642</ele>
        <time>2017-03-05T23:37:38Z</time>
      </trkpt>
      <trkpt lat="44.43323" lon="3.93243">
        <ele>641</ele>
        <time>2017-03-05T23:39:38Z</time>
      </trkpt>
      <trkpt lat="44.43321" lon="3.93245">
        <ele>641</ele>
        <time>2017-03-05T23:41:38Z</time>
      </trkpt>
      <trkpt lat="44.43318" lon="3.93247">
        <ele>640</ele>
        <time>2017-03-05T23:43:38Z</time>
      </trkpt>
      <trkpt lat="44.43315" lon="3.93248">
        <ele>640</ele>
        <time>2017-03-05T23:45:38Z</time>
      </trkpt>
      <trkpt lat="44.43311" lon="3.93249">
        <ele>640</ele>
        <time>2017-03-05T23:47:38Z</time>
      </trkpt>
      <trkpt lat="44.43308" lon="3.93251">
        <ele>640</ele>
        <time>2017-03-05T23:49:38Z</time>
      </trkpt>
      <trkpt lat="44.43304" lon="3.93252">
        <ele>640</ele>
        <time>2017-03-05T23:51:38Z</time>
      </trkpt>
      <trkpt lat="44.433" lon="3.93252">
        <ele>640</ele>
        <time>2017-03-05T23:53:38Z</time>
      </trkpt>
      <trkpt lat="44.43294" lon="3.9325">
        <ele>640</ele>
        <time>2017-03-05T23:55:38Z</time>
      </trkpt>
      <trkpt lat="44.43284" lon="3.93248">
        <ele>640</ele>
        <time>2017-03-05T23:57:38Z</time>
      </trkpt>
      <trkpt lat="44.43281" lon="3.93248">
        <ele>640</ele>
        <time>2017-03-05T23:59:38Z</time>
      </trkpt>
      <trkpt lat="44.43278" lon="3.93248">
        <ele>640</ele>
        <time>2017-03-06T00:01:38Z</time>
      </trkpt>
      <trkpt lat="44.43274" lon="3.93249">
        <ele>640</ele>
        <time>2017-03-06T00:03:38Z</time>
      </trkpt>
      <trkpt lat="44.43274" lon="3.93249">
        <ele>640</ele>
        <time>2017-03-06T00:05:38Z</time>
      </trkpt>
      <trkpt lat="44.43271" lon="3.93251">
        <ele>640</ele>
        <time>2017-03-06T00:07:38Z</time>
      </trkpt>
      <trkpt lat="44.43269" lon="3.93253">
        <ele>640</ele>
        <time>2017-03-06T00:09:38Z</time>
      </trkpt>
      <trkpt lat="44.43268" lon="3.93255">
        <ele>639</ele>
        <time>2017-03-06T00:11:38Z</time>
      </trkpt>
      <trkpt lat="44.43265" lon="3.93258">
        <ele>639</ele>
        <time>2017-03-06T00:13:38Z</time>
      </trkpt>
      <trkpt lat="44.43263" lon="3.93262">
        <ele>639</ele>
        <time>2017-03-06T00:15:38Z</time>
      </trkpt>
      <trkpt lat="44.43262" lon="3.93267">
        <ele>638</ele>
        <time>2017-03-06T00:17:38Z</time>
      </trkpt>
      <trkpt lat="44.43261" lon="3.93271">
        <ele>638</ele>
        <time>2017-03-06T00:19:38Z</time>
      </trkpt>
      <trkpt lat="44.4326" lon="3.93275">
        <ele>637</ele>
        <time>2017-03-06T00:21:38Z</time>
      </trkpt>
      <trkpt lat="44.4326" lon="3.93282">
        <ele>637</ele>
        <time>2017-03-06T00:23:38Z</time>
      </trkpt>
      <trkpt lat="44.43261" lon="3.93287">
        <ele>636</ele>
        <time>2017-03-06T00:25:38Z</time>
      </trkpt>
      <trkpt lat="44.43262" lon="3.9329">
        <ele>636</ele>
        <time>2017-03-06T00:27:38Z</time>
      </trkpt>
      <trkpt lat="44.43264" lon="3.93294">
        <ele>635</ele>
        <time>2017-03-06T00:29:38Z</time>
      </trkpt>
      <trkpt lat="44.43266" lon="3.93299">
        <ele>635</ele>
        <time>2017-03-06T00:31:38Z</time>
      </trkpt>
      <trkpt lat="44.43271" lon="3.93307">
        <ele>634</ele>
        <time>2017-03-06T00:33:38Z</time>
      </trkpt>
      <trkpt lat="44.43271" lon="3.93307">
        <ele>634</ele>
        <time>2017-03-06T00:35:38Z</time>
      </trkpt>
      <trkpt lat="44.43281" lon="3.93309">
        <ele>633</ele>
        <time>2017-03-06T00:37:38Z</time>
      </trkpt>
      <trkpt lat="44.4329" lon="3.93313">
        <ele>633</ele>
        <time>2017-03-06T00:39:38Z</time>
      </trkpt>
      <trkpt lat="44.43316" lon="3.93324">
        <ele>630</ele>
        <time>2017-03-06T00:41:38Z</time>
      </trkpt>
      <trkpt lat="44.43336" lon="3.9333">
        <ele>628</ele>
        <time>2017-03-06T00:43:38Z</time>
      </trkpt>
      <trkpt lat="44.4336" lon="3.93337">
        <ele>626</ele>
        <time>2017-03-06T00:45:38Z</time>
      </trkpt>
      <trkpt lat="44.43375" lon="3.9334">
        <ele>625</ele>
        <time>2017-03-06T00:47:38Z</time>
      </trkpt>
      <trkpt lat="44.43381" lon="3.93342">
        <ele>625</ele>
        <time>2017-03-06T00:49:38Z</time>
      </trkpt>
      <trkpt lat="44.43388" lon="3.93342">
        <ele>624</ele>
        <time>2017-03-06T00:51:38Z</time>
      </trkpt>
      <trkpt lat="44.43393" lon="3.93342">
        <ele>624</ele>
        <time>2017-03-06T00:53:38Z</time>
      </trkpt>
      <trkpt lat="44.43413" lon="3.93339">
        <ele>622</ele>
        <time>2017-03-06T00:55:38Z</time>
      </trkpt>
      <trkpt lat="44.43446" lon="3.93332">
        <ele>619</ele>
        <time>2017-03-06T00:57:38Z</time>
      </trkpt>
      <trkpt lat="44.43482" lon="3.93325">
        <ele>617</ele>
        <time>2017-03-06T00:59:38Z</time>
      </trkpt>
      <trkpt lat="44.43503" lon="3.93322">
        <ele>616</ele>
        <time>2017-03-06T01:01:38Z</time>
      </trkpt>
      <trkpt lat="44.43526" lon="3.9332">
        <ele>614</ele>
        <time>2017-03-06T01:03:38Z</time>
      </trkpt>
      <trkpt lat="44.4354" lon="3.9332">
        <ele>613</ele>
        <time>2017-03-06T01:05:38Z</time>
      </trkpt>
      <trkpt lat="44.43573" lon="3.93321">
        <ele>611</ele>
        <time>2017-03-06T01:07:38Z</time>
      </trkpt>
      <trkpt lat="44.436" lon="3.93321">
        <ele>609</ele>
        <time>2017-03-06T01:09:38Z</time>
      </trkpt>
      <trkpt lat="44.4361" lon="3.93322">
        <ele>609</ele>
        <time>2017-03-06T01:11:38Z</time>
      </trkpt>
      <trkpt lat="44.43612" lon="3.93322">
        <ele>609</ele>
        <time>2017-03-06T01:13:38Z</time>
      </trkpt>
      <trkpt lat="44.43621" lon="3.93322">
        <ele>608</ele>
        <time>2017-03-06T01:15:38Z</time>
      </trkpt>
      <trkpt lat="44.43628" lon="3.93322">
        <ele>608</ele>
        <time>2017-03-06T01:17:38Z</time>
      </trkpt>
      <trkpt lat="44.43644" lon="3.93324">
        <ele>607</ele>
        <time>2017-03-06T01:19:38Z</time>
      </trkpt>
      <trkpt lat="44.43656" lon="3.93324">
        <ele>606</ele>
        <time>2017-03-06T01:21:38Z</time>
      </trkpt>
      <trkpt lat="44.43678" lon="3.93325">
        <ele>605</ele>
        <time>2017-03-06T01:23:38Z</time>
      </trkpt>
      <trkpt lat="44.43707" lon="3.93326">
        <ele>604</ele>
        <time>2017-03-06T01:25:38Z</time>
      </trkpt>
      <trkpt lat="44.43725" lon="3.93327">
        <ele>603</ele>
        <time>2017-03-06T01:27:38Z</time>
      </trkpt>
      <trkpt lat="44.43746" lon="3.93326">
        <ele>602</ele>
        <time>2017-03-06T01:29:38Z</time>
      </trkpt>
      <trkpt lat="44.43755" lon="3.93325">
        <ele>601</ele>
        <time>2017-03-06T01:31:38Z</time>
      </trkpt>
      <trkpt lat="44.43762" lon="3.93323">
        <ele>601</ele>
        <time>2017-03-06T01:33:38Z</time>
      </trkpt>
      <trkpt lat="44.43764" lon="3.93323">
        <ele>601</ele>
        <time>2017-03-06T01:35:38Z</time>
      </trkpt>
      <trkpt lat="44.43769" lon="3.93321">
        <ele>601</ele>
        <time>2017-03-06T01:37:38Z</time>
      </trkpt>
      <trkpt lat="44.43772" lon="3.93319">
        <ele>600</ele>
        <time>2017-03-06T01:39:38Z</time>
      </trkpt>
      <trkpt lat="44.43777" lon="3.93315">
        <ele>600</ele>
        <time>2017-03-06T01:41:38Z</time>
      </trkpt>
      <trkpt lat="44.43782" lon="3.93309">
        <ele>600</ele>
        <time>2017-03-06T01:43:38Z</time>
      </trkpt>
      <trkpt lat="44.43787" lon="3.93298">
        <ele>600</ele>
        <time>2017-03-06T01:45:38Z</time>
      </trkpt>
      <trkpt lat="44.43792" lon="3.93287">
        <ele>600</ele>
        <time>2017-03-06T01:47:38Z</time>
      </trkpt>
      <trkpt lat="44.43801" lon="3.93272">
        <ele>599</ele>
        <time>2017-03-06T01:49:38Z</time>
      </trkpt>
      <trkpt lat="44.43812" lon="3.93258">
        <ele>598</ele>
        <time>2017-03-06T01:51:38Z</time>
      </trkpt>
      <trkpt lat="44.43817" lon="3.93251">
        <ele>597</ele>
        <time>2017-03-06T01:53:38Z</time>
      </trkpt>
      <trkpt lat="44.4383" lon="3.93242">
        <ele>596</ele>
        <time>2017-03-06T01:55:38Z</time>
      </trkpt>
      <trkpt lat="44.4385" lon="3.93233">
        <ele>596</ele>
        <time>2017-03-06T01:57:38Z</time>
      </trkpt>
      <trkpt lat="44.43858" lon="3.93228">
        <ele>596</ele>
        <time>2017-03-06T01:59:38Z</time>
      </trkpt>
      <trkpt lat="44.43867" lon="3.93224">
        <ele>595</ele>
        <time>2017-03-06T02:01:38Z</time>
      </trkpt>
      <trkpt lat="44.43871" lon="3.93223">
        <ele>595</ele>
        <time>2017-03-06T02:03:38Z</time>
      </trkpt>
      <trkpt lat="44.43876" lon="3.93222">
        <ele>595</ele>
        <time>2017-03-06T02:05:38Z</time>
      </trkpt>
      <trkpt lat="44.4388" lon="3.93221">
        <ele>595</ele>
        <time>2017-03-06T02:07:38Z</time>
      </trkpt>
      <trkpt lat="44.4389" lon="3.9322">
        <ele>594</ele>
        <time>2017-03-06T02:09:38Z</time>
      </trkpt>
      <trkpt lat="44.43911" lon="3.93219">
        <ele>592</ele>
        <time>2017-03-06T02:11:38Z</time>
      </trkpt>
      <trkpt lat="44.43913" lon="3.93219">
        <ele>592</ele>
        <time>2017-03-06T02:13:38Z</time>
      </trkpt>
      <trkpt lat="44.43919" lon="3.93218">
        <ele>592</ele>
        <time>2017-03-06T02:15:38Z</time>
      </trkpt>
      <trkpt lat="44.43937" lon="3.93215">
        <ele>592</ele>
        <time>2017-03-06T02:17:38Z</time>
      </trkpt>
      <trkpt lat="44.43963" lon="3.93212">
        <ele>592</ele>
        <time>2017-03-06T02:19:38Z</time>
      </trkpt>
      <trkpt lat="44.44048" lon="3.93198">
        <ele>593</ele>
        <time>2017-03-06T02:21:38Z</time>
      </trkpt>
      <trkpt lat="44.44075" lon="3.93194">
        <ele>593</ele>
        <time>2017-03-06T02:23:38Z</time>
      </trkpt>
      <trkpt lat="44.44128" lon="3.93186">
        <ele>590</ele>
        <time>2017-03-06T02:25:38Z</time>
      </trkpt>
      <trkpt lat="44.44146" lon="3.93183">
        <ele>588</ele>
        <time>2017-03-06T02:27:38Z</time>
      </trkpt>
      <trkpt lat="44.44164" lon="3.93181">
        <ele>587</ele>
        <time>2017-03-06T02:29:38Z</time>
      </trkpt>
    </trkseg>
  </trk>
</gpx>